<?xml version="1.0" encoding="UTF-8" standalone="no" ?>
<gpx xmlns="http://www.topografix.com/GPX/1/1" xmlns:xsi="http://www.w3.org/2001/XMLSchema-instance" xsi:schemaLocation="http://www.topografix.com/GPX/1/1 http://www.topografix.com/GPX/1/1/gpx.xsd" version="1.1" creator="VisuGPX - https://www.visugpx.com">
  <metadata>
    <name>Circuit Kayak autour de l'Île d'Arz Morbihan</name>
    <desc><![CDATA[Circuit Kayak facile autour de l'île d'Arz dans le Morbihan sens horaire. Départ du petit port de Pen Er Men en Arradon. Embarquement facile et Parking pour stationner.]]></desc>
  </metadata>
  <trk>
    <name><![CDATA[Circuit Kayak autour de l'Île d'Arz Morbihan_1]]></name>
    <trkseg>
      <trkpt lat="47.61947" lon="-2.84413">
        <ele>10.3</ele>
        <time>2018-04-14T06:43:03Z</time>
      </trkpt>
      <trkpt lat="47.61947" lon="-2.84413">
        <ele>54</ele>
        <time>2018-04-14T06:43:06Z</time>
      </trkpt>
      <trkpt lat="47.61936" lon="-2.84414">
        <ele>57</ele>
        <time>2018-04-14T06:44:15Z</time>
      </trkpt>
      <trkpt lat="47.61932" lon="-2.84413">
        <ele>56</ele>
        <time>2018-04-14T06:44:21Z</time>
      </trkpt>
      <trkpt lat="47.61928" lon="-2.84411">
        <ele>56</ele>
        <time>2018-04-14T06:44:25Z</time>
      </trkpt>
      <trkpt lat="47.61926" lon="-2.84405">
        <ele>56</ele>
        <time>2018-04-14T06:44:31Z</time>
      </trkpt>
      <trkpt lat="47.61926" lon="-2.84405">
        <ele>10.7</ele>
        <time>2018-04-14T06:44:39Z</time>
      </trkpt>
      <trkpt lat="47.61926" lon="-2.84405">
        <ele>10.7</ele>
        <time>2018-04-14T06:46:43Z</time>
      </trkpt>
      <trkpt lat="47.61899" lon="-2.84428">
        <ele>54</ele>
        <time>2018-04-14T06:46:43Z</time>
      </trkpt>
      <trkpt lat="47.61894" lon="-2.84428">
        <ele>54</ele>
        <time>2018-04-14T06:46:47Z</time>
      </trkpt>
      <trkpt lat="47.61889" lon="-2.84424">
        <ele>54</ele>
        <time>2018-04-14T06:46:52Z</time>
      </trkpt>
      <trkpt lat="47.61886" lon="-2.84422">
        <ele>55</ele>
        <time>2018-04-14T06:46:54Z</time>
      </trkpt>
      <trkpt lat="47.6188" lon="-2.84421">
        <ele>56</ele>
        <time>2018-04-14T06:46:58Z</time>
      </trkpt>
      <trkpt lat="47.61875" lon="-2.84419">
        <ele>58</ele>
        <time>2018-04-14T06:47:02Z</time>
      </trkpt>
      <trkpt lat="47.61871" lon="-2.84416">
        <ele>60</ele>
        <time>2018-04-14T06:47:05Z</time>
      </trkpt>
      <trkpt lat="47.61865" lon="-2.84419">
        <ele>61</ele>
        <time>2018-04-14T06:47:09Z</time>
      </trkpt>
      <trkpt lat="47.61858" lon="-2.8442">
        <ele>61</ele>
        <time>2018-04-14T06:47:12Z</time>
      </trkpt>
      <trkpt lat="47.61853" lon="-2.84422">
        <ele>63</ele>
        <time>2018-04-14T06:47:14Z</time>
      </trkpt>
      <trkpt lat="47.61847" lon="-2.84425">
        <ele>65</ele>
        <time>2018-04-14T06:47:17Z</time>
      </trkpt>
      <trkpt lat="47.61844" lon="-2.8443">
        <ele>65</ele>
        <time>2018-04-14T06:47:21Z</time>
      </trkpt>
      <trkpt lat="47.61841" lon="-2.84432">
        <ele>66</ele>
        <time>2018-04-14T06:47:23Z</time>
      </trkpt>
      <trkpt lat="47.61839" lon="-2.84436">
        <ele>67</ele>
        <time>2018-04-14T06:47:25Z</time>
      </trkpt>
      <trkpt lat="47.61836" lon="-2.84442">
        <ele>64</ele>
        <time>2018-04-14T06:47:29Z</time>
      </trkpt>
      <trkpt lat="47.61832" lon="-2.84449">
        <ele>64</ele>
        <time>2018-04-14T06:47:33Z</time>
      </trkpt>
      <trkpt lat="47.6183" lon="-2.84454">
        <ele>61</ele>
        <time>2018-04-14T06:47:38Z</time>
      </trkpt>
      <trkpt lat="47.6183" lon="-2.84454">
        <ele>3</ele>
        <time>2018-04-14T06:47:46Z</time>
      </trkpt>
      <trkpt lat="47.6183" lon="-2.84454">
        <ele>3</ele>
        <time>2018-04-14T06:51:49Z</time>
      </trkpt>
      <trkpt lat="47.61811" lon="-2.84467">
        <ele>56</ele>
        <time>2018-04-14T06:51:49Z</time>
      </trkpt>
      <trkpt lat="47.61811" lon="-2.84467">
        <ele>56</ele>
        <time>2018-04-14T06:51:56Z</time>
      </trkpt>
      <trkpt lat="47.61811" lon="-2.84467">
        <ele>3.7</ele>
        <time>2018-04-14T06:51:56Z</time>
      </trkpt>
      <trkpt lat="47.61811" lon="-2.84467">
        <ele>3.7</ele>
        <time>2018-04-14T06:53:07Z</time>
      </trkpt>
      <trkpt lat="47.61788" lon="-2.84448">
        <ele>58</ele>
        <time>2018-04-14T06:53:07Z</time>
      </trkpt>
      <trkpt lat="47.61788" lon="-2.84448">
        <ele>58</ele>
        <time>2018-04-14T06:53:14Z</time>
      </trkpt>
      <trkpt lat="47.61788" lon="-2.84448">
        <ele>3.9</ele>
        <time>2018-04-14T06:53:14Z</time>
      </trkpt>
      <trkpt lat="47.61788" lon="-2.84448">
        <ele>3.9</ele>
        <time>2018-04-14T06:56:11Z</time>
      </trkpt>
      <trkpt lat="47.61785" lon="-2.84477">
        <ele>49</ele>
        <time>2018-04-14T06:56:11Z</time>
      </trkpt>
      <trkpt lat="47.61781" lon="-2.84483">
        <ele>49</ele>
        <time>2018-04-14T06:56:14Z</time>
      </trkpt>
      <trkpt lat="47.61778" lon="-2.84486">
        <ele>48</ele>
        <time>2018-04-14T06:56:16Z</time>
      </trkpt>
      <trkpt lat="47.61774" lon="-2.84491">
        <ele>49</ele>
        <time>2018-04-14T06:56:19Z</time>
      </trkpt>
      <trkpt lat="47.61771" lon="-2.84494">
        <ele>49</ele>
        <time>2018-04-14T06:56:21Z</time>
      </trkpt>
      <trkpt lat="47.61766" lon="-2.84497">
        <ele>50</ele>
        <time>2018-04-14T06:56:25Z</time>
      </trkpt>
      <trkpt lat="47.61762" lon="-2.845">
        <ele>50</ele>
        <time>2018-04-14T06:56:28Z</time>
      </trkpt>
      <trkpt lat="47.61757" lon="-2.84503">
        <ele>52</ele>
        <time>2018-04-14T06:56:33Z</time>
      </trkpt>
      <trkpt lat="47.61754" lon="-2.84506">
        <ele>53</ele>
        <time>2018-04-14T06:56:37Z</time>
      </trkpt>
      <trkpt lat="47.61754" lon="-2.84506">
        <ele>1.8</ele>
        <time>2018-04-14T06:56:44Z</time>
      </trkpt>
      <trkpt lat="47.61754" lon="-2.84506">
        <ele>1.8</ele>
        <time>2018-04-14T06:57:33Z</time>
      </trkpt>
      <trkpt lat="47.61744" lon="-2.84532">
        <ele>53</ele>
        <time>2018-04-14T06:57:33Z</time>
      </trkpt>
      <trkpt lat="47.61742" lon="-2.84536">
        <ele>52</ele>
        <time>2018-04-14T06:57:36Z</time>
      </trkpt>
      <trkpt lat="47.61738" lon="-2.8454">
        <ele>54</ele>
        <time>2018-04-14T06:57:41Z</time>
      </trkpt>
      <trkpt lat="47.61734" lon="-2.84542">
        <ele>54</ele>
        <time>2018-04-14T06:57:47Z</time>
      </trkpt>
      <trkpt lat="47.61734" lon="-2.84542">
        <time>2018-04-14T06:57:55Z</time>
      </trkpt>
      <trkpt lat="47.61734" lon="-2.84542">
        <time>2018-04-14T06:58:24Z</time>
      </trkpt>
      <trkpt lat="47.61711" lon="-2.84536">
        <ele>58</ele>
        <time>2018-04-14T06:58:24Z</time>
      </trkpt>
      <trkpt lat="47.61713" lon="-2.84528">
        <ele>58</ele>
        <time>2018-04-14T06:58:28Z</time>
      </trkpt>
      <trkpt lat="47.61713" lon="-2.8452">
        <ele>58</ele>
        <time>2018-04-14T06:58:31Z</time>
      </trkpt>
      <trkpt lat="47.61715" lon="-2.84513">
        <ele>57</ele>
        <time>2018-04-14T06:58:35Z</time>
      </trkpt>
      <trkpt lat="47.61716" lon="-2.84506">
        <ele>57</ele>
        <time>2018-04-14T06:58:38Z</time>
      </trkpt>
      <trkpt lat="47.61718" lon="-2.84499">
        <ele>57</ele>
        <time>2018-04-14T06:58:41Z</time>
      </trkpt>
      <trkpt lat="47.61721" lon="-2.84492">
        <ele>56</ele>
        <time>2018-04-14T06:58:44Z</time>
      </trkpt>
      <trkpt lat="47.61722" lon="-2.84488">
        <ele>55</ele>
        <time>2018-04-14T06:58:46Z</time>
      </trkpt>
      <trkpt lat="47.61726" lon="-2.84484">
        <ele>53</ele>
        <time>2018-04-14T06:58:49Z</time>
      </trkpt>
      <trkpt lat="47.61728" lon="-2.84478">
        <ele>53</ele>
        <time>2018-04-14T06:58:52Z</time>
      </trkpt>
      <trkpt lat="47.61729" lon="-2.84471">
        <ele>54</ele>
        <time>2018-04-14T06:58:55Z</time>
      </trkpt>
      <trkpt lat="47.6173" lon="-2.84464">
        <ele>54</ele>
        <time>2018-04-14T06:58:58Z</time>
      </trkpt>
      <trkpt lat="47.61732" lon="-2.84457">
        <ele>56</ele>
        <time>2018-04-14T06:59:02Z</time>
      </trkpt>
      <trkpt lat="47.61733" lon="-2.84453">
        <ele>55</ele>
        <time>2018-04-14T06:59:05Z</time>
      </trkpt>
      <trkpt lat="47.61737" lon="-2.84447">
        <ele>57</ele>
        <time>2018-04-14T06:59:10Z</time>
      </trkpt>
      <trkpt lat="47.6174" lon="-2.84444">
        <ele>58</ele>
        <time>2018-04-14T06:59:13Z</time>
      </trkpt>
      <trkpt lat="47.61745" lon="-2.84439">
        <ele>57</ele>
        <time>2018-04-14T06:59:17Z</time>
      </trkpt>
      <trkpt lat="47.61749" lon="-2.84437">
        <ele>58</ele>
        <time>2018-04-14T06:59:22Z</time>
      </trkpt>
      <trkpt lat="47.61749" lon="-2.84437">
        <ele>58</ele>
        <time>2018-04-14T06:59:29Z</time>
      </trkpt>
      <trkpt lat="47.61749" lon="-2.84437">
        <ele>8</ele>
        <time>2018-04-14T06:59:29Z</time>
      </trkpt>
      <trkpt lat="47.61749" lon="-2.84437">
        <ele>8</ele>
        <time>2018-04-14T06:59:47Z</time>
      </trkpt>
      <trkpt lat="47.61761" lon="-2.84429">
        <ele>53</ele>
        <time>2018-04-14T06:59:47Z</time>
      </trkpt>
      <trkpt lat="47.61761" lon="-2.84429">
        <ele>53</ele>
        <time>2018-04-14T06:59:55Z</time>
      </trkpt>
      <trkpt lat="47.61761" lon="-2.84429">
        <ele>5.6</ele>
        <time>2018-04-14T06:59:55Z</time>
      </trkpt>
      <trkpt lat="47.61761" lon="-2.84429">
        <ele>5.6</ele>
        <time>2018-04-14T07:04:05Z</time>
      </trkpt>
      <trkpt lat="47.61745" lon="-2.84405">
        <ele>54</ele>
        <time>2018-04-14T07:04:05Z</time>
      </trkpt>
      <trkpt lat="47.61741" lon="-2.84402">
        <ele>55</ele>
        <time>2018-04-14T07:04:09Z</time>
      </trkpt>
      <trkpt lat="47.61736" lon="-2.84397">
        <ele>56</ele>
        <time>2018-04-14T07:04:14Z</time>
      </trkpt>
      <trkpt lat="47.61733" lon="-2.84392">
        <ele>56</ele>
        <time>2018-04-14T07:04:18Z</time>
      </trkpt>
      <trkpt lat="47.61732" lon="-2.84389">
        <ele>56</ele>
        <time>2018-04-14T07:04:20Z</time>
      </trkpt>
      <trkpt lat="47.6173" lon="-2.84385">
        <ele>57</ele>
        <time>2018-04-14T07:04:22Z</time>
      </trkpt>
      <trkpt lat="47.61727" lon="-2.84379">
        <ele>59</ele>
        <time>2018-04-14T07:04:27Z</time>
      </trkpt>
      <trkpt lat="47.61722" lon="-2.84375">
        <ele>59</ele>
        <time>2018-04-14T07:04:30Z</time>
      </trkpt>
      <trkpt lat="47.61719" lon="-2.84372">
        <ele>59</ele>
        <time>2018-04-14T07:04:33Z</time>
      </trkpt>
      <trkpt lat="47.61716" lon="-2.84365">
        <ele>59</ele>
        <time>2018-04-14T07:04:37Z</time>
      </trkpt>
      <trkpt lat="47.61712" lon="-2.84357">
        <ele>60</ele>
        <time>2018-04-14T07:04:41Z</time>
      </trkpt>
      <trkpt lat="47.6171" lon="-2.8435">
        <ele>62</ele>
        <time>2018-04-14T07:04:44Z</time>
      </trkpt>
      <trkpt lat="47.61706" lon="-2.84342">
        <ele>62</ele>
        <time>2018-04-14T07:04:49Z</time>
      </trkpt>
      <trkpt lat="47.61701" lon="-2.84337">
        <ele>62</ele>
        <time>2018-04-14T07:04:54Z</time>
      </trkpt>
      <trkpt lat="47.61701" lon="-2.84337">
        <ele>5</ele>
        <time>2018-04-14T07:05:01Z</time>
      </trkpt>
      <trkpt lat="47.61701" lon="-2.84337">
        <ele>5</ele>
        <time>2018-04-14T07:05:07Z</time>
      </trkpt>
      <trkpt lat="47.61692" lon="-2.84331">
        <ele>57</ele>
        <time>2018-04-14T07:05:07Z</time>
      </trkpt>
      <trkpt lat="47.61692" lon="-2.84331">
        <ele>57</ele>
        <time>2018-04-14T07:05:15Z</time>
      </trkpt>
      <trkpt lat="47.61692" lon="-2.84331">
        <time>2018-04-14T07:05:15Z</time>
      </trkpt>
      <trkpt lat="47.61692" lon="-2.84331">
        <time>2018-04-14T07:05:37Z</time>
      </trkpt>
      <trkpt lat="47.61675" lon="-2.84327">
        <ele>54</ele>
        <time>2018-04-14T07:05:37Z</time>
      </trkpt>
      <trkpt lat="47.6167" lon="-2.84324">
        <ele>54</ele>
        <time>2018-04-14T07:05:40Z</time>
      </trkpt>
      <trkpt lat="47.61668" lon="-2.84318">
        <ele>55</ele>
        <time>2018-04-14T07:05:43Z</time>
      </trkpt>
      <trkpt lat="47.61666" lon="-2.84313">
        <ele>55</ele>
        <time>2018-04-14T07:05:45Z</time>
      </trkpt>
      <trkpt lat="47.61662" lon="-2.84307">
        <ele>58</ele>
        <time>2018-04-14T07:05:49Z</time>
      </trkpt>
      <trkpt lat="47.61659" lon="-2.84303">
        <ele>56</ele>
        <time>2018-04-14T07:05:51Z</time>
      </trkpt>
      <trkpt lat="47.61656" lon="-2.84299">
        <ele>55</ele>
        <time>2018-04-14T07:05:53Z</time>
      </trkpt>
      <trkpt lat="47.61652" lon="-2.84295">
        <ele>56</ele>
        <time>2018-04-14T07:05:56Z</time>
      </trkpt>
      <trkpt lat="47.61649" lon="-2.84291">
        <ele>57</ele>
        <time>2018-04-14T07:05:58Z</time>
      </trkpt>
      <trkpt lat="47.61647" lon="-2.84289">
        <ele>57</ele>
        <time>2018-04-14T07:06:00Z</time>
      </trkpt>
      <trkpt lat="47.61643" lon="-2.84283">
        <ele>59</ele>
        <time>2018-04-14T07:06:03Z</time>
      </trkpt>
      <trkpt lat="47.61641" lon="-2.84276">
        <ele>58</ele>
        <time>2018-04-14T07:06:04Z</time>
      </trkpt>
      <trkpt lat="47.61638" lon="-2.84271">
        <ele>56</ele>
        <time>2018-04-14T07:06:07Z</time>
      </trkpt>
      <trkpt lat="47.61634" lon="-2.84266">
        <ele>59</ele>
        <time>2018-04-14T07:06:11Z</time>
      </trkpt>
      <trkpt lat="47.61631" lon="-2.84263">
        <ele>58</ele>
        <time>2018-04-14T07:06:13Z</time>
      </trkpt>
      <trkpt lat="47.61628" lon="-2.84258">
        <ele>58</ele>
        <time>2018-04-14T07:06:16Z</time>
      </trkpt>
      <trkpt lat="47.61625" lon="-2.84252">
        <ele>59</ele>
        <time>2018-04-14T07:06:18Z</time>
      </trkpt>
      <trkpt lat="47.61622" lon="-2.84246">
        <ele>60</ele>
        <time>2018-04-14T07:06:20Z</time>
      </trkpt>
      <trkpt lat="47.61619" lon="-2.84241">
        <ele>60</ele>
        <time>2018-04-14T07:06:23Z</time>
      </trkpt>
      <trkpt lat="47.61615" lon="-2.84236">
        <ele>61</ele>
        <time>2018-04-14T07:06:26Z</time>
      </trkpt>
      <trkpt lat="47.61613" lon="-2.84229">
        <ele>61</ele>
        <time>2018-04-14T07:06:28Z</time>
      </trkpt>
      <trkpt lat="47.6161" lon="-2.84223">
        <ele>61</ele>
        <time>2018-04-14T07:06:31Z</time>
      </trkpt>
      <trkpt lat="47.61607" lon="-2.84216">
        <ele>61</ele>
        <time>2018-04-14T07:06:34Z</time>
      </trkpt>
      <trkpt lat="47.61605" lon="-2.84212">
        <ele>60</ele>
        <time>2018-04-14T07:06:36Z</time>
      </trkpt>
      <trkpt lat="47.61602" lon="-2.84206">
        <ele>60</ele>
        <time>2018-04-14T07:06:38Z</time>
      </trkpt>
      <trkpt lat="47.61598" lon="-2.84202">
        <ele>65</ele>
        <time>2018-04-14T07:06:41Z</time>
      </trkpt>
      <trkpt lat="47.61594" lon="-2.84195">
        <ele>66</ele>
        <time>2018-04-14T07:06:44Z</time>
      </trkpt>
      <trkpt lat="47.6159" lon="-2.84189">
        <ele>65</ele>
        <time>2018-04-14T07:06:47Z</time>
      </trkpt>
      <trkpt lat="47.61587" lon="-2.84184">
        <ele>66</ele>
        <time>2018-04-14T07:06:50Z</time>
      </trkpt>
      <trkpt lat="47.61585" lon="-2.84181">
        <ele>66</ele>
        <time>2018-04-14T07:06:51Z</time>
      </trkpt>
      <trkpt lat="47.61582" lon="-2.84177">
        <ele>64</ele>
        <time>2018-04-14T07:06:53Z</time>
      </trkpt>
      <trkpt lat="47.61579" lon="-2.84173">
        <ele>65</ele>
        <time>2018-04-14T07:06:56Z</time>
      </trkpt>
      <trkpt lat="47.61576" lon="-2.84169">
        <ele>62</ele>
        <time>2018-04-14T07:06:59Z</time>
      </trkpt>
      <trkpt lat="47.61572" lon="-2.84164">
        <ele>61</ele>
        <time>2018-04-14T07:07:02Z</time>
      </trkpt>
      <trkpt lat="47.61571" lon="-2.84157">
        <ele>61</ele>
        <time>2018-04-14T07:07:04Z</time>
      </trkpt>
      <trkpt lat="47.61568" lon="-2.84151">
        <ele>59</ele>
        <time>2018-04-14T07:07:07Z</time>
      </trkpt>
      <trkpt lat="47.61565" lon="-2.84146">
        <ele>60</ele>
        <time>2018-04-14T07:07:10Z</time>
      </trkpt>
      <trkpt lat="47.61561" lon="-2.84141">
        <ele>59</ele>
        <time>2018-04-14T07:07:14Z</time>
      </trkpt>
      <trkpt lat="47.61558" lon="-2.84139">
        <ele>59</ele>
        <time>2018-04-14T07:07:16Z</time>
      </trkpt>
      <trkpt lat="47.61554" lon="-2.84135">
        <ele>60</ele>
        <time>2018-04-14T07:07:19Z</time>
      </trkpt>
      <trkpt lat="47.61549" lon="-2.8413">
        <ele>61</ele>
        <time>2018-04-14T07:07:22Z</time>
      </trkpt>
      <trkpt lat="47.61545" lon="-2.84125">
        <ele>59</ele>
        <time>2018-04-14T07:07:25Z</time>
      </trkpt>
      <trkpt lat="47.61541" lon="-2.84122">
        <ele>59</ele>
        <time>2018-04-14T07:07:29Z</time>
      </trkpt>
      <trkpt lat="47.61539" lon="-2.84119">
        <ele>60</ele>
        <time>2018-04-14T07:07:32Z</time>
      </trkpt>
      <trkpt lat="47.61536" lon="-2.84114">
        <ele>58</ele>
        <time>2018-04-14T07:07:36Z</time>
      </trkpt>
      <trkpt lat="47.61534" lon="-2.84111">
        <ele>58</ele>
        <time>2018-04-14T07:07:40Z</time>
      </trkpt>
      <trkpt lat="47.61531" lon="-2.84106">
        <ele>59</ele>
        <time>2018-04-14T07:07:44Z</time>
      </trkpt>
      <trkpt lat="47.61527" lon="-2.84097">
        <ele>59</ele>
        <time>2018-04-14T07:07:47Z</time>
      </trkpt>
      <trkpt lat="47.61522" lon="-2.84092">
        <ele>61</ele>
        <time>2018-04-14T07:07:51Z</time>
      </trkpt>
      <trkpt lat="47.61518" lon="-2.84087">
        <ele>59</ele>
        <time>2018-04-14T07:07:53Z</time>
      </trkpt>
      <trkpt lat="47.61514" lon="-2.84084">
        <ele>62</ele>
        <time>2018-04-14T07:07:55Z</time>
      </trkpt>
      <trkpt lat="47.61508" lon="-2.84083">
        <ele>64</ele>
        <time>2018-04-14T07:07:59Z</time>
      </trkpt>
      <trkpt lat="47.61503" lon="-2.84079">
        <ele>64</ele>
        <time>2018-04-14T07:08:01Z</time>
      </trkpt>
      <trkpt lat="47.61499" lon="-2.84077">
        <ele>62</ele>
        <time>2018-04-14T07:08:04Z</time>
      </trkpt>
      <trkpt lat="47.61494" lon="-2.84074">
        <ele>63</ele>
        <time>2018-04-14T07:08:07Z</time>
      </trkpt>
      <trkpt lat="47.6149" lon="-2.84069">
        <ele>61</ele>
        <time>2018-04-14T07:08:10Z</time>
      </trkpt>
      <trkpt lat="47.61485" lon="-2.84066">
        <ele>60</ele>
        <time>2018-04-14T07:08:14Z</time>
      </trkpt>
      <trkpt lat="47.61478" lon="-2.84061">
        <ele>62</ele>
        <time>2018-04-14T07:08:17Z</time>
      </trkpt>
      <trkpt lat="47.61474" lon="-2.84056">
        <ele>61</ele>
        <time>2018-04-14T07:08:19Z</time>
      </trkpt>
      <trkpt lat="47.61469" lon="-2.84053">
        <ele>62</ele>
        <time>2018-04-14T07:08:23Z</time>
      </trkpt>
      <trkpt lat="47.61465" lon="-2.84047">
        <ele>60</ele>
        <time>2018-04-14T07:08:27Z</time>
      </trkpt>
      <trkpt lat="47.61462" lon="-2.84041">
        <ele>58</ele>
        <time>2018-04-14T07:08:29Z</time>
      </trkpt>
      <trkpt lat="47.6146" lon="-2.84036">
        <ele>60</ele>
        <time>2018-04-14T07:08:30Z</time>
      </trkpt>
      <trkpt lat="47.61455" lon="-2.84032">
        <ele>59</ele>
        <time>2018-04-14T07:08:34Z</time>
      </trkpt>
      <trkpt lat="47.61453" lon="-2.84026">
        <ele>58</ele>
        <time>2018-04-14T07:08:36Z</time>
      </trkpt>
      <trkpt lat="47.61447" lon="-2.84021">
        <ele>60</ele>
        <time>2018-04-14T07:08:39Z</time>
      </trkpt>
      <trkpt lat="47.61444" lon="-2.84019">
        <ele>64</ele>
        <time>2018-04-14T07:08:42Z</time>
      </trkpt>
      <trkpt lat="47.61439" lon="-2.84014">
        <ele>64</ele>
        <time>2018-04-14T07:08:46Z</time>
      </trkpt>
      <trkpt lat="47.61436" lon="-2.84007">
        <ele>62</ele>
        <time>2018-04-14T07:08:49Z</time>
      </trkpt>
      <trkpt lat="47.61435" lon="-2.84004">
        <ele>62</ele>
        <time>2018-04-14T07:08:51Z</time>
      </trkpt>
      <trkpt lat="47.6143" lon="-2.83999">
        <ele>64</ele>
        <time>2018-04-14T07:08:54Z</time>
      </trkpt>
      <trkpt lat="47.61427" lon="-2.83994">
        <ele>63</ele>
        <time>2018-04-14T07:08:56Z</time>
      </trkpt>
      <trkpt lat="47.61425" lon="-2.8399">
        <ele>61</ele>
        <time>2018-04-14T07:08:58Z</time>
      </trkpt>
      <trkpt lat="47.61423" lon="-2.83986">
        <ele>60</ele>
        <time>2018-04-14T07:09:00Z</time>
      </trkpt>
      <trkpt lat="47.61418" lon="-2.8398">
        <ele>60</ele>
        <time>2018-04-14T07:09:03Z</time>
      </trkpt>
      <trkpt lat="47.61416" lon="-2.83975">
        <ele>58</ele>
        <time>2018-04-14T07:09:06Z</time>
      </trkpt>
      <trkpt lat="47.61413" lon="-2.83969">
        <ele>58</ele>
        <time>2018-04-14T07:09:09Z</time>
      </trkpt>
      <trkpt lat="47.6141" lon="-2.83965">
        <ele>57</ele>
        <time>2018-04-14T07:09:12Z</time>
      </trkpt>
      <trkpt lat="47.61407" lon="-2.83957">
        <ele>58</ele>
        <time>2018-04-14T07:09:15Z</time>
      </trkpt>
      <trkpt lat="47.61403" lon="-2.83951">
        <ele>59</ele>
        <time>2018-04-14T07:09:19Z</time>
      </trkpt>
      <trkpt lat="47.614" lon="-2.83947">
        <ele>60</ele>
        <time>2018-04-14T07:09:21Z</time>
      </trkpt>
      <trkpt lat="47.61397" lon="-2.8394">
        <ele>58</ele>
        <time>2018-04-14T07:09:24Z</time>
      </trkpt>
      <trkpt lat="47.61393" lon="-2.83932">
        <ele>57</ele>
        <time>2018-04-14T07:09:28Z</time>
      </trkpt>
      <trkpt lat="47.61389" lon="-2.83928">
        <ele>57</ele>
        <time>2018-04-14T07:09:32Z</time>
      </trkpt>
      <trkpt lat="47.61387" lon="-2.83924">
        <ele>56</ele>
        <time>2018-04-14T07:09:35Z</time>
      </trkpt>
      <trkpt lat="47.61383" lon="-2.83918">
        <ele>57</ele>
        <time>2018-04-14T07:09:39Z</time>
      </trkpt>
      <trkpt lat="47.61378" lon="-2.83912">
        <ele>57</ele>
        <time>2018-04-14T07:09:42Z</time>
      </trkpt>
      <trkpt lat="47.61376" lon="-2.83908">
        <ele>56</ele>
        <time>2018-04-14T07:09:44Z</time>
      </trkpt>
      <trkpt lat="47.61374" lon="-2.839">
        <ele>58</ele>
        <time>2018-04-14T07:09:47Z</time>
      </trkpt>
      <trkpt lat="47.61369" lon="-2.83895">
        <ele>55</ele>
        <time>2018-04-14T07:09:50Z</time>
      </trkpt>
      <trkpt lat="47.61366" lon="-2.8389">
        <ele>53</ele>
        <time>2018-04-14T07:09:53Z</time>
      </trkpt>
      <trkpt lat="47.61362" lon="-2.83887">
        <ele>53</ele>
        <time>2018-04-14T07:09:56Z</time>
      </trkpt>
      <trkpt lat="47.61358" lon="-2.83883">
        <ele>54</ele>
        <time>2018-04-14T07:09:59Z</time>
      </trkpt>
      <trkpt lat="47.61356" lon="-2.8388">
        <ele>52</ele>
        <time>2018-04-14T07:10:01Z</time>
      </trkpt>
      <trkpt lat="47.61353" lon="-2.83873">
        <ele>53</ele>
        <time>2018-04-14T07:10:04Z</time>
      </trkpt>
      <trkpt lat="47.61349" lon="-2.83867">
        <ele>52</ele>
        <time>2018-04-14T07:10:08Z</time>
      </trkpt>
      <trkpt lat="47.61346" lon="-2.83863">
        <ele>53</ele>
        <time>2018-04-14T07:10:10Z</time>
      </trkpt>
      <trkpt lat="47.61343" lon="-2.8386">
        <ele>53</ele>
        <time>2018-04-14T07:10:12Z</time>
      </trkpt>
      <trkpt lat="47.6134" lon="-2.83856">
        <ele>53</ele>
        <time>2018-04-14T07:10:15Z</time>
      </trkpt>
      <trkpt lat="47.61337" lon="-2.8385">
        <ele>53</ele>
        <time>2018-04-14T07:10:18Z</time>
      </trkpt>
      <trkpt lat="47.61334" lon="-2.83842">
        <ele>53</ele>
        <time>2018-04-14T07:10:21Z</time>
      </trkpt>
      <trkpt lat="47.61331" lon="-2.83832">
        <ele>56</ele>
        <time>2018-04-14T07:10:25Z</time>
      </trkpt>
      <trkpt lat="47.61328" lon="-2.83826">
        <ele>60</ele>
        <time>2018-04-14T07:10:28Z</time>
      </trkpt>
      <trkpt lat="47.61324" lon="-2.83821">
        <ele>59</ele>
        <time>2018-04-14T07:10:31Z</time>
      </trkpt>
      <trkpt lat="47.6132" lon="-2.83816">
        <ele>58</ele>
        <time>2018-04-14T07:10:34Z</time>
      </trkpt>
      <trkpt lat="47.61318" lon="-2.83809">
        <ele>57</ele>
        <time>2018-04-14T07:10:37Z</time>
      </trkpt>
      <trkpt lat="47.61317" lon="-2.83804">
        <ele>56</ele>
        <time>2018-04-14T07:10:42Z</time>
      </trkpt>
      <trkpt lat="47.61314" lon="-2.83797">
        <ele>57</ele>
        <time>2018-04-14T07:10:47Z</time>
      </trkpt>
      <trkpt lat="47.61311" lon="-2.83789">
        <ele>56</ele>
        <time>2018-04-14T07:10:52Z</time>
      </trkpt>
      <trkpt lat="47.61307" lon="-2.83783">
        <ele>58</ele>
        <time>2018-04-14T07:10:57Z</time>
      </trkpt>
      <trkpt lat="47.61306" lon="-2.8378">
        <ele>61</ele>
        <time>2018-04-14T07:10:59Z</time>
      </trkpt>
      <trkpt lat="47.61303" lon="-2.83774">
        <ele>62</ele>
        <time>2018-04-14T07:11:01Z</time>
      </trkpt>
      <trkpt lat="47.613" lon="-2.8377">
        <ele>59</ele>
        <time>2018-04-14T07:11:03Z</time>
      </trkpt>
      <trkpt lat="47.61298" lon="-2.83762">
        <ele>61</ele>
        <time>2018-04-14T07:11:06Z</time>
      </trkpt>
      <trkpt lat="47.61293" lon="-2.83755">
        <ele>60</ele>
        <time>2018-04-14T07:11:09Z</time>
      </trkpt>
      <trkpt lat="47.61291" lon="-2.83749">
        <ele>60</ele>
        <time>2018-04-14T07:11:11Z</time>
      </trkpt>
      <trkpt lat="47.61288" lon="-2.83741">
        <ele>58</ele>
        <time>2018-04-14T07:11:14Z</time>
      </trkpt>
      <trkpt lat="47.61284" lon="-2.83736">
        <ele>58</ele>
        <time>2018-04-14T07:11:16Z</time>
      </trkpt>
      <trkpt lat="47.61282" lon="-2.83732">
        <ele>58</ele>
        <time>2018-04-14T07:11:18Z</time>
      </trkpt>
      <trkpt lat="47.61278" lon="-2.83725">
        <ele>57</ele>
        <time>2018-04-14T07:11:21Z</time>
      </trkpt>
      <trkpt lat="47.61275" lon="-2.8372">
        <ele>56</ele>
        <time>2018-04-14T07:11:23Z</time>
      </trkpt>
      <trkpt lat="47.61273" lon="-2.83717">
        <ele>57</ele>
        <time>2018-04-14T07:11:25Z</time>
      </trkpt>
      <trkpt lat="47.6127" lon="-2.83709">
        <ele>57</ele>
        <time>2018-04-14T07:11:29Z</time>
      </trkpt>
      <trkpt lat="47.61268" lon="-2.83703">
        <ele>57</ele>
        <time>2018-04-14T07:11:34Z</time>
      </trkpt>
      <trkpt lat="47.61266" lon="-2.837">
        <ele>57</ele>
        <time>2018-04-14T07:11:38Z</time>
      </trkpt>
      <trkpt lat="47.61265" lon="-2.83696">
        <ele>57</ele>
        <time>2018-04-14T07:11:43Z</time>
      </trkpt>
      <trkpt lat="47.61265" lon="-2.83685">
        <ele>58</ele>
        <time>2018-04-14T07:11:50Z</time>
      </trkpt>
      <trkpt lat="47.61265" lon="-2.8368">
        <ele>57</ele>
        <time>2018-04-14T07:11:52Z</time>
      </trkpt>
      <trkpt lat="47.61261" lon="-2.83674">
        <ele>61</ele>
        <time>2018-04-14T07:11:57Z</time>
      </trkpt>
      <trkpt lat="47.61257" lon="-2.83669">
        <ele>59</ele>
        <time>2018-04-14T07:12:00Z</time>
      </trkpt>
      <trkpt lat="47.61255" lon="-2.83666">
        <ele>59</ele>
        <time>2018-04-14T07:12:02Z</time>
      </trkpt>
      <trkpt lat="47.61252" lon="-2.83658">
        <ele>59</ele>
        <time>2018-04-14T07:12:05Z</time>
      </trkpt>
      <trkpt lat="47.61248" lon="-2.83652">
        <ele>59</ele>
        <time>2018-04-14T07:12:09Z</time>
      </trkpt>
      <trkpt lat="47.61247" lon="-2.83645">
        <ele>57</ele>
        <time>2018-04-14T07:12:11Z</time>
      </trkpt>
      <trkpt lat="47.61243" lon="-2.8364">
        <ele>62</ele>
        <time>2018-04-14T07:12:15Z</time>
      </trkpt>
      <trkpt lat="47.61241" lon="-2.83634">
        <ele>63</ele>
        <time>2018-04-14T07:12:18Z</time>
      </trkpt>
      <trkpt lat="47.61239" lon="-2.83629">
        <ele>63</ele>
        <time>2018-04-14T07:12:21Z</time>
      </trkpt>
      <trkpt lat="47.61236" lon="-2.83617">
        <ele>59</ele>
        <time>2018-04-14T07:12:30Z</time>
      </trkpt>
      <trkpt lat="47.61235" lon="-2.83609">
        <ele>58</ele>
        <time>2018-04-14T07:12:33Z</time>
      </trkpt>
      <trkpt lat="47.61234" lon="-2.83605">
        <ele>58</ele>
        <time>2018-04-14T07:12:35Z</time>
      </trkpt>
      <trkpt lat="47.61234" lon="-2.83599">
        <ele>59</ele>
        <time>2018-04-14T07:12:38Z</time>
      </trkpt>
      <trkpt lat="47.61233" lon="-2.83594">
        <ele>59</ele>
        <time>2018-04-14T07:12:41Z</time>
      </trkpt>
      <trkpt lat="47.61234" lon="-2.83587">
        <ele>59</ele>
        <time>2018-04-14T07:12:45Z</time>
      </trkpt>
      <trkpt lat="47.61232" lon="-2.83579">
        <ele>58</ele>
        <time>2018-04-14T07:12:49Z</time>
      </trkpt>
      <trkpt lat="47.6123" lon="-2.83571">
        <ele>55</ele>
        <time>2018-04-14T07:12:54Z</time>
      </trkpt>
      <trkpt lat="47.61228" lon="-2.83568">
        <ele>53</ele>
        <time>2018-04-14T07:12:57Z</time>
      </trkpt>
      <trkpt lat="47.61229" lon="-2.83557">
        <ele>53</ele>
        <time>2018-04-14T07:13:02Z</time>
      </trkpt>
      <trkpt lat="47.61233" lon="-2.83551">
        <ele>51</ele>
        <time>2018-04-14T07:13:08Z</time>
      </trkpt>
      <trkpt lat="47.61235" lon="-2.83544">
        <ele>52</ele>
        <time>2018-04-14T07:13:12Z</time>
      </trkpt>
      <trkpt lat="47.61236" lon="-2.83539">
        <ele>51</ele>
        <time>2018-04-14T07:13:17Z</time>
      </trkpt>
      <trkpt lat="47.61236" lon="-2.83539">
        <ele>7.8</ele>
        <time>2018-04-14T07:13:24Z</time>
      </trkpt>
      <trkpt lat="47.61236" lon="-2.83539">
        <ele>7.8</ele>
        <time>2018-04-14T07:14:11Z</time>
      </trkpt>
      <trkpt lat="47.61244" lon="-2.83496">
        <ele>54</ele>
        <time>2018-04-14T07:14:11Z</time>
      </trkpt>
      <trkpt lat="47.61244" lon="-2.83492">
        <ele>53</ele>
        <time>2018-04-14T07:14:14Z</time>
      </trkpt>
      <trkpt lat="47.61246" lon="-2.83486">
        <ele>53</ele>
        <time>2018-04-14T07:14:18Z</time>
      </trkpt>
      <trkpt lat="47.61248" lon="-2.83479">
        <ele>52</ele>
        <time>2018-04-14T07:14:23Z</time>
      </trkpt>
      <trkpt lat="47.61249" lon="-2.83473">
        <ele>55</ele>
        <time>2018-04-14T07:14:29Z</time>
      </trkpt>
      <trkpt lat="47.6125" lon="-2.83465">
        <ele>55</ele>
        <time>2018-04-14T07:14:35Z</time>
      </trkpt>
      <trkpt lat="47.6125" lon="-2.83457">
        <ele>53</ele>
        <time>2018-04-14T07:14:38Z</time>
      </trkpt>
      <trkpt lat="47.61255" lon="-2.83453">
        <ele>52</ele>
        <time>2018-04-14T07:14:42Z</time>
      </trkpt>
      <trkpt lat="47.61257" lon="-2.83445">
        <ele>52</ele>
        <time>2018-04-14T07:14:47Z</time>
      </trkpt>
      <trkpt lat="47.61259" lon="-2.8344">
        <ele>52</ele>
        <time>2018-04-14T07:14:52Z</time>
      </trkpt>
      <trkpt lat="47.61262" lon="-2.83433">
        <ele>52</ele>
        <time>2018-04-14T07:14:59Z</time>
      </trkpt>
      <trkpt lat="47.61263" lon="-2.83429">
        <ele>52</ele>
        <time>2018-04-14T07:15:02Z</time>
      </trkpt>
      <trkpt lat="47.61265" lon="-2.83421">
        <ele>54</ele>
        <time>2018-04-14T07:15:06Z</time>
      </trkpt>
      <trkpt lat="47.61269" lon="-2.83415">
        <ele>55</ele>
        <time>2018-04-14T07:15:10Z</time>
      </trkpt>
      <trkpt lat="47.61271" lon="-2.83409">
        <ele>52</ele>
        <time>2018-04-14T07:15:14Z</time>
      </trkpt>
      <trkpt lat="47.61274" lon="-2.83403">
        <ele>51</ele>
        <time>2018-04-14T07:15:18Z</time>
      </trkpt>
      <trkpt lat="47.61275" lon="-2.83396">
        <ele>50</ele>
        <time>2018-04-14T07:15:21Z</time>
      </trkpt>
      <trkpt lat="47.61276" lon="-2.83388">
        <ele>52</ele>
        <time>2018-04-14T07:15:24Z</time>
      </trkpt>
      <trkpt lat="47.61277" lon="-2.83383">
        <ele>54</ele>
        <time>2018-04-14T07:15:27Z</time>
      </trkpt>
      <trkpt lat="47.61277" lon="-2.83383">
        <ele>3</ele>
        <time>2018-04-14T07:15:32Z</time>
      </trkpt>
      <trkpt lat="47.61277" lon="-2.83383">
        <ele>3</ele>
        <time>2018-04-14T07:15:35Z</time>
      </trkpt>
      <trkpt lat="47.61281" lon="-2.83373">
        <ele>56</ele>
        <time>2018-04-14T07:15:35Z</time>
      </trkpt>
      <trkpt lat="47.61285" lon="-2.83367">
        <ele>53</ele>
        <time>2018-04-14T07:15:39Z</time>
      </trkpt>
      <trkpt lat="47.61287" lon="-2.83363">
        <ele>52</ele>
        <time>2018-04-14T07:15:41Z</time>
      </trkpt>
      <trkpt lat="47.61291" lon="-2.83357">
        <ele>53</ele>
        <time>2018-04-14T07:15:44Z</time>
      </trkpt>
      <trkpt lat="47.61294" lon="-2.83352">
        <ele>54</ele>
        <time>2018-04-14T07:15:47Z</time>
      </trkpt>
      <trkpt lat="47.61297" lon="-2.83347">
        <ele>53</ele>
        <time>2018-04-14T07:15:51Z</time>
      </trkpt>
      <trkpt lat="47.613" lon="-2.8334">
        <ele>53</ele>
        <time>2018-04-14T07:15:55Z</time>
      </trkpt>
      <trkpt lat="47.61304" lon="-2.83334">
        <ele>54</ele>
        <time>2018-04-14T07:15:58Z</time>
      </trkpt>
      <trkpt lat="47.61307" lon="-2.83327">
        <ele>55</ele>
        <time>2018-04-14T07:16:03Z</time>
      </trkpt>
      <trkpt lat="47.61311" lon="-2.83322">
        <ele>54</ele>
        <time>2018-04-14T07:16:07Z</time>
      </trkpt>
      <trkpt lat="47.61313" lon="-2.83316">
        <ele>56</ele>
        <time>2018-04-14T07:16:11Z</time>
      </trkpt>
      <trkpt lat="47.61315" lon="-2.8331">
        <ele>56</ele>
        <time>2018-04-14T07:16:14Z</time>
      </trkpt>
      <trkpt lat="47.61319" lon="-2.83305">
        <ele>55</ele>
        <time>2018-04-14T07:16:19Z</time>
      </trkpt>
      <trkpt lat="47.61322" lon="-2.833">
        <ele>58</ele>
        <time>2018-04-14T07:16:23Z</time>
      </trkpt>
      <trkpt lat="47.61325" lon="-2.83295">
        <ele>56</ele>
        <time>2018-04-14T07:16:28Z</time>
      </trkpt>
      <trkpt lat="47.61326" lon="-2.83288">
        <ele>55</ele>
        <time>2018-04-14T07:16:33Z</time>
      </trkpt>
      <trkpt lat="47.61327" lon="-2.83283">
        <ele>55</ele>
        <time>2018-04-14T07:16:35Z</time>
      </trkpt>
      <trkpt lat="47.61331" lon="-2.83274">
        <ele>56</ele>
        <time>2018-04-14T07:16:39Z</time>
      </trkpt>
      <trkpt lat="47.61332" lon="-2.83271">
        <ele>57</ele>
        <time>2018-04-14T07:16:41Z</time>
      </trkpt>
      <trkpt lat="47.61334" lon="-2.83263">
        <ele>56</ele>
        <time>2018-04-14T07:16:45Z</time>
      </trkpt>
      <trkpt lat="47.61337" lon="-2.83256">
        <ele>55</ele>
        <time>2018-04-14T07:16:49Z</time>
      </trkpt>
      <trkpt lat="47.6134" lon="-2.83248">
        <ele>50</ele>
        <time>2018-04-14T07:16:53Z</time>
      </trkpt>
      <trkpt lat="47.61343" lon="-2.83242">
        <ele>52</ele>
        <time>2018-04-14T07:16:56Z</time>
      </trkpt>
      <trkpt lat="47.61344" lon="-2.83234">
        <ele>50</ele>
        <time>2018-04-14T07:16:59Z</time>
      </trkpt>
      <trkpt lat="47.61345" lon="-2.83227">
        <ele>50</ele>
        <time>2018-04-14T07:17:03Z</time>
      </trkpt>
      <trkpt lat="47.61349" lon="-2.83218">
        <ele>49</ele>
        <time>2018-04-14T07:17:07Z</time>
      </trkpt>
      <trkpt lat="47.61351" lon="-2.83212">
        <ele>49</ele>
        <time>2018-04-14T07:17:10Z</time>
      </trkpt>
      <trkpt lat="47.61352" lon="-2.83205">
        <ele>52</ele>
        <time>2018-04-14T07:17:12Z</time>
      </trkpt>
      <trkpt lat="47.61354" lon="-2.83197">
        <ele>51</ele>
        <time>2018-04-14T07:17:15Z</time>
      </trkpt>
      <trkpt lat="47.61357" lon="-2.83193">
        <ele>49</ele>
        <time>2018-04-14T07:17:18Z</time>
      </trkpt>
      <trkpt lat="47.6136" lon="-2.83186">
        <ele>50</ele>
        <time>2018-04-14T07:17:21Z</time>
      </trkpt>
      <trkpt lat="47.61358" lon="-2.83176">
        <ele>51</ele>
        <time>2018-04-14T07:17:24Z</time>
      </trkpt>
      <trkpt lat="47.61359" lon="-2.83168">
        <ele>51</ele>
        <time>2018-04-14T07:17:27Z</time>
      </trkpt>
      <trkpt lat="47.61361" lon="-2.83161">
        <ele>54</ele>
        <time>2018-04-14T07:17:31Z</time>
      </trkpt>
      <trkpt lat="47.61364" lon="-2.83153">
        <ele>55</ele>
        <time>2018-04-14T07:17:34Z</time>
      </trkpt>
      <trkpt lat="47.61367" lon="-2.83148">
        <ele>55</ele>
        <time>2018-04-14T07:17:37Z</time>
      </trkpt>
      <trkpt lat="47.6137" lon="-2.83143">
        <ele>52</ele>
        <time>2018-04-14T07:17:39Z</time>
      </trkpt>
      <trkpt lat="47.61372" lon="-2.83136">
        <ele>51</ele>
        <time>2018-04-14T07:17:42Z</time>
      </trkpt>
      <trkpt lat="47.61374" lon="-2.83128">
        <ele>53</ele>
        <time>2018-04-14T07:17:45Z</time>
      </trkpt>
      <trkpt lat="47.61375" lon="-2.83123">
        <ele>53</ele>
        <time>2018-04-14T07:17:47Z</time>
      </trkpt>
      <trkpt lat="47.61376" lon="-2.83119">
        <ele>54</ele>
        <time>2018-04-14T07:17:49Z</time>
      </trkpt>
      <trkpt lat="47.61378" lon="-2.83115">
        <ele>53</ele>
        <time>2018-04-14T07:17:51Z</time>
      </trkpt>
      <trkpt lat="47.61378" lon="-2.83108">
        <ele>51</ele>
        <time>2018-04-14T07:17:54Z</time>
      </trkpt>
      <trkpt lat="47.6138" lon="-2.831">
        <ele>51</ele>
        <time>2018-04-14T07:17:58Z</time>
      </trkpt>
      <trkpt lat="47.61383" lon="-2.83096">
        <ele>52</ele>
        <time>2018-04-14T07:18:01Z</time>
      </trkpt>
      <trkpt lat="47.61385" lon="-2.83086">
        <ele>51</ele>
        <time>2018-04-14T07:18:05Z</time>
      </trkpt>
      <trkpt lat="47.61388" lon="-2.83078">
        <ele>50</ele>
        <time>2018-04-14T07:18:08Z</time>
      </trkpt>
      <trkpt lat="47.6139" lon="-2.83071">
        <ele>49</ele>
        <time>2018-04-14T07:18:11Z</time>
      </trkpt>
      <trkpt lat="47.6139" lon="-2.83063">
        <ele>48</ele>
        <time>2018-04-14T07:18:15Z</time>
      </trkpt>
      <trkpt lat="47.61391" lon="-2.83058">
        <ele>48</ele>
        <time>2018-04-14T07:18:17Z</time>
      </trkpt>
      <trkpt lat="47.61392" lon="-2.83045">
        <ele>53</ele>
        <time>2018-04-14T07:18:22Z</time>
      </trkpt>
      <trkpt lat="47.61395" lon="-2.83037">
        <ele>53</ele>
        <time>2018-04-14T07:18:26Z</time>
      </trkpt>
      <trkpt lat="47.61397" lon="-2.83032">
        <ele>53</ele>
        <time>2018-04-14T07:18:29Z</time>
      </trkpt>
      <trkpt lat="47.61397" lon="-2.83023">
        <ele>52</ele>
        <time>2018-04-14T07:18:33Z</time>
      </trkpt>
      <trkpt lat="47.61398" lon="-2.83016">
        <ele>52</ele>
        <time>2018-04-14T07:18:37Z</time>
      </trkpt>
      <trkpt lat="47.61399" lon="-2.8301">
        <ele>54</ele>
        <time>2018-04-14T07:18:40Z</time>
      </trkpt>
      <trkpt lat="47.614" lon="-2.83003">
        <ele>53</ele>
        <time>2018-04-14T07:18:43Z</time>
      </trkpt>
      <trkpt lat="47.61399" lon="-2.82996">
        <ele>53</ele>
        <time>2018-04-14T07:18:47Z</time>
      </trkpt>
      <trkpt lat="47.61399" lon="-2.82988">
        <ele>52</ele>
        <time>2018-04-14T07:18:51Z</time>
      </trkpt>
      <trkpt lat="47.61401" lon="-2.82978">
        <ele>52</ele>
        <time>2018-04-14T07:18:55Z</time>
      </trkpt>
      <trkpt lat="47.61403" lon="-2.82971">
        <ele>54</ele>
        <time>2018-04-14T07:18:58Z</time>
      </trkpt>
      <trkpt lat="47.61403" lon="-2.82962">
        <ele>53</ele>
        <time>2018-04-14T07:19:01Z</time>
      </trkpt>
      <trkpt lat="47.61405" lon="-2.82955">
        <ele>53</ele>
        <time>2018-04-14T07:19:04Z</time>
      </trkpt>
      <trkpt lat="47.61405" lon="-2.82948">
        <ele>54</ele>
        <time>2018-04-14T07:19:07Z</time>
      </trkpt>
      <trkpt lat="47.61407" lon="-2.8294">
        <ele>54</ele>
        <time>2018-04-14T07:19:11Z</time>
      </trkpt>
      <trkpt lat="47.61407" lon="-2.82933">
        <ele>54</ele>
        <time>2018-04-14T07:19:14Z</time>
      </trkpt>
      <trkpt lat="47.61408" lon="-2.82926">
        <ele>55</ele>
        <time>2018-04-14T07:19:16Z</time>
      </trkpt>
      <trkpt lat="47.61412" lon="-2.82919">
        <ele>55</ele>
        <time>2018-04-14T07:19:19Z</time>
      </trkpt>
      <trkpt lat="47.61414" lon="-2.82911">
        <ele>57</ele>
        <time>2018-04-14T07:19:22Z</time>
      </trkpt>
      <trkpt lat="47.61415" lon="-2.82908">
        <ele>57</ele>
        <time>2018-04-14T07:19:24Z</time>
      </trkpt>
      <trkpt lat="47.61416" lon="-2.82904">
        <ele>57</ele>
        <time>2018-04-14T07:19:26Z</time>
      </trkpt>
      <trkpt lat="47.61417" lon="-2.829">
        <ele>58</ele>
        <time>2018-04-14T07:19:28Z</time>
      </trkpt>
      <trkpt lat="47.61416" lon="-2.82892">
        <ele>56</ele>
        <time>2018-04-14T07:19:31Z</time>
      </trkpt>
      <trkpt lat="47.61416" lon="-2.82888">
        <ele>56</ele>
        <time>2018-04-14T07:19:32Z</time>
      </trkpt>
      <trkpt lat="47.61416" lon="-2.82884">
        <ele>56</ele>
        <time>2018-04-14T07:19:34Z</time>
      </trkpt>
      <trkpt lat="47.61415" lon="-2.82876">
        <ele>56</ele>
        <time>2018-04-14T07:19:37Z</time>
      </trkpt>
      <trkpt lat="47.61416" lon="-2.82869">
        <ele>54</ele>
        <time>2018-04-14T07:19:40Z</time>
      </trkpt>
      <trkpt lat="47.61417" lon="-2.82861">
        <ele>54</ele>
        <time>2018-04-14T07:19:45Z</time>
      </trkpt>
      <trkpt lat="47.61418" lon="-2.82854">
        <ele>54</ele>
        <time>2018-04-14T07:19:48Z</time>
      </trkpt>
      <trkpt lat="47.61419" lon="-2.82845">
        <ele>55</ele>
        <time>2018-04-14T07:19:52Z</time>
      </trkpt>
      <trkpt lat="47.61421" lon="-2.82837">
        <ele>55</ele>
        <time>2018-04-14T07:19:56Z</time>
      </trkpt>
      <trkpt lat="47.61423" lon="-2.8283">
        <ele>55</ele>
        <time>2018-04-14T07:19:59Z</time>
      </trkpt>
      <trkpt lat="47.61426" lon="-2.82824">
        <ele>55</ele>
        <time>2018-04-14T07:20:02Z</time>
      </trkpt>
      <trkpt lat="47.61428" lon="-2.82818">
        <ele>54</ele>
        <time>2018-04-14T07:20:05Z</time>
      </trkpt>
      <trkpt lat="47.6143" lon="-2.82811">
        <ele>54</ele>
        <time>2018-04-14T07:20:08Z</time>
      </trkpt>
      <trkpt lat="47.61433" lon="-2.82803">
        <ele>55</ele>
        <time>2018-04-14T07:20:11Z</time>
      </trkpt>
      <trkpt lat="47.61434" lon="-2.82797">
        <ele>53</ele>
        <time>2018-04-14T07:20:14Z</time>
      </trkpt>
      <trkpt lat="47.61435" lon="-2.82792">
        <ele>53</ele>
        <time>2018-04-14T07:20:16Z</time>
      </trkpt>
      <trkpt lat="47.61437" lon="-2.82786">
        <ele>53</ele>
        <time>2018-04-14T07:20:19Z</time>
      </trkpt>
      <trkpt lat="47.6144" lon="-2.82778">
        <ele>53</ele>
        <time>2018-04-14T07:20:23Z</time>
      </trkpt>
      <trkpt lat="47.61441" lon="-2.82771">
        <ele>52</ele>
        <time>2018-04-14T07:20:26Z</time>
      </trkpt>
      <trkpt lat="47.61443" lon="-2.82766">
        <ele>53</ele>
        <time>2018-04-14T07:20:28Z</time>
      </trkpt>
      <trkpt lat="47.61445" lon="-2.8276">
        <ele>51</ele>
        <time>2018-04-14T07:20:31Z</time>
      </trkpt>
      <trkpt lat="47.61448" lon="-2.82754">
        <ele>51</ele>
        <time>2018-04-14T07:20:34Z</time>
      </trkpt>
      <trkpt lat="47.6145" lon="-2.82748">
        <ele>49</ele>
        <time>2018-04-14T07:20:38Z</time>
      </trkpt>
      <trkpt lat="47.61454" lon="-2.82742">
        <ele>50</ele>
        <time>2018-04-14T07:20:41Z</time>
      </trkpt>
      <trkpt lat="47.61458" lon="-2.82737">
        <ele>48</ele>
        <time>2018-04-14T07:20:45Z</time>
      </trkpt>
      <trkpt lat="47.6146" lon="-2.8273">
        <ele>48</ele>
        <time>2018-04-14T07:20:50Z</time>
      </trkpt>
      <trkpt lat="47.6146" lon="-2.8272">
        <ele>49</ele>
        <time>2018-04-14T07:20:55Z</time>
      </trkpt>
      <trkpt lat="47.6146" lon="-2.82716">
        <ele>50</ele>
        <time>2018-04-14T07:20:57Z</time>
      </trkpt>
      <trkpt lat="47.61461" lon="-2.82708">
        <ele>50</ele>
        <time>2018-04-14T07:21:00Z</time>
      </trkpt>
      <trkpt lat="47.61462" lon="-2.82704">
        <ele>49</ele>
        <time>2018-04-14T07:21:02Z</time>
      </trkpt>
      <trkpt lat="47.61462" lon="-2.82699">
        <ele>49</ele>
        <time>2018-04-14T07:21:04Z</time>
      </trkpt>
      <trkpt lat="47.61462" lon="-2.82694">
        <ele>49</ele>
        <time>2018-04-14T07:21:06Z</time>
      </trkpt>
      <trkpt lat="47.61463" lon="-2.82686">
        <ele>49</ele>
        <time>2018-04-14T07:21:11Z</time>
      </trkpt>
      <trkpt lat="47.61464" lon="-2.82678">
        <ele>49</ele>
        <time>2018-04-14T07:21:14Z</time>
      </trkpt>
      <trkpt lat="47.61465" lon="-2.82672">
        <ele>49</ele>
        <time>2018-04-14T07:21:18Z</time>
      </trkpt>
      <trkpt lat="47.61465" lon="-2.82664">
        <ele>49</ele>
        <time>2018-04-14T07:21:22Z</time>
      </trkpt>
      <trkpt lat="47.61465" lon="-2.8266">
        <ele>49</ele>
        <time>2018-04-14T07:21:24Z</time>
      </trkpt>
      <trkpt lat="47.61468" lon="-2.82652">
        <ele>49</ele>
        <time>2018-04-14T07:21:28Z</time>
      </trkpt>
      <trkpt lat="47.6147" lon="-2.82644">
        <ele>49</ele>
        <time>2018-04-14T07:21:32Z</time>
      </trkpt>
      <trkpt lat="47.61473" lon="-2.82637">
        <ele>49</ele>
        <time>2018-04-14T07:21:36Z</time>
      </trkpt>
      <trkpt lat="47.61474" lon="-2.8263">
        <ele>49</ele>
        <time>2018-04-14T07:21:41Z</time>
      </trkpt>
      <trkpt lat="47.61475" lon="-2.82624">
        <ele>51</ele>
        <time>2018-04-14T07:21:46Z</time>
      </trkpt>
      <trkpt lat="47.61476" lon="-2.8262">
        <ele>52</ele>
        <time>2018-04-14T07:21:48Z</time>
      </trkpt>
      <trkpt lat="47.61477" lon="-2.82615">
        <ele>51</ele>
        <time>2018-04-14T07:21:51Z</time>
      </trkpt>
      <trkpt lat="47.61478" lon="-2.8261">
        <ele>52</ele>
        <time>2018-04-14T07:21:53Z</time>
      </trkpt>
      <trkpt lat="47.61479" lon="-2.82603">
        <ele>51</ele>
        <time>2018-04-14T07:21:56Z</time>
      </trkpt>
      <trkpt lat="47.6148" lon="-2.82597">
        <ele>52</ele>
        <time>2018-04-14T07:21:59Z</time>
      </trkpt>
      <trkpt lat="47.61481" lon="-2.82591">
        <ele>52</ele>
        <time>2018-04-14T07:22:02Z</time>
      </trkpt>
      <trkpt lat="47.61482" lon="-2.82587">
        <ele>52</ele>
        <time>2018-04-14T07:22:04Z</time>
      </trkpt>
      <trkpt lat="47.61483" lon="-2.82579">
        <ele>52</ele>
        <time>2018-04-14T07:22:08Z</time>
      </trkpt>
      <trkpt lat="47.61486" lon="-2.82571">
        <ele>53</ele>
        <time>2018-04-14T07:22:11Z</time>
      </trkpt>
      <trkpt lat="47.61486" lon="-2.82565">
        <ele>52</ele>
        <time>2018-04-14T07:22:16Z</time>
      </trkpt>
      <trkpt lat="47.61486" lon="-2.82561">
        <ele>52</ele>
        <time>2018-04-14T07:22:18Z</time>
      </trkpt>
      <trkpt lat="47.61486" lon="-2.82553">
        <ele>54</ele>
        <time>2018-04-14T07:22:21Z</time>
      </trkpt>
      <trkpt lat="47.61487" lon="-2.82546">
        <ele>55</ele>
        <time>2018-04-14T07:22:24Z</time>
      </trkpt>
      <trkpt lat="47.61488" lon="-2.82539">
        <ele>54</ele>
        <time>2018-04-14T07:22:28Z</time>
      </trkpt>
      <trkpt lat="47.61489" lon="-2.82535">
        <ele>54</ele>
        <time>2018-04-14T07:22:30Z</time>
      </trkpt>
      <trkpt lat="47.61489" lon="-2.82526">
        <ele>54</ele>
        <time>2018-04-14T07:22:35Z</time>
      </trkpt>
      <trkpt lat="47.6149" lon="-2.8252">
        <ele>55</ele>
        <time>2018-04-14T07:22:40Z</time>
      </trkpt>
      <trkpt lat="47.61491" lon="-2.82513">
        <ele>56</ele>
        <time>2018-04-14T07:22:44Z</time>
      </trkpt>
      <trkpt lat="47.61491" lon="-2.82506">
        <ele>58</ele>
        <time>2018-04-14T07:22:48Z</time>
      </trkpt>
      <trkpt lat="47.61492" lon="-2.82498">
        <ele>58</ele>
        <time>2018-04-14T07:22:54Z</time>
      </trkpt>
      <trkpt lat="47.61493" lon="-2.82493">
        <ele>57</ele>
        <time>2018-04-14T07:22:58Z</time>
      </trkpt>
      <trkpt lat="47.61493" lon="-2.82487">
        <ele>57</ele>
        <time>2018-04-14T07:23:02Z</time>
      </trkpt>
      <trkpt lat="47.61493" lon="-2.8248">
        <ele>56</ele>
        <time>2018-04-14T07:23:08Z</time>
      </trkpt>
      <trkpt lat="47.61493" lon="-2.82476">
        <ele>55</ele>
        <time>2018-04-14T07:23:11Z</time>
      </trkpt>
      <trkpt lat="47.61495" lon="-2.82468">
        <ele>55</ele>
        <time>2018-04-14T07:23:16Z</time>
      </trkpt>
      <trkpt lat="47.61496" lon="-2.8246">
        <ele>53</ele>
        <time>2018-04-14T07:23:24Z</time>
      </trkpt>
      <trkpt lat="47.61495" lon="-2.82453">
        <ele>54</ele>
        <time>2018-04-14T07:23:32Z</time>
      </trkpt>
      <trkpt lat="47.61495" lon="-2.82445">
        <ele>53</ele>
        <time>2018-04-14T07:23:39Z</time>
      </trkpt>
      <trkpt lat="47.61496" lon="-2.82438">
        <ele>53</ele>
        <time>2018-04-14T07:23:44Z</time>
      </trkpt>
      <trkpt lat="47.61496" lon="-2.82434">
        <ele>53</ele>
        <time>2018-04-14T07:23:47Z</time>
      </trkpt>
      <trkpt lat="47.61496" lon="-2.8243">
        <ele>53</ele>
        <time>2018-04-14T07:23:49Z</time>
      </trkpt>
      <trkpt lat="47.61498" lon="-2.82423">
        <ele>53</ele>
        <time>2018-04-14T07:23:53Z</time>
      </trkpt>
      <trkpt lat="47.615" lon="-2.82417">
        <ele>50</ele>
        <time>2018-04-14T07:23:58Z</time>
      </trkpt>
      <trkpt lat="47.61502" lon="-2.82409">
        <ele>51</ele>
        <time>2018-04-14T07:24:02Z</time>
      </trkpt>
      <trkpt lat="47.61506" lon="-2.82402">
        <ele>50</ele>
        <time>2018-04-14T07:24:07Z</time>
      </trkpt>
      <trkpt lat="47.61508" lon="-2.824">
        <ele>50</ele>
        <time>2018-04-14T07:24:09Z</time>
      </trkpt>
      <trkpt lat="47.61511" lon="-2.82392">
        <ele>52</ele>
        <time>2018-04-14T07:24:14Z</time>
      </trkpt>
      <trkpt lat="47.61515" lon="-2.82387">
        <ele>52</ele>
        <time>2018-04-14T07:24:18Z</time>
      </trkpt>
      <trkpt lat="47.61516" lon="-2.8238">
        <ele>52</ele>
        <time>2018-04-14T07:24:23Z</time>
      </trkpt>
      <trkpt lat="47.61519" lon="-2.82373">
        <ele>50</ele>
        <time>2018-04-14T07:24:28Z</time>
      </trkpt>
      <trkpt lat="47.61522" lon="-2.82368">
        <ele>50</ele>
        <time>2018-04-14T07:24:32Z</time>
      </trkpt>
      <trkpt lat="47.61524" lon="-2.8236">
        <ele>50</ele>
        <time>2018-04-14T07:24:37Z</time>
      </trkpt>
      <trkpt lat="47.61525" lon="-2.82355">
        <ele>50</ele>
        <time>2018-04-14T07:24:43Z</time>
      </trkpt>
      <trkpt lat="47.61527" lon="-2.8235">
        <ele>50</ele>
        <time>2018-04-14T07:24:46Z</time>
      </trkpt>
      <trkpt lat="47.6153" lon="-2.82344">
        <ele>50</ele>
        <time>2018-04-14T07:24:50Z</time>
      </trkpt>
      <trkpt lat="47.61533" lon="-2.82337">
        <ele>52</ele>
        <time>2018-04-14T07:24:54Z</time>
      </trkpt>
      <trkpt lat="47.61538" lon="-2.82332">
        <ele>53</ele>
        <time>2018-04-14T07:24:58Z</time>
      </trkpt>
      <trkpt lat="47.6154" lon="-2.8233">
        <ele>53</ele>
        <time>2018-04-14T07:25:00Z</time>
      </trkpt>
      <trkpt lat="47.61543" lon="-2.82323">
        <ele>55</ele>
        <time>2018-04-14T07:25:06Z</time>
      </trkpt>
      <trkpt lat="47.61545" lon="-2.82318">
        <ele>53</ele>
        <time>2018-04-14T07:25:11Z</time>
      </trkpt>
      <trkpt lat="47.61546" lon="-2.82314">
        <ele>53</ele>
        <time>2018-04-14T07:25:14Z</time>
      </trkpt>
      <trkpt lat="47.61549" lon="-2.82309">
        <ele>53</ele>
        <time>2018-04-14T07:25:19Z</time>
      </trkpt>
      <trkpt lat="47.6155" lon="-2.82302">
        <ele>51</ele>
        <time>2018-04-14T07:25:24Z</time>
      </trkpt>
      <trkpt lat="47.61552" lon="-2.82298">
        <ele>51</ele>
        <time>2018-04-14T07:25:28Z</time>
      </trkpt>
      <trkpt lat="47.61553" lon="-2.82291">
        <ele>50</ele>
        <time>2018-04-14T07:25:34Z</time>
      </trkpt>
      <trkpt lat="47.61556" lon="-2.82285">
        <ele>52</ele>
        <time>2018-04-14T07:25:38Z</time>
      </trkpt>
      <trkpt lat="47.61558" lon="-2.82278">
        <ele>53</ele>
        <time>2018-04-14T07:25:42Z</time>
      </trkpt>
      <trkpt lat="47.6156" lon="-2.82272">
        <ele>53</ele>
        <time>2018-04-14T07:25:46Z</time>
      </trkpt>
      <trkpt lat="47.61563" lon="-2.82264">
        <ele>51</ele>
        <time>2018-04-14T07:25:51Z</time>
      </trkpt>
      <trkpt lat="47.61566" lon="-2.82257">
        <ele>51</ele>
        <time>2018-04-14T07:25:55Z</time>
      </trkpt>
      <trkpt lat="47.61567" lon="-2.8225">
        <ele>51</ele>
        <time>2018-04-14T07:25:59Z</time>
      </trkpt>
      <trkpt lat="47.61568" lon="-2.82246">
        <ele>51</ele>
        <time>2018-04-14T07:26:02Z</time>
      </trkpt>
      <trkpt lat="47.61572" lon="-2.8224">
        <ele>52</ele>
        <time>2018-04-14T07:26:07Z</time>
      </trkpt>
      <trkpt lat="47.61574" lon="-2.82232">
        <ele>52</ele>
        <time>2018-04-14T07:26:11Z</time>
      </trkpt>
      <trkpt lat="47.61576" lon="-2.82226">
        <ele>51</ele>
        <time>2018-04-14T07:26:15Z</time>
      </trkpt>
      <trkpt lat="47.6158" lon="-2.82221">
        <ele>50</ele>
        <time>2018-04-14T07:26:18Z</time>
      </trkpt>
      <trkpt lat="47.61582" lon="-2.82214">
        <ele>51</ele>
        <time>2018-04-14T07:26:23Z</time>
      </trkpt>
      <trkpt lat="47.61583" lon="-2.8221">
        <ele>51</ele>
        <time>2018-04-14T07:26:25Z</time>
      </trkpt>
      <trkpt lat="47.61586" lon="-2.82204">
        <ele>52</ele>
        <time>2018-04-14T07:26:29Z</time>
      </trkpt>
      <trkpt lat="47.61586" lon="-2.82196">
        <ele>52</ele>
        <time>2018-04-14T07:26:34Z</time>
      </trkpt>
      <trkpt lat="47.61588" lon="-2.8219">
        <ele>52</ele>
        <time>2018-04-14T07:26:38Z</time>
      </trkpt>
      <trkpt lat="47.61591" lon="-2.82185">
        <ele>53</ele>
        <time>2018-04-14T07:26:42Z</time>
      </trkpt>
      <trkpt lat="47.61592" lon="-2.82178">
        <ele>53</ele>
        <time>2018-04-14T07:26:46Z</time>
      </trkpt>
      <trkpt lat="47.61595" lon="-2.82172">
        <ele>54</ele>
        <time>2018-04-14T07:26:49Z</time>
      </trkpt>
      <trkpt lat="47.61596" lon="-2.82169">
        <ele>53</ele>
        <time>2018-04-14T07:26:51Z</time>
      </trkpt>
      <trkpt lat="47.61598" lon="-2.82165">
        <ele>53</ele>
        <time>2018-04-14T07:26:54Z</time>
      </trkpt>
      <trkpt lat="47.61599" lon="-2.82157">
        <ele>53</ele>
        <time>2018-04-14T07:26:59Z</time>
      </trkpt>
      <trkpt lat="47.616" lon="-2.82154">
        <ele>53</ele>
        <time>2018-04-14T07:27:01Z</time>
      </trkpt>
      <trkpt lat="47.61602" lon="-2.82144">
        <ele>53</ele>
        <time>2018-04-14T07:27:06Z</time>
      </trkpt>
      <trkpt lat="47.61603" lon="-2.8214">
        <ele>52</ele>
        <time>2018-04-14T07:27:09Z</time>
      </trkpt>
      <trkpt lat="47.61604" lon="-2.82135">
        <ele>53</ele>
        <time>2018-04-14T07:27:11Z</time>
      </trkpt>
      <trkpt lat="47.61604" lon="-2.82132">
        <ele>51</ele>
        <time>2018-04-14T07:27:13Z</time>
      </trkpt>
      <trkpt lat="47.61604" lon="-2.82125">
        <ele>51</ele>
        <time>2018-04-14T07:27:16Z</time>
      </trkpt>
      <trkpt lat="47.61604" lon="-2.82117">
        <ele>51</ele>
        <time>2018-04-14T07:27:20Z</time>
      </trkpt>
      <trkpt lat="47.61608" lon="-2.82111">
        <ele>50</ele>
        <time>2018-04-14T07:27:24Z</time>
      </trkpt>
      <trkpt lat="47.61611" lon="-2.82105">
        <ele>50</ele>
        <time>2018-04-14T07:27:27Z</time>
      </trkpt>
      <trkpt lat="47.61612" lon="-2.82102">
        <ele>50</ele>
        <time>2018-04-14T07:27:29Z</time>
      </trkpt>
      <trkpt lat="47.61614" lon="-2.82095">
        <ele>50</ele>
        <time>2018-04-14T07:27:32Z</time>
      </trkpt>
      <trkpt lat="47.61615" lon="-2.82091">
        <ele>50</ele>
        <time>2018-04-14T07:27:34Z</time>
      </trkpt>
      <trkpt lat="47.61618" lon="-2.82085">
        <ele>48</ele>
        <time>2018-04-14T07:27:38Z</time>
      </trkpt>
      <trkpt lat="47.61621" lon="-2.8208">
        <ele>48</ele>
        <time>2018-04-14T07:27:42Z</time>
      </trkpt>
      <trkpt lat="47.61622" lon="-2.82073">
        <ele>49</ele>
        <time>2018-04-14T07:27:46Z</time>
      </trkpt>
      <trkpt lat="47.61625" lon="-2.82067">
        <ele>49</ele>
        <time>2018-04-14T07:27:51Z</time>
      </trkpt>
      <trkpt lat="47.61626" lon="-2.82064">
        <ele>50</ele>
        <time>2018-04-14T07:27:55Z</time>
      </trkpt>
      <trkpt lat="47.61626" lon="-2.82064">
        <time>2018-04-14T07:28:02Z</time>
      </trkpt>
      <trkpt lat="47.61626" lon="-2.82064">
        <time>2018-04-14T07:28:49Z</time>
      </trkpt>
      <trkpt lat="47.61643" lon="-2.82018">
        <ele>55</ele>
        <time>2018-04-14T07:28:49Z</time>
      </trkpt>
      <trkpt lat="47.61645" lon="-2.82013">
        <ele>54</ele>
        <time>2018-04-14T07:28:52Z</time>
      </trkpt>
      <trkpt lat="47.61648" lon="-2.82005">
        <ele>54</ele>
        <time>2018-04-14T07:28:58Z</time>
      </trkpt>
      <trkpt lat="47.6165" lon="-2.81998">
        <ele>54</ele>
        <time>2018-04-14T07:29:03Z</time>
      </trkpt>
      <trkpt lat="47.61651" lon="-2.81994">
        <ele>54</ele>
        <time>2018-04-14T07:29:06Z</time>
      </trkpt>
      <trkpt lat="47.61651" lon="-2.8199">
        <ele>53</ele>
        <time>2018-04-14T07:29:08Z</time>
      </trkpt>
      <trkpt lat="47.61653" lon="-2.81984">
        <ele>54</ele>
        <time>2018-04-14T07:29:13Z</time>
      </trkpt>
      <trkpt lat="47.61654" lon="-2.81974">
        <ele>53</ele>
        <time>2018-04-14T07:29:19Z</time>
      </trkpt>
      <trkpt lat="47.61657" lon="-2.81968">
        <ele>52</ele>
        <time>2018-04-14T07:29:24Z</time>
      </trkpt>
      <trkpt lat="47.6166" lon="-2.81962">
        <ele>51</ele>
        <time>2018-04-14T07:29:29Z</time>
      </trkpt>
      <trkpt lat="47.6166" lon="-2.81955">
        <ele>50</ele>
        <time>2018-04-14T07:29:33Z</time>
      </trkpt>
      <trkpt lat="47.6166" lon="-2.8195">
        <ele>50</ele>
        <time>2018-04-14T07:29:36Z</time>
      </trkpt>
      <trkpt lat="47.61662" lon="-2.81942">
        <ele>52</ele>
        <time>2018-04-14T07:29:41Z</time>
      </trkpt>
      <trkpt lat="47.61664" lon="-2.81935">
        <ele>51</ele>
        <time>2018-04-14T07:29:46Z</time>
      </trkpt>
      <trkpt lat="47.61664" lon="-2.81928">
        <ele>52</ele>
        <time>2018-04-14T07:29:51Z</time>
      </trkpt>
      <trkpt lat="47.61665" lon="-2.81921">
        <ele>52</ele>
        <time>2018-04-14T07:29:55Z</time>
      </trkpt>
      <trkpt lat="47.61666" lon="-2.81915">
        <ele>53</ele>
        <time>2018-04-14T07:29:58Z</time>
      </trkpt>
      <trkpt lat="47.61667" lon="-2.8191">
        <ele>54</ele>
        <time>2018-04-14T07:30:02Z</time>
      </trkpt>
      <trkpt lat="47.61668" lon="-2.81906">
        <ele>54</ele>
        <time>2018-04-14T07:30:04Z</time>
      </trkpt>
      <trkpt lat="47.61671" lon="-2.819">
        <ele>53</ele>
        <time>2018-04-14T07:30:10Z</time>
      </trkpt>
      <trkpt lat="47.61673" lon="-2.81892">
        <ele>53</ele>
        <time>2018-04-14T07:30:14Z</time>
      </trkpt>
      <trkpt lat="47.61675" lon="-2.81886">
        <ele>54</ele>
        <time>2018-04-14T07:30:19Z</time>
      </trkpt>
      <trkpt lat="47.61674" lon="-2.81878">
        <ele>56</ele>
        <time>2018-04-14T07:30:25Z</time>
      </trkpt>
      <trkpt lat="47.61676" lon="-2.8187">
        <ele>57</ele>
        <time>2018-04-14T07:30:29Z</time>
      </trkpt>
      <trkpt lat="47.61677" lon="-2.81865">
        <ele>56</ele>
        <time>2018-04-14T07:30:31Z</time>
      </trkpt>
      <trkpt lat="47.61678" lon="-2.8186">
        <ele>53</ele>
        <time>2018-04-14T07:30:35Z</time>
      </trkpt>
      <trkpt lat="47.61679" lon="-2.81853">
        <ele>55</ele>
        <time>2018-04-14T07:30:38Z</time>
      </trkpt>
      <trkpt lat="47.6168" lon="-2.81847">
        <ele>53</ele>
        <time>2018-04-14T07:30:43Z</time>
      </trkpt>
      <trkpt lat="47.6168" lon="-2.8184">
        <ele>53</ele>
        <time>2018-04-14T07:30:48Z</time>
      </trkpt>
      <trkpt lat="47.6168" lon="-2.81836">
        <ele>53</ele>
        <time>2018-04-14T07:30:51Z</time>
      </trkpt>
      <trkpt lat="47.6168" lon="-2.81832">
        <ele>53</ele>
        <time>2018-04-14T07:30:54Z</time>
      </trkpt>
      <trkpt lat="47.61681" lon="-2.81825">
        <ele>53</ele>
        <time>2018-04-14T07:30:59Z</time>
      </trkpt>
      <trkpt lat="47.6168" lon="-2.81818">
        <ele>54</ele>
        <time>2018-04-14T07:31:03Z</time>
      </trkpt>
      <trkpt lat="47.6168" lon="-2.81811">
        <ele>54</ele>
        <time>2018-04-14T07:31:07Z</time>
      </trkpt>
      <trkpt lat="47.6168" lon="-2.81805">
        <ele>53</ele>
        <time>2018-04-14T07:31:10Z</time>
      </trkpt>
      <trkpt lat="47.61681" lon="-2.81797">
        <ele>54</ele>
        <time>2018-04-14T07:31:15Z</time>
      </trkpt>
      <trkpt lat="47.61681" lon="-2.81789">
        <ele>54</ele>
        <time>2018-04-14T07:31:20Z</time>
      </trkpt>
      <trkpt lat="47.61681" lon="-2.81783">
        <ele>53</ele>
        <time>2018-04-14T07:31:23Z</time>
      </trkpt>
      <trkpt lat="47.61682" lon="-2.81772">
        <ele>53</ele>
        <time>2018-04-14T07:31:28Z</time>
      </trkpt>
      <trkpt lat="47.61683" lon="-2.81767">
        <ele>54</ele>
        <time>2018-04-14T07:31:31Z</time>
      </trkpt>
      <trkpt lat="47.61682" lon="-2.8176">
        <ele>55</ele>
        <time>2018-04-14T07:31:36Z</time>
      </trkpt>
      <trkpt lat="47.61682" lon="-2.81753">
        <ele>56</ele>
        <time>2018-04-14T07:31:40Z</time>
      </trkpt>
      <trkpt lat="47.61683" lon="-2.81745">
        <ele>57</ele>
        <time>2018-04-14T07:31:44Z</time>
      </trkpt>
      <trkpt lat="47.61683" lon="-2.81737">
        <ele>57</ele>
        <time>2018-04-14T07:31:48Z</time>
      </trkpt>
      <trkpt lat="47.61683" lon="-2.81733">
        <ele>57</ele>
        <time>2018-04-14T07:31:50Z</time>
      </trkpt>
      <trkpt lat="47.61682" lon="-2.81726">
        <ele>55</ele>
        <time>2018-04-14T07:31:54Z</time>
      </trkpt>
      <trkpt lat="47.61682" lon="-2.81719">
        <ele>53</ele>
        <time>2018-04-14T07:31:58Z</time>
      </trkpt>
      <trkpt lat="47.61682" lon="-2.81711">
        <ele>51</ele>
        <time>2018-04-14T07:32:05Z</time>
      </trkpt>
      <trkpt lat="47.61683" lon="-2.81708">
        <ele>51</ele>
        <time>2018-04-14T07:32:07Z</time>
      </trkpt>
      <trkpt lat="47.61684" lon="-2.81701">
        <ele>49</ele>
        <time>2018-04-14T07:32:11Z</time>
      </trkpt>
      <trkpt lat="47.61684" lon="-2.81693">
        <ele>48</ele>
        <time>2018-04-14T07:32:15Z</time>
      </trkpt>
      <trkpt lat="47.61684" lon="-2.81689">
        <ele>49</ele>
        <time>2018-04-14T07:32:18Z</time>
      </trkpt>
      <trkpt lat="47.61686" lon="-2.81682">
        <ele>48</ele>
        <time>2018-04-14T07:32:23Z</time>
      </trkpt>
      <trkpt lat="47.61687" lon="-2.81675">
        <ele>48</ele>
        <time>2018-04-14T07:32:27Z</time>
      </trkpt>
      <trkpt lat="47.61687" lon="-2.81667">
        <ele>48</ele>
        <time>2018-04-14T07:32:31Z</time>
      </trkpt>
      <trkpt lat="47.61685" lon="-2.8166">
        <ele>50</ele>
        <time>2018-04-14T07:32:35Z</time>
      </trkpt>
      <trkpt lat="47.61685" lon="-2.81652">
        <ele>49</ele>
        <time>2018-04-14T07:32:39Z</time>
      </trkpt>
      <trkpt lat="47.61685" lon="-2.81644">
        <ele>51</ele>
        <time>2018-04-14T07:32:43Z</time>
      </trkpt>
      <trkpt lat="47.61684" lon="-2.81636">
        <ele>51</ele>
        <time>2018-04-14T07:32:48Z</time>
      </trkpt>
      <trkpt lat="47.61682" lon="-2.8163">
        <ele>51</ele>
        <time>2018-04-14T07:32:52Z</time>
      </trkpt>
      <trkpt lat="47.61678" lon="-2.81624">
        <ele>52</ele>
        <time>2018-04-14T07:32:56Z</time>
      </trkpt>
      <trkpt lat="47.61675" lon="-2.81619">
        <ele>53</ele>
        <time>2018-04-14T07:32:59Z</time>
      </trkpt>
      <trkpt lat="47.6167" lon="-2.81614">
        <ele>53</ele>
        <time>2018-04-14T07:33:03Z</time>
      </trkpt>
      <trkpt lat="47.61666" lon="-2.8161">
        <ele>54</ele>
        <time>2018-04-14T07:33:07Z</time>
      </trkpt>
      <trkpt lat="47.61664" lon="-2.81604">
        <ele>54</ele>
        <time>2018-04-14T07:33:10Z</time>
      </trkpt>
      <trkpt lat="47.61661" lon="-2.81595">
        <ele>54</ele>
        <time>2018-04-14T07:33:16Z</time>
      </trkpt>
      <trkpt lat="47.61657" lon="-2.8159">
        <ele>55</ele>
        <time>2018-04-14T07:33:20Z</time>
      </trkpt>
      <trkpt lat="47.61655" lon="-2.81587">
        <ele>55</ele>
        <time>2018-04-14T07:33:22Z</time>
      </trkpt>
      <trkpt lat="47.61652" lon="-2.81582">
        <ele>56</ele>
        <time>2018-04-14T07:33:25Z</time>
      </trkpt>
      <trkpt lat="47.61649" lon="-2.81579">
        <ele>56</ele>
        <time>2018-04-14T07:33:27Z</time>
      </trkpt>
      <trkpt lat="47.61645" lon="-2.81575">
        <ele>55</ele>
        <time>2018-04-14T07:33:30Z</time>
      </trkpt>
      <trkpt lat="47.61643" lon="-2.81572">
        <ele>56</ele>
        <time>2018-04-14T07:33:32Z</time>
      </trkpt>
      <trkpt lat="47.61639" lon="-2.81566">
        <ele>56</ele>
        <time>2018-04-14T07:33:35Z</time>
      </trkpt>
      <trkpt lat="47.61635" lon="-2.81562">
        <ele>56</ele>
        <time>2018-04-14T07:33:38Z</time>
      </trkpt>
      <trkpt lat="47.6163" lon="-2.81558">
        <ele>57</ele>
        <time>2018-04-14T07:33:41Z</time>
      </trkpt>
      <trkpt lat="47.61627" lon="-2.81557">
        <ele>57</ele>
        <time>2018-04-14T07:33:43Z</time>
      </trkpt>
      <trkpt lat="47.61623" lon="-2.81554">
        <ele>57</ele>
        <time>2018-04-14T07:33:46Z</time>
      </trkpt>
      <trkpt lat="47.6162" lon="-2.81551">
        <ele>56</ele>
        <time>2018-04-14T07:33:48Z</time>
      </trkpt>
      <trkpt lat="47.61617" lon="-2.81549">
        <ele>56</ele>
        <time>2018-04-14T07:33:50Z</time>
      </trkpt>
      <trkpt lat="47.61613" lon="-2.81547">
        <ele>55</ele>
        <time>2018-04-14T07:33:53Z</time>
      </trkpt>
      <trkpt lat="47.61608" lon="-2.81543">
        <ele>56</ele>
        <time>2018-04-14T07:33:56Z</time>
      </trkpt>
      <trkpt lat="47.61604" lon="-2.81541">
        <ele>55</ele>
        <time>2018-04-14T07:33:59Z</time>
      </trkpt>
      <trkpt lat="47.61601" lon="-2.81535">
        <ele>56</ele>
        <time>2018-04-14T07:34:02Z</time>
      </trkpt>
      <trkpt lat="47.61596" lon="-2.81531">
        <ele>57</ele>
        <time>2018-04-14T07:34:06Z</time>
      </trkpt>
      <trkpt lat="47.61591" lon="-2.81533">
        <ele>56</ele>
        <time>2018-04-14T07:34:10Z</time>
      </trkpt>
      <trkpt lat="47.61587" lon="-2.81527">
        <ele>57</ele>
        <time>2018-04-14T07:34:13Z</time>
      </trkpt>
      <trkpt lat="47.61583" lon="-2.81523">
        <ele>57</ele>
        <time>2018-04-14T07:34:16Z</time>
      </trkpt>
      <trkpt lat="47.61581" lon="-2.81521">
        <ele>58</ele>
        <time>2018-04-14T07:34:18Z</time>
      </trkpt>
      <trkpt lat="47.61575" lon="-2.81515">
        <ele>59</ele>
        <time>2018-04-14T07:34:22Z</time>
      </trkpt>
      <trkpt lat="47.6157" lon="-2.81512">
        <ele>59</ele>
        <time>2018-04-14T07:34:25Z</time>
      </trkpt>
      <trkpt lat="47.61567" lon="-2.8151">
        <ele>58</ele>
        <time>2018-04-14T07:34:27Z</time>
      </trkpt>
      <trkpt lat="47.61565" lon="-2.81508">
        <ele>57</ele>
        <time>2018-04-14T07:34:29Z</time>
      </trkpt>
      <trkpt lat="47.61561" lon="-2.81505">
        <ele>58</ele>
        <time>2018-04-14T07:34:32Z</time>
      </trkpt>
      <trkpt lat="47.61557" lon="-2.815">
        <ele>57</ele>
        <time>2018-04-14T07:34:36Z</time>
      </trkpt>
      <trkpt lat="47.61555" lon="-2.81497">
        <ele>57</ele>
        <time>2018-04-14T07:34:38Z</time>
      </trkpt>
      <trkpt lat="47.61553" lon="-2.81495">
        <ele>56</ele>
        <time>2018-04-14T07:34:40Z</time>
      </trkpt>
      <trkpt lat="47.61551" lon="-2.81491">
        <ele>57</ele>
        <time>2018-04-14T07:34:42Z</time>
      </trkpt>
      <trkpt lat="47.61548" lon="-2.81487">
        <ele>57</ele>
        <time>2018-04-14T07:34:45Z</time>
      </trkpt>
      <trkpt lat="47.61543" lon="-2.81482">
        <ele>57</ele>
        <time>2018-04-14T07:34:49Z</time>
      </trkpt>
      <trkpt lat="47.61538" lon="-2.81477">
        <ele>57</ele>
        <time>2018-04-14T07:34:54Z</time>
      </trkpt>
      <trkpt lat="47.61533" lon="-2.81473">
        <ele>55</ele>
        <time>2018-04-14T07:34:58Z</time>
      </trkpt>
      <trkpt lat="47.61529" lon="-2.81471">
        <ele>56</ele>
        <time>2018-04-14T07:35:02Z</time>
      </trkpt>
      <trkpt lat="47.61525" lon="-2.81467">
        <ele>57</ele>
        <time>2018-04-14T07:35:05Z</time>
      </trkpt>
      <trkpt lat="47.61522" lon="-2.81464">
        <ele>57</ele>
        <time>2018-04-14T07:35:07Z</time>
      </trkpt>
      <trkpt lat="47.61519" lon="-2.81459">
        <ele>58</ele>
        <time>2018-04-14T07:35:10Z</time>
      </trkpt>
      <trkpt lat="47.61514" lon="-2.81455">
        <ele>57</ele>
        <time>2018-04-14T07:35:15Z</time>
      </trkpt>
      <trkpt lat="47.6151" lon="-2.81449">
        <ele>55</ele>
        <time>2018-04-14T07:35:22Z</time>
      </trkpt>
      <trkpt lat="47.61506" lon="-2.81445">
        <ele>55</ele>
        <time>2018-04-14T07:35:26Z</time>
      </trkpt>
      <trkpt lat="47.61502" lon="-2.81441">
        <ele>55</ele>
        <time>2018-04-14T07:35:30Z</time>
      </trkpt>
      <trkpt lat="47.61499" lon="-2.81435">
        <ele>55</ele>
        <time>2018-04-14T07:35:34Z</time>
      </trkpt>
      <trkpt lat="47.61496" lon="-2.8143">
        <ele>55</ele>
        <time>2018-04-14T07:35:37Z</time>
      </trkpt>
      <trkpt lat="47.61494" lon="-2.81426">
        <ele>54</ele>
        <time>2018-04-14T07:35:40Z</time>
      </trkpt>
      <trkpt lat="47.61492" lon="-2.81419">
        <ele>54</ele>
        <time>2018-04-14T07:35:44Z</time>
      </trkpt>
      <trkpt lat="47.6149" lon="-2.81416">
        <ele>54</ele>
        <time>2018-04-14T07:35:46Z</time>
      </trkpt>
      <trkpt lat="47.61489" lon="-2.81413">
        <ele>54</ele>
        <time>2018-04-14T07:35:48Z</time>
      </trkpt>
      <trkpt lat="47.61489" lon="-2.81413">
        <ele>54</ele>
        <time>2018-04-14T07:35:53Z</time>
      </trkpt>
      <trkpt lat="47.61489" lon="-2.81413">
        <ele>1</ele>
        <time>2018-04-14T07:35:53Z</time>
      </trkpt>
      <trkpt lat="47.61489" lon="-2.81413">
        <ele>1</ele>
        <time>2018-04-14T07:36:13Z</time>
      </trkpt>
      <trkpt lat="47.61474" lon="-2.81383">
        <ele>56</ele>
        <time>2018-04-14T07:36:13Z</time>
      </trkpt>
      <trkpt lat="47.61471" lon="-2.81378">
        <ele>56</ele>
        <time>2018-04-14T07:36:17Z</time>
      </trkpt>
      <trkpt lat="47.61471" lon="-2.81378">
        <ele>1</ele>
        <time>2018-04-14T07:36:25Z</time>
      </trkpt>
      <trkpt lat="47.61471" lon="-2.81378">
        <ele>1</ele>
        <time>2018-04-14T07:36:48Z</time>
      </trkpt>
      <trkpt lat="47.61454" lon="-2.81361">
        <ele>51</ele>
        <time>2018-04-14T07:36:48Z</time>
      </trkpt>
      <trkpt lat="47.61453" lon="-2.81357">
        <ele>53</ele>
        <time>2018-04-14T07:36:52Z</time>
      </trkpt>
      <trkpt lat="47.61453" lon="-2.81357">
        <time>2018-04-14T07:36:59Z</time>
      </trkpt>
      <trkpt lat="47.61453" lon="-2.81357">
        <time>2018-04-14T07:37:42Z</time>
      </trkpt>
      <trkpt lat="47.61431" lon="-2.8133">
        <ele>53</ele>
        <time>2018-04-14T07:37:42Z</time>
      </trkpt>
      <trkpt lat="47.61427" lon="-2.81323">
        <ele>53</ele>
        <time>2018-04-14T07:37:47Z</time>
      </trkpt>
      <trkpt lat="47.61423" lon="-2.81318">
        <ele>52</ele>
        <time>2018-04-14T07:37:50Z</time>
      </trkpt>
      <trkpt lat="47.61421" lon="-2.81312">
        <ele>53</ele>
        <time>2018-04-14T07:37:53Z</time>
      </trkpt>
      <trkpt lat="47.61418" lon="-2.81306">
        <ele>54</ele>
        <time>2018-04-14T07:37:56Z</time>
      </trkpt>
      <trkpt lat="47.61412" lon="-2.813">
        <ele>54</ele>
        <time>2018-04-14T07:38:02Z</time>
      </trkpt>
      <trkpt lat="47.61409" lon="-2.81294">
        <ele>53</ele>
        <time>2018-04-14T07:38:04Z</time>
      </trkpt>
      <trkpt lat="47.61405" lon="-2.81291">
        <ele>55</ele>
        <time>2018-04-14T07:38:07Z</time>
      </trkpt>
      <trkpt lat="47.61402" lon="-2.81287">
        <ele>55</ele>
        <time>2018-04-14T07:38:10Z</time>
      </trkpt>
      <trkpt lat="47.61396" lon="-2.81281">
        <ele>54</ele>
        <time>2018-04-14T07:38:16Z</time>
      </trkpt>
      <trkpt lat="47.61393" lon="-2.81273">
        <ele>53</ele>
        <time>2018-04-14T07:38:19Z</time>
      </trkpt>
      <trkpt lat="47.61391" lon="-2.81266">
        <ele>55</ele>
        <time>2018-04-14T07:38:22Z</time>
      </trkpt>
      <trkpt lat="47.6139" lon="-2.81262">
        <ele>56</ele>
        <time>2018-04-14T07:38:24Z</time>
      </trkpt>
      <trkpt lat="47.61386" lon="-2.81258">
        <ele>56</ele>
        <time>2018-04-14T07:38:29Z</time>
      </trkpt>
      <trkpt lat="47.61384" lon="-2.81255">
        <ele>56</ele>
        <time>2018-04-14T07:38:31Z</time>
      </trkpt>
      <trkpt lat="47.6138" lon="-2.81251">
        <ele>54</ele>
        <time>2018-04-14T07:38:34Z</time>
      </trkpt>
      <trkpt lat="47.61377" lon="-2.81245">
        <ele>55</ele>
        <time>2018-04-14T07:38:39Z</time>
      </trkpt>
      <trkpt lat="47.61373" lon="-2.8124">
        <ele>55</ele>
        <time>2018-04-14T07:38:43Z</time>
      </trkpt>
      <trkpt lat="47.61369" lon="-2.81237">
        <ele>56</ele>
        <time>2018-04-14T07:38:46Z</time>
      </trkpt>
      <trkpt lat="47.61365" lon="-2.81233">
        <ele>55</ele>
        <time>2018-04-14T07:38:51Z</time>
      </trkpt>
      <trkpt lat="47.61361" lon="-2.81228">
        <ele>52</ele>
        <time>2018-04-14T07:38:55Z</time>
      </trkpt>
      <trkpt lat="47.61356" lon="-2.81223">
        <ele>51</ele>
        <time>2018-04-14T07:38:59Z</time>
      </trkpt>
      <trkpt lat="47.61351" lon="-2.81219">
        <ele>49</ele>
        <time>2018-04-14T07:39:03Z</time>
      </trkpt>
      <trkpt lat="47.61349" lon="-2.81211">
        <ele>49</ele>
        <time>2018-04-14T07:39:08Z</time>
      </trkpt>
      <trkpt lat="47.61344" lon="-2.81206">
        <ele>51</ele>
        <time>2018-04-14T07:39:13Z</time>
      </trkpt>
      <trkpt lat="47.61341" lon="-2.81199">
        <ele>52</ele>
        <time>2018-04-14T07:39:17Z</time>
      </trkpt>
      <trkpt lat="47.6134" lon="-2.81196">
        <ele>52</ele>
        <time>2018-04-14T07:39:19Z</time>
      </trkpt>
      <trkpt lat="47.61336" lon="-2.81189">
        <ele>53</ele>
        <time>2018-04-14T07:39:23Z</time>
      </trkpt>
      <trkpt lat="47.61333" lon="-2.81183">
        <ele>52</ele>
        <time>2018-04-14T07:39:27Z</time>
      </trkpt>
      <trkpt lat="47.6133" lon="-2.8118">
        <ele>53</ele>
        <time>2018-04-14T07:39:29Z</time>
      </trkpt>
      <trkpt lat="47.61327" lon="-2.81173">
        <ele>53</ele>
        <time>2018-04-14T07:39:33Z</time>
      </trkpt>
      <trkpt lat="47.61323" lon="-2.81168">
        <ele>53</ele>
        <time>2018-04-14T07:39:37Z</time>
      </trkpt>
      <trkpt lat="47.61321" lon="-2.81165">
        <ele>54</ele>
        <time>2018-04-14T07:39:39Z</time>
      </trkpt>
      <trkpt lat="47.61318" lon="-2.81162">
        <ele>53</ele>
        <time>2018-04-14T07:39:42Z</time>
      </trkpt>
      <trkpt lat="47.61315" lon="-2.81156">
        <ele>53</ele>
        <time>2018-04-14T07:39:46Z</time>
      </trkpt>
      <trkpt lat="47.61311" lon="-2.81152">
        <ele>53</ele>
        <time>2018-04-14T07:39:50Z</time>
      </trkpt>
      <trkpt lat="47.61309" lon="-2.81149">
        <ele>53</ele>
        <time>2018-04-14T07:39:54Z</time>
      </trkpt>
      <trkpt lat="47.61307" lon="-2.81146">
        <ele>53</ele>
        <time>2018-04-14T07:39:59Z</time>
      </trkpt>
      <trkpt lat="47.61303" lon="-2.81141">
        <ele>52</ele>
        <time>2018-04-14T07:40:06Z</time>
      </trkpt>
      <trkpt lat="47.61299" lon="-2.81136">
        <ele>49</ele>
        <time>2018-04-14T07:40:11Z</time>
      </trkpt>
      <trkpt lat="47.61292" lon="-2.81126">
        <ele>48</ele>
        <time>2018-04-14T07:40:15Z</time>
      </trkpt>
      <trkpt lat="47.61287" lon="-2.81121">
        <ele>48</ele>
        <time>2018-04-14T07:40:20Z</time>
      </trkpt>
      <trkpt lat="47.61284" lon="-2.81113">
        <ele>48</ele>
        <time>2018-04-14T07:40:24Z</time>
      </trkpt>
      <trkpt lat="47.61282" lon="-2.81103">
        <ele>47</ele>
        <time>2018-04-14T07:40:28Z</time>
      </trkpt>
      <trkpt lat="47.61279" lon="-2.81097">
        <ele>48</ele>
        <time>2018-04-14T07:40:31Z</time>
      </trkpt>
      <trkpt lat="47.61278" lon="-2.81092">
        <ele>50</ele>
        <time>2018-04-14T07:40:34Z</time>
      </trkpt>
      <trkpt lat="47.61274" lon="-2.81088">
        <ele>51</ele>
        <time>2018-04-14T07:40:37Z</time>
      </trkpt>
      <trkpt lat="47.61272" lon="-2.81085">
        <ele>51</ele>
        <time>2018-04-14T07:40:39Z</time>
      </trkpt>
      <trkpt lat="47.61271" lon="-2.81077">
        <ele>51</ele>
        <time>2018-04-14T07:40:42Z</time>
      </trkpt>
      <trkpt lat="47.61269" lon="-2.81071">
        <ele>51</ele>
        <time>2018-04-14T07:40:45Z</time>
      </trkpt>
      <trkpt lat="47.61268" lon="-2.81067">
        <ele>52</ele>
        <time>2018-04-14T07:40:47Z</time>
      </trkpt>
      <trkpt lat="47.61263" lon="-2.81062">
        <ele>50</ele>
        <time>2018-04-14T07:40:52Z</time>
      </trkpt>
      <trkpt lat="47.6126" lon="-2.81056">
        <ele>49</ele>
        <time>2018-04-14T07:40:55Z</time>
      </trkpt>
      <trkpt lat="47.61258" lon="-2.8105">
        <ele>49</ele>
        <time>2018-04-14T07:40:58Z</time>
      </trkpt>
      <trkpt lat="47.61254" lon="-2.81044">
        <ele>48</ele>
        <time>2018-04-14T07:41:02Z</time>
      </trkpt>
      <trkpt lat="47.6125" lon="-2.81036">
        <ele>49</ele>
        <time>2018-04-14T07:41:06Z</time>
      </trkpt>
      <trkpt lat="47.61248" lon="-2.8103">
        <ele>50</ele>
        <time>2018-04-14T07:41:09Z</time>
      </trkpt>
      <trkpt lat="47.61246" lon="-2.81025">
        <ele>51</ele>
        <time>2018-04-14T07:41:11Z</time>
      </trkpt>
      <trkpt lat="47.61244" lon="-2.81016">
        <ele>47</ele>
        <time>2018-04-14T07:41:17Z</time>
      </trkpt>
      <trkpt lat="47.61239" lon="-2.8101">
        <ele>50</ele>
        <time>2018-04-14T07:41:23Z</time>
      </trkpt>
      <trkpt lat="47.61238" lon="-2.81003">
        <ele>51</ele>
        <time>2018-04-14T07:41:26Z</time>
      </trkpt>
      <trkpt lat="47.61233" lon="-2.80998">
        <ele>52</ele>
        <time>2018-04-14T07:41:30Z</time>
      </trkpt>
      <trkpt lat="47.61231" lon="-2.8099">
        <ele>53</ele>
        <time>2018-04-14T07:41:34Z</time>
      </trkpt>
      <trkpt lat="47.6123" lon="-2.80986">
        <ele>53</ele>
        <time>2018-04-14T07:41:36Z</time>
      </trkpt>
      <trkpt lat="47.61224" lon="-2.80976">
        <ele>51</ele>
        <time>2018-04-14T07:41:42Z</time>
      </trkpt>
      <trkpt lat="47.61222" lon="-2.80972">
        <ele>51</ele>
        <time>2018-04-14T07:41:45Z</time>
      </trkpt>
      <trkpt lat="47.6122" lon="-2.80965">
        <ele>51</ele>
        <time>2018-04-14T07:41:47Z</time>
      </trkpt>
      <trkpt lat="47.61219" lon="-2.80961">
        <ele>51</ele>
        <time>2018-04-14T07:41:49Z</time>
      </trkpt>
      <trkpt lat="47.61216" lon="-2.80955">
        <ele>49</ele>
        <time>2018-04-14T07:41:52Z</time>
      </trkpt>
      <trkpt lat="47.61214" lon="-2.80949">
        <ele>51</ele>
        <time>2018-04-14T07:41:55Z</time>
      </trkpt>
      <trkpt lat="47.61211" lon="-2.80943">
        <ele>51</ele>
        <time>2018-04-14T07:41:58Z</time>
      </trkpt>
      <trkpt lat="47.61207" lon="-2.80935">
        <ele>51</ele>
        <time>2018-04-14T07:42:04Z</time>
      </trkpt>
      <trkpt lat="47.61204" lon="-2.80929">
        <ele>51</ele>
        <time>2018-04-14T07:42:08Z</time>
      </trkpt>
      <trkpt lat="47.61201" lon="-2.80921">
        <ele>51</ele>
        <time>2018-04-14T07:42:12Z</time>
      </trkpt>
      <trkpt lat="47.61198" lon="-2.80916">
        <ele>51</ele>
        <time>2018-04-14T07:42:14Z</time>
      </trkpt>
      <trkpt lat="47.61195" lon="-2.8091">
        <ele>51</ele>
        <time>2018-04-14T07:42:18Z</time>
      </trkpt>
      <trkpt lat="47.6119" lon="-2.80904">
        <ele>48</ele>
        <time>2018-04-14T07:42:21Z</time>
      </trkpt>
      <trkpt lat="47.61187" lon="-2.80894">
        <ele>51</ele>
        <time>2018-04-14T07:42:26Z</time>
      </trkpt>
      <trkpt lat="47.61186" lon="-2.8089">
        <ele>50</ele>
        <time>2018-04-14T07:42:28Z</time>
      </trkpt>
      <trkpt lat="47.61186" lon="-2.8088">
        <ele>50</ele>
        <time>2018-04-14T07:42:31Z</time>
      </trkpt>
      <trkpt lat="47.61184" lon="-2.80873">
        <ele>52</ele>
        <time>2018-04-14T07:42:35Z</time>
      </trkpt>
      <trkpt lat="47.61183" lon="-2.80869">
        <ele>52</ele>
        <time>2018-04-14T07:42:38Z</time>
      </trkpt>
      <trkpt lat="47.61181" lon="-2.80863">
        <ele>51</ele>
        <time>2018-04-14T07:42:41Z</time>
      </trkpt>
      <trkpt lat="47.61181" lon="-2.80859">
        <ele>53</ele>
        <time>2018-04-14T07:42:43Z</time>
      </trkpt>
      <trkpt lat="47.61181" lon="-2.80852">
        <ele>56</ele>
        <time>2018-04-14T07:42:50Z</time>
      </trkpt>
      <trkpt lat="47.6118" lon="-2.80843">
        <ele>55</ele>
        <time>2018-04-14T07:42:54Z</time>
      </trkpt>
      <trkpt lat="47.61176" lon="-2.80838">
        <ele>55</ele>
        <time>2018-04-14T07:42:58Z</time>
      </trkpt>
      <trkpt lat="47.61173" lon="-2.80828">
        <ele>55</ele>
        <time>2018-04-14T07:43:03Z</time>
      </trkpt>
      <trkpt lat="47.61171" lon="-2.80822">
        <ele>56</ele>
        <time>2018-04-14T07:43:06Z</time>
      </trkpt>
      <trkpt lat="47.6117" lon="-2.80814">
        <ele>55</ele>
        <time>2018-04-14T07:43:10Z</time>
      </trkpt>
      <trkpt lat="47.61168" lon="-2.80807">
        <ele>56</ele>
        <time>2018-04-14T07:43:14Z</time>
      </trkpt>
      <trkpt lat="47.61166" lon="-2.80803">
        <ele>57</ele>
        <time>2018-04-14T07:43:16Z</time>
      </trkpt>
      <trkpt lat="47.61164" lon="-2.80794">
        <ele>55</ele>
        <time>2018-04-14T07:43:20Z</time>
      </trkpt>
      <trkpt lat="47.61162" lon="-2.80786">
        <ele>56</ele>
        <time>2018-04-14T07:43:23Z</time>
      </trkpt>
      <trkpt lat="47.6116" lon="-2.8078">
        <ele>56</ele>
        <time>2018-04-14T07:43:27Z</time>
      </trkpt>
      <trkpt lat="47.61159" lon="-2.80772">
        <ele>56</ele>
        <time>2018-04-14T07:43:30Z</time>
      </trkpt>
      <trkpt lat="47.61154" lon="-2.80767">
        <ele>52</ele>
        <time>2018-04-14T07:43:33Z</time>
      </trkpt>
      <trkpt lat="47.61152" lon="-2.80765">
        <ele>48</ele>
        <time>2018-04-14T07:43:36Z</time>
      </trkpt>
      <trkpt lat="47.6115" lon="-2.80759">
        <ele>46</ele>
        <time>2018-04-14T07:43:39Z</time>
      </trkpt>
      <trkpt lat="47.61148" lon="-2.80753">
        <ele>45</ele>
        <time>2018-04-14T07:43:42Z</time>
      </trkpt>
      <trkpt lat="47.61147" lon="-2.80749">
        <ele>47</ele>
        <time>2018-04-14T07:43:44Z</time>
      </trkpt>
      <trkpt lat="47.61146" lon="-2.80742">
        <ele>47</ele>
        <time>2018-04-14T07:43:46Z</time>
      </trkpt>
      <trkpt lat="47.61144" lon="-2.80734">
        <ele>47</ele>
        <time>2018-04-14T07:43:49Z</time>
      </trkpt>
      <trkpt lat="47.61142" lon="-2.80728">
        <ele>47</ele>
        <time>2018-04-14T07:43:52Z</time>
      </trkpt>
      <trkpt lat="47.61141" lon="-2.8072">
        <ele>47</ele>
        <time>2018-04-14T07:43:57Z</time>
      </trkpt>
      <trkpt lat="47.6114" lon="-2.80716">
        <ele>48</ele>
        <time>2018-04-14T07:43:59Z</time>
      </trkpt>
      <trkpt lat="47.61139" lon="-2.80709">
        <ele>49</ele>
        <time>2018-04-14T07:44:02Z</time>
      </trkpt>
      <trkpt lat="47.61138" lon="-2.80702">
        <ele>49</ele>
        <time>2018-04-14T07:44:05Z</time>
      </trkpt>
      <trkpt lat="47.61136" lon="-2.80694">
        <ele>48</ele>
        <time>2018-04-14T07:44:09Z</time>
      </trkpt>
      <trkpt lat="47.61135" lon="-2.8069">
        <ele>48</ele>
        <time>2018-04-14T07:44:11Z</time>
      </trkpt>
      <trkpt lat="47.61132" lon="-2.80685">
        <ele>48</ele>
        <time>2018-04-14T07:44:14Z</time>
      </trkpt>
      <trkpt lat="47.6113" lon="-2.80675">
        <ele>45</ele>
        <time>2018-04-14T07:44:19Z</time>
      </trkpt>
      <trkpt lat="47.6113" lon="-2.8067">
        <ele>45</ele>
        <time>2018-04-14T07:44:21Z</time>
      </trkpt>
      <trkpt lat="47.61129" lon="-2.80663">
        <ele>44</ele>
        <time>2018-04-14T07:44:24Z</time>
      </trkpt>
      <trkpt lat="47.61126" lon="-2.80657">
        <ele>44</ele>
        <time>2018-04-14T07:44:27Z</time>
      </trkpt>
      <trkpt lat="47.61124" lon="-2.80653">
        <ele>46</ele>
        <time>2018-04-14T07:44:30Z</time>
      </trkpt>
      <trkpt lat="47.61122" lon="-2.80647">
        <ele>46</ele>
        <time>2018-04-14T07:44:33Z</time>
      </trkpt>
      <trkpt lat="47.61118" lon="-2.80638">
        <ele>46</ele>
        <time>2018-04-14T07:44:38Z</time>
      </trkpt>
      <trkpt lat="47.61115" lon="-2.80632">
        <ele>46</ele>
        <time>2018-04-14T07:44:43Z</time>
      </trkpt>
      <trkpt lat="47.61113" lon="-2.80624">
        <ele>48</ele>
        <time>2018-04-14T07:44:46Z</time>
      </trkpt>
      <trkpt lat="47.61111" lon="-2.80617">
        <ele>47</ele>
        <time>2018-04-14T07:44:49Z</time>
      </trkpt>
      <trkpt lat="47.61111" lon="-2.80609">
        <ele>48</ele>
        <time>2018-04-14T07:44:53Z</time>
      </trkpt>
      <trkpt lat="47.61111" lon="-2.80606">
        <ele>48</ele>
        <time>2018-04-14T07:44:54Z</time>
      </trkpt>
      <trkpt lat="47.6111" lon="-2.80598">
        <ele>48</ele>
        <time>2018-04-14T07:44:57Z</time>
      </trkpt>
      <trkpt lat="47.6111" lon="-2.80594">
        <ele>48</ele>
        <time>2018-04-14T07:44:59Z</time>
      </trkpt>
      <trkpt lat="47.61108" lon="-2.80587">
        <ele>49</ele>
        <time>2018-04-14T07:45:02Z</time>
      </trkpt>
      <trkpt lat="47.61105" lon="-2.8058">
        <ele>49</ele>
        <time>2018-04-14T07:45:06Z</time>
      </trkpt>
      <trkpt lat="47.61103" lon="-2.80572">
        <ele>49</ele>
        <time>2018-04-14T07:45:09Z</time>
      </trkpt>
      <trkpt lat="47.61101" lon="-2.80565">
        <ele>48</ele>
        <time>2018-04-14T07:45:13Z</time>
      </trkpt>
      <trkpt lat="47.61097" lon="-2.80554">
        <ele>49</ele>
        <time>2018-04-14T07:45:19Z</time>
      </trkpt>
      <trkpt lat="47.61097" lon="-2.80547">
        <ele>49</ele>
        <time>2018-04-14T07:45:22Z</time>
      </trkpt>
      <trkpt lat="47.61094" lon="-2.80541">
        <ele>47</ele>
        <time>2018-04-14T07:45:26Z</time>
      </trkpt>
      <trkpt lat="47.61093" lon="-2.80534">
        <ele>44</ele>
        <time>2018-04-14T07:45:30Z</time>
      </trkpt>
      <trkpt lat="47.6109" lon="-2.80528">
        <ele>44</ele>
        <time>2018-04-14T07:45:33Z</time>
      </trkpt>
      <trkpt lat="47.61088" lon="-2.8052">
        <ele>47</ele>
        <time>2018-04-14T07:45:39Z</time>
      </trkpt>
      <trkpt lat="47.61086" lon="-2.80513">
        <ele>48</ele>
        <time>2018-04-14T07:45:42Z</time>
      </trkpt>
      <trkpt lat="47.61081" lon="-2.80508">
        <ele>47</ele>
        <time>2018-04-14T07:45:45Z</time>
      </trkpt>
      <trkpt lat="47.61079" lon="-2.80502">
        <ele>47</ele>
        <time>2018-04-14T07:45:48Z</time>
      </trkpt>
      <trkpt lat="47.61077" lon="-2.80497">
        <ele>47</ele>
        <time>2018-04-14T07:45:50Z</time>
      </trkpt>
      <trkpt lat="47.61074" lon="-2.8049">
        <ele>48</ele>
        <time>2018-04-14T07:45:55Z</time>
      </trkpt>
      <trkpt lat="47.61072" lon="-2.80486">
        <ele>46</ele>
        <time>2018-04-14T07:45:57Z</time>
      </trkpt>
      <trkpt lat="47.6107" lon="-2.80482">
        <ele>47</ele>
        <time>2018-04-14T07:45:58Z</time>
      </trkpt>
      <trkpt lat="47.61069" lon="-2.80473">
        <ele>49</ele>
        <time>2018-04-14T07:46:01Z</time>
      </trkpt>
      <trkpt lat="47.61065" lon="-2.80464">
        <ele>48</ele>
        <time>2018-04-14T07:46:06Z</time>
      </trkpt>
      <trkpt lat="47.61062" lon="-2.80459">
        <ele>48</ele>
        <time>2018-04-14T07:46:09Z</time>
      </trkpt>
      <trkpt lat="47.6106" lon="-2.80452">
        <ele>47</ele>
        <time>2018-04-14T07:46:12Z</time>
      </trkpt>
      <trkpt lat="47.61058" lon="-2.80445">
        <ele>49</ele>
        <time>2018-04-14T07:46:16Z</time>
      </trkpt>
      <trkpt lat="47.61057" lon="-2.80439">
        <ele>48</ele>
        <time>2018-04-14T07:46:19Z</time>
      </trkpt>
      <trkpt lat="47.61056" lon="-2.80429">
        <ele>51</ele>
        <time>2018-04-14T07:46:23Z</time>
      </trkpt>
      <trkpt lat="47.61055" lon="-2.80426">
        <ele>52</ele>
        <time>2018-04-14T07:46:24Z</time>
      </trkpt>
      <trkpt lat="47.61055" lon="-2.80417">
        <ele>56</ele>
        <time>2018-04-14T07:46:28Z</time>
      </trkpt>
      <trkpt lat="47.61053" lon="-2.80411">
        <ele>55</ele>
        <time>2018-04-14T07:46:31Z</time>
      </trkpt>
      <trkpt lat="47.61051" lon="-2.80407">
        <ele>54</ele>
        <time>2018-04-14T07:46:33Z</time>
      </trkpt>
      <trkpt lat="47.61049" lon="-2.80401">
        <ele>53</ele>
        <time>2018-04-14T07:46:36Z</time>
      </trkpt>
      <trkpt lat="47.61047" lon="-2.80394">
        <ele>54</ele>
        <time>2018-04-14T07:46:40Z</time>
      </trkpt>
      <trkpt lat="47.61047" lon="-2.8039">
        <ele>55</ele>
        <time>2018-04-14T07:46:42Z</time>
      </trkpt>
      <trkpt lat="47.61046" lon="-2.80386">
        <ele>56</ele>
        <time>2018-04-14T07:46:44Z</time>
      </trkpt>
      <trkpt lat="47.61045" lon="-2.80381">
        <ele>57</ele>
        <time>2018-04-14T07:46:46Z</time>
      </trkpt>
      <trkpt lat="47.61042" lon="-2.80377">
        <ele>55</ele>
        <time>2018-04-14T07:46:51Z</time>
      </trkpt>
      <trkpt lat="47.61041" lon="-2.8037">
        <ele>56</ele>
        <time>2018-04-14T07:46:55Z</time>
      </trkpt>
      <trkpt lat="47.61038" lon="-2.80365">
        <ele>53</ele>
        <time>2018-04-14T07:46:58Z</time>
      </trkpt>
      <trkpt lat="47.61036" lon="-2.80357">
        <ele>53</ele>
        <time>2018-04-14T07:47:01Z</time>
      </trkpt>
      <trkpt lat="47.61035" lon="-2.80353">
        <ele>52</ele>
        <time>2018-04-14T07:47:03Z</time>
      </trkpt>
      <trkpt lat="47.61032" lon="-2.80345">
        <ele>53</ele>
        <time>2018-04-14T07:47:06Z</time>
      </trkpt>
      <trkpt lat="47.6103" lon="-2.80338">
        <ele>54</ele>
        <time>2018-04-14T07:47:09Z</time>
      </trkpt>
      <trkpt lat="47.61027" lon="-2.80332">
        <ele>54</ele>
        <time>2018-04-14T07:47:13Z</time>
      </trkpt>
      <trkpt lat="47.61025" lon="-2.80323">
        <ele>53</ele>
        <time>2018-04-14T07:47:17Z</time>
      </trkpt>
      <trkpt lat="47.61023" lon="-2.80312">
        <ele>55</ele>
        <time>2018-04-14T07:47:21Z</time>
      </trkpt>
      <trkpt lat="47.6102" lon="-2.80305">
        <ele>53</ele>
        <time>2018-04-14T07:47:25Z</time>
      </trkpt>
      <trkpt lat="47.61018" lon="-2.80298">
        <ele>54</ele>
        <time>2018-04-14T07:47:29Z</time>
      </trkpt>
      <trkpt lat="47.61016" lon="-2.80292">
        <ele>52</ele>
        <time>2018-04-14T07:47:34Z</time>
      </trkpt>
      <trkpt lat="47.61014" lon="-2.80285">
        <ele>52</ele>
        <time>2018-04-14T07:47:37Z</time>
      </trkpt>
      <trkpt lat="47.61011" lon="-2.80278">
        <ele>52</ele>
        <time>2018-04-14T07:47:40Z</time>
      </trkpt>
      <trkpt lat="47.61009" lon="-2.80275">
        <ele>52</ele>
        <time>2018-04-14T07:47:41Z</time>
      </trkpt>
      <trkpt lat="47.61008" lon="-2.80268">
        <ele>50</ele>
        <time>2018-04-14T07:47:44Z</time>
      </trkpt>
      <trkpt lat="47.61003" lon="-2.80264">
        <ele>44</ele>
        <time>2018-04-14T07:47:49Z</time>
      </trkpt>
      <trkpt lat="47.61" lon="-2.80257">
        <ele>44</ele>
        <time>2018-04-14T07:47:52Z</time>
      </trkpt>
      <trkpt lat="47.60998" lon="-2.80252">
        <ele>44</ele>
        <time>2018-04-14T07:47:55Z</time>
      </trkpt>
      <trkpt lat="47.60996" lon="-2.80247">
        <ele>44</ele>
        <time>2018-04-14T07:47:56Z</time>
      </trkpt>
      <trkpt lat="47.60996" lon="-2.80239">
        <ele>47</ele>
        <time>2018-04-14T07:47:59Z</time>
      </trkpt>
      <trkpt lat="47.60994" lon="-2.80231">
        <ele>47</ele>
        <time>2018-04-14T07:48:02Z</time>
      </trkpt>
      <trkpt lat="47.60994" lon="-2.80221">
        <ele>48</ele>
        <time>2018-04-14T07:48:07Z</time>
      </trkpt>
      <trkpt lat="47.60992" lon="-2.80213">
        <ele>48</ele>
        <time>2018-04-14T07:48:10Z</time>
      </trkpt>
      <trkpt lat="47.60991" lon="-2.80205">
        <ele>47</ele>
        <time>2018-04-14T07:48:13Z</time>
      </trkpt>
      <trkpt lat="47.6099" lon="-2.80198">
        <ele>46</ele>
        <time>2018-04-14T07:48:15Z</time>
      </trkpt>
      <trkpt lat="47.6099" lon="-2.80191">
        <ele>45</ele>
        <time>2018-04-14T07:48:18Z</time>
      </trkpt>
      <trkpt lat="47.60989" lon="-2.80185">
        <ele>47</ele>
        <time>2018-04-14T07:48:21Z</time>
      </trkpt>
      <trkpt lat="47.6099" lon="-2.80176">
        <ele>47</ele>
        <time>2018-04-14T07:48:24Z</time>
      </trkpt>
      <trkpt lat="47.6099" lon="-2.80169">
        <ele>47</ele>
        <time>2018-04-14T07:48:27Z</time>
      </trkpt>
      <trkpt lat="47.6099" lon="-2.80161">
        <ele>48</ele>
        <time>2018-04-14T07:48:30Z</time>
      </trkpt>
      <trkpt lat="47.60991" lon="-2.80152">
        <ele>51</ele>
        <time>2018-04-14T07:48:34Z</time>
      </trkpt>
      <trkpt lat="47.60989" lon="-2.80145">
        <ele>48</ele>
        <time>2018-04-14T07:48:38Z</time>
      </trkpt>
      <trkpt lat="47.60988" lon="-2.80141">
        <ele>48</ele>
        <time>2018-04-14T07:48:40Z</time>
      </trkpt>
      <trkpt lat="47.60988" lon="-2.80133">
        <ele>47</ele>
        <time>2018-04-14T07:48:44Z</time>
      </trkpt>
      <trkpt lat="47.60988" lon="-2.80125">
        <ele>48</ele>
        <time>2018-04-14T07:48:48Z</time>
      </trkpt>
      <trkpt lat="47.60987" lon="-2.80117">
        <ele>47</ele>
        <time>2018-04-14T07:48:51Z</time>
      </trkpt>
      <trkpt lat="47.60986" lon="-2.80113">
        <ele>45</ele>
        <time>2018-04-14T07:48:53Z</time>
      </trkpt>
      <trkpt lat="47.60985" lon="-2.80109">
        <ele>46</ele>
        <time>2018-04-14T07:48:55Z</time>
      </trkpt>
      <trkpt lat="47.60984" lon="-2.80103">
        <ele>47</ele>
        <time>2018-04-14T07:48:58Z</time>
      </trkpt>
      <trkpt lat="47.60982" lon="-2.80092">
        <ele>46</ele>
        <time>2018-04-14T07:49:04Z</time>
      </trkpt>
      <trkpt lat="47.6098" lon="-2.80087">
        <ele>46</ele>
        <time>2018-04-14T07:49:10Z</time>
      </trkpt>
      <trkpt lat="47.6098" lon="-2.80079">
        <ele>50</ele>
        <time>2018-04-14T07:49:16Z</time>
      </trkpt>
      <trkpt lat="47.60981" lon="-2.80075">
        <ele>51</ele>
        <time>2018-04-14T07:49:18Z</time>
      </trkpt>
      <trkpt lat="47.60977" lon="-2.80071">
        <ele>49</ele>
        <time>2018-04-14T07:49:21Z</time>
      </trkpt>
      <trkpt lat="47.60978" lon="-2.80063">
        <ele>52</ele>
        <time>2018-04-14T07:49:24Z</time>
      </trkpt>
      <trkpt lat="47.60976" lon="-2.80057">
        <ele>52</ele>
        <time>2018-04-14T07:49:28Z</time>
      </trkpt>
      <trkpt lat="47.60974" lon="-2.80054">
        <ele>52</ele>
        <time>2018-04-14T07:49:30Z</time>
      </trkpt>
      <trkpt lat="47.6097" lon="-2.80046">
        <ele>52</ele>
        <time>2018-04-14T07:49:33Z</time>
      </trkpt>
      <trkpt lat="47.60968" lon="-2.80042">
        <ele>51</ele>
        <time>2018-04-14T07:49:36Z</time>
      </trkpt>
      <trkpt lat="47.60967" lon="-2.80039">
        <ele>50</ele>
        <time>2018-04-14T07:49:37Z</time>
      </trkpt>
      <trkpt lat="47.60965" lon="-2.80035">
        <ele>50</ele>
        <time>2018-04-14T07:49:39Z</time>
      </trkpt>
      <trkpt lat="47.60963" lon="-2.80027">
        <ele>50</ele>
        <time>2018-04-14T07:49:42Z</time>
      </trkpt>
      <trkpt lat="47.60961" lon="-2.80021">
        <ele>50</ele>
        <time>2018-04-14T07:49:46Z</time>
      </trkpt>
      <trkpt lat="47.6096" lon="-2.80015">
        <ele>51</ele>
        <time>2018-04-14T07:49:49Z</time>
      </trkpt>
      <trkpt lat="47.60956" lon="-2.8001">
        <ele>49</ele>
        <time>2018-04-14T07:49:52Z</time>
      </trkpt>
      <trkpt lat="47.60953" lon="-2.80004">
        <ele>50</ele>
        <time>2018-04-14T07:49:56Z</time>
      </trkpt>
      <trkpt lat="47.60952" lon="-2.80001">
        <ele>50</ele>
        <time>2018-04-14T07:49:59Z</time>
      </trkpt>
      <trkpt lat="47.60949" lon="-2.79993">
        <ele>48</ele>
        <time>2018-04-14T07:50:03Z</time>
      </trkpt>
      <trkpt lat="47.60945" lon="-2.79987">
        <ele>46</ele>
        <time>2018-04-14T07:50:07Z</time>
      </trkpt>
      <trkpt lat="47.60941" lon="-2.79982">
        <ele>44</ele>
        <time>2018-04-14T07:50:11Z</time>
      </trkpt>
      <trkpt lat="47.60936" lon="-2.7997">
        <ele>43</ele>
        <time>2018-04-14T07:50:15Z</time>
      </trkpt>
      <trkpt lat="47.60931" lon="-2.79965">
        <ele>43</ele>
        <time>2018-04-14T07:50:18Z</time>
      </trkpt>
      <trkpt lat="47.60931" lon="-2.79965">
        <ele>43</ele>
        <time>2018-04-14T07:50:23Z</time>
      </trkpt>
      <trkpt lat="47.60931" lon="-2.79965">
        <time>2018-04-14T07:50:23Z</time>
      </trkpt>
      <trkpt lat="47.60931" lon="-2.79965">
        <time>2018-04-14T07:50:33Z</time>
      </trkpt>
      <trkpt lat="47.60925" lon="-2.79939">
        <ele>50</ele>
        <time>2018-04-14T07:50:33Z</time>
      </trkpt>
      <trkpt lat="47.60923" lon="-2.79932">
        <ele>51</ele>
        <time>2018-04-14T07:50:37Z</time>
      </trkpt>
      <trkpt lat="47.6092" lon="-2.79926">
        <ele>51</ele>
        <time>2018-04-14T07:50:40Z</time>
      </trkpt>
      <trkpt lat="47.60917" lon="-2.79921">
        <ele>50</ele>
        <time>2018-04-14T07:50:43Z</time>
      </trkpt>
      <trkpt lat="47.60915" lon="-2.79917">
        <ele>50</ele>
        <time>2018-04-14T07:50:45Z</time>
      </trkpt>
      <trkpt lat="47.60912" lon="-2.79913">
        <ele>51</ele>
        <time>2018-04-14T07:50:48Z</time>
      </trkpt>
      <trkpt lat="47.60908" lon="-2.79906">
        <ele>50</ele>
        <time>2018-04-14T07:50:52Z</time>
      </trkpt>
      <trkpt lat="47.60906" lon="-2.79899">
        <ele>51</ele>
        <time>2018-04-14T07:50:56Z</time>
      </trkpt>
      <trkpt lat="47.60905" lon="-2.79891">
        <ele>52</ele>
        <time>2018-04-14T07:51:00Z</time>
      </trkpt>
      <trkpt lat="47.60903" lon="-2.79882">
        <ele>52</ele>
        <time>2018-04-14T07:51:04Z</time>
      </trkpt>
      <trkpt lat="47.60901" lon="-2.79876">
        <ele>53</ele>
        <time>2018-04-14T07:51:07Z</time>
      </trkpt>
      <trkpt lat="47.609" lon="-2.79869">
        <ele>52</ele>
        <time>2018-04-14T07:51:12Z</time>
      </trkpt>
      <trkpt lat="47.60897" lon="-2.79863">
        <ele>48</ele>
        <time>2018-04-14T07:51:16Z</time>
      </trkpt>
      <trkpt lat="47.60894" lon="-2.79857">
        <ele>48</ele>
        <time>2018-04-14T07:51:21Z</time>
      </trkpt>
      <trkpt lat="47.60893" lon="-2.79853">
        <ele>48</ele>
        <time>2018-04-14T07:51:23Z</time>
      </trkpt>
      <trkpt lat="47.60891" lon="-2.79849">
        <ele>48</ele>
        <time>2018-04-14T07:51:25Z</time>
      </trkpt>
      <trkpt lat="47.6089" lon="-2.79841">
        <ele>49</ele>
        <time>2018-04-14T07:51:28Z</time>
      </trkpt>
      <trkpt lat="47.60887" lon="-2.79832">
        <ele>49</ele>
        <time>2018-04-14T07:51:32Z</time>
      </trkpt>
      <trkpt lat="47.60885" lon="-2.79825">
        <ele>50</ele>
        <time>2018-04-14T07:51:35Z</time>
      </trkpt>
      <trkpt lat="47.60884" lon="-2.79821">
        <ele>51</ele>
        <time>2018-04-14T07:51:37Z</time>
      </trkpt>
      <trkpt lat="47.60881" lon="-2.79815">
        <ele>50</ele>
        <time>2018-04-14T07:51:41Z</time>
      </trkpt>
      <trkpt lat="47.6088" lon="-2.79808">
        <ele>51</ele>
        <time>2018-04-14T07:51:44Z</time>
      </trkpt>
      <trkpt lat="47.60877" lon="-2.79801">
        <ele>51</ele>
        <time>2018-04-14T07:51:48Z</time>
      </trkpt>
      <trkpt lat="47.60877" lon="-2.79793">
        <ele>49</ele>
        <time>2018-04-14T07:51:52Z</time>
      </trkpt>
      <trkpt lat="47.60876" lon="-2.79786">
        <ele>49</ele>
        <time>2018-04-14T07:51:55Z</time>
      </trkpt>
      <trkpt lat="47.60876" lon="-2.79778">
        <ele>49</ele>
        <time>2018-04-14T07:51:58Z</time>
      </trkpt>
      <trkpt lat="47.60877" lon="-2.79771">
        <ele>49</ele>
        <time>2018-04-14T07:52:01Z</time>
      </trkpt>
      <trkpt lat="47.60878" lon="-2.79768">
        <ele>49</ele>
        <time>2018-04-14T07:52:03Z</time>
      </trkpt>
      <trkpt lat="47.60879" lon="-2.79762">
        <ele>48</ele>
        <time>2018-04-14T07:52:07Z</time>
      </trkpt>
      <trkpt lat="47.60882" lon="-2.79754">
        <ele>49</ele>
        <time>2018-04-14T07:52:11Z</time>
      </trkpt>
      <trkpt lat="47.60884" lon="-2.7975">
        <ele>49</ele>
        <time>2018-04-14T07:52:13Z</time>
      </trkpt>
      <trkpt lat="47.60887" lon="-2.79743">
        <ele>51</ele>
        <time>2018-04-14T07:52:17Z</time>
      </trkpt>
      <trkpt lat="47.60888" lon="-2.7974">
        <ele>52</ele>
        <time>2018-04-14T07:52:19Z</time>
      </trkpt>
      <trkpt lat="47.60888" lon="-2.79733">
        <ele>53</ele>
        <time>2018-04-14T07:52:24Z</time>
      </trkpt>
      <trkpt lat="47.60887" lon="-2.79726">
        <ele>52</ele>
        <time>2018-04-14T07:52:28Z</time>
      </trkpt>
      <trkpt lat="47.60884" lon="-2.79717">
        <ele>52</ele>
        <time>2018-04-14T07:52:34Z</time>
      </trkpt>
      <trkpt lat="47.60882" lon="-2.79713">
        <ele>53</ele>
        <time>2018-04-14T07:52:36Z</time>
      </trkpt>
      <trkpt lat="47.60878" lon="-2.79706">
        <ele>50</ele>
        <time>2018-04-14T07:52:40Z</time>
      </trkpt>
      <trkpt lat="47.60873" lon="-2.79697">
        <ele>49</ele>
        <time>2018-04-14T07:52:45Z</time>
      </trkpt>
      <trkpt lat="47.6087" lon="-2.79687">
        <ele>51</ele>
        <time>2018-04-14T07:52:50Z</time>
      </trkpt>
      <trkpt lat="47.60866" lon="-2.79683">
        <ele>51</ele>
        <time>2018-04-14T07:52:53Z</time>
      </trkpt>
      <trkpt lat="47.60866" lon="-2.79683">
        <ele>51</ele>
        <time>2018-04-14T07:52:58Z</time>
      </trkpt>
      <trkpt lat="47.60866" lon="-2.79683">
        <time>2018-04-14T07:52:58Z</time>
      </trkpt>
      <trkpt lat="47.60866" lon="-2.79683">
        <time>2018-04-14T07:53:43Z</time>
      </trkpt>
      <trkpt lat="47.60852" lon="-2.79648">
        <ele>53</ele>
        <time>2018-04-14T07:53:43Z</time>
      </trkpt>
      <trkpt lat="47.60846" lon="-2.79645">
        <ele>53</ele>
        <time>2018-04-14T07:53:51Z</time>
      </trkpt>
      <trkpt lat="47.60842" lon="-2.7964">
        <ele>53</ele>
        <time>2018-04-14T07:53:55Z</time>
      </trkpt>
      <trkpt lat="47.60839" lon="-2.79636">
        <ele>53</ele>
        <time>2018-04-14T07:53:58Z</time>
      </trkpt>
      <trkpt lat="47.60835" lon="-2.79632">
        <ele>55</ele>
        <time>2018-04-14T07:54:01Z</time>
      </trkpt>
      <trkpt lat="47.60831" lon="-2.79627">
        <ele>54</ele>
        <time>2018-04-14T07:54:05Z</time>
      </trkpt>
      <trkpt lat="47.60828" lon="-2.7962">
        <ele>52</ele>
        <time>2018-04-14T07:54:09Z</time>
      </trkpt>
      <trkpt lat="47.60825" lon="-2.79614">
        <ele>55</ele>
        <time>2018-04-14T07:54:12Z</time>
      </trkpt>
      <trkpt lat="47.60821" lon="-2.7961">
        <ele>55</ele>
        <time>2018-04-14T07:54:16Z</time>
      </trkpt>
      <trkpt lat="47.60819" lon="-2.79607">
        <ele>54</ele>
        <time>2018-04-14T07:54:18Z</time>
      </trkpt>
      <trkpt lat="47.60815" lon="-2.79601">
        <ele>53</ele>
        <time>2018-04-14T07:54:23Z</time>
      </trkpt>
      <trkpt lat="47.60812" lon="-2.79597">
        <ele>53</ele>
        <time>2018-04-14T07:54:26Z</time>
      </trkpt>
      <trkpt lat="47.60811" lon="-2.79589">
        <ele>54</ele>
        <time>2018-04-14T07:54:31Z</time>
      </trkpt>
      <trkpt lat="47.60807" lon="-2.79584">
        <ele>54</ele>
        <time>2018-04-14T07:54:36Z</time>
      </trkpt>
      <trkpt lat="47.60804" lon="-2.79578">
        <ele>53</ele>
        <time>2018-04-14T07:54:40Z</time>
      </trkpt>
      <trkpt lat="47.60802" lon="-2.79575">
        <ele>53</ele>
        <time>2018-04-14T07:54:43Z</time>
      </trkpt>
      <trkpt lat="47.60799" lon="-2.79569">
        <ele>53</ele>
        <time>2018-04-14T07:54:46Z</time>
      </trkpt>
      <trkpt lat="47.60797" lon="-2.79562">
        <ele>55</ele>
        <time>2018-04-14T07:54:50Z</time>
      </trkpt>
      <trkpt lat="47.60794" lon="-2.79556">
        <ele>55</ele>
        <time>2018-04-14T07:54:53Z</time>
      </trkpt>
      <trkpt lat="47.6079" lon="-2.79551">
        <ele>55</ele>
        <time>2018-04-14T07:54:56Z</time>
      </trkpt>
      <trkpt lat="47.60789" lon="-2.79543">
        <ele>55</ele>
        <time>2018-04-14T07:55:00Z</time>
      </trkpt>
      <trkpt lat="47.60784" lon="-2.79539">
        <ele>54</ele>
        <time>2018-04-14T07:55:04Z</time>
      </trkpt>
      <trkpt lat="47.60781" lon="-2.79537">
        <ele>52</ele>
        <time>2018-04-14T07:55:06Z</time>
      </trkpt>
      <trkpt lat="47.60778" lon="-2.79529">
        <ele>51</ele>
        <time>2018-04-14T07:55:11Z</time>
      </trkpt>
      <trkpt lat="47.60776" lon="-2.79526">
        <ele>51</ele>
        <time>2018-04-14T07:55:13Z</time>
      </trkpt>
      <trkpt lat="47.60774" lon="-2.7952">
        <ele>51</ele>
        <time>2018-04-14T07:55:16Z</time>
      </trkpt>
      <trkpt lat="47.60772" lon="-2.79517">
        <ele>51</ele>
        <time>2018-04-14T07:55:17Z</time>
      </trkpt>
      <trkpt lat="47.6077" lon="-2.79509">
        <ele>52</ele>
        <time>2018-04-14T07:55:20Z</time>
      </trkpt>
      <trkpt lat="47.60767" lon="-2.79503">
        <ele>53</ele>
        <time>2018-04-14T07:55:24Z</time>
      </trkpt>
      <trkpt lat="47.60766" lon="-2.79496">
        <ele>55</ele>
        <time>2018-04-14T07:55:28Z</time>
      </trkpt>
      <trkpt lat="47.60765" lon="-2.7949">
        <ele>56</ele>
        <time>2018-04-14T07:55:31Z</time>
      </trkpt>
      <trkpt lat="47.60763" lon="-2.79483">
        <ele>56</ele>
        <time>2018-04-14T07:55:34Z</time>
      </trkpt>
      <trkpt lat="47.6076" lon="-2.79477">
        <ele>57</ele>
        <time>2018-04-14T07:55:37Z</time>
      </trkpt>
      <trkpt lat="47.60756" lon="-2.79471">
        <ele>55</ele>
        <time>2018-04-14T07:55:41Z</time>
      </trkpt>
      <trkpt lat="47.60752" lon="-2.79467">
        <ele>53</ele>
        <time>2018-04-14T07:55:44Z</time>
      </trkpt>
      <trkpt lat="47.60749" lon="-2.79461">
        <ele>52</ele>
        <time>2018-04-14T07:55:48Z</time>
      </trkpt>
      <trkpt lat="47.60747" lon="-2.79457">
        <ele>51</ele>
        <time>2018-04-14T07:55:50Z</time>
      </trkpt>
      <trkpt lat="47.60745" lon="-2.79451">
        <ele>51</ele>
        <time>2018-04-14T07:55:53Z</time>
      </trkpt>
      <trkpt lat="47.60744" lon="-2.79448">
        <ele>51</ele>
        <time>2018-04-14T07:55:55Z</time>
      </trkpt>
      <trkpt lat="47.60742" lon="-2.79445">
        <ele>51</ele>
        <time>2018-04-14T07:55:57Z</time>
      </trkpt>
      <trkpt lat="47.6074" lon="-2.79439">
        <ele>50</ele>
        <time>2018-04-14T07:55:59Z</time>
      </trkpt>
      <trkpt lat="47.60737" lon="-2.79433">
        <ele>49</ele>
        <time>2018-04-14T07:56:02Z</time>
      </trkpt>
      <trkpt lat="47.60736" lon="-2.79425">
        <ele>51</ele>
        <time>2018-04-14T07:56:06Z</time>
      </trkpt>
      <trkpt lat="47.60735" lon="-2.7942">
        <ele>51</ele>
        <time>2018-04-14T07:56:08Z</time>
      </trkpt>
      <trkpt lat="47.60733" lon="-2.79414">
        <ele>51</ele>
        <time>2018-04-14T07:56:11Z</time>
      </trkpt>
      <trkpt lat="47.60732" lon="-2.79408">
        <ele>52</ele>
        <time>2018-04-14T07:56:13Z</time>
      </trkpt>
      <trkpt lat="47.6073" lon="-2.79401">
        <ele>51</ele>
        <time>2018-04-14T07:56:16Z</time>
      </trkpt>
      <trkpt lat="47.6073" lon="-2.79392">
        <ele>52</ele>
        <time>2018-04-14T07:56:21Z</time>
      </trkpt>
      <trkpt lat="47.60728" lon="-2.79384">
        <ele>52</ele>
        <time>2018-04-14T07:56:24Z</time>
      </trkpt>
      <trkpt lat="47.60725" lon="-2.79379">
        <ele>50</ele>
        <time>2018-04-14T07:56:28Z</time>
      </trkpt>
      <trkpt lat="47.60723" lon="-2.79372">
        <ele>50</ele>
        <time>2018-04-14T07:56:31Z</time>
      </trkpt>
      <trkpt lat="47.60722" lon="-2.79364">
        <ele>49</ele>
        <time>2018-04-14T07:56:34Z</time>
      </trkpt>
      <trkpt lat="47.60723" lon="-2.79356">
        <ele>52</ele>
        <time>2018-04-14T07:56:37Z</time>
      </trkpt>
      <trkpt lat="47.60722" lon="-2.79347">
        <ele>53</ele>
        <time>2018-04-14T07:56:40Z</time>
      </trkpt>
      <trkpt lat="47.60722" lon="-2.79343">
        <ele>53</ele>
        <time>2018-04-14T07:56:42Z</time>
      </trkpt>
      <trkpt lat="47.6072" lon="-2.79337">
        <ele>52</ele>
        <time>2018-04-14T07:56:45Z</time>
      </trkpt>
      <trkpt lat="47.60718" lon="-2.79329">
        <ele>52</ele>
        <time>2018-04-14T07:56:48Z</time>
      </trkpt>
      <trkpt lat="47.60717" lon="-2.79322">
        <ele>53</ele>
        <time>2018-04-14T07:56:51Z</time>
      </trkpt>
      <trkpt lat="47.60716" lon="-2.79318">
        <ele>54</ele>
        <time>2018-04-14T07:56:53Z</time>
      </trkpt>
      <trkpt lat="47.60715" lon="-2.7931">
        <ele>55</ele>
        <time>2018-04-14T07:56:56Z</time>
      </trkpt>
      <trkpt lat="47.60714" lon="-2.79303">
        <ele>57</ele>
        <time>2018-04-14T07:56:59Z</time>
      </trkpt>
      <trkpt lat="47.6071" lon="-2.79297">
        <ele>56</ele>
        <time>2018-04-14T07:57:02Z</time>
      </trkpt>
      <trkpt lat="47.60707" lon="-2.79292">
        <ele>55</ele>
        <time>2018-04-14T07:57:05Z</time>
      </trkpt>
      <trkpt lat="47.60706" lon="-2.79285">
        <ele>55</ele>
        <time>2018-04-14T07:57:08Z</time>
      </trkpt>
      <trkpt lat="47.60705" lon="-2.79278">
        <ele>56</ele>
        <time>2018-04-14T07:57:11Z</time>
      </trkpt>
      <trkpt lat="47.60705" lon="-2.79272">
        <ele>58</ele>
        <time>2018-04-14T07:57:15Z</time>
      </trkpt>
      <trkpt lat="47.60702" lon="-2.79265">
        <ele>59</ele>
        <time>2018-04-14T07:57:20Z</time>
      </trkpt>
      <trkpt lat="47.607" lon="-2.79257">
        <ele>61</ele>
        <time>2018-04-14T07:57:24Z</time>
      </trkpt>
      <trkpt lat="47.60697" lon="-2.79252">
        <ele>62</ele>
        <time>2018-04-14T07:57:27Z</time>
      </trkpt>
      <trkpt lat="47.60692" lon="-2.79248">
        <ele>58</ele>
        <time>2018-04-14T07:57:33Z</time>
      </trkpt>
      <trkpt lat="47.6069" lon="-2.79241">
        <ele>59</ele>
        <time>2018-04-14T07:57:36Z</time>
      </trkpt>
      <trkpt lat="47.60685" lon="-2.79237">
        <ele>58</ele>
        <time>2018-04-14T07:57:40Z</time>
      </trkpt>
      <trkpt lat="47.60682" lon="-2.79235">
        <ele>58</ele>
        <time>2018-04-14T07:57:44Z</time>
      </trkpt>
      <trkpt lat="47.60679" lon="-2.79233">
        <ele>56</ele>
        <time>2018-04-14T07:57:46Z</time>
      </trkpt>
      <trkpt lat="47.60673" lon="-2.79227">
        <ele>54</ele>
        <time>2018-04-14T07:57:51Z</time>
      </trkpt>
      <trkpt lat="47.6067" lon="-2.79223">
        <ele>56</ele>
        <time>2018-04-14T07:57:57Z</time>
      </trkpt>
      <trkpt lat="47.60665" lon="-2.79219">
        <ele>55</ele>
        <time>2018-04-14T07:58:02Z</time>
      </trkpt>
      <trkpt lat="47.60663" lon="-2.79217">
        <ele>55</ele>
        <time>2018-04-14T07:58:04Z</time>
      </trkpt>
      <trkpt lat="47.60661" lon="-2.79215">
        <ele>56</ele>
        <time>2018-04-14T07:58:06Z</time>
      </trkpt>
      <trkpt lat="47.60657" lon="-2.7921">
        <ele>56</ele>
        <time>2018-04-14T07:58:11Z</time>
      </trkpt>
      <trkpt lat="47.60655" lon="-2.79208">
        <ele>58</ele>
        <time>2018-04-14T07:58:16Z</time>
      </trkpt>
      <trkpt lat="47.60653" lon="-2.79205">
        <ele>58</ele>
        <time>2018-04-14T07:58:19Z</time>
      </trkpt>
      <trkpt lat="47.60649" lon="-2.79199">
        <ele>58</ele>
        <time>2018-04-14T07:58:24Z</time>
      </trkpt>
      <trkpt lat="47.60645" lon="-2.79192">
        <ele>59</ele>
        <time>2018-04-14T07:58:28Z</time>
      </trkpt>
      <trkpt lat="47.60639" lon="-2.79185">
        <ele>61</ele>
        <time>2018-04-14T07:58:36Z</time>
      </trkpt>
      <trkpt lat="47.60635" lon="-2.79179">
        <ele>60</ele>
        <time>2018-04-14T07:58:39Z</time>
      </trkpt>
      <trkpt lat="47.60629" lon="-2.79174">
        <ele>57</ele>
        <time>2018-04-14T07:58:45Z</time>
      </trkpt>
      <trkpt lat="47.60625" lon="-2.79168">
        <ele>57</ele>
        <time>2018-04-14T07:58:49Z</time>
      </trkpt>
      <trkpt lat="47.60621" lon="-2.79163">
        <ele>55</ele>
        <time>2018-04-14T07:58:52Z</time>
      </trkpt>
      <trkpt lat="47.60616" lon="-2.79158">
        <ele>55</ele>
        <time>2018-04-14T07:58:56Z</time>
      </trkpt>
      <trkpt lat="47.60612" lon="-2.79153">
        <ele>54</ele>
        <time>2018-04-14T07:59:00Z</time>
      </trkpt>
      <trkpt lat="47.60609" lon="-2.79148">
        <ele>54</ele>
        <time>2018-04-14T07:59:03Z</time>
      </trkpt>
      <trkpt lat="47.60603" lon="-2.79142">
        <ele>56</ele>
        <time>2018-04-14T07:59:09Z</time>
      </trkpt>
      <trkpt lat="47.60598" lon="-2.79141">
        <ele>56</ele>
        <time>2018-04-14T07:59:16Z</time>
      </trkpt>
      <trkpt lat="47.60593" lon="-2.79138">
        <ele>58</ele>
        <time>2018-04-14T07:59:21Z</time>
      </trkpt>
      <trkpt lat="47.60588" lon="-2.79135">
        <ele>59</ele>
        <time>2018-04-14T07:59:25Z</time>
      </trkpt>
      <trkpt lat="47.60585" lon="-2.79131">
        <ele>57</ele>
        <time>2018-04-14T07:59:27Z</time>
      </trkpt>
      <trkpt lat="47.60583" lon="-2.79129">
        <ele>56</ele>
        <time>2018-04-14T07:59:28Z</time>
      </trkpt>
      <trkpt lat="47.60578" lon="-2.79125">
        <ele>56</ele>
        <time>2018-04-14T07:59:32Z</time>
      </trkpt>
      <trkpt lat="47.60575" lon="-2.79123">
        <ele>56</ele>
        <time>2018-04-14T07:59:34Z</time>
      </trkpt>
      <trkpt lat="47.60572" lon="-2.79121">
        <ele>56</ele>
        <time>2018-04-14T07:59:36Z</time>
      </trkpt>
      <trkpt lat="47.6057" lon="-2.79119">
        <ele>55</ele>
        <time>2018-04-14T07:59:38Z</time>
      </trkpt>
      <trkpt lat="47.60565" lon="-2.79116">
        <ele>54</ele>
        <time>2018-04-14T07:59:41Z</time>
      </trkpt>
      <trkpt lat="47.60562" lon="-2.79114">
        <ele>54</ele>
        <time>2018-04-14T07:59:43Z</time>
      </trkpt>
      <trkpt lat="47.60559" lon="-2.79112">
        <ele>53</ele>
        <time>2018-04-14T07:59:45Z</time>
      </trkpt>
      <trkpt lat="47.60555" lon="-2.79108">
        <ele>53</ele>
        <time>2018-04-14T07:59:48Z</time>
      </trkpt>
      <trkpt lat="47.60552" lon="-2.79107">
        <ele>53</ele>
        <time>2018-04-14T07:59:50Z</time>
      </trkpt>
      <trkpt lat="47.6055" lon="-2.79105">
        <ele>53</ele>
        <time>2018-04-14T07:59:52Z</time>
      </trkpt>
      <trkpt lat="47.60547" lon="-2.79104">
        <ele>54</ele>
        <time>2018-04-14T07:59:54Z</time>
      </trkpt>
      <trkpt lat="47.60543" lon="-2.79101">
        <ele>53</ele>
        <time>2018-04-14T07:59:57Z</time>
      </trkpt>
      <trkpt lat="47.6054" lon="-2.79099">
        <ele>53</ele>
        <time>2018-04-14T07:59:59Z</time>
      </trkpt>
      <trkpt lat="47.60537" lon="-2.79096">
        <ele>52</ele>
        <time>2018-04-14T08:00:01Z</time>
      </trkpt>
      <trkpt lat="47.60534" lon="-2.79094">
        <ele>52</ele>
        <time>2018-04-14T08:00:03Z</time>
      </trkpt>
      <trkpt lat="47.6053" lon="-2.7909">
        <ele>52</ele>
        <time>2018-04-14T08:00:07Z</time>
      </trkpt>
      <trkpt lat="47.60528" lon="-2.79088">
        <ele>52</ele>
        <time>2018-04-14T08:00:09Z</time>
      </trkpt>
      <trkpt lat="47.60525" lon="-2.79086">
        <ele>52</ele>
        <time>2018-04-14T08:00:11Z</time>
      </trkpt>
      <trkpt lat="47.6052" lon="-2.79082">
        <ele>53</ele>
        <time>2018-04-14T08:00:15Z</time>
      </trkpt>
      <trkpt lat="47.60517" lon="-2.7908">
        <ele>54</ele>
        <time>2018-04-14T08:00:18Z</time>
      </trkpt>
      <trkpt lat="47.60514" lon="-2.79078">
        <ele>54</ele>
        <time>2018-04-14T08:00:21Z</time>
      </trkpt>
      <trkpt lat="47.60512" lon="-2.79077">
        <ele>54</ele>
        <time>2018-04-14T08:00:23Z</time>
      </trkpt>
      <trkpt lat="47.60508" lon="-2.79075">
        <ele>54</ele>
        <time>2018-04-14T08:00:26Z</time>
      </trkpt>
      <trkpt lat="47.60503" lon="-2.79072">
        <ele>54</ele>
        <time>2018-04-14T08:00:29Z</time>
      </trkpt>
      <trkpt lat="47.605" lon="-2.7907">
        <ele>53</ele>
        <time>2018-04-14T08:00:31Z</time>
      </trkpt>
      <trkpt lat="47.60498" lon="-2.79068">
        <ele>54</ele>
        <time>2018-04-14T08:00:33Z</time>
      </trkpt>
      <trkpt lat="47.60495" lon="-2.79066">
        <ele>54</ele>
        <time>2018-04-14T08:00:35Z</time>
      </trkpt>
      <trkpt lat="47.60491" lon="-2.79061">
        <ele>55</ele>
        <time>2018-04-14T08:00:39Z</time>
      </trkpt>
      <trkpt lat="47.60489" lon="-2.79059">
        <ele>55</ele>
        <time>2018-04-14T08:00:40Z</time>
      </trkpt>
      <trkpt lat="47.60486" lon="-2.79056">
        <ele>54</ele>
        <time>2018-04-14T08:00:42Z</time>
      </trkpt>
      <trkpt lat="47.60482" lon="-2.79052">
        <ele>53</ele>
        <time>2018-04-14T08:00:45Z</time>
      </trkpt>
      <trkpt lat="47.6048" lon="-2.79051">
        <ele>53</ele>
        <time>2018-04-14T08:00:47Z</time>
      </trkpt>
      <trkpt lat="47.60478" lon="-2.79049">
        <ele>53</ele>
        <time>2018-04-14T08:00:49Z</time>
      </trkpt>
      <trkpt lat="47.60475" lon="-2.79047">
        <ele>53</ele>
        <time>2018-04-14T08:00:51Z</time>
      </trkpt>
      <trkpt lat="47.60472" lon="-2.79043">
        <ele>54</ele>
        <time>2018-04-14T08:00:54Z</time>
      </trkpt>
      <trkpt lat="47.6047" lon="-2.7904">
        <ele>54</ele>
        <time>2018-04-14T08:00:56Z</time>
      </trkpt>
      <trkpt lat="47.60467" lon="-2.79037">
        <ele>54</ele>
        <time>2018-04-14T08:00:58Z</time>
      </trkpt>
      <trkpt lat="47.60463" lon="-2.79034">
        <ele>54</ele>
        <time>2018-04-14T08:01:02Z</time>
      </trkpt>
      <trkpt lat="47.60458" lon="-2.7903">
        <ele>54</ele>
        <time>2018-04-14T08:01:06Z</time>
      </trkpt>
      <trkpt lat="47.60456" lon="-2.79027">
        <ele>54</ele>
        <time>2018-04-14T08:01:07Z</time>
      </trkpt>
      <trkpt lat="47.60453" lon="-2.79022">
        <ele>53</ele>
        <time>2018-04-14T08:01:09Z</time>
      </trkpt>
      <trkpt lat="47.60448" lon="-2.79018">
        <ele>52</ele>
        <time>2018-04-14T08:01:13Z</time>
      </trkpt>
      <trkpt lat="47.60443" lon="-2.79015">
        <ele>54</ele>
        <time>2018-04-14T08:01:20Z</time>
      </trkpt>
      <trkpt lat="47.6044" lon="-2.79012">
        <ele>55</ele>
        <time>2018-04-14T08:01:23Z</time>
      </trkpt>
      <trkpt lat="47.60437" lon="-2.79009">
        <ele>54</ele>
        <time>2018-04-14T08:01:25Z</time>
      </trkpt>
      <trkpt lat="47.60432" lon="-2.79005">
        <ele>54</ele>
        <time>2018-04-14T08:01:28Z</time>
      </trkpt>
      <trkpt lat="47.60428" lon="-2.79">
        <ele>53</ele>
        <time>2018-04-14T08:01:31Z</time>
      </trkpt>
      <trkpt lat="47.60423" lon="-2.78997">
        <ele>53</ele>
        <time>2018-04-14T08:01:35Z</time>
      </trkpt>
      <trkpt lat="47.60421" lon="-2.78995">
        <ele>53</ele>
        <time>2018-04-14T08:01:37Z</time>
      </trkpt>
      <trkpt lat="47.60419" lon="-2.78993">
        <ele>53</ele>
        <time>2018-04-14T08:01:39Z</time>
      </trkpt>
      <trkpt lat="47.60415" lon="-2.78989">
        <ele>52</ele>
        <time>2018-04-14T08:01:42Z</time>
      </trkpt>
      <trkpt lat="47.6041" lon="-2.78987">
        <ele>53</ele>
        <time>2018-04-14T08:01:46Z</time>
      </trkpt>
      <trkpt lat="47.60406" lon="-2.78982">
        <ele>53</ele>
        <time>2018-04-14T08:01:49Z</time>
      </trkpt>
      <trkpt lat="47.60403" lon="-2.78979">
        <ele>54</ele>
        <time>2018-04-14T08:01:52Z</time>
      </trkpt>
      <trkpt lat="47.60401" lon="-2.78976">
        <ele>55</ele>
        <time>2018-04-14T08:01:55Z</time>
      </trkpt>
      <trkpt lat="47.60398" lon="-2.78973">
        <ele>56</ele>
        <time>2018-04-14T08:01:58Z</time>
      </trkpt>
      <trkpt lat="47.60394" lon="-2.78969">
        <ele>56</ele>
        <time>2018-04-14T08:02:02Z</time>
      </trkpt>
      <trkpt lat="47.60389" lon="-2.78963">
        <ele>57</ele>
        <time>2018-04-14T08:02:06Z</time>
      </trkpt>
      <trkpt lat="47.60383" lon="-2.78956">
        <ele>55</ele>
        <time>2018-04-14T08:02:09Z</time>
      </trkpt>
      <trkpt lat="47.6038" lon="-2.78953">
        <ele>55</ele>
        <time>2018-04-14T08:02:13Z</time>
      </trkpt>
      <trkpt lat="47.60374" lon="-2.78949">
        <ele>57</ele>
        <time>2018-04-14T08:02:18Z</time>
      </trkpt>
      <trkpt lat="47.6037" lon="-2.78944">
        <ele>56</ele>
        <time>2018-04-14T08:02:20Z</time>
      </trkpt>
      <trkpt lat="47.60367" lon="-2.78939">
        <ele>56</ele>
        <time>2018-04-14T08:02:22Z</time>
      </trkpt>
      <trkpt lat="47.60364" lon="-2.78936">
        <ele>56</ele>
        <time>2018-04-14T08:02:24Z</time>
      </trkpt>
      <trkpt lat="47.6036" lon="-2.78932">
        <ele>55</ele>
        <time>2018-04-14T08:02:27Z</time>
      </trkpt>
      <trkpt lat="47.60357" lon="-2.78929">
        <ele>55</ele>
        <time>2018-04-14T08:02:29Z</time>
      </trkpt>
      <trkpt lat="47.60351" lon="-2.78925">
        <ele>54</ele>
        <time>2018-04-14T08:02:33Z</time>
      </trkpt>
      <trkpt lat="47.60349" lon="-2.78923">
        <ele>54</ele>
        <time>2018-04-14T08:02:35Z</time>
      </trkpt>
      <trkpt lat="47.60346" lon="-2.78921">
        <ele>55</ele>
        <time>2018-04-14T08:02:38Z</time>
      </trkpt>
      <trkpt lat="47.60344" lon="-2.78919">
        <ele>56</ele>
        <time>2018-04-14T08:02:40Z</time>
      </trkpt>
      <trkpt lat="47.6034" lon="-2.78915">
        <ele>56</ele>
        <time>2018-04-14T08:02:43Z</time>
      </trkpt>
      <trkpt lat="47.60336" lon="-2.78912">
        <ele>56</ele>
        <time>2018-04-14T08:02:45Z</time>
      </trkpt>
      <trkpt lat="47.60332" lon="-2.78907">
        <ele>54</ele>
        <time>2018-04-14T08:02:48Z</time>
      </trkpt>
      <trkpt lat="47.6033" lon="-2.78905">
        <ele>55</ele>
        <time>2018-04-14T08:02:50Z</time>
      </trkpt>
      <trkpt lat="47.60327" lon="-2.78902">
        <ele>54</ele>
        <time>2018-04-14T08:02:52Z</time>
      </trkpt>
      <trkpt lat="47.60322" lon="-2.789">
        <ele>55</ele>
        <time>2018-04-14T08:02:56Z</time>
      </trkpt>
      <trkpt lat="47.60318" lon="-2.78897">
        <ele>55</ele>
        <time>2018-04-14T08:02:59Z</time>
      </trkpt>
      <trkpt lat="47.60315" lon="-2.78895">
        <ele>56</ele>
        <time>2018-04-14T08:03:02Z</time>
      </trkpt>
      <trkpt lat="47.60313" lon="-2.78894">
        <ele>56</ele>
        <time>2018-04-14T08:03:04Z</time>
      </trkpt>
      <trkpt lat="47.6031" lon="-2.78892">
        <ele>56</ele>
        <time>2018-04-14T08:03:06Z</time>
      </trkpt>
      <trkpt lat="47.60307" lon="-2.78889">
        <ele>55</ele>
        <time>2018-04-14T08:03:08Z</time>
      </trkpt>
      <trkpt lat="47.60305" lon="-2.78887">
        <ele>55</ele>
        <time>2018-04-14T08:03:10Z</time>
      </trkpt>
      <trkpt lat="47.60302" lon="-2.78885">
        <ele>54</ele>
        <time>2018-04-14T08:03:12Z</time>
      </trkpt>
      <trkpt lat="47.60299" lon="-2.78882">
        <ele>54</ele>
        <time>2018-04-14T08:03:14Z</time>
      </trkpt>
      <trkpt lat="47.60296" lon="-2.7888">
        <ele>53</ele>
        <time>2018-04-14T08:03:16Z</time>
      </trkpt>
      <trkpt lat="47.60293" lon="-2.78878">
        <ele>53</ele>
        <time>2018-04-14T08:03:18Z</time>
      </trkpt>
      <trkpt lat="47.60291" lon="-2.78876">
        <ele>52</ele>
        <time>2018-04-14T08:03:20Z</time>
      </trkpt>
      <trkpt lat="47.60287" lon="-2.7887">
        <ele>53</ele>
        <time>2018-04-14T08:03:24Z</time>
      </trkpt>
      <trkpt lat="47.60284" lon="-2.78866">
        <ele>53</ele>
        <time>2018-04-14T08:03:29Z</time>
      </trkpt>
      <trkpt lat="47.60281" lon="-2.7886">
        <ele>54</ele>
        <time>2018-04-14T08:03:36Z</time>
      </trkpt>
      <trkpt lat="47.60281" lon="-2.78853">
        <ele>55</ele>
        <time>2018-04-14T08:03:44Z</time>
      </trkpt>
      <trkpt lat="47.60281" lon="-2.78849">
        <ele>55</ele>
        <time>2018-04-14T08:03:50Z</time>
      </trkpt>
      <trkpt lat="47.6028" lon="-2.78843">
        <ele>55</ele>
        <time>2018-04-14T08:03:58Z</time>
      </trkpt>
      <trkpt lat="47.60279" lon="-2.78839">
        <ele>56</ele>
        <time>2018-04-14T08:04:04Z</time>
      </trkpt>
      <trkpt lat="47.60276" lon="-2.78833">
        <ele>55</ele>
        <time>2018-04-14T08:04:11Z</time>
      </trkpt>
      <trkpt lat="47.60275" lon="-2.78826">
        <ele>55</ele>
        <time>2018-04-14T08:04:19Z</time>
      </trkpt>
      <trkpt lat="47.60274" lon="-2.78823">
        <ele>55</ele>
        <time>2018-04-14T08:04:26Z</time>
      </trkpt>
      <trkpt lat="47.60271" lon="-2.78817">
        <ele>54</ele>
        <time>2018-04-14T08:04:35Z</time>
      </trkpt>
      <trkpt lat="47.60269" lon="-2.78814">
        <ele>55</ele>
        <time>2018-04-14T08:04:37Z</time>
      </trkpt>
      <trkpt lat="47.60267" lon="-2.78809">
        <ele>56</ele>
        <time>2018-04-14T08:04:40Z</time>
      </trkpt>
      <trkpt lat="47.60264" lon="-2.78805">
        <ele>57</ele>
        <time>2018-04-14T08:04:44Z</time>
      </trkpt>
      <trkpt lat="47.60263" lon="-2.78802">
        <ele>57</ele>
        <time>2018-04-14T08:04:47Z</time>
      </trkpt>
      <trkpt lat="47.60261" lon="-2.78795">
        <ele>57</ele>
        <time>2018-04-14T08:04:54Z</time>
      </trkpt>
      <trkpt lat="47.60258" lon="-2.78786">
        <ele>56</ele>
        <time>2018-04-14T08:04:59Z</time>
      </trkpt>
      <trkpt lat="47.60256" lon="-2.78778">
        <ele>55</ele>
        <time>2018-04-14T08:05:03Z</time>
      </trkpt>
      <trkpt lat="47.60255" lon="-2.78772">
        <ele>55</ele>
        <time>2018-04-14T08:05:05Z</time>
      </trkpt>
      <trkpt lat="47.60253" lon="-2.78766">
        <ele>56</ele>
        <time>2018-04-14T08:05:09Z</time>
      </trkpt>
      <trkpt lat="47.60252" lon="-2.78763">
        <ele>57</ele>
        <time>2018-04-14T08:05:12Z</time>
      </trkpt>
      <trkpt lat="47.60249" lon="-2.78757">
        <ele>55</ele>
        <time>2018-04-14T08:05:15Z</time>
      </trkpt>
      <trkpt lat="47.60247" lon="-2.78751">
        <ele>55</ele>
        <time>2018-04-14T08:05:20Z</time>
      </trkpt>
      <trkpt lat="47.60245" lon="-2.78747">
        <ele>55</ele>
        <time>2018-04-14T08:05:23Z</time>
      </trkpt>
      <trkpt lat="47.60244" lon="-2.78743">
        <ele>55</ele>
        <time>2018-04-14T08:05:25Z</time>
      </trkpt>
      <trkpt lat="47.60242" lon="-2.7874">
        <ele>55</ele>
        <time>2018-04-14T08:05:27Z</time>
      </trkpt>
      <trkpt lat="47.60241" lon="-2.78732">
        <ele>55</ele>
        <time>2018-04-14T08:05:31Z</time>
      </trkpt>
      <trkpt lat="47.60238" lon="-2.78726">
        <ele>54</ele>
        <time>2018-04-14T08:05:36Z</time>
      </trkpt>
      <trkpt lat="47.60236" lon="-2.78719">
        <ele>54</ele>
        <time>2018-04-14T08:05:40Z</time>
      </trkpt>
      <trkpt lat="47.60233" lon="-2.78712">
        <ele>53</ele>
        <time>2018-04-14T08:05:45Z</time>
      </trkpt>
      <trkpt lat="47.60231" lon="-2.78705">
        <ele>55</ele>
        <time>2018-04-14T08:05:49Z</time>
      </trkpt>
      <trkpt lat="47.60229" lon="-2.78698">
        <ele>56</ele>
        <time>2018-04-14T08:05:52Z</time>
      </trkpt>
      <trkpt lat="47.60226" lon="-2.78691">
        <ele>57</ele>
        <time>2018-04-14T08:05:57Z</time>
      </trkpt>
      <trkpt lat="47.60223" lon="-2.78685">
        <ele>57</ele>
        <time>2018-04-14T08:06:01Z</time>
      </trkpt>
      <trkpt lat="47.6022" lon="-2.78679">
        <ele>57</ele>
        <time>2018-04-14T08:06:04Z</time>
      </trkpt>
      <trkpt lat="47.60218" lon="-2.78673">
        <ele>55</ele>
        <time>2018-04-14T08:06:08Z</time>
      </trkpt>
      <trkpt lat="47.60217" lon="-2.78669">
        <ele>55</ele>
        <time>2018-04-14T08:06:10Z</time>
      </trkpt>
      <trkpt lat="47.60216" lon="-2.78662">
        <ele>57</ele>
        <time>2018-04-14T08:06:14Z</time>
      </trkpt>
      <trkpt lat="47.60212" lon="-2.78654">
        <ele>56</ele>
        <time>2018-04-14T08:06:20Z</time>
      </trkpt>
      <trkpt lat="47.60209" lon="-2.78648">
        <ele>56</ele>
        <time>2018-04-14T08:06:27Z</time>
      </trkpt>
      <trkpt lat="47.60205" lon="-2.78642">
        <ele>57</ele>
        <time>2018-04-14T08:06:30Z</time>
      </trkpt>
      <trkpt lat="47.60202" lon="-2.78635">
        <ele>57</ele>
        <time>2018-04-14T08:06:32Z</time>
      </trkpt>
      <trkpt lat="47.60199" lon="-2.7863">
        <ele>56</ele>
        <time>2018-04-14T08:06:35Z</time>
      </trkpt>
      <trkpt lat="47.60196" lon="-2.78623">
        <ele>57</ele>
        <time>2018-04-14T08:06:40Z</time>
      </trkpt>
      <trkpt lat="47.60194" lon="-2.78615">
        <ele>58</ele>
        <time>2018-04-14T08:06:44Z</time>
      </trkpt>
      <trkpt lat="47.60193" lon="-2.78608">
        <ele>58</ele>
        <time>2018-04-14T08:06:47Z</time>
      </trkpt>
      <trkpt lat="47.60192" lon="-2.78604">
        <ele>59</ele>
        <time>2018-04-14T08:06:50Z</time>
      </trkpt>
      <trkpt lat="47.60191" lon="-2.786">
        <ele>60</ele>
        <time>2018-04-14T08:06:51Z</time>
      </trkpt>
      <trkpt lat="47.60187" lon="-2.78594">
        <ele>59</ele>
        <time>2018-04-14T08:06:56Z</time>
      </trkpt>
      <trkpt lat="47.60185" lon="-2.78589">
        <ele>59</ele>
        <time>2018-04-14T08:07:00Z</time>
      </trkpt>
      <trkpt lat="47.60183" lon="-2.78585">
        <ele>58</ele>
        <time>2018-04-14T08:07:02Z</time>
      </trkpt>
      <trkpt lat="47.60182" lon="-2.78577">
        <ele>60</ele>
        <time>2018-04-14T08:07:05Z</time>
      </trkpt>
      <trkpt lat="47.60181" lon="-2.78572">
        <ele>61</ele>
        <time>2018-04-14T08:07:07Z</time>
      </trkpt>
      <trkpt lat="47.60178" lon="-2.78565">
        <ele>61</ele>
        <time>2018-04-14T08:07:11Z</time>
      </trkpt>
      <trkpt lat="47.60174" lon="-2.78559">
        <ele>60</ele>
        <time>2018-04-14T08:07:17Z</time>
      </trkpt>
      <trkpt lat="47.60171" lon="-2.78553">
        <ele>58</ele>
        <time>2018-04-14T08:07:21Z</time>
      </trkpt>
      <trkpt lat="47.60167" lon="-2.78548">
        <ele>57</ele>
        <time>2018-04-14T08:07:25Z</time>
      </trkpt>
      <trkpt lat="47.60165" lon="-2.78542">
        <ele>58</ele>
        <time>2018-04-14T08:07:28Z</time>
      </trkpt>
      <trkpt lat="47.60161" lon="-2.78537">
        <ele>58</ele>
        <time>2018-04-14T08:07:32Z</time>
      </trkpt>
      <trkpt lat="47.60156" lon="-2.78528">
        <ele>57</ele>
        <time>2018-04-14T08:07:37Z</time>
      </trkpt>
      <trkpt lat="47.60155" lon="-2.78521">
        <ele>56</ele>
        <time>2018-04-14T08:07:41Z</time>
      </trkpt>
      <trkpt lat="47.60152" lon="-2.78516">
        <ele>55</ele>
        <time>2018-04-14T08:07:44Z</time>
      </trkpt>
      <trkpt lat="47.60148" lon="-2.7851">
        <ele>53</ele>
        <time>2018-04-14T08:07:48Z</time>
      </trkpt>
      <trkpt lat="47.60146" lon="-2.78507">
        <ele>53</ele>
        <time>2018-04-14T08:07:50Z</time>
      </trkpt>
      <trkpt lat="47.60143" lon="-2.78501">
        <ele>53</ele>
        <time>2018-04-14T08:07:53Z</time>
      </trkpt>
      <trkpt lat="47.60141" lon="-2.78495">
        <ele>53</ele>
        <time>2018-04-14T08:07:57Z</time>
      </trkpt>
      <trkpt lat="47.60137" lon="-2.78488">
        <ele>54</ele>
        <time>2018-04-14T08:08:01Z</time>
      </trkpt>
      <trkpt lat="47.60134" lon="-2.78482">
        <ele>55</ele>
        <time>2018-04-14T08:08:05Z</time>
      </trkpt>
      <trkpt lat="47.6013" lon="-2.78476">
        <ele>54</ele>
        <time>2018-04-14T08:08:11Z</time>
      </trkpt>
      <trkpt lat="47.60127" lon="-2.7847">
        <ele>53</ele>
        <time>2018-04-14T08:08:14Z</time>
      </trkpt>
      <trkpt lat="47.60122" lon="-2.78463">
        <ele>53</ele>
        <time>2018-04-14T08:08:19Z</time>
      </trkpt>
      <trkpt lat="47.60119" lon="-2.78458">
        <ele>52</ele>
        <time>2018-04-14T08:08:22Z</time>
      </trkpt>
      <trkpt lat="47.60118" lon="-2.78456">
        <ele>53</ele>
        <time>2018-04-14T08:08:24Z</time>
      </trkpt>
      <trkpt lat="47.60116" lon="-2.78449">
        <ele>54</ele>
        <time>2018-04-14T08:08:27Z</time>
      </trkpt>
      <trkpt lat="47.60115" lon="-2.78444">
        <ele>55</ele>
        <time>2018-04-14T08:08:30Z</time>
      </trkpt>
      <trkpt lat="47.60115" lon="-2.78439">
        <ele>55</ele>
        <time>2018-04-14T08:08:32Z</time>
      </trkpt>
      <trkpt lat="47.60112" lon="-2.7843">
        <ele>55</ele>
        <time>2018-04-14T08:08:37Z</time>
      </trkpt>
      <trkpt lat="47.6011" lon="-2.78425">
        <ele>56</ele>
        <time>2018-04-14T08:08:41Z</time>
      </trkpt>
      <trkpt lat="47.60105" lon="-2.78417">
        <ele>56</ele>
        <time>2018-04-14T08:08:46Z</time>
      </trkpt>
      <trkpt lat="47.60101" lon="-2.78411">
        <ele>55</ele>
        <time>2018-04-14T08:08:49Z</time>
      </trkpt>
      <trkpt lat="47.60099" lon="-2.78405">
        <ele>55</ele>
        <time>2018-04-14T08:08:52Z</time>
      </trkpt>
      <trkpt lat="47.60097" lon="-2.78401">
        <ele>56</ele>
        <time>2018-04-14T08:08:55Z</time>
      </trkpt>
      <trkpt lat="47.60093" lon="-2.78396">
        <ele>56</ele>
        <time>2018-04-14T08:08:58Z</time>
      </trkpt>
      <trkpt lat="47.60089" lon="-2.7839">
        <ele>56</ele>
        <time>2018-04-14T08:09:02Z</time>
      </trkpt>
      <trkpt lat="47.60087" lon="-2.78383">
        <ele>57</ele>
        <time>2018-04-14T08:09:07Z</time>
      </trkpt>
      <trkpt lat="47.60084" lon="-2.78376">
        <ele>57</ele>
        <time>2018-04-14T08:09:11Z</time>
      </trkpt>
      <trkpt lat="47.60082" lon="-2.7837">
        <ele>58</ele>
        <time>2018-04-14T08:09:14Z</time>
      </trkpt>
      <trkpt lat="47.60079" lon="-2.78363">
        <ele>58</ele>
        <time>2018-04-14T08:09:17Z</time>
      </trkpt>
      <trkpt lat="47.60076" lon="-2.78357">
        <ele>57</ele>
        <time>2018-04-14T08:09:21Z</time>
      </trkpt>
      <trkpt lat="47.60074" lon="-2.78351">
        <ele>57</ele>
        <time>2018-04-14T08:09:25Z</time>
      </trkpt>
      <trkpt lat="47.6007" lon="-2.78346">
        <ele>55</ele>
        <time>2018-04-14T08:09:31Z</time>
      </trkpt>
      <trkpt lat="47.60068" lon="-2.78339">
        <ele>55</ele>
        <time>2018-04-14T08:09:36Z</time>
      </trkpt>
      <trkpt lat="47.60066" lon="-2.78331">
        <ele>56</ele>
        <time>2018-04-14T08:09:41Z</time>
      </trkpt>
      <trkpt lat="47.60065" lon="-2.78324">
        <ele>57</ele>
        <time>2018-04-14T08:09:44Z</time>
      </trkpt>
      <trkpt lat="47.60063" lon="-2.78316">
        <ele>57</ele>
        <time>2018-04-14T08:09:47Z</time>
      </trkpt>
      <trkpt lat="47.60061" lon="-2.7831">
        <ele>58</ele>
        <time>2018-04-14T08:09:49Z</time>
      </trkpt>
      <trkpt lat="47.60059" lon="-2.78304">
        <ele>58</ele>
        <time>2018-04-14T08:09:52Z</time>
      </trkpt>
      <trkpt lat="47.60058" lon="-2.78299">
        <ele>58</ele>
        <time>2018-04-14T08:09:54Z</time>
      </trkpt>
      <trkpt lat="47.60056" lon="-2.78293">
        <ele>57</ele>
        <time>2018-04-14T08:09:57Z</time>
      </trkpt>
      <trkpt lat="47.60053" lon="-2.78287">
        <ele>58</ele>
        <time>2018-04-14T08:10:02Z</time>
      </trkpt>
      <trkpt lat="47.6005" lon="-2.78281">
        <ele>57</ele>
        <time>2018-04-14T08:10:05Z</time>
      </trkpt>
      <trkpt lat="47.60048" lon="-2.78273">
        <ele>56</ele>
        <time>2018-04-14T08:10:09Z</time>
      </trkpt>
      <trkpt lat="47.60045" lon="-2.78266">
        <ele>56</ele>
        <time>2018-04-14T08:10:12Z</time>
      </trkpt>
      <trkpt lat="47.60042" lon="-2.78261">
        <ele>54</ele>
        <time>2018-04-14T08:10:16Z</time>
      </trkpt>
      <trkpt lat="47.60039" lon="-2.78251">
        <ele>56</ele>
        <time>2018-04-14T08:10:21Z</time>
      </trkpt>
      <trkpt lat="47.60037" lon="-2.78246">
        <ele>57</ele>
        <time>2018-04-14T08:10:23Z</time>
      </trkpt>
      <trkpt lat="47.60034" lon="-2.78241">
        <ele>57</ele>
        <time>2018-04-14T08:10:26Z</time>
      </trkpt>
      <trkpt lat="47.60031" lon="-2.78233">
        <ele>57</ele>
        <time>2018-04-14T08:10:29Z</time>
      </trkpt>
      <trkpt lat="47.60029" lon="-2.78227">
        <ele>58</ele>
        <time>2018-04-14T08:10:32Z</time>
      </trkpt>
      <trkpt lat="47.60026" lon="-2.78218">
        <ele>59</ele>
        <time>2018-04-14T08:10:37Z</time>
      </trkpt>
      <trkpt lat="47.60021" lon="-2.78213">
        <ele>54</ele>
        <time>2018-04-14T08:10:41Z</time>
      </trkpt>
      <trkpt lat="47.60019" lon="-2.78206">
        <ele>55</ele>
        <time>2018-04-14T08:10:45Z</time>
      </trkpt>
      <trkpt lat="47.60018" lon="-2.78202">
        <ele>55</ele>
        <time>2018-04-14T08:10:46Z</time>
      </trkpt>
      <trkpt lat="47.60013" lon="-2.78195">
        <ele>55</ele>
        <time>2018-04-14T08:10:49Z</time>
      </trkpt>
      <trkpt lat="47.60011" lon="-2.78192">
        <ele>55</ele>
        <time>2018-04-14T08:10:52Z</time>
      </trkpt>
      <trkpt lat="47.60008" lon="-2.78184">
        <ele>56</ele>
        <time>2018-04-14T08:10:56Z</time>
      </trkpt>
      <trkpt lat="47.60005" lon="-2.78178">
        <ele>57</ele>
        <time>2018-04-14T08:11:00Z</time>
      </trkpt>
      <trkpt lat="47.60003" lon="-2.78171">
        <ele>56</ele>
        <time>2018-04-14T08:11:04Z</time>
      </trkpt>
      <trkpt lat="47.60001" lon="-2.78164">
        <ele>56</ele>
        <time>2018-04-14T08:11:08Z</time>
      </trkpt>
      <trkpt lat="47.59996" lon="-2.78157">
        <ele>55</ele>
        <time>2018-04-14T08:11:13Z</time>
      </trkpt>
      <trkpt lat="47.59994" lon="-2.7815">
        <ele>54</ele>
        <time>2018-04-14T08:11:16Z</time>
      </trkpt>
      <trkpt lat="47.59992" lon="-2.78142">
        <ele>55</ele>
        <time>2018-04-14T08:11:19Z</time>
      </trkpt>
      <trkpt lat="47.5999" lon="-2.78137">
        <ele>54</ele>
        <time>2018-04-14T08:11:21Z</time>
      </trkpt>
      <trkpt lat="47.59989" lon="-2.78134">
        <ele>54</ele>
        <time>2018-04-14T08:11:23Z</time>
      </trkpt>
      <trkpt lat="47.59984" lon="-2.78129">
        <ele>53</ele>
        <time>2018-04-14T08:11:28Z</time>
      </trkpt>
      <trkpt lat="47.59981" lon="-2.78123">
        <ele>55</ele>
        <time>2018-04-14T08:11:32Z</time>
      </trkpt>
      <trkpt lat="47.5998" lon="-2.7812">
        <ele>56</ele>
        <time>2018-04-14T08:11:35Z</time>
      </trkpt>
      <trkpt lat="47.59979" lon="-2.78116">
        <ele>56</ele>
        <time>2018-04-14T08:11:37Z</time>
      </trkpt>
      <trkpt lat="47.59974" lon="-2.78112">
        <ele>55</ele>
        <time>2018-04-14T08:11:41Z</time>
      </trkpt>
      <trkpt lat="47.59971" lon="-2.78106">
        <ele>55</ele>
        <time>2018-04-14T08:11:44Z</time>
      </trkpt>
      <trkpt lat="47.59969" lon="-2.78098">
        <ele>56</ele>
        <time>2018-04-14T08:11:50Z</time>
      </trkpt>
      <trkpt lat="47.59965" lon="-2.78093">
        <ele>55</ele>
        <time>2018-04-14T08:11:53Z</time>
      </trkpt>
      <trkpt lat="47.5996" lon="-2.78087">
        <ele>55</ele>
        <time>2018-04-14T08:11:57Z</time>
      </trkpt>
      <trkpt lat="47.59955" lon="-2.78084">
        <ele>53</ele>
        <time>2018-04-14T08:12:01Z</time>
      </trkpt>
      <trkpt lat="47.59952" lon="-2.78079">
        <ele>53</ele>
        <time>2018-04-14T08:12:04Z</time>
      </trkpt>
      <trkpt lat="47.59949" lon="-2.78071">
        <ele>54</ele>
        <time>2018-04-14T08:12:08Z</time>
      </trkpt>
      <trkpt lat="47.59945" lon="-2.78064">
        <ele>54</ele>
        <time>2018-04-14T08:12:12Z</time>
      </trkpt>
      <trkpt lat="47.59943" lon="-2.78061">
        <ele>53</ele>
        <time>2018-04-14T08:12:14Z</time>
      </trkpt>
      <trkpt lat="47.5994" lon="-2.78054">
        <ele>54</ele>
        <time>2018-04-14T08:12:20Z</time>
      </trkpt>
      <trkpt lat="47.59936" lon="-2.78048">
        <ele>55</ele>
        <time>2018-04-14T08:12:24Z</time>
      </trkpt>
      <trkpt lat="47.59933" lon="-2.78044">
        <ele>55</ele>
        <time>2018-04-14T08:12:28Z</time>
      </trkpt>
      <trkpt lat="47.59929" lon="-2.7804">
        <ele>55</ele>
        <time>2018-04-14T08:12:31Z</time>
      </trkpt>
      <trkpt lat="47.59926" lon="-2.78035">
        <ele>57</ele>
        <time>2018-04-14T08:12:36Z</time>
      </trkpt>
      <trkpt lat="47.59921" lon="-2.78029">
        <ele>57</ele>
        <time>2018-04-14T08:12:42Z</time>
      </trkpt>
      <trkpt lat="47.59918" lon="-2.78021">
        <ele>60</ele>
        <time>2018-04-14T08:12:45Z</time>
      </trkpt>
      <trkpt lat="47.59914" lon="-2.78015">
        <ele>58</ele>
        <time>2018-04-14T08:12:50Z</time>
      </trkpt>
      <trkpt lat="47.59912" lon="-2.78011">
        <ele>56</ele>
        <time>2018-04-14T08:12:52Z</time>
      </trkpt>
      <trkpt lat="47.59909" lon="-2.78007">
        <ele>56</ele>
        <time>2018-04-14T08:12:55Z</time>
      </trkpt>
      <trkpt lat="47.59906" lon="-2.77998">
        <ele>59</ele>
        <time>2018-04-14T08:13:02Z</time>
      </trkpt>
      <trkpt lat="47.59901" lon="-2.77996">
        <ele>58</ele>
        <time>2018-04-14T08:13:06Z</time>
      </trkpt>
      <trkpt lat="47.59896" lon="-2.7799">
        <ele>56</ele>
        <time>2018-04-14T08:13:09Z</time>
      </trkpt>
      <trkpt lat="47.59893" lon="-2.77984">
        <ele>57</ele>
        <time>2018-04-14T08:13:13Z</time>
      </trkpt>
      <trkpt lat="47.59889" lon="-2.77978">
        <ele>57</ele>
        <time>2018-04-14T08:13:17Z</time>
      </trkpt>
      <trkpt lat="47.59886" lon="-2.77973">
        <ele>57</ele>
        <time>2018-04-14T08:13:21Z</time>
      </trkpt>
      <trkpt lat="47.59885" lon="-2.7797">
        <ele>57</ele>
        <time>2018-04-14T08:13:22Z</time>
      </trkpt>
      <trkpt lat="47.59883" lon="-2.77963">
        <ele>60</ele>
        <time>2018-04-14T08:13:24Z</time>
      </trkpt>
      <trkpt lat="47.5988" lon="-2.77957">
        <ele>60</ele>
        <time>2018-04-14T08:13:27Z</time>
      </trkpt>
      <trkpt lat="47.59875" lon="-2.77954">
        <ele>60</ele>
        <time>2018-04-14T08:13:31Z</time>
      </trkpt>
      <trkpt lat="47.59871" lon="-2.7795">
        <ele>60</ele>
        <time>2018-04-14T08:13:34Z</time>
      </trkpt>
      <trkpt lat="47.59869" lon="-2.77947">
        <ele>59</ele>
        <time>2018-04-14T08:13:37Z</time>
      </trkpt>
      <trkpt lat="47.59867" lon="-2.77944">
        <ele>59</ele>
        <time>2018-04-14T08:13:39Z</time>
      </trkpt>
      <trkpt lat="47.59863" lon="-2.77939">
        <ele>59</ele>
        <time>2018-04-14T08:13:43Z</time>
      </trkpt>
      <trkpt lat="47.59861" lon="-2.77937">
        <ele>58</ele>
        <time>2018-04-14T08:13:44Z</time>
      </trkpt>
      <trkpt lat="47.59858" lon="-2.77932">
        <ele>60</ele>
        <time>2018-04-14T08:13:48Z</time>
      </trkpt>
      <trkpt lat="47.59854" lon="-2.77927">
        <ele>60</ele>
        <time>2018-04-14T08:13:51Z</time>
      </trkpt>
      <trkpt lat="47.59852" lon="-2.77923">
        <ele>59</ele>
        <time>2018-04-14T08:13:53Z</time>
      </trkpt>
      <trkpt lat="47.59848" lon="-2.77916">
        <ele>60</ele>
        <time>2018-04-14T08:13:57Z</time>
      </trkpt>
      <trkpt lat="47.59844" lon="-2.7791">
        <ele>59</ele>
        <time>2018-04-14T08:14:01Z</time>
      </trkpt>
      <trkpt lat="47.59841" lon="-2.77905">
        <ele>58</ele>
        <time>2018-04-14T08:14:03Z</time>
      </trkpt>
      <trkpt lat="47.59836" lon="-2.77898">
        <ele>56</ele>
        <time>2018-04-14T08:14:07Z</time>
      </trkpt>
      <trkpt lat="47.59833" lon="-2.77887">
        <ele>56</ele>
        <time>2018-04-14T08:14:11Z</time>
      </trkpt>
      <trkpt lat="47.59829" lon="-2.77882">
        <ele>56</ele>
        <time>2018-04-14T08:14:15Z</time>
      </trkpt>
      <trkpt lat="47.59826" lon="-2.77877">
        <ele>56</ele>
        <time>2018-04-14T08:14:21Z</time>
      </trkpt>
      <trkpt lat="47.59824" lon="-2.77874">
        <ele>57</ele>
        <time>2018-04-14T08:14:23Z</time>
      </trkpt>
      <trkpt lat="47.59822" lon="-2.7787">
        <ele>56</ele>
        <time>2018-04-14T08:14:25Z</time>
      </trkpt>
      <trkpt lat="47.59819" lon="-2.77863">
        <ele>58</ele>
        <time>2018-04-14T08:14:29Z</time>
      </trkpt>
      <trkpt lat="47.59817" lon="-2.77857">
        <ele>59</ele>
        <time>2018-04-14T08:14:32Z</time>
      </trkpt>
      <trkpt lat="47.59815" lon="-2.77849">
        <ele>59</ele>
        <time>2018-04-14T08:14:34Z</time>
      </trkpt>
      <trkpt lat="47.59812" lon="-2.77841">
        <ele>60</ele>
        <time>2018-04-14T08:14:38Z</time>
      </trkpt>
      <trkpt lat="47.5981" lon="-2.77835">
        <ele>60</ele>
        <time>2018-04-14T08:14:40Z</time>
      </trkpt>
      <trkpt lat="47.59806" lon="-2.77826">
        <ele>59</ele>
        <time>2018-04-14T08:14:46Z</time>
      </trkpt>
      <trkpt lat="47.59802" lon="-2.77821">
        <ele>60</ele>
        <time>2018-04-14T08:14:51Z</time>
      </trkpt>
      <trkpt lat="47.59799" lon="-2.77814">
        <ele>60</ele>
        <time>2018-04-14T08:14:55Z</time>
      </trkpt>
      <trkpt lat="47.59796" lon="-2.77806">
        <ele>60</ele>
        <time>2018-04-14T08:14:58Z</time>
      </trkpt>
      <trkpt lat="47.59794" lon="-2.77802">
        <ele>61</ele>
        <time>2018-04-14T08:15:00Z</time>
      </trkpt>
      <trkpt lat="47.5979" lon="-2.77798">
        <ele>59</ele>
        <time>2018-04-14T08:15:03Z</time>
      </trkpt>
      <trkpt lat="47.59785" lon="-2.77792">
        <ele>58</ele>
        <time>2018-04-14T08:15:06Z</time>
      </trkpt>
      <trkpt lat="47.59782" lon="-2.7779">
        <ele>57</ele>
        <time>2018-04-14T08:15:08Z</time>
      </trkpt>
      <trkpt lat="47.59779" lon="-2.77786">
        <ele>58</ele>
        <time>2018-04-14T08:15:11Z</time>
      </trkpt>
      <trkpt lat="47.59776" lon="-2.77779">
        <ele>59</ele>
        <time>2018-04-14T08:15:15Z</time>
      </trkpt>
      <trkpt lat="47.59773" lon="-2.77774">
        <ele>58</ele>
        <time>2018-04-14T08:15:20Z</time>
      </trkpt>
      <trkpt lat="47.5977" lon="-2.77767">
        <ele>58</ele>
        <time>2018-04-14T08:15:24Z</time>
      </trkpt>
      <trkpt lat="47.59765" lon="-2.77761">
        <ele>57</ele>
        <time>2018-04-14T08:15:27Z</time>
      </trkpt>
      <trkpt lat="47.59761" lon="-2.77758">
        <ele>59</ele>
        <time>2018-04-14T08:15:33Z</time>
      </trkpt>
      <trkpt lat="47.59757" lon="-2.77751">
        <ele>59</ele>
        <time>2018-04-14T08:15:36Z</time>
      </trkpt>
      <trkpt lat="47.59754" lon="-2.77747">
        <ele>59</ele>
        <time>2018-04-14T08:15:39Z</time>
      </trkpt>
      <trkpt lat="47.59749" lon="-2.7774">
        <ele>59</ele>
        <time>2018-04-14T08:15:44Z</time>
      </trkpt>
      <trkpt lat="47.59745" lon="-2.77733">
        <ele>58</ele>
        <time>2018-04-14T08:15:48Z</time>
      </trkpt>
      <trkpt lat="47.59743" lon="-2.7773">
        <ele>58</ele>
        <time>2018-04-14T08:15:50Z</time>
      </trkpt>
      <trkpt lat="47.59741" lon="-2.77727">
        <ele>58</ele>
        <time>2018-04-14T08:15:51Z</time>
      </trkpt>
      <trkpt lat="47.59739" lon="-2.77724">
        <ele>58</ele>
        <time>2018-04-14T08:15:53Z</time>
      </trkpt>
      <trkpt lat="47.59737" lon="-2.77721">
        <ele>58</ele>
        <time>2018-04-14T08:15:55Z</time>
      </trkpt>
      <trkpt lat="47.59733" lon="-2.77716">
        <ele>58</ele>
        <time>2018-04-14T08:15:58Z</time>
      </trkpt>
      <trkpt lat="47.5973" lon="-2.77712">
        <ele>58</ele>
        <time>2018-04-14T08:16:01Z</time>
      </trkpt>
      <trkpt lat="47.59728" lon="-2.7771">
        <ele>58</ele>
        <time>2018-04-14T08:16:03Z</time>
      </trkpt>
      <trkpt lat="47.59726" lon="-2.77707">
        <ele>58</ele>
        <time>2018-04-14T08:16:05Z</time>
      </trkpt>
      <trkpt lat="47.59722" lon="-2.777">
        <ele>59</ele>
        <time>2018-04-14T08:16:08Z</time>
      </trkpt>
      <trkpt lat="47.5972" lon="-2.77696">
        <ele>59</ele>
        <time>2018-04-14T08:16:10Z</time>
      </trkpt>
      <trkpt lat="47.59718" lon="-2.77693">
        <ele>59</ele>
        <time>2018-04-14T08:16:12Z</time>
      </trkpt>
      <trkpt lat="47.59714" lon="-2.77688">
        <ele>58</ele>
        <time>2018-04-14T08:16:15Z</time>
      </trkpt>
      <trkpt lat="47.59711" lon="-2.77683">
        <ele>58</ele>
        <time>2018-04-14T08:16:18Z</time>
      </trkpt>
      <trkpt lat="47.59709" lon="-2.7768">
        <ele>58</ele>
        <time>2018-04-14T08:16:20Z</time>
      </trkpt>
      <trkpt lat="47.59707" lon="-2.77677">
        <ele>58</ele>
        <time>2018-04-14T08:16:22Z</time>
      </trkpt>
      <trkpt lat="47.59705" lon="-2.77673">
        <ele>58</ele>
        <time>2018-04-14T08:16:24Z</time>
      </trkpt>
      <trkpt lat="47.59703" lon="-2.7767">
        <ele>57</ele>
        <time>2018-04-14T08:16:26Z</time>
      </trkpt>
      <trkpt lat="47.59702" lon="-2.77666">
        <ele>58</ele>
        <time>2018-04-14T08:16:28Z</time>
      </trkpt>
      <trkpt lat="47.59699" lon="-2.77661">
        <ele>57</ele>
        <time>2018-04-14T08:16:32Z</time>
      </trkpt>
      <trkpt lat="47.59696" lon="-2.77656">
        <ele>57</ele>
        <time>2018-04-14T08:16:35Z</time>
      </trkpt>
      <trkpt lat="47.59694" lon="-2.77651">
        <ele>57</ele>
        <time>2018-04-14T08:16:37Z</time>
      </trkpt>
      <trkpt lat="47.59691" lon="-2.77645">
        <ele>57</ele>
        <time>2018-04-14T08:16:41Z</time>
      </trkpt>
      <trkpt lat="47.59687" lon="-2.77639">
        <ele>58</ele>
        <time>2018-04-14T08:16:45Z</time>
      </trkpt>
      <trkpt lat="47.59683" lon="-2.77631">
        <ele>59</ele>
        <time>2018-04-14T08:16:49Z</time>
      </trkpt>
      <trkpt lat="47.59678" lon="-2.77626">
        <ele>59</ele>
        <time>2018-04-14T08:16:54Z</time>
      </trkpt>
      <trkpt lat="47.59672" lon="-2.77616">
        <ele>57</ele>
        <time>2018-04-14T08:16:59Z</time>
      </trkpt>
      <trkpt lat="47.59668" lon="-2.7761">
        <ele>57</ele>
        <time>2018-04-14T08:17:02Z</time>
      </trkpt>
      <trkpt lat="47.59666" lon="-2.77604">
        <ele>58</ele>
        <time>2018-04-14T08:17:05Z</time>
      </trkpt>
      <trkpt lat="47.59665" lon="-2.776">
        <ele>58</ele>
        <time>2018-04-14T08:17:06Z</time>
      </trkpt>
      <trkpt lat="47.59662" lon="-2.77594">
        <ele>56</ele>
        <time>2018-04-14T08:17:11Z</time>
      </trkpt>
      <trkpt lat="47.5966" lon="-2.7759">
        <ele>56</ele>
        <time>2018-04-14T08:17:13Z</time>
      </trkpt>
      <trkpt lat="47.59658" lon="-2.77583">
        <ele>57</ele>
        <time>2018-04-14T08:17:18Z</time>
      </trkpt>
      <trkpt lat="47.59655" lon="-2.77578">
        <ele>56</ele>
        <time>2018-04-14T08:17:22Z</time>
      </trkpt>
      <trkpt lat="47.59652" lon="-2.77573">
        <ele>57</ele>
        <time>2018-04-14T08:17:25Z</time>
      </trkpt>
      <trkpt lat="47.5965" lon="-2.7757">
        <ele>56</ele>
        <time>2018-04-14T08:17:28Z</time>
      </trkpt>
      <trkpt lat="47.59648" lon="-2.77563">
        <ele>57</ele>
        <time>2018-04-14T08:17:32Z</time>
      </trkpt>
      <trkpt lat="47.59645" lon="-2.77558">
        <ele>59</ele>
        <time>2018-04-14T08:17:36Z</time>
      </trkpt>
      <trkpt lat="47.59642" lon="-2.77552">
        <ele>60</ele>
        <time>2018-04-14T08:17:42Z</time>
      </trkpt>
      <trkpt lat="47.59639" lon="-2.77547">
        <ele>59</ele>
        <time>2018-04-14T08:17:45Z</time>
      </trkpt>
      <trkpt lat="47.59636" lon="-2.77542">
        <ele>61</ele>
        <time>2018-04-14T08:17:49Z</time>
      </trkpt>
      <trkpt lat="47.59633" lon="-2.77535">
        <ele>61</ele>
        <time>2018-04-14T08:17:57Z</time>
      </trkpt>
      <trkpt lat="47.59629" lon="-2.77529">
        <ele>61</ele>
        <time>2018-04-14T08:18:01Z</time>
      </trkpt>
      <trkpt lat="47.59626" lon="-2.77522">
        <ele>60</ele>
        <time>2018-04-14T08:18:05Z</time>
      </trkpt>
      <trkpt lat="47.59624" lon="-2.77517">
        <ele>60</ele>
        <time>2018-04-14T08:18:10Z</time>
      </trkpt>
      <trkpt lat="47.59622" lon="-2.77514">
        <ele>61</ele>
        <time>2018-04-14T08:18:12Z</time>
      </trkpt>
      <trkpt lat="47.59619" lon="-2.77509">
        <ele>60</ele>
        <time>2018-04-14T08:18:15Z</time>
      </trkpt>
      <trkpt lat="47.59615" lon="-2.77503">
        <ele>60</ele>
        <time>2018-04-14T08:18:18Z</time>
      </trkpt>
      <trkpt lat="47.59613" lon="-2.77496">
        <ele>58</ele>
        <time>2018-04-14T08:18:24Z</time>
      </trkpt>
      <trkpt lat="47.5961" lon="-2.77491">
        <ele>58</ele>
        <time>2018-04-14T08:18:27Z</time>
      </trkpt>
      <trkpt lat="47.59606" lon="-2.77484">
        <ele>58</ele>
        <time>2018-04-14T08:18:31Z</time>
      </trkpt>
      <trkpt lat="47.59604" lon="-2.77481">
        <ele>59</ele>
        <time>2018-04-14T08:18:33Z</time>
      </trkpt>
      <trkpt lat="47.596" lon="-2.77475">
        <ele>58</ele>
        <time>2018-04-14T08:18:36Z</time>
      </trkpt>
      <trkpt lat="47.59594" lon="-2.7747">
        <ele>57</ele>
        <time>2018-04-14T08:18:43Z</time>
      </trkpt>
      <trkpt lat="47.59592" lon="-2.77464">
        <ele>57</ele>
        <time>2018-04-14T08:18:45Z</time>
      </trkpt>
      <trkpt lat="47.59588" lon="-2.77458">
        <ele>58</ele>
        <time>2018-04-14T08:18:48Z</time>
      </trkpt>
      <trkpt lat="47.59586" lon="-2.77455">
        <ele>58</ele>
        <time>2018-04-14T08:18:50Z</time>
      </trkpt>
      <trkpt lat="47.59583" lon="-2.7745">
        <ele>59</ele>
        <time>2018-04-14T08:18:55Z</time>
      </trkpt>
      <trkpt lat="47.59583" lon="-2.7745">
        <ele>59</ele>
        <time>2018-04-14T08:19:02Z</time>
      </trkpt>
      <trkpt lat="47.59583" lon="-2.7745">
        <time>2018-04-14T08:19:02Z</time>
      </trkpt>
      <trkpt lat="47.59583" lon="-2.7745">
        <time>2018-04-14T08:19:13Z</time>
      </trkpt>
      <trkpt lat="47.5957" lon="-2.77438">
        <ele>61</ele>
        <time>2018-04-14T08:19:13Z</time>
      </trkpt>
      <trkpt lat="47.59566" lon="-2.7743">
        <ele>60</ele>
        <time>2018-04-14T08:19:16Z</time>
      </trkpt>
      <trkpt lat="47.59564" lon="-2.77427">
        <ele>60</ele>
        <time>2018-04-14T08:19:17Z</time>
      </trkpt>
      <trkpt lat="47.59561" lon="-2.77424">
        <ele>59</ele>
        <time>2018-04-14T08:19:22Z</time>
      </trkpt>
      <trkpt lat="47.59558" lon="-2.7742">
        <ele>58</ele>
        <time>2018-04-14T08:19:26Z</time>
      </trkpt>
      <trkpt lat="47.59554" lon="-2.77415">
        <ele>57</ele>
        <time>2018-04-14T08:19:33Z</time>
      </trkpt>
      <trkpt lat="47.59552" lon="-2.77412">
        <ele>58</ele>
        <time>2018-04-14T08:19:35Z</time>
      </trkpt>
      <trkpt lat="47.59552" lon="-2.77412">
        <time>2018-04-14T08:19:43Z</time>
      </trkpt>
      <trkpt lat="47.59552" lon="-2.77412">
        <time>2018-04-14T08:21:48Z</time>
      </trkpt>
      <trkpt lat="47.59539" lon="-2.77392">
        <ele>49</ele>
        <time>2018-04-14T08:21:48Z</time>
      </trkpt>
      <trkpt lat="47.59535" lon="-2.77391">
        <ele>49</ele>
        <time>2018-04-14T08:21:52Z</time>
      </trkpt>
      <trkpt lat="47.59532" lon="-2.77389">
        <ele>49</ele>
        <time>2018-04-14T08:21:55Z</time>
      </trkpt>
      <trkpt lat="47.59528" lon="-2.77388">
        <ele>49</ele>
        <time>2018-04-14T08:21:58Z</time>
      </trkpt>
      <trkpt lat="47.59525" lon="-2.77386">
        <ele>48</ele>
        <time>2018-04-14T08:22:01Z</time>
      </trkpt>
      <trkpt lat="47.5952" lon="-2.77384">
        <ele>47</ele>
        <time>2018-04-14T08:22:05Z</time>
      </trkpt>
      <trkpt lat="47.59516" lon="-2.77381">
        <ele>47</ele>
        <time>2018-04-14T08:22:10Z</time>
      </trkpt>
      <trkpt lat="47.59512" lon="-2.77381">
        <ele>46</ele>
        <time>2018-04-14T08:22:16Z</time>
      </trkpt>
      <trkpt lat="47.59512" lon="-2.77381">
        <time>2018-04-14T08:22:23Z</time>
      </trkpt>
      <trkpt lat="47.59512" lon="-2.77381">
        <time>2018-04-14T08:23:14Z</time>
      </trkpt>
      <trkpt lat="47.5948" lon="-2.77394">
        <ele>45</ele>
        <time>2018-04-14T08:23:14Z</time>
      </trkpt>
      <trkpt lat="47.5948" lon="-2.77394">
        <ele>45</ele>
        <time>2018-04-14T08:25:20Z</time>
      </trkpt>
      <trkpt lat="47.59466" lon="-2.77413">
        <ele>47</ele>
        <time>2018-04-14T08:28:19Z</time>
      </trkpt>
      <trkpt lat="47.59462" lon="-2.77416">
        <ele>48</ele>
        <time>2018-04-14T08:28:24Z</time>
      </trkpt>
      <trkpt lat="47.59457" lon="-2.77422">
        <ele>50</ele>
        <time>2018-04-14T08:28:28Z</time>
      </trkpt>
      <trkpt lat="47.59455" lon="-2.77425">
        <ele>50</ele>
        <time>2018-04-14T08:28:31Z</time>
      </trkpt>
      <trkpt lat="47.59453" lon="-2.77427">
        <ele>52</ele>
        <time>2018-04-14T08:28:33Z</time>
      </trkpt>
      <trkpt lat="47.59448" lon="-2.77431">
        <ele>54</ele>
        <time>2018-04-14T08:28:38Z</time>
      </trkpt>
      <trkpt lat="47.59446" lon="-2.77432">
        <ele>55</ele>
        <time>2018-04-14T08:28:41Z</time>
      </trkpt>
      <trkpt lat="47.59442" lon="-2.77434">
        <ele>54</ele>
        <time>2018-04-14T08:28:46Z</time>
      </trkpt>
      <trkpt lat="47.59442" lon="-2.77443">
        <ele>58</ele>
        <time>2018-04-14T08:28:53Z</time>
      </trkpt>
      <trkpt lat="47.59442" lon="-2.77448">
        <ele>57</ele>
        <time>2018-04-14T08:28:56Z</time>
      </trkpt>
      <trkpt lat="47.59442" lon="-2.77448">
        <ele>57</ele>
        <time>2018-04-14T08:29:03Z</time>
      </trkpt>
      <trkpt lat="47.59442" lon="-2.77448">
        <ele>2</ele>
        <time>2018-04-14T08:29:03Z</time>
      </trkpt>
      <trkpt lat="47.59442" lon="-2.77448">
        <ele>2</ele>
        <time>2018-04-14T08:30:17Z</time>
      </trkpt>
      <trkpt lat="47.59459" lon="-2.77417">
        <ele>55</ele>
        <time>2018-04-14T08:30:17Z</time>
      </trkpt>
      <trkpt lat="47.59464" lon="-2.77416">
        <ele>55</ele>
        <time>2018-04-14T08:30:22Z</time>
      </trkpt>
      <trkpt lat="47.59468" lon="-2.77413">
        <ele>55</ele>
        <time>2018-04-14T08:30:28Z</time>
      </trkpt>
      <trkpt lat="47.59468" lon="-2.77413">
        <ele>1</ele>
        <time>2018-04-14T08:30:36Z</time>
      </trkpt>
      <trkpt lat="47.59468" lon="-2.77413">
        <ele>1</ele>
        <time>2018-04-14T08:40:53Z</time>
      </trkpt>
      <trkpt lat="47.59459" lon="-2.77378">
        <ele>48</ele>
        <time>2018-04-14T08:40:53Z</time>
      </trkpt>
      <trkpt lat="47.59456" lon="-2.77375">
        <ele>49</ele>
        <time>2018-04-14T08:40:56Z</time>
      </trkpt>
      <trkpt lat="47.59454" lon="-2.77373">
        <ele>50</ele>
        <time>2018-04-14T08:40:58Z</time>
      </trkpt>
      <trkpt lat="47.59452" lon="-2.77371">
        <ele>49</ele>
        <time>2018-04-14T08:41:00Z</time>
      </trkpt>
      <trkpt lat="47.5945" lon="-2.77369">
        <ele>49</ele>
        <time>2018-04-14T08:41:02Z</time>
      </trkpt>
      <trkpt lat="47.59446" lon="-2.77367">
        <ele>49</ele>
        <time>2018-04-14T08:41:07Z</time>
      </trkpt>
      <trkpt lat="47.59442" lon="-2.77366">
        <ele>53</ele>
        <time>2018-04-14T08:41:12Z</time>
      </trkpt>
      <trkpt lat="47.5944" lon="-2.77364">
        <ele>57</ele>
        <time>2018-04-14T08:41:15Z</time>
      </trkpt>
      <trkpt lat="47.5944" lon="-2.77364">
        <ele>57</ele>
        <time>2018-04-14T08:41:23Z</time>
      </trkpt>
      <trkpt lat="47.5944" lon="-2.77364">
        <time>2018-04-14T08:41:23Z</time>
      </trkpt>
      <trkpt lat="47.5944" lon="-2.77364">
        <time>2018-04-14T08:41:36Z</time>
      </trkpt>
      <trkpt lat="47.59426" lon="-2.77353">
        <ele>53</ele>
        <time>2018-04-14T08:41:36Z</time>
      </trkpt>
      <trkpt lat="47.59424" lon="-2.77352">
        <ele>51</ele>
        <time>2018-04-14T08:41:40Z</time>
      </trkpt>
      <trkpt lat="47.59419" lon="-2.77351">
        <ele>51</ele>
        <time>2018-04-14T08:41:45Z</time>
      </trkpt>
      <trkpt lat="47.59415" lon="-2.77347">
        <ele>50</ele>
        <time>2018-04-14T08:41:51Z</time>
      </trkpt>
      <trkpt lat="47.59413" lon="-2.77345">
        <ele>49</ele>
        <time>2018-04-14T08:41:53Z</time>
      </trkpt>
      <trkpt lat="47.59408" lon="-2.77343">
        <ele>48</ele>
        <time>2018-04-14T08:42:00Z</time>
      </trkpt>
      <trkpt lat="47.59405" lon="-2.77341">
        <ele>48</ele>
        <time>2018-04-14T08:42:02Z</time>
      </trkpt>
      <trkpt lat="47.594" lon="-2.7734">
        <ele>50</ele>
        <time>2018-04-14T08:42:06Z</time>
      </trkpt>
      <trkpt lat="47.59395" lon="-2.77338">
        <ele>48</ele>
        <time>2018-04-14T08:42:11Z</time>
      </trkpt>
      <trkpt lat="47.5939" lon="-2.77332">
        <ele>49</ele>
        <time>2018-04-14T08:42:15Z</time>
      </trkpt>
      <trkpt lat="47.59387" lon="-2.77329">
        <ele>49</ele>
        <time>2018-04-14T08:42:18Z</time>
      </trkpt>
      <trkpt lat="47.59381" lon="-2.77328">
        <ele>54</ele>
        <time>2018-04-14T08:42:23Z</time>
      </trkpt>
      <trkpt lat="47.59376" lon="-2.77326">
        <ele>56</ele>
        <time>2018-04-14T08:42:27Z</time>
      </trkpt>
      <trkpt lat="47.59371" lon="-2.77324">
        <ele>54</ele>
        <time>2018-04-14T08:42:33Z</time>
      </trkpt>
      <trkpt lat="47.59368" lon="-2.77323">
        <ele>52</ele>
        <time>2018-04-14T08:42:35Z</time>
      </trkpt>
      <trkpt lat="47.59363" lon="-2.7732">
        <ele>49</ele>
        <time>2018-04-14T08:42:39Z</time>
      </trkpt>
      <trkpt lat="47.59357" lon="-2.77321">
        <ele>50</ele>
        <time>2018-04-14T08:42:43Z</time>
      </trkpt>
      <trkpt lat="47.59351" lon="-2.77319">
        <ele>53</ele>
        <time>2018-04-14T08:42:47Z</time>
      </trkpt>
      <trkpt lat="47.59347" lon="-2.77318">
        <ele>50</ele>
        <time>2018-04-14T08:42:50Z</time>
      </trkpt>
      <trkpt lat="47.59339" lon="-2.77316">
        <ele>50</ele>
        <time>2018-04-14T08:42:55Z</time>
      </trkpt>
      <trkpt lat="47.59336" lon="-2.77315">
        <ele>50</ele>
        <time>2018-04-14T08:42:57Z</time>
      </trkpt>
      <trkpt lat="47.5933" lon="-2.77316">
        <ele>52</ele>
        <time>2018-04-14T08:43:00Z</time>
      </trkpt>
      <trkpt lat="47.59325" lon="-2.77314">
        <ele>51</ele>
        <time>2018-04-14T08:43:04Z</time>
      </trkpt>
      <trkpt lat="47.59322" lon="-2.77312">
        <ele>52</ele>
        <time>2018-04-14T08:43:06Z</time>
      </trkpt>
      <trkpt lat="47.59317" lon="-2.77312">
        <ele>51</ele>
        <time>2018-04-14T08:43:10Z</time>
      </trkpt>
      <trkpt lat="47.59313" lon="-2.77312">
        <ele>52</ele>
        <time>2018-04-14T08:43:13Z</time>
      </trkpt>
      <trkpt lat="47.5931" lon="-2.77312">
        <ele>48</ele>
        <time>2018-04-14T08:43:15Z</time>
      </trkpt>
      <trkpt lat="47.59307" lon="-2.77312">
        <ele>47</ele>
        <time>2018-04-14T08:43:17Z</time>
      </trkpt>
      <trkpt lat="47.59303" lon="-2.77311">
        <ele>44</ele>
        <time>2018-04-14T08:43:21Z</time>
      </trkpt>
      <trkpt lat="47.59296" lon="-2.77311">
        <ele>45</ele>
        <time>2018-04-14T08:43:24Z</time>
      </trkpt>
      <trkpt lat="47.59292" lon="-2.77311">
        <ele>42</ele>
        <time>2018-04-14T08:43:27Z</time>
      </trkpt>
      <trkpt lat="47.59287" lon="-2.77313">
        <ele>43</ele>
        <time>2018-04-14T08:43:30Z</time>
      </trkpt>
      <trkpt lat="47.59282" lon="-2.77313">
        <ele>43</ele>
        <time>2018-04-14T08:43:33Z</time>
      </trkpt>
      <trkpt lat="47.59279" lon="-2.77313">
        <ele>44</ele>
        <time>2018-04-14T08:43:35Z</time>
      </trkpt>
      <trkpt lat="47.59275" lon="-2.77312">
        <ele>44</ele>
        <time>2018-04-14T08:43:37Z</time>
      </trkpt>
      <trkpt lat="47.59269" lon="-2.77312">
        <ele>46</ele>
        <time>2018-04-14T08:43:40Z</time>
      </trkpt>
      <trkpt lat="47.59266" lon="-2.77312">
        <ele>47</ele>
        <time>2018-04-14T08:43:42Z</time>
      </trkpt>
      <trkpt lat="47.59261" lon="-2.77312">
        <ele>46</ele>
        <time>2018-04-14T08:43:46Z</time>
      </trkpt>
      <trkpt lat="47.59256" lon="-2.77313">
        <ele>44</ele>
        <time>2018-04-14T08:43:50Z</time>
      </trkpt>
      <trkpt lat="47.5925" lon="-2.77312">
        <ele>46</ele>
        <time>2018-04-14T08:43:53Z</time>
      </trkpt>
      <trkpt lat="47.59241" lon="-2.77309">
        <ele>46</ele>
        <time>2018-04-14T08:43:57Z</time>
      </trkpt>
      <trkpt lat="47.59238" lon="-2.77308">
        <ele>46</ele>
        <time>2018-04-14T08:43:59Z</time>
      </trkpt>
      <trkpt lat="47.59232" lon="-2.77309">
        <ele>47</ele>
        <time>2018-04-14T08:44:02Z</time>
      </trkpt>
      <trkpt lat="47.59226" lon="-2.77308">
        <ele>46</ele>
        <time>2018-04-14T08:44:06Z</time>
      </trkpt>
      <trkpt lat="47.59221" lon="-2.77308">
        <ele>46</ele>
        <time>2018-04-14T08:44:09Z</time>
      </trkpt>
      <trkpt lat="47.59215" lon="-2.77307">
        <ele>48</ele>
        <time>2018-04-14T08:44:12Z</time>
      </trkpt>
      <trkpt lat="47.59211" lon="-2.77307">
        <ele>48</ele>
        <time>2018-04-14T08:44:15Z</time>
      </trkpt>
      <trkpt lat="47.59206" lon="-2.77308">
        <ele>49</ele>
        <time>2018-04-14T08:44:18Z</time>
      </trkpt>
      <trkpt lat="47.59201" lon="-2.77303">
        <ele>47</ele>
        <time>2018-04-14T08:44:22Z</time>
      </trkpt>
      <trkpt lat="47.59196" lon="-2.77304">
        <ele>47</ele>
        <time>2018-04-14T08:44:25Z</time>
      </trkpt>
      <trkpt lat="47.59191" lon="-2.77304">
        <ele>48</ele>
        <time>2018-04-14T08:44:27Z</time>
      </trkpt>
      <trkpt lat="47.59189" lon="-2.77304">
        <ele>48</ele>
        <time>2018-04-14T08:44:29Z</time>
      </trkpt>
      <trkpt lat="47.59185" lon="-2.77303">
        <ele>45</ele>
        <time>2018-04-14T08:44:32Z</time>
      </trkpt>
      <trkpt lat="47.59182" lon="-2.77303">
        <ele>42</ele>
        <time>2018-04-14T08:44:34Z</time>
      </trkpt>
      <trkpt lat="47.59179" lon="-2.77304">
        <ele>41</ele>
        <time>2018-04-14T08:44:36Z</time>
      </trkpt>
      <trkpt lat="47.59173" lon="-2.77305">
        <ele>41</ele>
        <time>2018-04-14T08:44:39Z</time>
      </trkpt>
      <trkpt lat="47.59166" lon="-2.77302">
        <ele>43</ele>
        <time>2018-04-14T08:44:43Z</time>
      </trkpt>
      <trkpt lat="47.59162" lon="-2.77301">
        <ele>43</ele>
        <time>2018-04-14T08:44:46Z</time>
      </trkpt>
      <trkpt lat="47.59158" lon="-2.773">
        <ele>43</ele>
        <time>2018-04-14T08:44:48Z</time>
      </trkpt>
      <trkpt lat="47.59152" lon="-2.773">
        <ele>44</ele>
        <time>2018-04-14T08:44:52Z</time>
      </trkpt>
      <trkpt lat="47.5915" lon="-2.773">
        <ele>44</ele>
        <time>2018-04-14T08:44:53Z</time>
      </trkpt>
      <trkpt lat="47.59144" lon="-2.773">
        <ele>45</ele>
        <time>2018-04-14T08:44:56Z</time>
      </trkpt>
      <trkpt lat="47.59141" lon="-2.77299">
        <ele>45</ele>
        <time>2018-04-14T08:44:58Z</time>
      </trkpt>
      <trkpt lat="47.59136" lon="-2.77297">
        <ele>46</ele>
        <time>2018-04-14T08:45:01Z</time>
      </trkpt>
      <trkpt lat="47.59131" lon="-2.77296">
        <ele>47</ele>
        <time>2018-04-14T08:45:04Z</time>
      </trkpt>
      <trkpt lat="47.59125" lon="-2.77297">
        <ele>46</ele>
        <time>2018-04-14T08:45:08Z</time>
      </trkpt>
      <trkpt lat="47.5912" lon="-2.77296">
        <ele>46</ele>
        <time>2018-04-14T08:45:11Z</time>
      </trkpt>
      <trkpt lat="47.59114" lon="-2.77297">
        <ele>45</ele>
        <time>2018-04-14T08:45:14Z</time>
      </trkpt>
      <trkpt lat="47.59109" lon="-2.77295">
        <ele>43</ele>
        <time>2018-04-14T08:45:17Z</time>
      </trkpt>
      <trkpt lat="47.59104" lon="-2.77295">
        <ele>42</ele>
        <time>2018-04-14T08:45:20Z</time>
      </trkpt>
      <trkpt lat="47.59099" lon="-2.77294">
        <ele>46</ele>
        <time>2018-04-14T08:45:23Z</time>
      </trkpt>
      <trkpt lat="47.59095" lon="-2.77293">
        <ele>47</ele>
        <time>2018-04-14T08:45:25Z</time>
      </trkpt>
      <trkpt lat="47.59092" lon="-2.77293">
        <ele>47</ele>
        <time>2018-04-14T08:45:27Z</time>
      </trkpt>
      <trkpt lat="47.59085" lon="-2.77293">
        <ele>51</ele>
        <time>2018-04-14T08:45:30Z</time>
      </trkpt>
      <trkpt lat="47.5908" lon="-2.77293">
        <ele>52</ele>
        <time>2018-04-14T08:45:33Z</time>
      </trkpt>
      <trkpt lat="47.59076" lon="-2.77293">
        <ele>52</ele>
        <time>2018-04-14T08:45:36Z</time>
      </trkpt>
      <trkpt lat="47.59073" lon="-2.77293">
        <ele>53</ele>
        <time>2018-04-14T08:45:37Z</time>
      </trkpt>
      <trkpt lat="47.59068" lon="-2.77293">
        <ele>49</ele>
        <time>2018-04-14T08:45:41Z</time>
      </trkpt>
      <trkpt lat="47.59062" lon="-2.77294">
        <ele>48</ele>
        <time>2018-04-14T08:45:44Z</time>
      </trkpt>
      <trkpt lat="47.59056" lon="-2.77297">
        <ele>45</ele>
        <time>2018-04-14T08:45:48Z</time>
      </trkpt>
      <trkpt lat="47.5905" lon="-2.77294">
        <ele>48</ele>
        <time>2018-04-14T08:45:51Z</time>
      </trkpt>
      <trkpt lat="47.59045" lon="-2.77294">
        <ele>47</ele>
        <time>2018-04-14T08:45:54Z</time>
      </trkpt>
      <trkpt lat="47.59041" lon="-2.77293">
        <ele>48</ele>
        <time>2018-04-14T08:45:56Z</time>
      </trkpt>
      <trkpt lat="47.59037" lon="-2.77296">
        <ele>50</ele>
        <time>2018-04-14T08:45:58Z</time>
      </trkpt>
      <trkpt lat="47.59031" lon="-2.77297">
        <ele>51</ele>
        <time>2018-04-14T08:46:01Z</time>
      </trkpt>
      <trkpt lat="47.59027" lon="-2.77297">
        <ele>51</ele>
        <time>2018-04-14T08:46:04Z</time>
      </trkpt>
      <trkpt lat="47.59022" lon="-2.77299">
        <ele>47</ele>
        <time>2018-04-14T08:46:07Z</time>
      </trkpt>
      <trkpt lat="47.59015" lon="-2.77299">
        <ele>49</ele>
        <time>2018-04-14T08:46:10Z</time>
      </trkpt>
      <trkpt lat="47.59012" lon="-2.77299">
        <ele>48</ele>
        <time>2018-04-14T08:46:12Z</time>
      </trkpt>
      <trkpt lat="47.59008" lon="-2.773">
        <ele>47</ele>
        <time>2018-04-14T08:46:15Z</time>
      </trkpt>
      <trkpt lat="47.59002" lon="-2.773">
        <ele>49</ele>
        <time>2018-04-14T08:46:18Z</time>
      </trkpt>
      <trkpt lat="47.58998" lon="-2.77301">
        <ele>50</ele>
        <time>2018-04-14T08:46:20Z</time>
      </trkpt>
      <trkpt lat="47.58992" lon="-2.773">
        <ele>51</ele>
        <time>2018-04-14T08:46:23Z</time>
      </trkpt>
      <trkpt lat="47.58984" lon="-2.77299">
        <ele>53</ele>
        <time>2018-04-14T08:46:27Z</time>
      </trkpt>
      <trkpt lat="47.58979" lon="-2.77301">
        <ele>53</ele>
        <time>2018-04-14T08:46:30Z</time>
      </trkpt>
      <trkpt lat="47.58975" lon="-2.77302">
        <ele>55</ele>
        <time>2018-04-14T08:46:33Z</time>
      </trkpt>
      <trkpt lat="47.58969" lon="-2.77302">
        <ele>56</ele>
        <time>2018-04-14T08:46:36Z</time>
      </trkpt>
      <trkpt lat="47.58964" lon="-2.77303">
        <ele>53</ele>
        <time>2018-04-14T08:46:40Z</time>
      </trkpt>
      <trkpt lat="47.58958" lon="-2.77304">
        <ele>52</ele>
        <time>2018-04-14T08:46:43Z</time>
      </trkpt>
      <trkpt lat="47.58952" lon="-2.77305">
        <ele>53</ele>
        <time>2018-04-14T08:46:47Z</time>
      </trkpt>
      <trkpt lat="47.58949" lon="-2.77305">
        <ele>52</ele>
        <time>2018-04-14T08:46:49Z</time>
      </trkpt>
      <trkpt lat="47.58945" lon="-2.77308">
        <ele>51</ele>
        <time>2018-04-14T08:46:51Z</time>
      </trkpt>
      <trkpt lat="47.58939" lon="-2.7731">
        <ele>52</ele>
        <time>2018-04-14T08:46:55Z</time>
      </trkpt>
      <trkpt lat="47.58934" lon="-2.7731">
        <ele>47</ele>
        <time>2018-04-14T08:46:59Z</time>
      </trkpt>
      <trkpt lat="47.58929" lon="-2.77311">
        <ele>47</ele>
        <time>2018-04-14T08:47:02Z</time>
      </trkpt>
      <trkpt lat="47.58925" lon="-2.77311">
        <ele>48</ele>
        <time>2018-04-14T08:47:04Z</time>
      </trkpt>
      <trkpt lat="47.58921" lon="-2.77312">
        <ele>46</ele>
        <time>2018-04-14T08:47:07Z</time>
      </trkpt>
      <trkpt lat="47.58916" lon="-2.77314">
        <ele>45</ele>
        <time>2018-04-14T08:47:10Z</time>
      </trkpt>
      <trkpt lat="47.58908" lon="-2.77316">
        <ele>47</ele>
        <time>2018-04-14T08:47:13Z</time>
      </trkpt>
      <trkpt lat="47.58902" lon="-2.77318">
        <ele>48</ele>
        <time>2018-04-14T08:47:16Z</time>
      </trkpt>
      <trkpt lat="47.58898" lon="-2.7732">
        <ele>46</ele>
        <time>2018-04-14T08:47:19Z</time>
      </trkpt>
      <trkpt lat="47.58893" lon="-2.77322">
        <ele>46</ele>
        <time>2018-04-14T08:47:21Z</time>
      </trkpt>
      <trkpt lat="47.58888" lon="-2.77322">
        <ele>49</ele>
        <time>2018-04-14T08:47:24Z</time>
      </trkpt>
      <trkpt lat="47.58884" lon="-2.77322">
        <ele>48</ele>
        <time>2018-04-14T08:47:26Z</time>
      </trkpt>
      <trkpt lat="47.5888" lon="-2.77325">
        <ele>46</ele>
        <time>2018-04-14T08:47:29Z</time>
      </trkpt>
      <trkpt lat="47.58874" lon="-2.77328">
        <ele>46</ele>
        <time>2018-04-14T08:47:32Z</time>
      </trkpt>
      <trkpt lat="47.58872" lon="-2.7733">
        <ele>47</ele>
        <time>2018-04-14T08:47:33Z</time>
      </trkpt>
      <trkpt lat="47.58867" lon="-2.77331">
        <ele>47</ele>
        <time>2018-04-14T08:47:36Z</time>
      </trkpt>
      <trkpt lat="47.58861" lon="-2.77333">
        <ele>48</ele>
        <time>2018-04-14T08:47:40Z</time>
      </trkpt>
      <trkpt lat="47.58854" lon="-2.77336">
        <ele>52</ele>
        <time>2018-04-14T08:47:43Z</time>
      </trkpt>
      <trkpt lat="47.58848" lon="-2.77338">
        <ele>54</ele>
        <time>2018-04-14T08:47:46Z</time>
      </trkpt>
      <trkpt lat="47.58845" lon="-2.77339">
        <ele>54</ele>
        <time>2018-04-14T08:47:48Z</time>
      </trkpt>
      <trkpt lat="47.58839" lon="-2.77342">
        <ele>54</ele>
        <time>2018-04-14T08:47:51Z</time>
      </trkpt>
      <trkpt lat="47.58835" lon="-2.77346">
        <ele>53</ele>
        <time>2018-04-14T08:47:54Z</time>
      </trkpt>
      <trkpt lat="47.58829" lon="-2.77348">
        <ele>54</ele>
        <time>2018-04-14T08:47:57Z</time>
      </trkpt>
      <trkpt lat="47.58822" lon="-2.7735">
        <ele>55</ele>
        <time>2018-04-14T08:48:01Z</time>
      </trkpt>
      <trkpt lat="47.58817" lon="-2.77354">
        <ele>53</ele>
        <time>2018-04-14T08:48:04Z</time>
      </trkpt>
      <trkpt lat="47.58812" lon="-2.77356">
        <ele>54</ele>
        <time>2018-04-14T08:48:07Z</time>
      </trkpt>
      <trkpt lat="47.5881" lon="-2.77357">
        <ele>53</ele>
        <time>2018-04-14T08:48:09Z</time>
      </trkpt>
      <trkpt lat="47.58805" lon="-2.7736">
        <ele>55</ele>
        <time>2018-04-14T08:48:12Z</time>
      </trkpt>
      <trkpt lat="47.588" lon="-2.77364">
        <ele>54</ele>
        <time>2018-04-14T08:48:15Z</time>
      </trkpt>
      <trkpt lat="47.58795" lon="-2.77366">
        <ele>55</ele>
        <time>2018-04-14T08:48:18Z</time>
      </trkpt>
      <trkpt lat="47.58788" lon="-2.77369">
        <ele>56</ele>
        <time>2018-04-14T08:48:22Z</time>
      </trkpt>
      <trkpt lat="47.58783" lon="-2.77374">
        <ele>57</ele>
        <time>2018-04-14T08:48:25Z</time>
      </trkpt>
      <trkpt lat="47.58778" lon="-2.77375">
        <ele>56</ele>
        <time>2018-04-14T08:48:27Z</time>
      </trkpt>
      <trkpt lat="47.58773" lon="-2.77377">
        <ele>54</ele>
        <time>2018-04-14T08:48:30Z</time>
      </trkpt>
      <trkpt lat="47.58769" lon="-2.77378">
        <ele>53</ele>
        <time>2018-04-14T08:48:32Z</time>
      </trkpt>
      <trkpt lat="47.58764" lon="-2.77383">
        <ele>51</ele>
        <time>2018-04-14T08:48:35Z</time>
      </trkpt>
      <trkpt lat="47.5876" lon="-2.77386">
        <ele>51</ele>
        <time>2018-04-14T08:48:37Z</time>
      </trkpt>
      <trkpt lat="47.58757" lon="-2.77389">
        <ele>51</ele>
        <time>2018-04-14T08:48:39Z</time>
      </trkpt>
      <trkpt lat="47.58753" lon="-2.77394">
        <ele>52</ele>
        <time>2018-04-14T08:48:42Z</time>
      </trkpt>
      <trkpt lat="47.58748" lon="-2.77398">
        <ele>52</ele>
        <time>2018-04-14T08:48:44Z</time>
      </trkpt>
      <trkpt lat="47.58743" lon="-2.77401">
        <ele>53</ele>
        <time>2018-04-14T08:48:47Z</time>
      </trkpt>
      <trkpt lat="47.58737" lon="-2.77409">
        <ele>54</ele>
        <time>2018-04-14T08:48:51Z</time>
      </trkpt>
      <trkpt lat="47.58734" lon="-2.77412">
        <ele>55</ele>
        <time>2018-04-14T08:48:53Z</time>
      </trkpt>
      <trkpt lat="47.5873" lon="-2.77419">
        <ele>57</ele>
        <time>2018-04-14T08:48:56Z</time>
      </trkpt>
      <trkpt lat="47.58728" lon="-2.77423">
        <ele>56</ele>
        <time>2018-04-14T08:48:58Z</time>
      </trkpt>
      <trkpt lat="47.58726" lon="-2.77426">
        <ele>55</ele>
        <time>2018-04-14T08:49:00Z</time>
      </trkpt>
      <trkpt lat="47.58722" lon="-2.77432">
        <ele>55</ele>
        <time>2018-04-14T08:49:04Z</time>
      </trkpt>
      <trkpt lat="47.58718" lon="-2.77436">
        <ele>56</ele>
        <time>2018-04-14T08:49:07Z</time>
      </trkpt>
      <trkpt lat="47.58713" lon="-2.77441">
        <ele>57</ele>
        <time>2018-04-14T08:49:11Z</time>
      </trkpt>
      <trkpt lat="47.5871" lon="-2.77444">
        <ele>58</ele>
        <time>2018-04-14T08:49:13Z</time>
      </trkpt>
      <trkpt lat="47.58706" lon="-2.77447">
        <ele>58</ele>
        <time>2018-04-14T08:49:15Z</time>
      </trkpt>
      <trkpt lat="47.58703" lon="-2.77453">
        <ele>53</ele>
        <time>2018-04-14T08:49:18Z</time>
      </trkpt>
      <trkpt lat="47.58701" lon="-2.77455">
        <ele>53</ele>
        <time>2018-04-14T08:49:19Z</time>
      </trkpt>
      <trkpt lat="47.58697" lon="-2.77461">
        <ele>55</ele>
        <time>2018-04-14T08:49:21Z</time>
      </trkpt>
      <trkpt lat="47.58693" lon="-2.77466">
        <ele>55</ele>
        <time>2018-04-14T08:49:23Z</time>
      </trkpt>
      <trkpt lat="47.58689" lon="-2.7747">
        <ele>54</ele>
        <time>2018-04-14T08:49:26Z</time>
      </trkpt>
      <trkpt lat="47.58687" lon="-2.77473">
        <ele>54</ele>
        <time>2018-04-14T08:49:28Z</time>
      </trkpt>
      <trkpt lat="47.58683" lon="-2.77478">
        <ele>57</ele>
        <time>2018-04-14T08:49:31Z</time>
      </trkpt>
      <trkpt lat="47.58682" lon="-2.77481">
        <ele>57</ele>
        <time>2018-04-14T08:49:33Z</time>
      </trkpt>
      <trkpt lat="47.58677" lon="-2.77486">
        <ele>58</ele>
        <time>2018-04-14T08:49:35Z</time>
      </trkpt>
      <trkpt lat="47.58674" lon="-2.7749">
        <ele>59</ele>
        <time>2018-04-14T08:49:37Z</time>
      </trkpt>
      <trkpt lat="47.5867" lon="-2.77497">
        <ele>58</ele>
        <time>2018-04-14T08:49:40Z</time>
      </trkpt>
      <trkpt lat="47.58667" lon="-2.77502">
        <ele>56</ele>
        <time>2018-04-14T08:49:43Z</time>
      </trkpt>
      <trkpt lat="47.58665" lon="-2.77507">
        <ele>52</ele>
        <time>2018-04-14T08:49:46Z</time>
      </trkpt>
      <trkpt lat="47.58661" lon="-2.77513">
        <ele>53</ele>
        <time>2018-04-14T08:49:49Z</time>
      </trkpt>
      <trkpt lat="47.58659" lon="-2.77516">
        <ele>53</ele>
        <time>2018-04-14T08:49:51Z</time>
      </trkpt>
      <trkpt lat="47.58653" lon="-2.77524">
        <ele>54</ele>
        <time>2018-04-14T08:49:56Z</time>
      </trkpt>
      <trkpt lat="47.5865" lon="-2.77531">
        <ele>52</ele>
        <time>2018-04-14T08:49:59Z</time>
      </trkpt>
      <trkpt lat="47.58647" lon="-2.77536">
        <ele>54</ele>
        <time>2018-04-14T08:50:02Z</time>
      </trkpt>
      <trkpt lat="47.58644" lon="-2.77543">
        <ele>54</ele>
        <time>2018-04-14T08:50:05Z</time>
      </trkpt>
      <trkpt lat="47.58642" lon="-2.77547">
        <ele>52</ele>
        <time>2018-04-14T08:50:08Z</time>
      </trkpt>
      <trkpt lat="47.58639" lon="-2.77553">
        <ele>53</ele>
        <time>2018-04-14T08:50:11Z</time>
      </trkpt>
      <trkpt lat="47.58634" lon="-2.77559">
        <ele>58</ele>
        <time>2018-04-14T08:50:14Z</time>
      </trkpt>
      <trkpt lat="47.58629" lon="-2.77568">
        <ele>59</ele>
        <time>2018-04-14T08:50:19Z</time>
      </trkpt>
      <trkpt lat="47.58626" lon="-2.77577">
        <ele>57</ele>
        <time>2018-04-14T08:50:23Z</time>
      </trkpt>
      <trkpt lat="47.58624" lon="-2.7758">
        <ele>57</ele>
        <time>2018-04-14T08:50:25Z</time>
      </trkpt>
      <trkpt lat="47.58621" lon="-2.77584">
        <ele>59</ele>
        <time>2018-04-14T08:50:28Z</time>
      </trkpt>
      <trkpt lat="47.58617" lon="-2.77591">
        <ele>58</ele>
        <time>2018-04-14T08:50:31Z</time>
      </trkpt>
      <trkpt lat="47.58615" lon="-2.77598">
        <ele>56</ele>
        <time>2018-04-14T08:50:34Z</time>
      </trkpt>
      <trkpt lat="47.58614" lon="-2.77602">
        <ele>55</ele>
        <time>2018-04-14T08:50:36Z</time>
      </trkpt>
      <trkpt lat="47.58613" lon="-2.77605">
        <ele>55</ele>
        <time>2018-04-14T08:50:37Z</time>
      </trkpt>
      <trkpt lat="47.58611" lon="-2.77609">
        <ele>56</ele>
        <time>2018-04-14T08:50:39Z</time>
      </trkpt>
      <trkpt lat="47.5861" lon="-2.77612">
        <ele>57</ele>
        <time>2018-04-14T08:50:40Z</time>
      </trkpt>
      <trkpt lat="47.58609" lon="-2.77616">
        <ele>57</ele>
        <time>2018-04-14T08:50:42Z</time>
      </trkpt>
      <trkpt lat="47.58605" lon="-2.77622">
        <ele>56</ele>
        <time>2018-04-14T08:50:45Z</time>
      </trkpt>
      <trkpt lat="47.58604" lon="-2.77625">
        <ele>55</ele>
        <time>2018-04-14T08:50:47Z</time>
      </trkpt>
      <trkpt lat="47.58602" lon="-2.77629">
        <ele>56</ele>
        <time>2018-04-14T08:50:49Z</time>
      </trkpt>
      <trkpt lat="47.58599" lon="-2.77637">
        <ele>55</ele>
        <time>2018-04-14T08:50:53Z</time>
      </trkpt>
      <trkpt lat="47.58598" lon="-2.77642">
        <ele>55</ele>
        <time>2018-04-14T08:50:55Z</time>
      </trkpt>
      <trkpt lat="47.58595" lon="-2.77649">
        <ele>57</ele>
        <time>2018-04-14T08:50:58Z</time>
      </trkpt>
      <trkpt lat="47.58593" lon="-2.77654">
        <ele>56</ele>
        <time>2018-04-14T08:51:00Z</time>
      </trkpt>
      <trkpt lat="47.58591" lon="-2.77659">
        <ele>55</ele>
        <time>2018-04-14T08:51:03Z</time>
      </trkpt>
      <trkpt lat="47.58589" lon="-2.77662">
        <ele>56</ele>
        <time>2018-04-14T08:51:04Z</time>
      </trkpt>
      <trkpt lat="47.58588" lon="-2.77666">
        <ele>57</ele>
        <time>2018-04-14T08:51:05Z</time>
      </trkpt>
      <trkpt lat="47.58583" lon="-2.77676">
        <ele>56</ele>
        <time>2018-04-14T08:51:09Z</time>
      </trkpt>
      <trkpt lat="47.58581" lon="-2.77682">
        <ele>56</ele>
        <time>2018-04-14T08:51:11Z</time>
      </trkpt>
      <trkpt lat="47.5858" lon="-2.77685">
        <ele>57</ele>
        <time>2018-04-14T08:51:12Z</time>
      </trkpt>
      <trkpt lat="47.58578" lon="-2.77693">
        <ele>56</ele>
        <time>2018-04-14T08:51:16Z</time>
      </trkpt>
      <trkpt lat="47.58576" lon="-2.77698">
        <ele>56</ele>
        <time>2018-04-14T08:51:18Z</time>
      </trkpt>
      <trkpt lat="47.58574" lon="-2.77704">
        <ele>58</ele>
        <time>2018-04-14T08:51:20Z</time>
      </trkpt>
      <trkpt lat="47.58572" lon="-2.77712">
        <ele>54</ele>
        <time>2018-04-14T08:51:25Z</time>
      </trkpt>
      <trkpt lat="47.58569" lon="-2.77723">
        <ele>53</ele>
        <time>2018-04-14T08:51:29Z</time>
      </trkpt>
      <trkpt lat="47.58566" lon="-2.77733">
        <ele>50</ele>
        <time>2018-04-14T08:51:33Z</time>
      </trkpt>
      <trkpt lat="47.58564" lon="-2.7774">
        <ele>49</ele>
        <time>2018-04-14T08:51:36Z</time>
      </trkpt>
      <trkpt lat="47.58561" lon="-2.7775">
        <ele>49</ele>
        <time>2018-04-14T08:51:41Z</time>
      </trkpt>
      <trkpt lat="47.5856" lon="-2.77756">
        <ele>49</ele>
        <time>2018-04-14T08:51:45Z</time>
      </trkpt>
      <trkpt lat="47.58557" lon="-2.77767">
        <ele>52</ele>
        <time>2018-04-14T08:51:49Z</time>
      </trkpt>
      <trkpt lat="47.58555" lon="-2.77777">
        <ele>53</ele>
        <time>2018-04-14T08:51:53Z</time>
      </trkpt>
      <trkpt lat="47.58553" lon="-2.77781">
        <ele>54</ele>
        <time>2018-04-14T08:51:55Z</time>
      </trkpt>
      <trkpt lat="47.5855" lon="-2.7779">
        <ele>54</ele>
        <time>2018-04-14T08:52:00Z</time>
      </trkpt>
      <trkpt lat="47.58548" lon="-2.77797">
        <ele>55</ele>
        <time>2018-04-14T08:52:04Z</time>
      </trkpt>
      <trkpt lat="47.58544" lon="-2.77807">
        <ele>56</ele>
        <time>2018-04-14T08:52:08Z</time>
      </trkpt>
      <trkpt lat="47.58542" lon="-2.77812">
        <ele>55</ele>
        <time>2018-04-14T08:52:10Z</time>
      </trkpt>
      <trkpt lat="47.58538" lon="-2.77821">
        <ele>55</ele>
        <time>2018-04-14T08:52:14Z</time>
      </trkpt>
      <trkpt lat="47.58534" lon="-2.77831">
        <ele>55</ele>
        <time>2018-04-14T08:52:18Z</time>
      </trkpt>
      <trkpt lat="47.58533" lon="-2.7784">
        <ele>57</ele>
        <time>2018-04-14T08:52:21Z</time>
      </trkpt>
      <trkpt lat="47.58531" lon="-2.77846">
        <ele>56</ele>
        <time>2018-04-14T08:52:23Z</time>
      </trkpt>
      <trkpt lat="47.58528" lon="-2.77854">
        <ele>55</ele>
        <time>2018-04-14T08:52:26Z</time>
      </trkpt>
      <trkpt lat="47.58524" lon="-2.77863">
        <ele>57</ele>
        <time>2018-04-14T08:52:30Z</time>
      </trkpt>
      <trkpt lat="47.58522" lon="-2.77872">
        <ele>56</ele>
        <time>2018-04-14T08:52:34Z</time>
      </trkpt>
      <trkpt lat="47.58519" lon="-2.77877">
        <ele>58</ele>
        <time>2018-04-14T08:52:36Z</time>
      </trkpt>
      <trkpt lat="47.58517" lon="-2.77885">
        <ele>59</ele>
        <time>2018-04-14T08:52:40Z</time>
      </trkpt>
      <trkpt lat="47.58515" lon="-2.7789">
        <ele>59</ele>
        <time>2018-04-14T08:52:42Z</time>
      </trkpt>
      <trkpt lat="47.58514" lon="-2.77899">
        <ele>56</ele>
        <time>2018-04-14T08:52:46Z</time>
      </trkpt>
      <trkpt lat="47.58511" lon="-2.77904">
        <ele>55</ele>
        <time>2018-04-14T08:52:48Z</time>
      </trkpt>
      <trkpt lat="47.58509" lon="-2.7791">
        <ele>55</ele>
        <time>2018-04-14T08:52:51Z</time>
      </trkpt>
      <trkpt lat="47.58507" lon="-2.77917">
        <ele>53</ele>
        <time>2018-04-14T08:52:54Z</time>
      </trkpt>
      <trkpt lat="47.58503" lon="-2.77923">
        <ele>53</ele>
        <time>2018-04-14T08:52:58Z</time>
      </trkpt>
      <trkpt lat="47.58501" lon="-2.7793">
        <ele>53</ele>
        <time>2018-04-14T08:53:00Z</time>
      </trkpt>
      <trkpt lat="47.585" lon="-2.77934">
        <ele>54</ele>
        <time>2018-04-14T08:53:01Z</time>
      </trkpt>
      <trkpt lat="47.58499" lon="-2.77939">
        <ele>55</ele>
        <time>2018-04-14T08:53:03Z</time>
      </trkpt>
      <trkpt lat="47.58496" lon="-2.77944">
        <ele>55</ele>
        <time>2018-04-14T08:53:05Z</time>
      </trkpt>
      <trkpt lat="47.58494" lon="-2.7795">
        <ele>55</ele>
        <time>2018-04-14T08:53:07Z</time>
      </trkpt>
      <trkpt lat="47.58492" lon="-2.77957">
        <ele>55</ele>
        <time>2018-04-14T08:53:10Z</time>
      </trkpt>
      <trkpt lat="47.58491" lon="-2.77962">
        <ele>53</ele>
        <time>2018-04-14T08:53:12Z</time>
      </trkpt>
      <trkpt lat="47.5849" lon="-2.7797">
        <ele>54</ele>
        <time>2018-04-14T08:53:16Z</time>
      </trkpt>
      <trkpt lat="47.58488" lon="-2.77978">
        <ele>54</ele>
        <time>2018-04-14T08:53:19Z</time>
      </trkpt>
      <trkpt lat="47.58487" lon="-2.77985">
        <ele>55</ele>
        <time>2018-04-14T08:53:22Z</time>
      </trkpt>
      <trkpt lat="47.58485" lon="-2.77993">
        <ele>54</ele>
        <time>2018-04-14T08:53:26Z</time>
      </trkpt>
      <trkpt lat="47.58483" lon="-2.78001">
        <ele>56</ele>
        <time>2018-04-14T08:53:30Z</time>
      </trkpt>
      <trkpt lat="47.58481" lon="-2.78009">
        <ele>55</ele>
        <time>2018-04-14T08:53:35Z</time>
      </trkpt>
      <trkpt lat="47.5848" lon="-2.78013">
        <ele>55</ele>
        <time>2018-04-14T08:53:37Z</time>
      </trkpt>
      <trkpt lat="47.58478" lon="-2.78017">
        <ele>54</ele>
        <time>2018-04-14T08:53:39Z</time>
      </trkpt>
      <trkpt lat="47.58476" lon="-2.78023">
        <ele>54</ele>
        <time>2018-04-14T08:53:41Z</time>
      </trkpt>
      <trkpt lat="47.58475" lon="-2.78031">
        <ele>54</ele>
        <time>2018-04-14T08:53:45Z</time>
      </trkpt>
      <trkpt lat="47.58472" lon="-2.78039">
        <ele>54</ele>
        <time>2018-04-14T08:53:47Z</time>
      </trkpt>
      <trkpt lat="47.5847" lon="-2.78043">
        <ele>54</ele>
        <time>2018-04-14T08:53:49Z</time>
      </trkpt>
      <trkpt lat="47.58467" lon="-2.78056">
        <ele>54</ele>
        <time>2018-04-14T08:53:53Z</time>
      </trkpt>
      <trkpt lat="47.58468" lon="-2.78067">
        <ele>53</ele>
        <time>2018-04-14T08:53:58Z</time>
      </trkpt>
      <trkpt lat="47.58465" lon="-2.78076">
        <ele>53</ele>
        <time>2018-04-14T08:54:00Z</time>
      </trkpt>
      <trkpt lat="47.58464" lon="-2.78079">
        <ele>53</ele>
        <time>2018-04-14T08:54:02Z</time>
      </trkpt>
      <trkpt lat="47.58463" lon="-2.78087">
        <ele>51</ele>
        <time>2018-04-14T08:54:05Z</time>
      </trkpt>
      <trkpt lat="47.58462" lon="-2.78095">
        <ele>53</ele>
        <time>2018-04-14T08:54:08Z</time>
      </trkpt>
      <trkpt lat="47.58462" lon="-2.78102">
        <ele>52</ele>
        <time>2018-04-14T08:54:15Z</time>
      </trkpt>
      <trkpt lat="47.58461" lon="-2.78109">
        <ele>52</ele>
        <time>2018-04-14T08:54:18Z</time>
      </trkpt>
      <trkpt lat="47.58458" lon="-2.78116">
        <ele>51</ele>
        <time>2018-04-14T08:54:24Z</time>
      </trkpt>
      <trkpt lat="47.58457" lon="-2.78125">
        <ele>52</ele>
        <time>2018-04-14T08:54:29Z</time>
      </trkpt>
      <trkpt lat="47.58455" lon="-2.78132">
        <ele>50</ele>
        <time>2018-04-14T08:54:33Z</time>
      </trkpt>
      <trkpt lat="47.58453" lon="-2.78138">
        <ele>51</ele>
        <time>2018-04-14T08:54:36Z</time>
      </trkpt>
      <trkpt lat="47.58449" lon="-2.78148">
        <ele>51</ele>
        <time>2018-04-14T08:54:40Z</time>
      </trkpt>
      <trkpt lat="47.58448" lon="-2.78156">
        <ele>52</ele>
        <time>2018-04-14T08:54:43Z</time>
      </trkpt>
      <trkpt lat="47.58447" lon="-2.78163">
        <ele>52</ele>
        <time>2018-04-14T08:54:46Z</time>
      </trkpt>
      <trkpt lat="47.58446" lon="-2.78169">
        <ele>53</ele>
        <time>2018-04-14T08:54:48Z</time>
      </trkpt>
      <trkpt lat="47.58443" lon="-2.78175">
        <ele>53</ele>
        <time>2018-04-14T08:54:50Z</time>
      </trkpt>
      <trkpt lat="47.58441" lon="-2.78182">
        <ele>53</ele>
        <time>2018-04-14T08:54:56Z</time>
      </trkpt>
      <trkpt lat="47.58439" lon="-2.78187">
        <ele>53</ele>
        <time>2018-04-14T08:54:58Z</time>
      </trkpt>
      <trkpt lat="47.58438" lon="-2.78194">
        <ele>51</ele>
        <time>2018-04-14T08:55:01Z</time>
      </trkpt>
      <trkpt lat="47.58437" lon="-2.78197">
        <ele>51</ele>
        <time>2018-04-14T08:55:02Z</time>
      </trkpt>
      <trkpt lat="47.58436" lon="-2.78203">
        <ele>50</ele>
        <time>2018-04-14T08:55:04Z</time>
      </trkpt>
      <trkpt lat="47.58434" lon="-2.7821">
        <ele>51</ele>
        <time>2018-04-14T08:55:06Z</time>
      </trkpt>
      <trkpt lat="47.58433" lon="-2.78214">
        <ele>50</ele>
        <time>2018-04-14T08:55:07Z</time>
      </trkpt>
      <trkpt lat="47.58431" lon="-2.7822">
        <ele>52</ele>
        <time>2018-04-14T08:55:09Z</time>
      </trkpt>
      <trkpt lat="47.58429" lon="-2.78226">
        <ele>52</ele>
        <time>2018-04-14T08:55:11Z</time>
      </trkpt>
      <trkpt lat="47.58428" lon="-2.78231">
        <ele>53</ele>
        <time>2018-04-14T08:55:13Z</time>
      </trkpt>
      <trkpt lat="47.58426" lon="-2.78236">
        <ele>53</ele>
        <time>2018-04-14T08:55:16Z</time>
      </trkpt>
      <trkpt lat="47.58424" lon="-2.78245">
        <ele>53</ele>
        <time>2018-04-14T08:55:19Z</time>
      </trkpt>
      <trkpt lat="47.58423" lon="-2.78249">
        <ele>53</ele>
        <time>2018-04-14T08:55:20Z</time>
      </trkpt>
      <trkpt lat="47.58422" lon="-2.78252">
        <ele>54</ele>
        <time>2018-04-14T08:55:21Z</time>
      </trkpt>
      <trkpt lat="47.58419" lon="-2.7826">
        <ele>54</ele>
        <time>2018-04-14T08:55:24Z</time>
      </trkpt>
      <trkpt lat="47.58418" lon="-2.78266">
        <ele>52</ele>
        <time>2018-04-14T08:55:28Z</time>
      </trkpt>
      <trkpt lat="47.58415" lon="-2.78272">
        <ele>54</ele>
        <time>2018-04-14T08:55:30Z</time>
      </trkpt>
      <trkpt lat="47.58412" lon="-2.78281">
        <ele>55</ele>
        <time>2018-04-14T08:55:33Z</time>
      </trkpt>
      <trkpt lat="47.5841" lon="-2.78286">
        <ele>55</ele>
        <time>2018-04-14T08:55:35Z</time>
      </trkpt>
      <trkpt lat="47.5841" lon="-2.7829">
        <ele>53</ele>
        <time>2018-04-14T08:55:37Z</time>
      </trkpt>
      <trkpt lat="47.58407" lon="-2.78296">
        <ele>53</ele>
        <time>2018-04-14T08:55:39Z</time>
      </trkpt>
      <trkpt lat="47.58404" lon="-2.78303">
        <ele>53</ele>
        <time>2018-04-14T08:55:41Z</time>
      </trkpt>
      <trkpt lat="47.58403" lon="-2.78306">
        <ele>53</ele>
        <time>2018-04-14T08:55:43Z</time>
      </trkpt>
      <trkpt lat="47.58401" lon="-2.78315">
        <ele>53</ele>
        <time>2018-04-14T08:55:47Z</time>
      </trkpt>
      <trkpt lat="47.58398" lon="-2.78324">
        <ele>53</ele>
        <time>2018-04-14T08:55:50Z</time>
      </trkpt>
      <trkpt lat="47.58396" lon="-2.78331">
        <ele>55</ele>
        <time>2018-04-14T08:55:52Z</time>
      </trkpt>
      <trkpt lat="47.58394" lon="-2.78336">
        <ele>55</ele>
        <time>2018-04-14T08:55:54Z</time>
      </trkpt>
      <trkpt lat="47.58393" lon="-2.78344">
        <ele>55</ele>
        <time>2018-04-14T08:55:57Z</time>
      </trkpt>
      <trkpt lat="47.58391" lon="-2.78353">
        <ele>55</ele>
        <time>2018-04-14T08:56:01Z</time>
      </trkpt>
      <trkpt lat="47.58391" lon="-2.7836">
        <ele>55</ele>
        <time>2018-04-14T08:56:04Z</time>
      </trkpt>
      <trkpt lat="47.5839" lon="-2.78369">
        <ele>54</ele>
        <time>2018-04-14T08:56:07Z</time>
      </trkpt>
      <trkpt lat="47.5839" lon="-2.78375">
        <ele>54</ele>
        <time>2018-04-14T08:56:09Z</time>
      </trkpt>
      <trkpt lat="47.58387" lon="-2.78382">
        <ele>54</ele>
        <time>2018-04-14T08:56:12Z</time>
      </trkpt>
      <trkpt lat="47.58385" lon="-2.78387">
        <ele>54</ele>
        <time>2018-04-14T08:56:14Z</time>
      </trkpt>
      <trkpt lat="47.58384" lon="-2.7839">
        <ele>53</ele>
        <time>2018-04-14T08:56:15Z</time>
      </trkpt>
      <trkpt lat="47.58383" lon="-2.78393">
        <ele>53</ele>
        <time>2018-04-14T08:56:16Z</time>
      </trkpt>
      <trkpt lat="47.58381" lon="-2.78401">
        <ele>54</ele>
        <time>2018-04-14T08:56:18Z</time>
      </trkpt>
      <trkpt lat="47.58379" lon="-2.78408">
        <ele>54</ele>
        <time>2018-04-14T08:56:20Z</time>
      </trkpt>
      <trkpt lat="47.58377" lon="-2.78416">
        <ele>53</ele>
        <time>2018-04-14T08:56:23Z</time>
      </trkpt>
      <trkpt lat="47.58377" lon="-2.78425">
        <ele>52</ele>
        <time>2018-04-14T08:56:26Z</time>
      </trkpt>
      <trkpt lat="47.58375" lon="-2.78434">
        <ele>53</ele>
        <time>2018-04-14T08:56:29Z</time>
      </trkpt>
      <trkpt lat="47.58375" lon="-2.78438">
        <ele>51</ele>
        <time>2018-04-14T08:56:31Z</time>
      </trkpt>
      <trkpt lat="47.58373" lon="-2.78444">
        <ele>52</ele>
        <time>2018-04-14T08:56:33Z</time>
      </trkpt>
      <trkpt lat="47.58371" lon="-2.78453">
        <ele>52</ele>
        <time>2018-04-14T08:56:36Z</time>
      </trkpt>
      <trkpt lat="47.58369" lon="-2.78462">
        <ele>52</ele>
        <time>2018-04-14T08:56:39Z</time>
      </trkpt>
      <trkpt lat="47.58368" lon="-2.78467">
        <ele>53</ele>
        <time>2018-04-14T08:56:41Z</time>
      </trkpt>
      <trkpt lat="47.58366" lon="-2.78473">
        <ele>50</ele>
        <time>2018-04-14T08:56:44Z</time>
      </trkpt>
      <trkpt lat="47.58364" lon="-2.78482">
        <ele>51</ele>
        <time>2018-04-14T08:56:47Z</time>
      </trkpt>
      <trkpt lat="47.58363" lon="-2.78486">
        <ele>50</ele>
        <time>2018-04-14T08:56:48Z</time>
      </trkpt>
      <trkpt lat="47.58362" lon="-2.7849">
        <ele>51</ele>
        <time>2018-04-14T08:56:49Z</time>
      </trkpt>
      <trkpt lat="47.5836" lon="-2.78497">
        <ele>52</ele>
        <time>2018-04-14T08:56:51Z</time>
      </trkpt>
      <trkpt lat="47.58359" lon="-2.78505">
        <ele>51</ele>
        <time>2018-04-14T08:56:54Z</time>
      </trkpt>
      <trkpt lat="47.58357" lon="-2.78516">
        <ele>50</ele>
        <time>2018-04-14T08:56:58Z</time>
      </trkpt>
      <trkpt lat="47.58356" lon="-2.78522">
        <ele>50</ele>
        <time>2018-04-14T08:57:00Z</time>
      </trkpt>
      <trkpt lat="47.58355" lon="-2.78525">
        <ele>50</ele>
        <time>2018-04-14T08:57:01Z</time>
      </trkpt>
      <trkpt lat="47.58354" lon="-2.78531">
        <ele>50</ele>
        <time>2018-04-14T08:57:03Z</time>
      </trkpt>
      <trkpt lat="47.58352" lon="-2.78536">
        <ele>50</ele>
        <time>2018-04-14T08:57:05Z</time>
      </trkpt>
      <trkpt lat="47.58351" lon="-2.7854">
        <ele>50</ele>
        <time>2018-04-14T08:57:06Z</time>
      </trkpt>
      <trkpt lat="47.5835" lon="-2.78543">
        <ele>51</ele>
        <time>2018-04-14T08:57:07Z</time>
      </trkpt>
      <trkpt lat="47.58348" lon="-2.78552">
        <ele>52</ele>
        <time>2018-04-14T08:57:10Z</time>
      </trkpt>
      <trkpt lat="47.58346" lon="-2.7856">
        <ele>52</ele>
        <time>2018-04-14T08:57:13Z</time>
      </trkpt>
      <trkpt lat="47.58344" lon="-2.78565">
        <ele>53</ele>
        <time>2018-04-14T08:57:15Z</time>
      </trkpt>
      <trkpt lat="47.58342" lon="-2.78571">
        <ele>54</ele>
        <time>2018-04-14T08:57:17Z</time>
      </trkpt>
      <trkpt lat="47.58342" lon="-2.7858">
        <ele>54</ele>
        <time>2018-04-14T08:57:20Z</time>
      </trkpt>
      <trkpt lat="47.58343" lon="-2.78587">
        <ele>53</ele>
        <time>2018-04-14T08:57:23Z</time>
      </trkpt>
      <trkpt lat="47.58342" lon="-2.78596">
        <ele>51</ele>
        <time>2018-04-14T08:57:27Z</time>
      </trkpt>
      <trkpt lat="47.5834" lon="-2.78601">
        <ele>53</ele>
        <time>2018-04-14T08:57:29Z</time>
      </trkpt>
      <trkpt lat="47.58336" lon="-2.78609">
        <ele>54</ele>
        <time>2018-04-14T08:57:31Z</time>
      </trkpt>
      <trkpt lat="47.58334" lon="-2.78618">
        <ele>54</ele>
        <time>2018-04-14T08:57:34Z</time>
      </trkpt>
      <trkpt lat="47.58333" lon="-2.78625">
        <ele>53</ele>
        <time>2018-04-14T08:57:36Z</time>
      </trkpt>
      <trkpt lat="47.58332" lon="-2.78634">
        <ele>53</ele>
        <time>2018-04-14T08:57:39Z</time>
      </trkpt>
      <trkpt lat="47.58331" lon="-2.78638">
        <ele>54</ele>
        <time>2018-04-14T08:57:40Z</time>
      </trkpt>
      <trkpt lat="47.58331" lon="-2.78642">
        <ele>54</ele>
        <time>2018-04-14T08:57:41Z</time>
      </trkpt>
      <trkpt lat="47.58328" lon="-2.7865">
        <ele>54</ele>
        <time>2018-04-14T08:57:44Z</time>
      </trkpt>
      <trkpt lat="47.58327" lon="-2.78653">
        <ele>54</ele>
        <time>2018-04-14T08:57:45Z</time>
      </trkpt>
      <trkpt lat="47.58327" lon="-2.7866">
        <ele>53</ele>
        <time>2018-04-14T08:57:47Z</time>
      </trkpt>
      <trkpt lat="47.58325" lon="-2.78668">
        <ele>52</ele>
        <time>2018-04-14T08:57:50Z</time>
      </trkpt>
      <trkpt lat="47.58324" lon="-2.78673">
        <ele>52</ele>
        <time>2018-04-14T08:57:52Z</time>
      </trkpt>
      <trkpt lat="47.58323" lon="-2.78681">
        <ele>52</ele>
        <time>2018-04-14T08:57:55Z</time>
      </trkpt>
      <trkpt lat="47.58322" lon="-2.7869">
        <ele>52</ele>
        <time>2018-04-14T08:57:58Z</time>
      </trkpt>
      <trkpt lat="47.58322" lon="-2.78699">
        <ele>52</ele>
        <time>2018-04-14T08:58:01Z</time>
      </trkpt>
      <trkpt lat="47.5832" lon="-2.78711">
        <ele>51</ele>
        <time>2018-04-14T08:58:05Z</time>
      </trkpt>
      <trkpt lat="47.58317" lon="-2.78717">
        <ele>53</ele>
        <time>2018-04-14T08:58:07Z</time>
      </trkpt>
      <trkpt lat="47.58314" lon="-2.78728">
        <ele>54</ele>
        <time>2018-04-14T08:58:10Z</time>
      </trkpt>
      <trkpt lat="47.58312" lon="-2.78731">
        <ele>54</ele>
        <time>2018-04-14T08:58:11Z</time>
      </trkpt>
      <trkpt lat="47.5831" lon="-2.78737">
        <ele>55</ele>
        <time>2018-04-14T08:58:13Z</time>
      </trkpt>
      <trkpt lat="47.58309" lon="-2.78746">
        <ele>55</ele>
        <time>2018-04-14T08:58:16Z</time>
      </trkpt>
      <trkpt lat="47.58307" lon="-2.78754">
        <ele>55</ele>
        <time>2018-04-14T08:58:18Z</time>
      </trkpt>
      <trkpt lat="47.58307" lon="-2.78762">
        <ele>53</ele>
        <time>2018-04-14T08:58:22Z</time>
      </trkpt>
      <trkpt lat="47.58306" lon="-2.7877">
        <ele>52</ele>
        <time>2018-04-14T08:58:24Z</time>
      </trkpt>
      <trkpt lat="47.58305" lon="-2.78773">
        <ele>53</ele>
        <time>2018-04-14T08:58:25Z</time>
      </trkpt>
      <trkpt lat="47.58305" lon="-2.78777">
        <ele>53</ele>
        <time>2018-04-14T08:58:26Z</time>
      </trkpt>
      <trkpt lat="47.58305" lon="-2.78785">
        <ele>53</ele>
        <time>2018-04-14T08:58:28Z</time>
      </trkpt>
      <trkpt lat="47.58303" lon="-2.78794">
        <ele>51</ele>
        <time>2018-04-14T08:58:31Z</time>
      </trkpt>
      <trkpt lat="47.58303" lon="-2.78804">
        <ele>51</ele>
        <time>2018-04-14T08:58:34Z</time>
      </trkpt>
      <trkpt lat="47.58301" lon="-2.7881">
        <ele>50</ele>
        <time>2018-04-14T08:58:36Z</time>
      </trkpt>
      <trkpt lat="47.58298" lon="-2.78819">
        <ele>51</ele>
        <time>2018-04-14T08:58:39Z</time>
      </trkpt>
      <trkpt lat="47.58297" lon="-2.78822">
        <ele>50</ele>
        <time>2018-04-14T08:58:40Z</time>
      </trkpt>
      <trkpt lat="47.58296" lon="-2.78832">
        <ele>50</ele>
        <time>2018-04-14T08:58:43Z</time>
      </trkpt>
      <trkpt lat="47.58294" lon="-2.78841">
        <ele>49</ele>
        <time>2018-04-14T08:58:46Z</time>
      </trkpt>
      <trkpt lat="47.58294" lon="-2.78844">
        <ele>50</ele>
        <time>2018-04-14T08:58:47Z</time>
      </trkpt>
      <trkpt lat="47.58292" lon="-2.78851">
        <ele>51</ele>
        <time>2018-04-14T08:58:49Z</time>
      </trkpt>
      <trkpt lat="47.5829" lon="-2.78856">
        <ele>51</ele>
        <time>2018-04-14T08:58:50Z</time>
      </trkpt>
      <trkpt lat="47.5829" lon="-2.78859">
        <ele>51</ele>
        <time>2018-04-14T08:58:51Z</time>
      </trkpt>
      <trkpt lat="47.58288" lon="-2.78869">
        <ele>51</ele>
        <time>2018-04-14T08:58:54Z</time>
      </trkpt>
      <trkpt lat="47.58287" lon="-2.78873">
        <ele>51</ele>
        <time>2018-04-14T08:58:55Z</time>
      </trkpt>
      <trkpt lat="47.58287" lon="-2.78877">
        <ele>51</ele>
        <time>2018-04-14T08:58:57Z</time>
      </trkpt>
      <trkpt lat="47.58286" lon="-2.78884">
        <ele>52</ele>
        <time>2018-04-14T08:58:59Z</time>
      </trkpt>
      <trkpt lat="47.58286" lon="-2.78887">
        <ele>52</ele>
        <time>2018-04-14T08:59:00Z</time>
      </trkpt>
      <trkpt lat="47.58284" lon="-2.78894">
        <ele>54</ele>
        <time>2018-04-14T08:59:02Z</time>
      </trkpt>
      <trkpt lat="47.58282" lon="-2.78901">
        <ele>54</ele>
        <time>2018-04-14T08:59:04Z</time>
      </trkpt>
      <trkpt lat="47.58281" lon="-2.7891">
        <ele>53</ele>
        <time>2018-04-14T08:59:07Z</time>
      </trkpt>
      <trkpt lat="47.5828" lon="-2.78916">
        <ele>53</ele>
        <time>2018-04-14T08:59:09Z</time>
      </trkpt>
      <trkpt lat="47.58278" lon="-2.78925">
        <ele>52</ele>
        <time>2018-04-14T08:59:12Z</time>
      </trkpt>
      <trkpt lat="47.58277" lon="-2.78933">
        <ele>53</ele>
        <time>2018-04-14T08:59:15Z</time>
      </trkpt>
      <trkpt lat="47.58275" lon="-2.78943">
        <ele>54</ele>
        <time>2018-04-14T08:59:18Z</time>
      </trkpt>
      <trkpt lat="47.58274" lon="-2.78949">
        <ele>53</ele>
        <time>2018-04-14T08:59:20Z</time>
      </trkpt>
      <trkpt lat="47.58274" lon="-2.78956">
        <ele>54</ele>
        <time>2018-04-14T08:59:22Z</time>
      </trkpt>
      <trkpt lat="47.58273" lon="-2.78965">
        <ele>54</ele>
        <time>2018-04-14T08:59:25Z</time>
      </trkpt>
      <trkpt lat="47.58271" lon="-2.78973">
        <ele>54</ele>
        <time>2018-04-14T08:59:27Z</time>
      </trkpt>
      <trkpt lat="47.5827" lon="-2.78977">
        <ele>54</ele>
        <time>2018-04-14T08:59:28Z</time>
      </trkpt>
      <trkpt lat="47.58269" lon="-2.78981">
        <ele>55</ele>
        <time>2018-04-14T08:59:29Z</time>
      </trkpt>
      <trkpt lat="47.58269" lon="-2.7899">
        <ele>55</ele>
        <time>2018-04-14T08:59:32Z</time>
      </trkpt>
      <trkpt lat="47.58267" lon="-2.78999">
        <ele>55</ele>
        <time>2018-04-14T08:59:34Z</time>
      </trkpt>
      <trkpt lat="47.58266" lon="-2.79007">
        <ele>55</ele>
        <time>2018-04-14T08:59:36Z</time>
      </trkpt>
      <trkpt lat="47.58264" lon="-2.79013">
        <ele>53</ele>
        <time>2018-04-14T08:59:38Z</time>
      </trkpt>
      <trkpt lat="47.58263" lon="-2.79023">
        <ele>55</ele>
        <time>2018-04-14T08:59:41Z</time>
      </trkpt>
      <trkpt lat="47.58262" lon="-2.79029">
        <ele>54</ele>
        <time>2018-04-14T08:59:44Z</time>
      </trkpt>
      <trkpt lat="47.58261" lon="-2.79043">
        <ele>54</ele>
        <time>2018-04-14T08:59:48Z</time>
      </trkpt>
      <trkpt lat="47.5826" lon="-2.79049">
        <ele>54</ele>
        <time>2018-04-14T08:59:50Z</time>
      </trkpt>
      <trkpt lat="47.58259" lon="-2.79063">
        <ele>53</ele>
        <time>2018-04-14T08:59:54Z</time>
      </trkpt>
      <trkpt lat="47.58258" lon="-2.79069">
        <ele>54</ele>
        <time>2018-04-14T08:59:57Z</time>
      </trkpt>
      <trkpt lat="47.58258" lon="-2.79073">
        <ele>54</ele>
        <time>2018-04-14T08:59:58Z</time>
      </trkpt>
      <trkpt lat="47.58257" lon="-2.79079">
        <ele>54</ele>
        <time>2018-04-14T09:00:00Z</time>
      </trkpt>
      <trkpt lat="47.58256" lon="-2.79088">
        <ele>52</ele>
        <time>2018-04-14T09:00:03Z</time>
      </trkpt>
      <trkpt lat="47.58254" lon="-2.79097">
        <ele>52</ele>
        <time>2018-04-14T09:00:06Z</time>
      </trkpt>
      <trkpt lat="47.58254" lon="-2.79103">
        <ele>52</ele>
        <time>2018-04-14T09:00:08Z</time>
      </trkpt>
      <trkpt lat="47.58252" lon="-2.79111">
        <ele>52</ele>
        <time>2018-04-14T09:00:10Z</time>
      </trkpt>
      <trkpt lat="47.58251" lon="-2.79118">
        <ele>52</ele>
        <time>2018-04-14T09:00:12Z</time>
      </trkpt>
      <trkpt lat="47.58248" lon="-2.79128">
        <ele>53</ele>
        <time>2018-04-14T09:00:15Z</time>
      </trkpt>
      <trkpt lat="47.58248" lon="-2.79136">
        <ele>52</ele>
        <time>2018-04-14T09:00:17Z</time>
      </trkpt>
      <trkpt lat="47.58246" lon="-2.79144">
        <ele>53</ele>
        <time>2018-04-14T09:00:19Z</time>
      </trkpt>
      <trkpt lat="47.58245" lon="-2.79148">
        <ele>53</ele>
        <time>2018-04-14T09:00:20Z</time>
      </trkpt>
      <trkpt lat="47.58245" lon="-2.79155">
        <ele>52</ele>
        <time>2018-04-14T09:00:23Z</time>
      </trkpt>
      <trkpt lat="47.58245" lon="-2.79162">
        <ele>52</ele>
        <time>2018-04-14T09:00:25Z</time>
      </trkpt>
      <trkpt lat="47.58244" lon="-2.79168">
        <ele>51</ele>
        <time>2018-04-14T09:00:27Z</time>
      </trkpt>
      <trkpt lat="47.58244" lon="-2.79172">
        <ele>52</ele>
        <time>2018-04-14T09:00:28Z</time>
      </trkpt>
      <trkpt lat="47.58242" lon="-2.79179">
        <ele>52</ele>
        <time>2018-04-14T09:00:30Z</time>
      </trkpt>
      <trkpt lat="47.58242" lon="-2.79182">
        <ele>53</ele>
        <time>2018-04-14T09:00:31Z</time>
      </trkpt>
      <trkpt lat="47.58241" lon="-2.79186">
        <ele>53</ele>
        <time>2018-04-14T09:00:32Z</time>
      </trkpt>
      <trkpt lat="47.5824" lon="-2.79192">
        <ele>52</ele>
        <time>2018-04-14T09:00:34Z</time>
      </trkpt>
      <trkpt lat="47.58238" lon="-2.792">
        <ele>52</ele>
        <time>2018-04-14T09:00:36Z</time>
      </trkpt>
      <trkpt lat="47.58237" lon="-2.79208">
        <ele>52</ele>
        <time>2018-04-14T09:00:38Z</time>
      </trkpt>
      <trkpt lat="47.58237" lon="-2.79215">
        <ele>52</ele>
        <time>2018-04-14T09:00:40Z</time>
      </trkpt>
      <trkpt lat="47.58234" lon="-2.79224">
        <ele>51</ele>
        <time>2018-04-14T09:00:43Z</time>
      </trkpt>
      <trkpt lat="47.58233" lon="-2.79228">
        <ele>51</ele>
        <time>2018-04-14T09:00:44Z</time>
      </trkpt>
      <trkpt lat="47.58232" lon="-2.79234">
        <ele>51</ele>
        <time>2018-04-14T09:00:46Z</time>
      </trkpt>
      <trkpt lat="47.58232" lon="-2.79238">
        <ele>52</ele>
        <time>2018-04-14T09:00:47Z</time>
      </trkpt>
      <trkpt lat="47.5823" lon="-2.79245">
        <ele>51</ele>
        <time>2018-04-14T09:00:49Z</time>
      </trkpt>
      <trkpt lat="47.58228" lon="-2.79253">
        <ele>51</ele>
        <time>2018-04-14T09:00:51Z</time>
      </trkpt>
      <trkpt lat="47.58227" lon="-2.79261">
        <ele>51</ele>
        <time>2018-04-14T09:00:53Z</time>
      </trkpt>
      <trkpt lat="47.58225" lon="-2.79269">
        <ele>51</ele>
        <time>2018-04-14T09:00:56Z</time>
      </trkpt>
      <trkpt lat="47.58225" lon="-2.79278">
        <ele>52</ele>
        <time>2018-04-14T09:00:59Z</time>
      </trkpt>
      <trkpt lat="47.58222" lon="-2.79285">
        <ele>52</ele>
        <time>2018-04-14T09:01:01Z</time>
      </trkpt>
      <trkpt lat="47.58221" lon="-2.79293">
        <ele>53</ele>
        <time>2018-04-14T09:01:04Z</time>
      </trkpt>
      <trkpt lat="47.5822" lon="-2.79301">
        <ele>52</ele>
        <time>2018-04-14T09:01:07Z</time>
      </trkpt>
      <trkpt lat="47.58219" lon="-2.79306">
        <ele>51</ele>
        <time>2018-04-14T09:01:09Z</time>
      </trkpt>
      <trkpt lat="47.58218" lon="-2.79311">
        <ele>50</ele>
        <time>2018-04-14T09:01:11Z</time>
      </trkpt>
      <trkpt lat="47.58217" lon="-2.79318">
        <ele>50</ele>
        <time>2018-04-14T09:01:13Z</time>
      </trkpt>
      <trkpt lat="47.58215" lon="-2.79324">
        <ele>50</ele>
        <time>2018-04-14T09:01:15Z</time>
      </trkpt>
      <trkpt lat="47.58214" lon="-2.79331">
        <ele>50</ele>
        <time>2018-04-14T09:01:17Z</time>
      </trkpt>
      <trkpt lat="47.58214" lon="-2.79339">
        <ele>46</ele>
        <time>2018-04-14T09:01:20Z</time>
      </trkpt>
      <trkpt lat="47.58212" lon="-2.79346">
        <ele>46</ele>
        <time>2018-04-14T09:01:22Z</time>
      </trkpt>
      <trkpt lat="47.58212" lon="-2.79353">
        <ele>46</ele>
        <time>2018-04-14T09:01:24Z</time>
      </trkpt>
      <trkpt lat="47.58208" lon="-2.79361">
        <ele>47</ele>
        <time>2018-04-14T09:01:27Z</time>
      </trkpt>
      <trkpt lat="47.58204" lon="-2.79369">
        <ele>49</ele>
        <time>2018-04-14T09:01:30Z</time>
      </trkpt>
      <trkpt lat="47.58203" lon="-2.79379">
        <ele>49</ele>
        <time>2018-04-14T09:01:33Z</time>
      </trkpt>
      <trkpt lat="47.58202" lon="-2.79384">
        <ele>50</ele>
        <time>2018-04-14T09:01:35Z</time>
      </trkpt>
      <trkpt lat="47.58202" lon="-2.79387">
        <ele>50</ele>
        <time>2018-04-14T09:01:37Z</time>
      </trkpt>
      <trkpt lat="47.58203" lon="-2.79395">
        <ele>50</ele>
        <time>2018-04-14T09:01:41Z</time>
      </trkpt>
      <trkpt lat="47.58204" lon="-2.79401">
        <ele>51</ele>
        <time>2018-04-14T09:01:44Z</time>
      </trkpt>
      <trkpt lat="47.58203" lon="-2.79407">
        <ele>51</ele>
        <time>2018-04-14T09:01:46Z</time>
      </trkpt>
      <trkpt lat="47.58204" lon="-2.79415">
        <ele>48</ele>
        <time>2018-04-14T09:01:50Z</time>
      </trkpt>
      <trkpt lat="47.58204" lon="-2.79424">
        <ele>48</ele>
        <time>2018-04-14T09:01:54Z</time>
      </trkpt>
      <trkpt lat="47.58202" lon="-2.79431">
        <ele>50</ele>
        <time>2018-04-14T09:01:58Z</time>
      </trkpt>
      <trkpt lat="47.58201" lon="-2.79439">
        <ele>51</ele>
        <time>2018-04-14T09:02:02Z</time>
      </trkpt>
      <trkpt lat="47.582" lon="-2.79446">
        <ele>49</ele>
        <time>2018-04-14T09:02:05Z</time>
      </trkpt>
      <trkpt lat="47.58197" lon="-2.79454">
        <ele>48</ele>
        <time>2018-04-14T09:02:09Z</time>
      </trkpt>
      <trkpt lat="47.58194" lon="-2.79459">
        <ele>48</ele>
        <time>2018-04-14T09:02:11Z</time>
      </trkpt>
      <trkpt lat="47.58192" lon="-2.79466">
        <ele>48</ele>
        <time>2018-04-14T09:02:14Z</time>
      </trkpt>
      <trkpt lat="47.58189" lon="-2.79474">
        <ele>48</ele>
        <time>2018-04-14T09:02:17Z</time>
      </trkpt>
      <trkpt lat="47.58187" lon="-2.79481">
        <ele>49</ele>
        <time>2018-04-14T09:02:19Z</time>
      </trkpt>
      <trkpt lat="47.58186" lon="-2.79484">
        <ele>49</ele>
        <time>2018-04-14T09:02:20Z</time>
      </trkpt>
      <trkpt lat="47.58184" lon="-2.79494">
        <ele>46</ele>
        <time>2018-04-14T09:02:23Z</time>
      </trkpt>
      <trkpt lat="47.58183" lon="-2.795">
        <ele>46</ele>
        <time>2018-04-14T09:02:25Z</time>
      </trkpt>
      <trkpt lat="47.58181" lon="-2.79509">
        <ele>47</ele>
        <time>2018-04-14T09:02:28Z</time>
      </trkpt>
      <trkpt lat="47.58176" lon="-2.79519">
        <ele>48</ele>
        <time>2018-04-14T09:02:31Z</time>
      </trkpt>
      <trkpt lat="47.58174" lon="-2.79528">
        <ele>45</ele>
        <time>2018-04-14T09:02:34Z</time>
      </trkpt>
      <trkpt lat="47.58172" lon="-2.79535">
        <ele>46</ele>
        <time>2018-04-14T09:02:36Z</time>
      </trkpt>
      <trkpt lat="47.58171" lon="-2.79538">
        <ele>46</ele>
        <time>2018-04-14T09:02:37Z</time>
      </trkpt>
      <trkpt lat="47.58165" lon="-2.79551">
        <ele>48</ele>
        <time>2018-04-14T09:02:40Z</time>
      </trkpt>
      <trkpt lat="47.58162" lon="-2.79558">
        <ele>50</ele>
        <time>2018-04-14T09:02:42Z</time>
      </trkpt>
      <trkpt lat="47.58159" lon="-2.79567">
        <ele>49</ele>
        <time>2018-04-14T09:02:45Z</time>
      </trkpt>
      <trkpt lat="47.58156" lon="-2.79576">
        <ele>49</ele>
        <time>2018-04-14T09:02:48Z</time>
      </trkpt>
      <trkpt lat="47.58153" lon="-2.79582">
        <ele>50</ele>
        <time>2018-04-14T09:02:51Z</time>
      </trkpt>
      <trkpt lat="47.58151" lon="-2.79586">
        <ele>50</ele>
        <time>2018-04-14T09:02:53Z</time>
      </trkpt>
      <trkpt lat="47.58149" lon="-2.7959">
        <ele>50</ele>
        <time>2018-04-14T09:02:55Z</time>
      </trkpt>
      <trkpt lat="47.58146" lon="-2.79595">
        <ele>50</ele>
        <time>2018-04-14T09:02:57Z</time>
      </trkpt>
      <trkpt lat="47.58144" lon="-2.796">
        <ele>50</ele>
        <time>2018-04-14T09:03:00Z</time>
      </trkpt>
      <trkpt lat="47.58141" lon="-2.79608">
        <ele>50</ele>
        <time>2018-04-14T09:03:03Z</time>
      </trkpt>
      <trkpt lat="47.58139" lon="-2.79614">
        <ele>49</ele>
        <time>2018-04-14T09:03:05Z</time>
      </trkpt>
      <trkpt lat="47.58134" lon="-2.79623">
        <ele>51</ele>
        <time>2018-04-14T09:03:08Z</time>
      </trkpt>
      <trkpt lat="47.58132" lon="-2.79627">
        <ele>52</ele>
        <time>2018-04-14T09:03:09Z</time>
      </trkpt>
      <trkpt lat="47.58129" lon="-2.79635">
        <ele>51</ele>
        <time>2018-04-14T09:03:12Z</time>
      </trkpt>
      <trkpt lat="47.58128" lon="-2.79638">
        <ele>51</ele>
        <time>2018-04-14T09:03:13Z</time>
      </trkpt>
      <trkpt lat="47.58125" lon="-2.79645">
        <ele>50</ele>
        <time>2018-04-14T09:03:15Z</time>
      </trkpt>
      <trkpt lat="47.58124" lon="-2.7965">
        <ele>49</ele>
        <time>2018-04-14T09:03:17Z</time>
      </trkpt>
      <trkpt lat="47.58122" lon="-2.79655">
        <ele>49</ele>
        <time>2018-04-14T09:03:19Z</time>
      </trkpt>
      <trkpt lat="47.58119" lon="-2.79664">
        <ele>48</ele>
        <time>2018-04-14T09:03:22Z</time>
      </trkpt>
      <trkpt lat="47.58115" lon="-2.79673">
        <ele>49</ele>
        <time>2018-04-14T09:03:25Z</time>
      </trkpt>
      <trkpt lat="47.58112" lon="-2.79681">
        <ele>50</ele>
        <time>2018-04-14T09:03:28Z</time>
      </trkpt>
      <trkpt lat="47.5811" lon="-2.79687">
        <ele>51</ele>
        <time>2018-04-14T09:03:30Z</time>
      </trkpt>
      <trkpt lat="47.58107" lon="-2.79692">
        <ele>51</ele>
        <time>2018-04-14T09:03:32Z</time>
      </trkpt>
      <trkpt lat="47.58104" lon="-2.79697">
        <ele>51</ele>
        <time>2018-04-14T09:03:34Z</time>
      </trkpt>
      <trkpt lat="47.58101" lon="-2.79704">
        <ele>51</ele>
        <time>2018-04-14T09:03:37Z</time>
      </trkpt>
      <trkpt lat="47.58098" lon="-2.7971">
        <ele>52</ele>
        <time>2018-04-14T09:03:39Z</time>
      </trkpt>
      <trkpt lat="47.58096" lon="-2.79713">
        <ele>54</ele>
        <time>2018-04-14T09:03:40Z</time>
      </trkpt>
      <trkpt lat="47.58094" lon="-2.79719">
        <ele>55</ele>
        <time>2018-04-14T09:03:42Z</time>
      </trkpt>
      <trkpt lat="47.58091" lon="-2.79727">
        <ele>54</ele>
        <time>2018-04-14T09:03:45Z</time>
      </trkpt>
      <trkpt lat="47.5809" lon="-2.7973">
        <ele>54</ele>
        <time>2018-04-14T09:03:46Z</time>
      </trkpt>
      <trkpt lat="47.58087" lon="-2.79736">
        <ele>53</ele>
        <time>2018-04-14T09:03:49Z</time>
      </trkpt>
      <trkpt lat="47.58085" lon="-2.79743">
        <ele>51</ele>
        <time>2018-04-14T09:03:52Z</time>
      </trkpt>
      <trkpt lat="47.58084" lon="-2.79748">
        <ele>50</ele>
        <time>2018-04-14T09:03:54Z</time>
      </trkpt>
      <trkpt lat="47.58083" lon="-2.79753">
        <ele>50</ele>
        <time>2018-04-14T09:03:56Z</time>
      </trkpt>
      <trkpt lat="47.58079" lon="-2.79761">
        <ele>52</ele>
        <time>2018-04-14T09:03:59Z</time>
      </trkpt>
      <trkpt lat="47.58076" lon="-2.79768">
        <ele>52</ele>
        <time>2018-04-14T09:04:02Z</time>
      </trkpt>
      <trkpt lat="47.58074" lon="-2.79772">
        <ele>51</ele>
        <time>2018-04-14T09:04:04Z</time>
      </trkpt>
      <trkpt lat="47.58072" lon="-2.79778">
        <ele>51</ele>
        <time>2018-04-14T09:04:06Z</time>
      </trkpt>
      <trkpt lat="47.58071" lon="-2.79785">
        <ele>51</ele>
        <time>2018-04-14T09:04:08Z</time>
      </trkpt>
      <trkpt lat="47.58068" lon="-2.79794">
        <ele>51</ele>
        <time>2018-04-14T09:04:11Z</time>
      </trkpt>
      <trkpt lat="47.58067" lon="-2.79798">
        <ele>48</ele>
        <time>2018-04-14T09:04:13Z</time>
      </trkpt>
      <trkpt lat="47.58065" lon="-2.79804">
        <ele>47</ele>
        <time>2018-04-14T09:04:16Z</time>
      </trkpt>
      <trkpt lat="47.58062" lon="-2.79812">
        <ele>46</ele>
        <time>2018-04-14T09:04:19Z</time>
      </trkpt>
      <trkpt lat="47.5806" lon="-2.79817">
        <ele>46</ele>
        <time>2018-04-14T09:04:21Z</time>
      </trkpt>
      <trkpt lat="47.58058" lon="-2.7982">
        <ele>47</ele>
        <time>2018-04-14T09:04:22Z</time>
      </trkpt>
      <trkpt lat="47.58057" lon="-2.79823">
        <ele>48</ele>
        <time>2018-04-14T09:04:23Z</time>
      </trkpt>
      <trkpt lat="47.58054" lon="-2.79831">
        <ele>47</ele>
        <time>2018-04-14T09:04:26Z</time>
      </trkpt>
      <trkpt lat="47.58049" lon="-2.79839">
        <ele>49</ele>
        <time>2018-04-14T09:04:29Z</time>
      </trkpt>
      <trkpt lat="47.58048" lon="-2.79847">
        <ele>48</ele>
        <time>2018-04-14T09:04:32Z</time>
      </trkpt>
      <trkpt lat="47.58045" lon="-2.79853">
        <ele>48</ele>
        <time>2018-04-14T09:04:34Z</time>
      </trkpt>
      <trkpt lat="47.58043" lon="-2.7986">
        <ele>48</ele>
        <time>2018-04-14T09:04:37Z</time>
      </trkpt>
      <trkpt lat="47.58042" lon="-2.79863">
        <ele>48</ele>
        <time>2018-04-14T09:04:38Z</time>
      </trkpt>
      <trkpt lat="47.58038" lon="-2.79872">
        <ele>49</ele>
        <time>2018-04-14T09:04:41Z</time>
      </trkpt>
      <trkpt lat="47.58035" lon="-2.79878">
        <ele>50</ele>
        <time>2018-04-14T09:04:43Z</time>
      </trkpt>
      <trkpt lat="47.58034" lon="-2.79881">
        <ele>52</ele>
        <time>2018-04-14T09:04:44Z</time>
      </trkpt>
      <trkpt lat="47.58031" lon="-2.79887">
        <ele>53</ele>
        <time>2018-04-14T09:04:46Z</time>
      </trkpt>
      <trkpt lat="47.58029" lon="-2.79892">
        <ele>53</ele>
        <time>2018-04-14T09:04:48Z</time>
      </trkpt>
      <trkpt lat="47.58024" lon="-2.79902">
        <ele>53</ele>
        <time>2018-04-14T09:04:51Z</time>
      </trkpt>
      <trkpt lat="47.58021" lon="-2.79907">
        <ele>52</ele>
        <time>2018-04-14T09:04:53Z</time>
      </trkpt>
      <trkpt lat="47.58019" lon="-2.79911">
        <ele>53</ele>
        <time>2018-04-14T09:04:54Z</time>
      </trkpt>
      <trkpt lat="47.58017" lon="-2.79917">
        <ele>53</ele>
        <time>2018-04-14T09:04:56Z</time>
      </trkpt>
      <trkpt lat="47.58014" lon="-2.79922">
        <ele>52</ele>
        <time>2018-04-14T09:04:58Z</time>
      </trkpt>
      <trkpt lat="47.5801" lon="-2.7993">
        <ele>52</ele>
        <time>2018-04-14T09:05:01Z</time>
      </trkpt>
      <trkpt lat="47.58007" lon="-2.79937">
        <ele>51</ele>
        <time>2018-04-14T09:05:04Z</time>
      </trkpt>
      <trkpt lat="47.58003" lon="-2.79945">
        <ele>51</ele>
        <time>2018-04-14T09:05:07Z</time>
      </trkpt>
      <trkpt lat="47.57999" lon="-2.79951">
        <ele>51</ele>
        <time>2018-04-14T09:05:10Z</time>
      </trkpt>
      <trkpt lat="47.57998" lon="-2.79954">
        <ele>51</ele>
        <time>2018-04-14T09:05:11Z</time>
      </trkpt>
      <trkpt lat="47.57995" lon="-2.7996">
        <ele>51</ele>
        <time>2018-04-14T09:05:13Z</time>
      </trkpt>
      <trkpt lat="47.57993" lon="-2.79966">
        <ele>51</ele>
        <time>2018-04-14T09:05:15Z</time>
      </trkpt>
      <trkpt lat="47.57992" lon="-2.79969">
        <ele>51</ele>
        <time>2018-04-14T09:05:16Z</time>
      </trkpt>
      <trkpt lat="47.57988" lon="-2.79978">
        <ele>54</ele>
        <time>2018-04-14T09:05:18Z</time>
      </trkpt>
      <trkpt lat="47.57985" lon="-2.79986">
        <ele>53</ele>
        <time>2018-04-14T09:05:21Z</time>
      </trkpt>
      <trkpt lat="47.57984" lon="-2.79992">
        <ele>52</ele>
        <time>2018-04-14T09:05:23Z</time>
      </trkpt>
      <trkpt lat="47.57983" lon="-2.79998">
        <ele>52</ele>
        <time>2018-04-14T09:05:25Z</time>
      </trkpt>
      <trkpt lat="47.57978" lon="-2.80006">
        <ele>52</ele>
        <time>2018-04-14T09:05:28Z</time>
      </trkpt>
      <trkpt lat="47.57977" lon="-2.80009">
        <ele>52</ele>
        <time>2018-04-14T09:05:29Z</time>
      </trkpt>
      <trkpt lat="47.57973" lon="-2.80018">
        <ele>52</ele>
        <time>2018-04-14T09:05:32Z</time>
      </trkpt>
      <trkpt lat="47.57972" lon="-2.80021">
        <ele>52</ele>
        <time>2018-04-14T09:05:33Z</time>
      </trkpt>
      <trkpt lat="47.5797" lon="-2.80026">
        <ele>50</ele>
        <time>2018-04-14T09:05:35Z</time>
      </trkpt>
      <trkpt lat="47.57965" lon="-2.80034">
        <ele>53</ele>
        <time>2018-04-14T09:05:38Z</time>
      </trkpt>
      <trkpt lat="47.57963" lon="-2.80037">
        <ele>54</ele>
        <time>2018-04-14T09:05:39Z</time>
      </trkpt>
      <trkpt lat="47.5796" lon="-2.80043">
        <ele>51</ele>
        <time>2018-04-14T09:05:41Z</time>
      </trkpt>
      <trkpt lat="47.57959" lon="-2.80046">
        <ele>52</ele>
        <time>2018-04-14T09:05:42Z</time>
      </trkpt>
      <trkpt lat="47.57955" lon="-2.80053">
        <ele>52</ele>
        <time>2018-04-14T09:05:44Z</time>
      </trkpt>
      <trkpt lat="47.57953" lon="-2.80057">
        <ele>53</ele>
        <time>2018-04-14T09:05:46Z</time>
      </trkpt>
      <trkpt lat="47.5795" lon="-2.80066">
        <ele>52</ele>
        <time>2018-04-14T09:05:49Z</time>
      </trkpt>
      <trkpt lat="47.57948" lon="-2.80069">
        <ele>51</ele>
        <time>2018-04-14T09:05:50Z</time>
      </trkpt>
      <trkpt lat="47.57945" lon="-2.80076">
        <ele>52</ele>
        <time>2018-04-14T09:05:52Z</time>
      </trkpt>
      <trkpt lat="47.57943" lon="-2.80082">
        <ele>51</ele>
        <time>2018-04-14T09:05:54Z</time>
      </trkpt>
      <trkpt lat="47.5794" lon="-2.80088">
        <ele>53</ele>
        <time>2018-04-14T09:05:56Z</time>
      </trkpt>
      <trkpt lat="47.57937" lon="-2.80093">
        <ele>53</ele>
        <time>2018-04-14T09:05:58Z</time>
      </trkpt>
      <trkpt lat="47.57935" lon="-2.80097">
        <ele>54</ele>
        <time>2018-04-14T09:05:59Z</time>
      </trkpt>
      <trkpt lat="47.57933" lon="-2.801">
        <ele>54</ele>
        <time>2018-04-14T09:06:00Z</time>
      </trkpt>
      <trkpt lat="47.57929" lon="-2.80108">
        <ele>54</ele>
        <time>2018-04-14T09:06:03Z</time>
      </trkpt>
      <trkpt lat="47.57927" lon="-2.80112">
        <ele>56</ele>
        <time>2018-04-14T09:06:04Z</time>
      </trkpt>
      <trkpt lat="47.57925" lon="-2.80121">
        <ele>53</ele>
        <time>2018-04-14T09:06:07Z</time>
      </trkpt>
      <trkpt lat="47.5792" lon="-2.80128">
        <ele>52</ele>
        <time>2018-04-14T09:06:10Z</time>
      </trkpt>
      <trkpt lat="47.57918" lon="-2.80132">
        <ele>53</ele>
        <time>2018-04-14T09:06:11Z</time>
      </trkpt>
      <trkpt lat="47.57916" lon="-2.80135">
        <ele>53</ele>
        <time>2018-04-14T09:06:12Z</time>
      </trkpt>
      <trkpt lat="47.57915" lon="-2.80139">
        <ele>52</ele>
        <time>2018-04-14T09:06:13Z</time>
      </trkpt>
      <trkpt lat="47.57913" lon="-2.80147">
        <ele>50</ele>
        <time>2018-04-14T09:06:16Z</time>
      </trkpt>
      <trkpt lat="47.57911" lon="-2.80153">
        <ele>51</ele>
        <time>2018-04-14T09:06:18Z</time>
      </trkpt>
      <trkpt lat="47.57909" lon="-2.80158">
        <ele>51</ele>
        <time>2018-04-14T09:06:20Z</time>
      </trkpt>
      <trkpt lat="47.57905" lon="-2.80163">
        <ele>53</ele>
        <time>2018-04-14T09:06:22Z</time>
      </trkpt>
      <trkpt lat="47.57901" lon="-2.8017">
        <ele>55</ele>
        <time>2018-04-14T09:06:24Z</time>
      </trkpt>
      <trkpt lat="47.57898" lon="-2.80178">
        <ele>51</ele>
        <time>2018-04-14T09:06:27Z</time>
      </trkpt>
      <trkpt lat="47.57895" lon="-2.80184">
        <ele>51</ele>
        <time>2018-04-14T09:06:29Z</time>
      </trkpt>
      <trkpt lat="47.57892" lon="-2.80194">
        <ele>50</ele>
        <time>2018-04-14T09:06:32Z</time>
      </trkpt>
      <trkpt lat="47.5789" lon="-2.80201">
        <ele>50</ele>
        <time>2018-04-14T09:06:34Z</time>
      </trkpt>
      <trkpt lat="47.57886" lon="-2.80207">
        <ele>49</ele>
        <time>2018-04-14T09:06:36Z</time>
      </trkpt>
      <trkpt lat="47.57884" lon="-2.80216">
        <ele>47</ele>
        <time>2018-04-14T09:06:39Z</time>
      </trkpt>
      <trkpt lat="47.57881" lon="-2.80223">
        <ele>49</ele>
        <time>2018-04-14T09:06:41Z</time>
      </trkpt>
      <trkpt lat="47.57879" lon="-2.80228">
        <ele>48</ele>
        <time>2018-04-14T09:06:43Z</time>
      </trkpt>
      <trkpt lat="47.57877" lon="-2.80232">
        <ele>47</ele>
        <time>2018-04-14T09:06:45Z</time>
      </trkpt>
      <trkpt lat="47.57876" lon="-2.80237">
        <ele>46</ele>
        <time>2018-04-14T09:06:47Z</time>
      </trkpt>
      <trkpt lat="47.57872" lon="-2.80244">
        <ele>46</ele>
        <time>2018-04-14T09:06:49Z</time>
      </trkpt>
      <trkpt lat="47.5787" lon="-2.80249">
        <ele>48</ele>
        <time>2018-04-14T09:06:51Z</time>
      </trkpt>
      <trkpt lat="47.57866" lon="-2.80255">
        <ele>50</ele>
        <time>2018-04-14T09:06:53Z</time>
      </trkpt>
      <trkpt lat="47.57864" lon="-2.80262">
        <ele>50</ele>
        <time>2018-04-14T09:06:55Z</time>
      </trkpt>
      <trkpt lat="47.57861" lon="-2.80268">
        <ele>47</ele>
        <time>2018-04-14T09:06:58Z</time>
      </trkpt>
      <trkpt lat="47.57858" lon="-2.80274">
        <ele>48</ele>
        <time>2018-04-14T09:07:00Z</time>
      </trkpt>
      <trkpt lat="47.57855" lon="-2.80281">
        <ele>50</ele>
        <time>2018-04-14T09:07:02Z</time>
      </trkpt>
      <trkpt lat="47.57854" lon="-2.80289">
        <ele>47</ele>
        <time>2018-04-14T09:07:05Z</time>
      </trkpt>
      <trkpt lat="47.57851" lon="-2.80296">
        <ele>47</ele>
        <time>2018-04-14T09:07:07Z</time>
      </trkpt>
      <trkpt lat="47.5785" lon="-2.80299">
        <ele>47</ele>
        <time>2018-04-14T09:07:08Z</time>
      </trkpt>
      <trkpt lat="47.57847" lon="-2.80305">
        <ele>49</ele>
        <time>2018-04-14T09:07:10Z</time>
      </trkpt>
      <trkpt lat="47.57846" lon="-2.80309">
        <ele>50</ele>
        <time>2018-04-14T09:07:11Z</time>
      </trkpt>
      <trkpt lat="47.57844" lon="-2.80319">
        <ele>47</ele>
        <time>2018-04-14T09:07:15Z</time>
      </trkpt>
      <trkpt lat="47.57842" lon="-2.80326">
        <ele>48</ele>
        <time>2018-04-14T09:07:17Z</time>
      </trkpt>
      <trkpt lat="47.57839" lon="-2.80332">
        <ele>51</ele>
        <time>2018-04-14T09:07:19Z</time>
      </trkpt>
      <trkpt lat="47.57838" lon="-2.80339">
        <ele>52</ele>
        <time>2018-04-14T09:07:22Z</time>
      </trkpt>
      <trkpt lat="47.57837" lon="-2.80343">
        <ele>52</ele>
        <time>2018-04-14T09:07:23Z</time>
      </trkpt>
      <trkpt lat="47.57834" lon="-2.80349">
        <ele>52</ele>
        <time>2018-04-14T09:07:25Z</time>
      </trkpt>
      <trkpt lat="47.57831" lon="-2.80358">
        <ele>51</ele>
        <time>2018-04-14T09:07:28Z</time>
      </trkpt>
      <trkpt lat="47.5783" lon="-2.80362">
        <ele>51</ele>
        <time>2018-04-14T09:07:29Z</time>
      </trkpt>
      <trkpt lat="47.57828" lon="-2.80365">
        <ele>51</ele>
        <time>2018-04-14T09:07:30Z</time>
      </trkpt>
      <trkpt lat="47.57827" lon="-2.80368">
        <ele>51</ele>
        <time>2018-04-14T09:07:31Z</time>
      </trkpt>
      <trkpt lat="47.57824" lon="-2.80375">
        <ele>52</ele>
        <time>2018-04-14T09:07:33Z</time>
      </trkpt>
      <trkpt lat="47.57823" lon="-2.80382">
        <ele>51</ele>
        <time>2018-04-14T09:07:35Z</time>
      </trkpt>
      <trkpt lat="47.57821" lon="-2.80392">
        <ele>51</ele>
        <time>2018-04-14T09:07:38Z</time>
      </trkpt>
      <trkpt lat="47.5782" lon="-2.80395">
        <ele>52</ele>
        <time>2018-04-14T09:07:39Z</time>
      </trkpt>
      <trkpt lat="47.57818" lon="-2.80401">
        <ele>53</ele>
        <time>2018-04-14T09:07:41Z</time>
      </trkpt>
      <trkpt lat="47.57817" lon="-2.80404">
        <ele>54</ele>
        <time>2018-04-14T09:07:42Z</time>
      </trkpt>
      <trkpt lat="47.57816" lon="-2.80411">
        <ele>53</ele>
        <time>2018-04-14T09:07:44Z</time>
      </trkpt>
      <trkpt lat="47.57812" lon="-2.80423">
        <ele>53</ele>
        <time>2018-04-14T09:07:47Z</time>
      </trkpt>
      <trkpt lat="47.5781" lon="-2.8043">
        <ele>53</ele>
        <time>2018-04-14T09:07:49Z</time>
      </trkpt>
      <trkpt lat="47.57807" lon="-2.80439">
        <ele>53</ele>
        <time>2018-04-14T09:07:51Z</time>
      </trkpt>
      <trkpt lat="47.57805" lon="-2.80444">
        <ele>53</ele>
        <time>2018-04-14T09:07:53Z</time>
      </trkpt>
      <trkpt lat="47.57803" lon="-2.80452">
        <ele>54</ele>
        <time>2018-04-14T09:07:56Z</time>
      </trkpt>
      <trkpt lat="47.57801" lon="-2.80461">
        <ele>51</ele>
        <time>2018-04-14T09:07:59Z</time>
      </trkpt>
      <trkpt lat="47.578" lon="-2.80468">
        <ele>50</ele>
        <time>2018-04-14T09:08:01Z</time>
      </trkpt>
      <trkpt lat="47.57798" lon="-2.80475">
        <ele>51</ele>
        <time>2018-04-14T09:08:03Z</time>
      </trkpt>
      <trkpt lat="47.57795" lon="-2.80482">
        <ele>52</ele>
        <time>2018-04-14T09:08:05Z</time>
      </trkpt>
      <trkpt lat="47.57794" lon="-2.80492">
        <ele>51</ele>
        <time>2018-04-14T09:08:08Z</time>
      </trkpt>
      <trkpt lat="47.57791" lon="-2.80498">
        <ele>53</ele>
        <time>2018-04-14T09:08:10Z</time>
      </trkpt>
      <trkpt lat="47.57788" lon="-2.80506">
        <ele>51</ele>
        <time>2018-04-14T09:08:13Z</time>
      </trkpt>
      <trkpt lat="47.57785" lon="-2.80513">
        <ele>50</ele>
        <time>2018-04-14T09:08:15Z</time>
      </trkpt>
      <trkpt lat="47.57784" lon="-2.80517">
        <ele>50</ele>
        <time>2018-04-14T09:08:16Z</time>
      </trkpt>
      <trkpt lat="47.57781" lon="-2.80524">
        <ele>51</ele>
        <time>2018-04-14T09:08:18Z</time>
      </trkpt>
      <trkpt lat="47.57778" lon="-2.8053">
        <ele>53</ele>
        <time>2018-04-14T09:08:20Z</time>
      </trkpt>
      <trkpt lat="47.57776" lon="-2.80538">
        <ele>53</ele>
        <time>2018-04-14T09:08:23Z</time>
      </trkpt>
      <trkpt lat="47.57775" lon="-2.80542">
        <ele>54</ele>
        <time>2018-04-14T09:08:24Z</time>
      </trkpt>
      <trkpt lat="47.57773" lon="-2.80548">
        <ele>54</ele>
        <time>2018-04-14T09:08:26Z</time>
      </trkpt>
      <trkpt lat="47.57772" lon="-2.80555">
        <ele>54</ele>
        <time>2018-04-14T09:08:28Z</time>
      </trkpt>
      <trkpt lat="47.5777" lon="-2.80561">
        <ele>54</ele>
        <time>2018-04-14T09:08:30Z</time>
      </trkpt>
      <trkpt lat="47.57767" lon="-2.80567">
        <ele>57</ele>
        <time>2018-04-14T09:08:32Z</time>
      </trkpt>
      <trkpt lat="47.57765" lon="-2.80574">
        <ele>59</ele>
        <time>2018-04-14T09:08:34Z</time>
      </trkpt>
      <trkpt lat="47.57764" lon="-2.80581">
        <ele>59</ele>
        <time>2018-04-14T09:08:36Z</time>
      </trkpt>
      <trkpt lat="47.57763" lon="-2.80587">
        <ele>60</ele>
        <time>2018-04-14T09:08:38Z</time>
      </trkpt>
      <trkpt lat="47.57761" lon="-2.80596">
        <ele>62</ele>
        <time>2018-04-14T09:08:41Z</time>
      </trkpt>
      <trkpt lat="47.57766" lon="-2.80603">
        <ele>51</ele>
        <time>2018-04-14T09:08:45Z</time>
      </trkpt>
      <trkpt lat="47.57765" lon="-2.80611">
        <ele>49</ele>
        <time>2018-04-14T09:08:48Z</time>
      </trkpt>
      <trkpt lat="47.57764" lon="-2.8062">
        <ele>51</ele>
        <time>2018-04-14T09:08:51Z</time>
      </trkpt>
      <trkpt lat="47.57762" lon="-2.80626">
        <ele>50</ele>
        <time>2018-04-14T09:08:53Z</time>
      </trkpt>
      <trkpt lat="47.57761" lon="-2.80629">
        <ele>50</ele>
        <time>2018-04-14T09:08:54Z</time>
      </trkpt>
      <trkpt lat="47.57758" lon="-2.8064">
        <ele>50</ele>
        <time>2018-04-14T09:08:58Z</time>
      </trkpt>
      <trkpt lat="47.57757" lon="-2.80647">
        <ele>51</ele>
        <time>2018-04-14T09:09:00Z</time>
      </trkpt>
      <trkpt lat="47.57754" lon="-2.80657">
        <ele>52</ele>
        <time>2018-04-14T09:09:03Z</time>
      </trkpt>
      <trkpt lat="47.57753" lon="-2.80667">
        <ele>52</ele>
        <time>2018-04-14T09:09:06Z</time>
      </trkpt>
      <trkpt lat="47.57751" lon="-2.80674">
        <ele>52</ele>
        <time>2018-04-14T09:09:08Z</time>
      </trkpt>
      <trkpt lat="47.57751" lon="-2.80681">
        <ele>52</ele>
        <time>2018-04-14T09:09:10Z</time>
      </trkpt>
      <trkpt lat="47.57752" lon="-2.80686">
        <ele>53</ele>
        <time>2018-04-14T09:09:12Z</time>
      </trkpt>
      <trkpt lat="47.57752" lon="-2.80694">
        <ele>52</ele>
        <time>2018-04-14T09:09:15Z</time>
      </trkpt>
      <trkpt lat="47.57751" lon="-2.80701">
        <ele>51</ele>
        <time>2018-04-14T09:09:18Z</time>
      </trkpt>
      <trkpt lat="47.57751" lon="-2.8071">
        <ele>50</ele>
        <time>2018-04-14T09:09:21Z</time>
      </trkpt>
      <trkpt lat="47.57749" lon="-2.80718">
        <ele>50</ele>
        <time>2018-04-14T09:09:24Z</time>
      </trkpt>
      <trkpt lat="47.57751" lon="-2.80724">
        <ele>47</ele>
        <time>2018-04-14T09:09:27Z</time>
      </trkpt>
      <trkpt lat="47.57749" lon="-2.80734">
        <ele>45</ele>
        <time>2018-04-14T09:09:30Z</time>
      </trkpt>
      <trkpt lat="47.57746" lon="-2.80745">
        <ele>48</ele>
        <time>2018-04-14T09:09:33Z</time>
      </trkpt>
      <trkpt lat="47.57744" lon="-2.80753">
        <ele>50</ele>
        <time>2018-04-14T09:09:36Z</time>
      </trkpt>
      <trkpt lat="47.57744" lon="-2.80762">
        <ele>49</ele>
        <time>2018-04-14T09:09:39Z</time>
      </trkpt>
      <trkpt lat="47.57744" lon="-2.80771">
        <ele>48</ele>
        <time>2018-04-14T09:09:42Z</time>
      </trkpt>
      <trkpt lat="47.57744" lon="-2.80777">
        <ele>48</ele>
        <time>2018-04-14T09:09:44Z</time>
      </trkpt>
      <trkpt lat="47.57743" lon="-2.80781">
        <ele>49</ele>
        <time>2018-04-14T09:09:45Z</time>
      </trkpt>
      <trkpt lat="47.57745" lon="-2.80788">
        <ele>46</ele>
        <time>2018-04-14T09:09:48Z</time>
      </trkpt>
      <trkpt lat="47.57745" lon="-2.80796">
        <ele>46</ele>
        <time>2018-04-14T09:09:51Z</time>
      </trkpt>
      <trkpt lat="47.57746" lon="-2.80804">
        <ele>48</ele>
        <time>2018-04-14T09:09:54Z</time>
      </trkpt>
      <trkpt lat="47.57746" lon="-2.80814">
        <ele>48</ele>
        <time>2018-04-14T09:09:57Z</time>
      </trkpt>
      <trkpt lat="47.57745" lon="-2.80822">
        <ele>49</ele>
        <time>2018-04-14T09:10:00Z</time>
      </trkpt>
      <trkpt lat="47.57746" lon="-2.80829">
        <ele>48</ele>
        <time>2018-04-14T09:10:03Z</time>
      </trkpt>
      <trkpt lat="47.57745" lon="-2.80836">
        <ele>49</ele>
        <time>2018-04-14T09:10:05Z</time>
      </trkpt>
      <trkpt lat="47.57744" lon="-2.80845">
        <ele>47</ele>
        <time>2018-04-14T09:10:08Z</time>
      </trkpt>
      <trkpt lat="47.57742" lon="-2.80852">
        <ele>48</ele>
        <time>2018-04-14T09:10:10Z</time>
      </trkpt>
      <trkpt lat="47.57742" lon="-2.80861">
        <ele>47</ele>
        <time>2018-04-14T09:10:13Z</time>
      </trkpt>
      <trkpt lat="47.57742" lon="-2.8087">
        <ele>46</ele>
        <time>2018-04-14T09:10:16Z</time>
      </trkpt>
      <trkpt lat="47.57742" lon="-2.80877">
        <ele>48</ele>
        <time>2018-04-14T09:10:19Z</time>
      </trkpt>
      <trkpt lat="47.57741" lon="-2.80884">
        <ele>48</ele>
        <time>2018-04-14T09:10:22Z</time>
      </trkpt>
      <trkpt lat="47.57745" lon="-2.80891">
        <ele>45</ele>
        <time>2018-04-14T09:10:26Z</time>
      </trkpt>
      <trkpt lat="47.57745" lon="-2.80899">
        <ele>45</ele>
        <time>2018-04-14T09:10:30Z</time>
      </trkpt>
      <trkpt lat="47.57744" lon="-2.80906">
        <ele>44</ele>
        <time>2018-04-14T09:10:33Z</time>
      </trkpt>
      <trkpt lat="47.57744" lon="-2.8091">
        <ele>44</ele>
        <time>2018-04-14T09:10:35Z</time>
      </trkpt>
      <trkpt lat="47.57743" lon="-2.80921">
        <ele>45</ele>
        <time>2018-04-14T09:10:39Z</time>
      </trkpt>
      <trkpt lat="47.57741" lon="-2.80931">
        <ele>47</ele>
        <time>2018-04-14T09:10:42Z</time>
      </trkpt>
      <trkpt lat="47.5774" lon="-2.80941">
        <ele>46</ele>
        <time>2018-04-14T09:10:46Z</time>
      </trkpt>
      <trkpt lat="47.57743" lon="-2.80946">
        <ele>44</ele>
        <time>2018-04-14T09:10:49Z</time>
      </trkpt>
      <trkpt lat="47.57743" lon="-2.80954">
        <ele>45</ele>
        <time>2018-04-14T09:10:51Z</time>
      </trkpt>
      <trkpt lat="47.57743" lon="-2.80964">
        <ele>43</ele>
        <time>2018-04-14T09:10:54Z</time>
      </trkpt>
      <trkpt lat="47.57743" lon="-2.80968">
        <ele>43</ele>
        <time>2018-04-14T09:10:55Z</time>
      </trkpt>
      <trkpt lat="47.57744" lon="-2.80973">
        <ele>44</ele>
        <time>2018-04-14T09:10:57Z</time>
      </trkpt>
      <trkpt lat="47.57744" lon="-2.80981">
        <ele>46</ele>
        <time>2018-04-14T09:11:00Z</time>
      </trkpt>
      <trkpt lat="47.57745" lon="-2.80988">
        <ele>47</ele>
        <time>2018-04-14T09:11:02Z</time>
      </trkpt>
      <trkpt lat="47.57747" lon="-2.80993">
        <ele>46</ele>
        <time>2018-04-14T09:11:04Z</time>
      </trkpt>
      <trkpt lat="47.57748" lon="-2.81">
        <ele>47</ele>
        <time>2018-04-14T09:11:07Z</time>
      </trkpt>
      <trkpt lat="47.57749" lon="-2.81006">
        <ele>46</ele>
        <time>2018-04-14T09:11:09Z</time>
      </trkpt>
      <trkpt lat="47.5775" lon="-2.81011">
        <ele>46</ele>
        <time>2018-04-14T09:11:11Z</time>
      </trkpt>
      <trkpt lat="47.57751" lon="-2.81017">
        <ele>47</ele>
        <time>2018-04-14T09:11:13Z</time>
      </trkpt>
      <trkpt lat="47.57752" lon="-2.81023">
        <ele>47</ele>
        <time>2018-04-14T09:11:15Z</time>
      </trkpt>
      <trkpt lat="47.57753" lon="-2.81032">
        <ele>47</ele>
        <time>2018-04-14T09:11:18Z</time>
      </trkpt>
      <trkpt lat="47.57754" lon="-2.8104">
        <ele>48</ele>
        <time>2018-04-14T09:11:21Z</time>
      </trkpt>
      <trkpt lat="47.57757" lon="-2.81046">
        <ele>48</ele>
        <time>2018-04-14T09:11:23Z</time>
      </trkpt>
      <trkpt lat="47.57759" lon="-2.81051">
        <ele>47</ele>
        <time>2018-04-14T09:11:25Z</time>
      </trkpt>
      <trkpt lat="47.57761" lon="-2.81055">
        <ele>48</ele>
        <time>2018-04-14T09:11:27Z</time>
      </trkpt>
      <trkpt lat="47.57763" lon="-2.81059">
        <ele>48</ele>
        <time>2018-04-14T09:11:29Z</time>
      </trkpt>
      <trkpt lat="47.57766" lon="-2.81067">
        <ele>48</ele>
        <time>2018-04-14T09:11:32Z</time>
      </trkpt>
      <trkpt lat="47.57768" lon="-2.81074">
        <ele>48</ele>
        <time>2018-04-14T09:11:35Z</time>
      </trkpt>
      <trkpt lat="47.57776" lon="-2.8108">
        <ele>44</ele>
        <time>2018-04-14T09:11:38Z</time>
      </trkpt>
      <trkpt lat="47.5778" lon="-2.81088">
        <ele>43</ele>
        <time>2018-04-14T09:11:41Z</time>
      </trkpt>
      <trkpt lat="47.57782" lon="-2.81094">
        <ele>45</ele>
        <time>2018-04-14T09:11:43Z</time>
      </trkpt>
      <trkpt lat="47.57783" lon="-2.81097">
        <ele>46</ele>
        <time>2018-04-14T09:11:44Z</time>
      </trkpt>
      <trkpt lat="47.57788" lon="-2.81106">
        <ele>46</ele>
        <time>2018-04-14T09:11:48Z</time>
      </trkpt>
      <trkpt lat="47.5779" lon="-2.8111">
        <ele>46</ele>
        <time>2018-04-14T09:11:50Z</time>
      </trkpt>
      <trkpt lat="47.57794" lon="-2.81116">
        <ele>46</ele>
        <time>2018-04-14T09:11:53Z</time>
      </trkpt>
      <trkpt lat="47.57796" lon="-2.81119">
        <ele>45</ele>
        <time>2018-04-14T09:11:55Z</time>
      </trkpt>
      <trkpt lat="47.57798" lon="-2.81121">
        <ele>46</ele>
        <time>2018-04-14T09:11:56Z</time>
      </trkpt>
      <trkpt lat="47.578" lon="-2.81124">
        <ele>46</ele>
        <time>2018-04-14T09:11:57Z</time>
      </trkpt>
      <trkpt lat="47.57803" lon="-2.81131">
        <ele>48</ele>
        <time>2018-04-14T09:12:00Z</time>
      </trkpt>
      <trkpt lat="47.57806" lon="-2.81137">
        <ele>49</ele>
        <time>2018-04-14T09:12:03Z</time>
      </trkpt>
      <trkpt lat="47.57808" lon="-2.81144">
        <ele>51</ele>
        <time>2018-04-14T09:12:06Z</time>
      </trkpt>
      <trkpt lat="47.57813" lon="-2.8115">
        <ele>49</ele>
        <time>2018-04-14T09:12:10Z</time>
      </trkpt>
      <trkpt lat="47.57815" lon="-2.81153">
        <ele>49</ele>
        <time>2018-04-14T09:12:13Z</time>
      </trkpt>
      <trkpt lat="47.57818" lon="-2.81155">
        <ele>47</ele>
        <time>2018-04-14T09:12:15Z</time>
      </trkpt>
      <trkpt lat="47.5782" lon="-2.81157">
        <ele>47</ele>
        <time>2018-04-14T09:12:17Z</time>
      </trkpt>
      <trkpt lat="47.57823" lon="-2.8116">
        <ele>47</ele>
        <time>2018-04-14T09:12:22Z</time>
      </trkpt>
      <trkpt lat="47.57827" lon="-2.81167">
        <ele>50</ele>
        <time>2018-04-14T09:12:27Z</time>
      </trkpt>
      <trkpt lat="47.57829" lon="-2.81174">
        <ele>51</ele>
        <time>2018-04-14T09:12:31Z</time>
      </trkpt>
      <trkpt lat="47.5783" lon="-2.81182">
        <ele>50</ele>
        <time>2018-04-14T09:12:34Z</time>
      </trkpt>
      <trkpt lat="47.57833" lon="-2.81189">
        <ele>49</ele>
        <time>2018-04-14T09:12:37Z</time>
      </trkpt>
      <trkpt lat="47.57834" lon="-2.81193">
        <ele>49</ele>
        <time>2018-04-14T09:12:39Z</time>
      </trkpt>
      <trkpt lat="47.57835" lon="-2.81202">
        <ele>48</ele>
        <time>2018-04-14T09:12:42Z</time>
      </trkpt>
      <trkpt lat="47.57839" lon="-2.81208">
        <ele>48</ele>
        <time>2018-04-14T09:12:45Z</time>
      </trkpt>
      <trkpt lat="47.57841" lon="-2.81211">
        <ele>48</ele>
        <time>2018-04-14T09:12:47Z</time>
      </trkpt>
      <trkpt lat="47.57843" lon="-2.81218">
        <ele>48</ele>
        <time>2018-04-14T09:12:50Z</time>
      </trkpt>
      <trkpt lat="47.57845" lon="-2.81223">
        <ele>49</ele>
        <time>2018-04-14T09:12:53Z</time>
      </trkpt>
      <trkpt lat="47.57846" lon="-2.8123">
        <ele>51</ele>
        <time>2018-04-14T09:12:56Z</time>
      </trkpt>
      <trkpt lat="47.5785" lon="-2.81237">
        <ele>50</ele>
        <time>2018-04-14T09:12:59Z</time>
      </trkpt>
      <trkpt lat="47.57852" lon="-2.81239">
        <ele>49</ele>
        <time>2018-04-14T09:13:00Z</time>
      </trkpt>
      <trkpt lat="47.57854" lon="-2.81247">
        <ele>48</ele>
        <time>2018-04-14T09:13:04Z</time>
      </trkpt>
      <trkpt lat="47.57858" lon="-2.81252">
        <ele>48</ele>
        <time>2018-04-14T09:13:07Z</time>
      </trkpt>
      <trkpt lat="47.5786" lon="-2.81259">
        <ele>48</ele>
        <time>2018-04-14T09:13:10Z</time>
      </trkpt>
      <trkpt lat="47.57863" lon="-2.81267">
        <ele>48</ele>
        <time>2018-04-14T09:13:13Z</time>
      </trkpt>
      <trkpt lat="47.57868" lon="-2.81277">
        <ele>45</ele>
        <time>2018-04-14T09:13:17Z</time>
      </trkpt>
      <trkpt lat="47.57871" lon="-2.81284">
        <ele>46</ele>
        <time>2018-04-14T09:13:20Z</time>
      </trkpt>
      <trkpt lat="47.57875" lon="-2.81289">
        <ele>46</ele>
        <time>2018-04-14T09:13:23Z</time>
      </trkpt>
      <trkpt lat="47.57877" lon="-2.81293">
        <ele>45</ele>
        <time>2018-04-14T09:13:25Z</time>
      </trkpt>
      <trkpt lat="47.57879" lon="-2.81301">
        <ele>46</ele>
        <time>2018-04-14T09:13:28Z</time>
      </trkpt>
      <trkpt lat="47.57881" lon="-2.81308">
        <ele>46</ele>
        <time>2018-04-14T09:13:31Z</time>
      </trkpt>
      <trkpt lat="47.57884" lon="-2.81315">
        <ele>48</ele>
        <time>2018-04-14T09:13:34Z</time>
      </trkpt>
      <trkpt lat="47.57886" lon="-2.81319">
        <ele>49</ele>
        <time>2018-04-14T09:13:36Z</time>
      </trkpt>
      <trkpt lat="47.57888" lon="-2.81327">
        <ele>50</ele>
        <time>2018-04-14T09:13:39Z</time>
      </trkpt>
      <trkpt lat="47.57892" lon="-2.81332">
        <ele>49</ele>
        <time>2018-04-14T09:13:42Z</time>
      </trkpt>
      <trkpt lat="47.57896" lon="-2.81335">
        <ele>50</ele>
        <time>2018-04-14T09:13:44Z</time>
      </trkpt>
      <trkpt lat="47.57898" lon="-2.81337">
        <ele>48</ele>
        <time>2018-04-14T09:13:46Z</time>
      </trkpt>
      <trkpt lat="47.57902" lon="-2.81343">
        <ele>49</ele>
        <time>2018-04-14T09:13:50Z</time>
      </trkpt>
      <trkpt lat="47.57906" lon="-2.81346">
        <ele>50</ele>
        <time>2018-04-14T09:13:54Z</time>
      </trkpt>
      <trkpt lat="47.5791" lon="-2.81349">
        <ele>48</ele>
        <time>2018-04-14T09:13:58Z</time>
      </trkpt>
      <trkpt lat="47.57913" lon="-2.81354">
        <ele>48</ele>
        <time>2018-04-14T09:14:02Z</time>
      </trkpt>
      <trkpt lat="47.57919" lon="-2.8136">
        <ele>48</ele>
        <time>2018-04-14T09:14:05Z</time>
      </trkpt>
      <trkpt lat="47.57923" lon="-2.81366">
        <ele>46</ele>
        <time>2018-04-14T09:14:09Z</time>
      </trkpt>
      <trkpt lat="47.57928" lon="-2.8137">
        <ele>46</ele>
        <time>2018-04-14T09:14:12Z</time>
      </trkpt>
      <trkpt lat="47.57932" lon="-2.81377">
        <ele>47</ele>
        <time>2018-04-14T09:14:17Z</time>
      </trkpt>
      <trkpt lat="47.57937" lon="-2.8138">
        <ele>46</ele>
        <time>2018-04-14T09:14:20Z</time>
      </trkpt>
      <trkpt lat="47.57942" lon="-2.81384">
        <ele>46</ele>
        <time>2018-04-14T09:14:24Z</time>
      </trkpt>
      <trkpt lat="47.57945" lon="-2.8139">
        <ele>45</ele>
        <time>2018-04-14T09:14:30Z</time>
      </trkpt>
      <trkpt lat="47.5795" lon="-2.81396">
        <ele>46</ele>
        <time>2018-04-14T09:14:35Z</time>
      </trkpt>
      <trkpt lat="47.57955" lon="-2.81401">
        <ele>47</ele>
        <time>2018-04-14T09:14:38Z</time>
      </trkpt>
      <trkpt lat="47.57959" lon="-2.81405">
        <ele>47</ele>
        <time>2018-04-14T09:14:41Z</time>
      </trkpt>
      <trkpt lat="47.57962" lon="-2.81407">
        <ele>46</ele>
        <time>2018-04-14T09:14:42Z</time>
      </trkpt>
      <trkpt lat="47.57967" lon="-2.8141">
        <ele>46</ele>
        <time>2018-04-14T09:14:45Z</time>
      </trkpt>
      <trkpt lat="47.57971" lon="-2.81416">
        <ele>46</ele>
        <time>2018-04-14T09:14:50Z</time>
      </trkpt>
      <trkpt lat="47.57974" lon="-2.81421">
        <ele>46</ele>
        <time>2018-04-14T09:14:53Z</time>
      </trkpt>
      <trkpt lat="47.57978" lon="-2.81426">
        <ele>49</ele>
        <time>2018-04-14T09:14:56Z</time>
      </trkpt>
      <trkpt lat="47.57981" lon="-2.81431">
        <ele>49</ele>
        <time>2018-04-14T09:14:59Z</time>
      </trkpt>
      <trkpt lat="47.57985" lon="-2.81436">
        <ele>47</ele>
        <time>2018-04-14T09:15:06Z</time>
      </trkpt>
      <trkpt lat="47.57988" lon="-2.81443">
        <ele>47</ele>
        <time>2018-04-14T09:15:09Z</time>
      </trkpt>
      <trkpt lat="47.57991" lon="-2.81447">
        <ele>45</ele>
        <time>2018-04-14T09:15:13Z</time>
      </trkpt>
      <trkpt lat="47.57996" lon="-2.8145">
        <ele>44</ele>
        <time>2018-04-14T09:15:18Z</time>
      </trkpt>
      <trkpt lat="47.57999" lon="-2.81452">
        <ele>44</ele>
        <time>2018-04-14T09:15:22Z</time>
      </trkpt>
      <trkpt lat="47.58003" lon="-2.81456">
        <ele>45</ele>
        <time>2018-04-14T09:15:26Z</time>
      </trkpt>
      <trkpt lat="47.58008" lon="-2.81459">
        <ele>45</ele>
        <time>2018-04-14T09:15:31Z</time>
      </trkpt>
      <trkpt lat="47.58011" lon="-2.81462">
        <ele>46</ele>
        <time>2018-04-14T09:15:34Z</time>
      </trkpt>
      <trkpt lat="47.58015" lon="-2.81463">
        <ele>45</ele>
        <time>2018-04-14T09:15:37Z</time>
      </trkpt>
      <trkpt lat="47.58019" lon="-2.81469">
        <ele>46</ele>
        <time>2018-04-14T09:15:40Z</time>
      </trkpt>
      <trkpt lat="47.58021" lon="-2.81471">
        <ele>46</ele>
        <time>2018-04-14T09:15:43Z</time>
      </trkpt>
      <trkpt lat="47.58026" lon="-2.81476">
        <ele>49</ele>
        <time>2018-04-14T09:15:47Z</time>
      </trkpt>
      <trkpt lat="47.58033" lon="-2.81481">
        <ele>53</ele>
        <time>2018-04-14T09:15:51Z</time>
      </trkpt>
      <trkpt lat="47.58036" lon="-2.81489">
        <ele>50</ele>
        <time>2018-04-14T09:15:56Z</time>
      </trkpt>
      <trkpt lat="47.58041" lon="-2.81493">
        <ele>51</ele>
        <time>2018-04-14T09:16:00Z</time>
      </trkpt>
      <trkpt lat="47.58045" lon="-2.81496">
        <ele>52</ele>
        <time>2018-04-14T09:16:02Z</time>
      </trkpt>
      <trkpt lat="47.58049" lon="-2.81498">
        <ele>52</ele>
        <time>2018-04-14T09:16:05Z</time>
      </trkpt>
      <trkpt lat="47.58053" lon="-2.81499">
        <ele>54</ele>
        <time>2018-04-14T09:16:07Z</time>
      </trkpt>
      <trkpt lat="47.58058" lon="-2.81502">
        <ele>53</ele>
        <time>2018-04-14T09:16:10Z</time>
      </trkpt>
      <trkpt lat="47.58062" lon="-2.81507">
        <ele>52</ele>
        <time>2018-04-14T09:16:14Z</time>
      </trkpt>
      <trkpt lat="47.58064" lon="-2.8151">
        <ele>52</ele>
        <time>2018-04-14T09:16:16Z</time>
      </trkpt>
      <trkpt lat="47.58069" lon="-2.81513">
        <ele>50</ele>
        <time>2018-04-14T09:16:20Z</time>
      </trkpt>
      <trkpt lat="47.58074" lon="-2.81517">
        <ele>49</ele>
        <time>2018-04-14T09:16:25Z</time>
      </trkpt>
      <trkpt lat="47.58077" lon="-2.8152">
        <ele>48</ele>
        <time>2018-04-14T09:16:27Z</time>
      </trkpt>
      <trkpt lat="47.58081" lon="-2.81523">
        <ele>50</ele>
        <time>2018-04-14T09:16:30Z</time>
      </trkpt>
      <trkpt lat="47.58086" lon="-2.81528">
        <ele>50</ele>
        <time>2018-04-14T09:16:34Z</time>
      </trkpt>
      <trkpt lat="47.58089" lon="-2.81532">
        <ele>49</ele>
        <time>2018-04-14T09:16:38Z</time>
      </trkpt>
      <trkpt lat="47.58092" lon="-2.81539">
        <ele>49</ele>
        <time>2018-04-14T09:16:42Z</time>
      </trkpt>
      <trkpt lat="47.58097" lon="-2.81542">
        <ele>51</ele>
        <time>2018-04-14T09:16:47Z</time>
      </trkpt>
      <trkpt lat="47.58102" lon="-2.81545">
        <ele>52</ele>
        <time>2018-04-14T09:16:51Z</time>
      </trkpt>
      <trkpt lat="47.58106" lon="-2.81549">
        <ele>51</ele>
        <time>2018-04-14T09:16:55Z</time>
      </trkpt>
      <trkpt lat="47.58108" lon="-2.8155">
        <ele>51</ele>
        <time>2018-04-14T09:16:57Z</time>
      </trkpt>
      <trkpt lat="47.58112" lon="-2.81553">
        <ele>50</ele>
        <time>2018-04-14T09:17:00Z</time>
      </trkpt>
      <trkpt lat="47.58117" lon="-2.81554">
        <ele>50</ele>
        <time>2018-04-14T09:17:03Z</time>
      </trkpt>
      <trkpt lat="47.5812" lon="-2.81559">
        <ele>46</ele>
        <time>2018-04-14T09:17:08Z</time>
      </trkpt>
      <trkpt lat="47.58125" lon="-2.81562">
        <ele>44</ele>
        <time>2018-04-14T09:17:12Z</time>
      </trkpt>
      <trkpt lat="47.5813" lon="-2.81566">
        <ele>46</ele>
        <time>2018-04-14T09:17:14Z</time>
      </trkpt>
      <trkpt lat="47.58136" lon="-2.8157">
        <ele>50</ele>
        <time>2018-04-14T09:17:17Z</time>
      </trkpt>
      <trkpt lat="47.58139" lon="-2.81573">
        <ele>51</ele>
        <time>2018-04-14T09:17:19Z</time>
      </trkpt>
      <trkpt lat="47.58143" lon="-2.81577">
        <ele>52</ele>
        <time>2018-04-14T09:17:22Z</time>
      </trkpt>
      <trkpt lat="47.58147" lon="-2.81582">
        <ele>53</ele>
        <time>2018-04-14T09:17:25Z</time>
      </trkpt>
      <trkpt lat="47.58152" lon="-2.81586">
        <ele>54</ele>
        <time>2018-04-14T09:17:28Z</time>
      </trkpt>
      <trkpt lat="47.58157" lon="-2.81588">
        <ele>55</ele>
        <time>2018-04-14T09:17:31Z</time>
      </trkpt>
      <trkpt lat="47.5816" lon="-2.8159">
        <ele>55</ele>
        <time>2018-04-14T09:17:33Z</time>
      </trkpt>
      <trkpt lat="47.58164" lon="-2.81593">
        <ele>54</ele>
        <time>2018-04-14T09:17:36Z</time>
      </trkpt>
      <trkpt lat="47.58168" lon="-2.81596">
        <ele>54</ele>
        <time>2018-04-14T09:17:39Z</time>
      </trkpt>
      <trkpt lat="47.5817" lon="-2.81598">
        <ele>53</ele>
        <time>2018-04-14T09:17:41Z</time>
      </trkpt>
      <trkpt lat="47.58175" lon="-2.816">
        <ele>52</ele>
        <time>2018-04-14T09:17:45Z</time>
      </trkpt>
      <trkpt lat="47.58181" lon="-2.81604">
        <ele>54</ele>
        <time>2018-04-14T09:17:48Z</time>
      </trkpt>
      <trkpt lat="47.58184" lon="-2.81606">
        <ele>53</ele>
        <time>2018-04-14T09:17:50Z</time>
      </trkpt>
      <trkpt lat="47.58188" lon="-2.81613">
        <ele>52</ele>
        <time>2018-04-14T09:17:53Z</time>
      </trkpt>
      <trkpt lat="47.58192" lon="-2.81617">
        <ele>53</ele>
        <time>2018-04-14T09:17:56Z</time>
      </trkpt>
      <trkpt lat="47.58195" lon="-2.8162">
        <ele>53</ele>
        <time>2018-04-14T09:17:58Z</time>
      </trkpt>
      <trkpt lat="47.58201" lon="-2.81623">
        <ele>53</ele>
        <time>2018-04-14T09:18:02Z</time>
      </trkpt>
      <trkpt lat="47.58207" lon="-2.81629">
        <ele>55</ele>
        <time>2018-04-14T09:18:05Z</time>
      </trkpt>
      <trkpt lat="47.58214" lon="-2.81634">
        <ele>54</ele>
        <time>2018-04-14T09:18:10Z</time>
      </trkpt>
      <trkpt lat="47.58219" lon="-2.81637">
        <ele>54</ele>
        <time>2018-04-14T09:18:14Z</time>
      </trkpt>
      <trkpt lat="47.58223" lon="-2.8164">
        <ele>55</ele>
        <time>2018-04-14T09:18:16Z</time>
      </trkpt>
      <trkpt lat="47.58226" lon="-2.81646">
        <ele>52</ele>
        <time>2018-04-14T09:18:20Z</time>
      </trkpt>
      <trkpt lat="47.5823" lon="-2.81651">
        <ele>50</ele>
        <time>2018-04-14T09:18:24Z</time>
      </trkpt>
      <trkpt lat="47.58234" lon="-2.81654">
        <ele>49</ele>
        <time>2018-04-14T09:18:27Z</time>
      </trkpt>
      <trkpt lat="47.58239" lon="-2.81657">
        <ele>49</ele>
        <time>2018-04-14T09:18:31Z</time>
      </trkpt>
      <trkpt lat="47.58245" lon="-2.81659">
        <ele>49</ele>
        <time>2018-04-14T09:18:34Z</time>
      </trkpt>
      <trkpt lat="47.5825" lon="-2.81663">
        <ele>50</ele>
        <time>2018-04-14T09:18:37Z</time>
      </trkpt>
      <trkpt lat="47.58254" lon="-2.81665">
        <ele>48</ele>
        <time>2018-04-14T09:18:40Z</time>
      </trkpt>
      <trkpt lat="47.5826" lon="-2.8167">
        <ele>50</ele>
        <time>2018-04-14T09:18:43Z</time>
      </trkpt>
      <trkpt lat="47.58265" lon="-2.81675">
        <ele>51</ele>
        <time>2018-04-14T09:18:46Z</time>
      </trkpt>
      <trkpt lat="47.5827" lon="-2.81677">
        <ele>54</ele>
        <time>2018-04-14T09:18:48Z</time>
      </trkpt>
      <trkpt lat="47.58274" lon="-2.81681">
        <ele>55</ele>
        <time>2018-04-14T09:18:51Z</time>
      </trkpt>
      <trkpt lat="47.58278" lon="-2.81685">
        <ele>55</ele>
        <time>2018-04-14T09:18:53Z</time>
      </trkpt>
      <trkpt lat="47.58282" lon="-2.8169">
        <ele>55</ele>
        <time>2018-04-14T09:18:56Z</time>
      </trkpt>
      <trkpt lat="47.58287" lon="-2.81691">
        <ele>54</ele>
        <time>2018-04-14T09:19:00Z</time>
      </trkpt>
      <trkpt lat="47.58291" lon="-2.81695">
        <ele>53</ele>
        <time>2018-04-14T09:19:03Z</time>
      </trkpt>
      <trkpt lat="47.58296" lon="-2.81698">
        <ele>55</ele>
        <time>2018-04-14T09:19:05Z</time>
      </trkpt>
      <trkpt lat="47.583" lon="-2.81703">
        <ele>54</ele>
        <time>2018-04-14T09:19:08Z</time>
      </trkpt>
      <trkpt lat="47.58305" lon="-2.81707">
        <ele>56</ele>
        <time>2018-04-14T09:19:11Z</time>
      </trkpt>
      <trkpt lat="47.58309" lon="-2.81711">
        <ele>56</ele>
        <time>2018-04-14T09:19:14Z</time>
      </trkpt>
      <trkpt lat="47.58313" lon="-2.81714">
        <ele>55</ele>
        <time>2018-04-14T09:19:17Z</time>
      </trkpt>
      <trkpt lat="47.58316" lon="-2.81716">
        <ele>55</ele>
        <time>2018-04-14T09:19:19Z</time>
      </trkpt>
      <trkpt lat="47.5832" lon="-2.81719">
        <ele>55</ele>
        <time>2018-04-14T09:19:21Z</time>
      </trkpt>
      <trkpt lat="47.58325" lon="-2.81722">
        <ele>54</ele>
        <time>2018-04-14T09:19:24Z</time>
      </trkpt>
      <trkpt lat="47.58327" lon="-2.81724">
        <ele>55</ele>
        <time>2018-04-14T09:19:25Z</time>
      </trkpt>
      <trkpt lat="47.5833" lon="-2.81727">
        <ele>55</ele>
        <time>2018-04-14T09:19:27Z</time>
      </trkpt>
      <trkpt lat="47.58333" lon="-2.81729">
        <ele>55</ele>
        <time>2018-04-14T09:19:29Z</time>
      </trkpt>
      <trkpt lat="47.58337" lon="-2.81734">
        <ele>55</ele>
        <time>2018-04-14T09:19:32Z</time>
      </trkpt>
      <trkpt lat="47.58341" lon="-2.81737">
        <ele>55</ele>
        <time>2018-04-14T09:19:34Z</time>
      </trkpt>
      <trkpt lat="47.58345" lon="-2.8174">
        <ele>54</ele>
        <time>2018-04-14T09:19:36Z</time>
      </trkpt>
      <trkpt lat="47.58347" lon="-2.81742">
        <ele>54</ele>
        <time>2018-04-14T09:19:37Z</time>
      </trkpt>
      <trkpt lat="47.58351" lon="-2.81745">
        <ele>53</ele>
        <time>2018-04-14T09:19:39Z</time>
      </trkpt>
      <trkpt lat="47.58356" lon="-2.8175">
        <ele>52</ele>
        <time>2018-04-14T09:19:42Z</time>
      </trkpt>
      <trkpt lat="47.58359" lon="-2.81753">
        <ele>52</ele>
        <time>2018-04-14T09:19:44Z</time>
      </trkpt>
      <trkpt lat="47.58363" lon="-2.81756">
        <ele>53</ele>
        <time>2018-04-14T09:19:46Z</time>
      </trkpt>
      <trkpt lat="47.58366" lon="-2.8176">
        <ele>52</ele>
        <time>2018-04-14T09:19:48Z</time>
      </trkpt>
      <trkpt lat="47.58369" lon="-2.81763">
        <ele>52</ele>
        <time>2018-04-14T09:19:50Z</time>
      </trkpt>
      <trkpt lat="47.58374" lon="-2.81768">
        <ele>52</ele>
        <time>2018-04-14T09:19:53Z</time>
      </trkpt>
      <trkpt lat="47.58377" lon="-2.81771">
        <ele>52</ele>
        <time>2018-04-14T09:19:55Z</time>
      </trkpt>
      <trkpt lat="47.5838" lon="-2.81774">
        <ele>52</ele>
        <time>2018-04-14T09:19:57Z</time>
      </trkpt>
      <trkpt lat="47.58383" lon="-2.81777">
        <ele>52</ele>
        <time>2018-04-14T09:19:59Z</time>
      </trkpt>
      <trkpt lat="47.58386" lon="-2.8178">
        <ele>52</ele>
        <time>2018-04-14T09:20:01Z</time>
      </trkpt>
      <trkpt lat="47.58389" lon="-2.81783">
        <ele>52</ele>
        <time>2018-04-14T09:20:03Z</time>
      </trkpt>
      <trkpt lat="47.58392" lon="-2.81786">
        <ele>51</ele>
        <time>2018-04-14T09:20:05Z</time>
      </trkpt>
      <trkpt lat="47.58394" lon="-2.81789">
        <ele>50</ele>
        <time>2018-04-14T09:20:07Z</time>
      </trkpt>
      <trkpt lat="47.58399" lon="-2.81792">
        <ele>49</ele>
        <time>2018-04-14T09:20:10Z</time>
      </trkpt>
      <trkpt lat="47.58404" lon="-2.81797">
        <ele>48</ele>
        <time>2018-04-14T09:20:13Z</time>
      </trkpt>
      <trkpt lat="47.58408" lon="-2.818">
        <ele>49</ele>
        <time>2018-04-14T09:20:15Z</time>
      </trkpt>
      <trkpt lat="47.5841" lon="-2.81801">
        <ele>48</ele>
        <time>2018-04-14T09:20:17Z</time>
      </trkpt>
      <trkpt lat="47.58414" lon="-2.81805">
        <ele>49</ele>
        <time>2018-04-14T09:20:19Z</time>
      </trkpt>
      <trkpt lat="47.58418" lon="-2.81807">
        <ele>50</ele>
        <time>2018-04-14T09:20:21Z</time>
      </trkpt>
      <trkpt lat="47.5842" lon="-2.81809">
        <ele>49</ele>
        <time>2018-04-14T09:20:22Z</time>
      </trkpt>
      <trkpt lat="47.58424" lon="-2.81812">
        <ele>50</ele>
        <time>2018-04-14T09:20:24Z</time>
      </trkpt>
      <trkpt lat="47.5843" lon="-2.81813">
        <ele>47</ele>
        <time>2018-04-14T09:20:28Z</time>
      </trkpt>
      <trkpt lat="47.58434" lon="-2.81817">
        <ele>46</ele>
        <time>2018-04-14T09:20:31Z</time>
      </trkpt>
      <trkpt lat="47.58438" lon="-2.8182">
        <ele>45</ele>
        <time>2018-04-14T09:20:34Z</time>
      </trkpt>
      <trkpt lat="47.58442" lon="-2.81823">
        <ele>46</ele>
        <time>2018-04-14T09:20:36Z</time>
      </trkpt>
      <trkpt lat="47.58444" lon="-2.81825">
        <ele>47</ele>
        <time>2018-04-14T09:20:37Z</time>
      </trkpt>
      <trkpt lat="47.58447" lon="-2.81828">
        <ele>48</ele>
        <time>2018-04-14T09:20:39Z</time>
      </trkpt>
      <trkpt lat="47.5845" lon="-2.81831">
        <ele>47</ele>
        <time>2018-04-14T09:20:41Z</time>
      </trkpt>
      <trkpt lat="47.58455" lon="-2.81834">
        <ele>49</ele>
        <time>2018-04-14T09:20:44Z</time>
      </trkpt>
      <trkpt lat="47.58458" lon="-2.81836">
        <ele>49</ele>
        <time>2018-04-14T09:20:46Z</time>
      </trkpt>
      <trkpt lat="47.58463" lon="-2.81838">
        <ele>47</ele>
        <time>2018-04-14T09:20:49Z</time>
      </trkpt>
      <trkpt lat="47.58468" lon="-2.81842">
        <ele>47</ele>
        <time>2018-04-14T09:20:52Z</time>
      </trkpt>
      <trkpt lat="47.58473" lon="-2.81845">
        <ele>47</ele>
        <time>2018-04-14T09:20:55Z</time>
      </trkpt>
      <trkpt lat="47.58476" lon="-2.81848">
        <ele>46</ele>
        <time>2018-04-14T09:20:57Z</time>
      </trkpt>
      <trkpt lat="47.58479" lon="-2.81851">
        <ele>47</ele>
        <time>2018-04-14T09:20:59Z</time>
      </trkpt>
      <trkpt lat="47.58484" lon="-2.81855">
        <ele>49</ele>
        <time>2018-04-14T09:21:01Z</time>
      </trkpt>
      <trkpt lat="47.58488" lon="-2.81859">
        <ele>51</ele>
        <time>2018-04-14T09:21:03Z</time>
      </trkpt>
      <trkpt lat="47.58494" lon="-2.81863">
        <ele>52</ele>
        <time>2018-04-14T09:21:06Z</time>
      </trkpt>
      <trkpt lat="47.58499" lon="-2.81867">
        <ele>52</ele>
        <time>2018-04-14T09:21:08Z</time>
      </trkpt>
      <trkpt lat="47.58504" lon="-2.81869">
        <ele>50</ele>
        <time>2018-04-14T09:21:12Z</time>
      </trkpt>
      <trkpt lat="47.5851" lon="-2.81871">
        <ele>49</ele>
        <time>2018-04-14T09:21:15Z</time>
      </trkpt>
      <trkpt lat="47.58512" lon="-2.81872">
        <ele>50</ele>
        <time>2018-04-14T09:21:16Z</time>
      </trkpt>
      <trkpt lat="47.58516" lon="-2.81874">
        <ele>51</ele>
        <time>2018-04-14T09:21:18Z</time>
      </trkpt>
      <trkpt lat="47.5852" lon="-2.81876">
        <ele>51</ele>
        <time>2018-04-14T09:21:20Z</time>
      </trkpt>
      <trkpt lat="47.58524" lon="-2.81877">
        <ele>51</ele>
        <time>2018-04-14T09:21:22Z</time>
      </trkpt>
      <trkpt lat="47.58528" lon="-2.81879">
        <ele>50</ele>
        <time>2018-04-14T09:21:25Z</time>
      </trkpt>
      <trkpt lat="47.58531" lon="-2.81881">
        <ele>49</ele>
        <time>2018-04-14T09:21:27Z</time>
      </trkpt>
      <trkpt lat="47.58536" lon="-2.81884">
        <ele>47</ele>
        <time>2018-04-14T09:21:30Z</time>
      </trkpt>
      <trkpt lat="47.5854" lon="-2.81888">
        <ele>47</ele>
        <time>2018-04-14T09:21:33Z</time>
      </trkpt>
      <trkpt lat="47.58544" lon="-2.81891">
        <ele>47</ele>
        <time>2018-04-14T09:21:36Z</time>
      </trkpt>
      <trkpt lat="47.58547" lon="-2.81893">
        <ele>45</ele>
        <time>2018-04-14T09:21:38Z</time>
      </trkpt>
      <trkpt lat="47.58552" lon="-2.81897">
        <ele>48</ele>
        <time>2018-04-14T09:21:40Z</time>
      </trkpt>
      <trkpt lat="47.58558" lon="-2.81899">
        <ele>45</ele>
        <time>2018-04-14T09:21:44Z</time>
      </trkpt>
      <trkpt lat="47.58563" lon="-2.819">
        <ele>46</ele>
        <time>2018-04-14T09:21:46Z</time>
      </trkpt>
      <trkpt lat="47.5857" lon="-2.81902">
        <ele>46</ele>
        <time>2018-04-14T09:21:49Z</time>
      </trkpt>
      <trkpt lat="47.58574" lon="-2.81904">
        <ele>45</ele>
        <time>2018-04-14T09:21:51Z</time>
      </trkpt>
      <trkpt lat="47.58579" lon="-2.81905">
        <ele>45</ele>
        <time>2018-04-14T09:21:53Z</time>
      </trkpt>
      <trkpt lat="47.58584" lon="-2.81908">
        <ele>44</ele>
        <time>2018-04-14T09:21:56Z</time>
      </trkpt>
      <trkpt lat="47.58588" lon="-2.81909">
        <ele>45</ele>
        <time>2018-04-14T09:21:57Z</time>
      </trkpt>
      <trkpt lat="47.58593" lon="-2.81912">
        <ele>43</ele>
        <time>2018-04-14T09:22:00Z</time>
      </trkpt>
      <trkpt lat="47.58595" lon="-2.81914">
        <ele>45</ele>
        <time>2018-04-14T09:22:01Z</time>
      </trkpt>
      <trkpt lat="47.586" lon="-2.81916">
        <ele>45</ele>
        <time>2018-04-14T09:22:03Z</time>
      </trkpt>
      <trkpt lat="47.58605" lon="-2.81916">
        <ele>45</ele>
        <time>2018-04-14T09:22:05Z</time>
      </trkpt>
      <trkpt lat="47.58608" lon="-2.81916">
        <ele>46</ele>
        <time>2018-04-14T09:22:06Z</time>
      </trkpt>
      <trkpt lat="47.5861" lon="-2.81916">
        <ele>45</ele>
        <time>2018-04-14T09:22:07Z</time>
      </trkpt>
      <trkpt lat="47.58616" lon="-2.81919">
        <ele>45</ele>
        <time>2018-04-14T09:22:10Z</time>
      </trkpt>
      <trkpt lat="47.58621" lon="-2.81921">
        <ele>45</ele>
        <time>2018-04-14T09:22:13Z</time>
      </trkpt>
      <trkpt lat="47.58627" lon="-2.81925">
        <ele>45</ele>
        <time>2018-04-14T09:22:16Z</time>
      </trkpt>
      <trkpt lat="47.58633" lon="-2.81928">
        <ele>45</ele>
        <time>2018-04-14T09:22:19Z</time>
      </trkpt>
      <trkpt lat="47.58638" lon="-2.81931">
        <ele>46</ele>
        <time>2018-04-14T09:22:21Z</time>
      </trkpt>
      <trkpt lat="47.58643" lon="-2.81933">
        <ele>47</ele>
        <time>2018-04-14T09:22:23Z</time>
      </trkpt>
      <trkpt lat="47.58646" lon="-2.81934">
        <ele>44</ele>
        <time>2018-04-14T09:22:25Z</time>
      </trkpt>
      <trkpt lat="47.58653" lon="-2.81936">
        <ele>42</ele>
        <time>2018-04-14T09:22:28Z</time>
      </trkpt>
      <trkpt lat="47.58661" lon="-2.81937">
        <ele>45</ele>
        <time>2018-04-14T09:22:30Z</time>
      </trkpt>
      <trkpt lat="47.58667" lon="-2.81942">
        <ele>46</ele>
        <time>2018-04-14T09:22:33Z</time>
      </trkpt>
      <trkpt lat="47.58672" lon="-2.81945">
        <ele>47</ele>
        <time>2018-04-14T09:22:35Z</time>
      </trkpt>
      <trkpt lat="47.58676" lon="-2.81946">
        <ele>47</ele>
        <time>2018-04-14T09:22:38Z</time>
      </trkpt>
      <trkpt lat="47.58681" lon="-2.8195">
        <ele>47</ele>
        <time>2018-04-14T09:22:40Z</time>
      </trkpt>
      <trkpt lat="47.58683" lon="-2.81952">
        <ele>47</ele>
        <time>2018-04-14T09:22:41Z</time>
      </trkpt>
      <trkpt lat="47.58689" lon="-2.81955">
        <ele>46</ele>
        <time>2018-04-14T09:22:44Z</time>
      </trkpt>
      <trkpt lat="47.58695" lon="-2.81958">
        <ele>45</ele>
        <time>2018-04-14T09:22:47Z</time>
      </trkpt>
      <trkpt lat="47.58701" lon="-2.81962">
        <ele>45</ele>
        <time>2018-04-14T09:22:50Z</time>
      </trkpt>
      <trkpt lat="47.58703" lon="-2.81964">
        <ele>44</ele>
        <time>2018-04-14T09:22:52Z</time>
      </trkpt>
      <trkpt lat="47.58709" lon="-2.81966">
        <ele>45</ele>
        <time>2018-04-14T09:22:56Z</time>
      </trkpt>
      <trkpt lat="47.58714" lon="-2.81968">
        <ele>48</ele>
        <time>2018-04-14T09:22:59Z</time>
      </trkpt>
      <trkpt lat="47.58719" lon="-2.81974">
        <ele>47</ele>
        <time>2018-04-14T09:23:04Z</time>
      </trkpt>
      <trkpt lat="47.58724" lon="-2.81975">
        <ele>49</ele>
        <time>2018-04-14T09:23:08Z</time>
      </trkpt>
      <trkpt lat="47.58728" lon="-2.81976">
        <ele>53</ele>
        <time>2018-04-14T09:23:13Z</time>
      </trkpt>
      <trkpt lat="47.58733" lon="-2.81979">
        <ele>52</ele>
        <time>2018-04-14T09:23:19Z</time>
      </trkpt>
      <trkpt lat="47.58737" lon="-2.81977">
        <ele>52</ele>
        <time>2018-04-14T09:23:24Z</time>
      </trkpt>
      <trkpt lat="47.58742" lon="-2.81976">
        <ele>48</ele>
        <time>2018-04-14T09:23:31Z</time>
      </trkpt>
      <trkpt lat="47.58747" lon="-2.81974">
        <ele>48</ele>
        <time>2018-04-14T09:23:38Z</time>
      </trkpt>
      <trkpt lat="47.58751" lon="-2.8197">
        <ele>49</ele>
        <time>2018-04-14T09:23:49Z</time>
      </trkpt>
      <trkpt lat="47.58753" lon="-2.81968">
        <ele>48</ele>
        <time>2018-04-14T09:23:53Z</time>
      </trkpt>
      <trkpt lat="47.58756" lon="-2.81964">
        <ele>49</ele>
        <time>2018-04-14T09:24:01Z</time>
      </trkpt>
      <trkpt lat="47.58762" lon="-2.8197">
        <ele>48</ele>
        <time>2018-04-14T09:24:42Z</time>
      </trkpt>
      <trkpt lat="47.58767" lon="-2.81969">
        <ele>48</ele>
        <time>2018-04-14T09:24:47Z</time>
      </trkpt>
      <trkpt lat="47.5877" lon="-2.81968">
        <ele>48</ele>
        <time>2018-04-14T09:24:51Z</time>
      </trkpt>
      <trkpt lat="47.58774" lon="-2.81972">
        <ele>48</ele>
        <time>2018-04-14T09:24:56Z</time>
      </trkpt>
      <trkpt lat="47.58778" lon="-2.81975">
        <ele>49</ele>
        <time>2018-04-14T09:25:01Z</time>
      </trkpt>
      <trkpt lat="47.58778" lon="-2.81975">
        <ele>49</ele>
        <time>2018-04-14T09:25:08Z</time>
      </trkpt>
      <trkpt lat="47.58778" lon="-2.81975">
        <time>2018-04-14T09:25:08Z</time>
      </trkpt>
      <trkpt lat="47.58778" lon="-2.81975">
        <time>2018-04-14T09:26:14Z</time>
      </trkpt>
      <trkpt lat="47.58801" lon="-2.81954">
        <ele>45</ele>
        <time>2018-04-14T09:26:14Z</time>
      </trkpt>
      <trkpt lat="47.58806" lon="-2.81952">
        <ele>44</ele>
        <time>2018-04-14T09:26:19Z</time>
      </trkpt>
      <trkpt lat="47.58811" lon="-2.81953">
        <ele>44</ele>
        <time>2018-04-14T09:26:25Z</time>
      </trkpt>
      <trkpt lat="47.58814" lon="-2.81953">
        <ele>45</ele>
        <time>2018-04-14T09:26:29Z</time>
      </trkpt>
      <trkpt lat="47.5882" lon="-2.81954">
        <ele>45</ele>
        <time>2018-04-14T09:26:35Z</time>
      </trkpt>
      <trkpt lat="47.58824" lon="-2.81955">
        <ele>45</ele>
        <time>2018-04-14T09:26:38Z</time>
      </trkpt>
      <trkpt lat="47.58828" lon="-2.81957">
        <ele>48</ele>
        <time>2018-04-14T09:26:44Z</time>
      </trkpt>
      <trkpt lat="47.58834" lon="-2.81957">
        <ele>47</ele>
        <time>2018-04-14T09:26:52Z</time>
      </trkpt>
      <trkpt lat="47.58837" lon="-2.81957">
        <ele>47</ele>
        <time>2018-04-14T09:26:59Z</time>
      </trkpt>
      <trkpt lat="47.58841" lon="-2.81961">
        <ele>47</ele>
        <time>2018-04-14T09:27:05Z</time>
      </trkpt>
      <trkpt lat="47.58846" lon="-2.81964">
        <ele>46</ele>
        <time>2018-04-14T09:27:08Z</time>
      </trkpt>
      <trkpt lat="47.58852" lon="-2.81967">
        <ele>47</ele>
        <time>2018-04-14T09:27:11Z</time>
      </trkpt>
      <trkpt lat="47.58858" lon="-2.81968">
        <ele>48</ele>
        <time>2018-04-14T09:27:14Z</time>
      </trkpt>
      <trkpt lat="47.58862" lon="-2.81968">
        <ele>48</ele>
        <time>2018-04-14T09:27:16Z</time>
      </trkpt>
      <trkpt lat="47.58868" lon="-2.8197">
        <ele>46</ele>
        <time>2018-04-14T09:27:19Z</time>
      </trkpt>
      <trkpt lat="47.58872" lon="-2.8197">
        <ele>46</ele>
        <time>2018-04-14T09:27:22Z</time>
      </trkpt>
      <trkpt lat="47.58876" lon="-2.81971">
        <ele>45</ele>
        <time>2018-04-14T09:27:24Z</time>
      </trkpt>
      <trkpt lat="47.58881" lon="-2.81972">
        <ele>45</ele>
        <time>2018-04-14T09:27:26Z</time>
      </trkpt>
      <trkpt lat="47.58887" lon="-2.81976">
        <ele>45</ele>
        <time>2018-04-14T09:27:29Z</time>
      </trkpt>
      <trkpt lat="47.58892" lon="-2.81977">
        <ele>47</ele>
        <time>2018-04-14T09:27:31Z</time>
      </trkpt>
      <trkpt lat="47.58896" lon="-2.81978">
        <ele>46</ele>
        <time>2018-04-14T09:27:33Z</time>
      </trkpt>
      <trkpt lat="47.58902" lon="-2.8198">
        <ele>47</ele>
        <time>2018-04-14T09:27:36Z</time>
      </trkpt>
      <trkpt lat="47.58905" lon="-2.81981">
        <ele>47</ele>
        <time>2018-04-14T09:27:38Z</time>
      </trkpt>
      <trkpt lat="47.58911" lon="-2.81981">
        <ele>46</ele>
        <time>2018-04-14T09:27:41Z</time>
      </trkpt>
      <trkpt lat="47.58916" lon="-2.81983">
        <ele>44</ele>
        <time>2018-04-14T09:27:44Z</time>
      </trkpt>
      <trkpt lat="47.58918" lon="-2.81984">
        <ele>45</ele>
        <time>2018-04-14T09:27:45Z</time>
      </trkpt>
      <trkpt lat="47.58924" lon="-2.81985">
        <ele>45</ele>
        <time>2018-04-14T09:27:48Z</time>
      </trkpt>
      <trkpt lat="47.58927" lon="-2.81985">
        <ele>46</ele>
        <time>2018-04-14T09:27:49Z</time>
      </trkpt>
      <trkpt lat="47.58932" lon="-2.81986">
        <ele>48</ele>
        <time>2018-04-14T09:27:51Z</time>
      </trkpt>
      <trkpt lat="47.58937" lon="-2.81986">
        <ele>47</ele>
        <time>2018-04-14T09:27:54Z</time>
      </trkpt>
      <trkpt lat="47.58944" lon="-2.81986">
        <ele>43</ele>
        <time>2018-04-14T09:27:58Z</time>
      </trkpt>
      <trkpt lat="47.58951" lon="-2.81988">
        <ele>45</ele>
        <time>2018-04-14T09:28:01Z</time>
      </trkpt>
      <trkpt lat="47.5896" lon="-2.81991">
        <ele>46</ele>
        <time>2018-04-14T09:28:04Z</time>
      </trkpt>
      <trkpt lat="47.58963" lon="-2.81992">
        <ele>48</ele>
        <time>2018-04-14T09:28:05Z</time>
      </trkpt>
      <trkpt lat="47.58969" lon="-2.81993">
        <ele>48</ele>
        <time>2018-04-14T09:28:07Z</time>
      </trkpt>
      <trkpt lat="47.58972" lon="-2.81994">
        <ele>46</ele>
        <time>2018-04-14T09:28:09Z</time>
      </trkpt>
      <trkpt lat="47.58979" lon="-2.81996">
        <ele>47</ele>
        <time>2018-04-14T09:28:12Z</time>
      </trkpt>
      <trkpt lat="47.58982" lon="-2.81996">
        <ele>47</ele>
        <time>2018-04-14T09:28:13Z</time>
      </trkpt>
      <trkpt lat="47.58984" lon="-2.81997">
        <ele>48</ele>
        <time>2018-04-14T09:28:14Z</time>
      </trkpt>
      <trkpt lat="47.5899" lon="-2.82001">
        <ele>50</ele>
        <time>2018-04-14T09:28:17Z</time>
      </trkpt>
      <trkpt lat="47.58996" lon="-2.82004">
        <ele>49</ele>
        <time>2018-04-14T09:28:20Z</time>
      </trkpt>
      <trkpt lat="47.59002" lon="-2.82002">
        <ele>45</ele>
        <time>2018-04-14T09:28:24Z</time>
      </trkpt>
      <trkpt lat="47.59008" lon="-2.82004">
        <ele>45</ele>
        <time>2018-04-14T09:28:27Z</time>
      </trkpt>
      <trkpt lat="47.59012" lon="-2.82006">
        <ele>48</ele>
        <time>2018-04-14T09:28:29Z</time>
      </trkpt>
      <trkpt lat="47.59015" lon="-2.82008">
        <ele>48</ele>
        <time>2018-04-14T09:28:31Z</time>
      </trkpt>
      <trkpt lat="47.59022" lon="-2.82013">
        <ele>45</ele>
        <time>2018-04-14T09:28:36Z</time>
      </trkpt>
      <trkpt lat="47.59028" lon="-2.82015">
        <ele>46</ele>
        <time>2018-04-14T09:28:39Z</time>
      </trkpt>
      <trkpt lat="47.59033" lon="-2.82016">
        <ele>42</ele>
        <time>2018-04-14T09:28:42Z</time>
      </trkpt>
      <trkpt lat="47.59037" lon="-2.82019">
        <ele>42</ele>
        <time>2018-04-14T09:28:44Z</time>
      </trkpt>
      <trkpt lat="47.59043" lon="-2.8202">
        <ele>43</ele>
        <time>2018-04-14T09:28:47Z</time>
      </trkpt>
      <trkpt lat="47.5905" lon="-2.82023">
        <ele>42</ele>
        <time>2018-04-14T09:28:51Z</time>
      </trkpt>
      <trkpt lat="47.59054" lon="-2.82025">
        <ele>41</ele>
        <time>2018-04-14T09:28:53Z</time>
      </trkpt>
      <trkpt lat="47.59058" lon="-2.82027">
        <ele>40</ele>
        <time>2018-04-14T09:28:55Z</time>
      </trkpt>
      <trkpt lat="47.59061" lon="-2.82028">
        <ele>42</ele>
        <time>2018-04-14T09:28:57Z</time>
      </trkpt>
      <trkpt lat="47.59068" lon="-2.8203">
        <ele>45</ele>
        <time>2018-04-14T09:28:59Z</time>
      </trkpt>
      <trkpt lat="47.59071" lon="-2.82031">
        <ele>45</ele>
        <time>2018-04-14T09:29:01Z</time>
      </trkpt>
      <trkpt lat="47.59073" lon="-2.82031">
        <ele>45</ele>
        <time>2018-04-14T09:29:03Z</time>
      </trkpt>
      <trkpt lat="47.59077" lon="-2.82032">
        <ele>44</ele>
        <time>2018-04-14T09:29:05Z</time>
      </trkpt>
      <trkpt lat="47.59082" lon="-2.82036">
        <ele>44</ele>
        <time>2018-04-14T09:29:08Z</time>
      </trkpt>
      <trkpt lat="47.59085" lon="-2.82038">
        <ele>44</ele>
        <time>2018-04-14T09:29:10Z</time>
      </trkpt>
      <trkpt lat="47.59089" lon="-2.8204">
        <ele>42</ele>
        <time>2018-04-14T09:29:13Z</time>
      </trkpt>
      <trkpt lat="47.59092" lon="-2.82042">
        <ele>42</ele>
        <time>2018-04-14T09:29:15Z</time>
      </trkpt>
      <trkpt lat="47.59097" lon="-2.82044">
        <ele>41</ele>
        <time>2018-04-14T09:29:18Z</time>
      </trkpt>
      <trkpt lat="47.591" lon="-2.82045">
        <ele>41</ele>
        <time>2018-04-14T09:29:20Z</time>
      </trkpt>
      <trkpt lat="47.59106" lon="-2.82046">
        <ele>40</ele>
        <time>2018-04-14T09:29:23Z</time>
      </trkpt>
      <trkpt lat="47.59111" lon="-2.82048">
        <ele>40</ele>
        <time>2018-04-14T09:29:26Z</time>
      </trkpt>
      <trkpt lat="47.59117" lon="-2.82051">
        <ele>34</ele>
        <time>2018-04-14T09:29:31Z</time>
      </trkpt>
      <trkpt lat="47.5912" lon="-2.82053">
        <ele>36</ele>
        <time>2018-04-14T09:29:32Z</time>
      </trkpt>
      <trkpt lat="47.59127" lon="-2.82058">
        <ele>37</ele>
        <time>2018-04-14T09:29:35Z</time>
      </trkpt>
      <trkpt lat="47.59132" lon="-2.82058">
        <ele>35</ele>
        <time>2018-04-14T09:29:38Z</time>
      </trkpt>
      <trkpt lat="47.59138" lon="-2.82061">
        <ele>37</ele>
        <time>2018-04-14T09:29:41Z</time>
      </trkpt>
      <trkpt lat="47.59141" lon="-2.82063">
        <ele>37</ele>
        <time>2018-04-14T09:29:43Z</time>
      </trkpt>
      <trkpt lat="47.59145" lon="-2.82066">
        <ele>37</ele>
        <time>2018-04-14T09:29:45Z</time>
      </trkpt>
      <trkpt lat="47.59152" lon="-2.82068">
        <ele>37</ele>
        <time>2018-04-14T09:29:49Z</time>
      </trkpt>
      <trkpt lat="47.59155" lon="-2.82069">
        <ele>39</ele>
        <time>2018-04-14T09:29:50Z</time>
      </trkpt>
      <trkpt lat="47.59159" lon="-2.8207">
        <ele>41</ele>
        <time>2018-04-14T09:29:52Z</time>
      </trkpt>
      <trkpt lat="47.59164" lon="-2.82073">
        <ele>44</ele>
        <time>2018-04-14T09:29:54Z</time>
      </trkpt>
      <trkpt lat="47.59169" lon="-2.82077">
        <ele>44</ele>
        <time>2018-04-14T09:29:57Z</time>
      </trkpt>
      <trkpt lat="47.59173" lon="-2.8208">
        <ele>44</ele>
        <time>2018-04-14T09:29:59Z</time>
      </trkpt>
      <trkpt lat="47.59179" lon="-2.82083">
        <ele>45</ele>
        <time>2018-04-14T09:30:02Z</time>
      </trkpt>
      <trkpt lat="47.59184" lon="-2.82088">
        <ele>43</ele>
        <time>2018-04-14T09:30:05Z</time>
      </trkpt>
      <trkpt lat="47.59191" lon="-2.82092">
        <ele>43</ele>
        <time>2018-04-14T09:30:08Z</time>
      </trkpt>
      <trkpt lat="47.59197" lon="-2.82096">
        <ele>43</ele>
        <time>2018-04-14T09:30:11Z</time>
      </trkpt>
      <trkpt lat="47.59203" lon="-2.82099">
        <ele>45</ele>
        <time>2018-04-14T09:30:14Z</time>
      </trkpt>
      <trkpt lat="47.59209" lon="-2.82101">
        <ele>44</ele>
        <time>2018-04-14T09:30:18Z</time>
      </trkpt>
      <trkpt lat="47.59215" lon="-2.82105">
        <ele>44</ele>
        <time>2018-04-14T09:30:21Z</time>
      </trkpt>
      <trkpt lat="47.59217" lon="-2.82106">
        <ele>45</ele>
        <time>2018-04-14T09:30:22Z</time>
      </trkpt>
      <trkpt lat="47.59223" lon="-2.8211">
        <ele>46</ele>
        <time>2018-04-14T09:30:25Z</time>
      </trkpt>
      <trkpt lat="47.59227" lon="-2.82112">
        <ele>47</ele>
        <time>2018-04-14T09:30:27Z</time>
      </trkpt>
      <trkpt lat="47.59231" lon="-2.82118">
        <ele>47</ele>
        <time>2018-04-14T09:30:30Z</time>
      </trkpt>
      <trkpt lat="47.59236" lon="-2.82122">
        <ele>46</ele>
        <time>2018-04-14T09:30:33Z</time>
      </trkpt>
      <trkpt lat="47.59242" lon="-2.82124">
        <ele>44</ele>
        <time>2018-04-14T09:30:37Z</time>
      </trkpt>
      <trkpt lat="47.59247" lon="-2.82128">
        <ele>46</ele>
        <time>2018-04-14T09:30:39Z</time>
      </trkpt>
      <trkpt lat="47.5925" lon="-2.82131">
        <ele>46</ele>
        <time>2018-04-14T09:30:41Z</time>
      </trkpt>
      <trkpt lat="47.59255" lon="-2.82135">
        <ele>45</ele>
        <time>2018-04-14T09:30:44Z</time>
      </trkpt>
      <trkpt lat="47.5926" lon="-2.8214">
        <ele>46</ele>
        <time>2018-04-14T09:30:47Z</time>
      </trkpt>
      <trkpt lat="47.59263" lon="-2.82144">
        <ele>45</ele>
        <time>2018-04-14T09:30:50Z</time>
      </trkpt>
      <trkpt lat="47.59267" lon="-2.82149">
        <ele>44</ele>
        <time>2018-04-14T09:30:53Z</time>
      </trkpt>
      <trkpt lat="47.59271" lon="-2.82152">
        <ele>44</ele>
        <time>2018-04-14T09:30:55Z</time>
      </trkpt>
      <trkpt lat="47.59276" lon="-2.82156">
        <ele>42</ele>
        <time>2018-04-14T09:30:58Z</time>
      </trkpt>
      <trkpt lat="47.59278" lon="-2.82158">
        <ele>42</ele>
        <time>2018-04-14T09:30:59Z</time>
      </trkpt>
      <trkpt lat="47.59282" lon="-2.82162">
        <ele>44</ele>
        <time>2018-04-14T09:31:01Z</time>
      </trkpt>
      <trkpt lat="47.59286" lon="-2.82165">
        <ele>45</ele>
        <time>2018-04-14T09:31:03Z</time>
      </trkpt>
      <trkpt lat="47.59291" lon="-2.82166">
        <ele>45</ele>
        <time>2018-04-14T09:31:06Z</time>
      </trkpt>
      <trkpt lat="47.59298" lon="-2.82171">
        <ele>45</ele>
        <time>2018-04-14T09:31:09Z</time>
      </trkpt>
      <trkpt lat="47.59304" lon="-2.82175">
        <ele>47</ele>
        <time>2018-04-14T09:31:12Z</time>
      </trkpt>
      <trkpt lat="47.59308" lon="-2.82178">
        <ele>47</ele>
        <time>2018-04-14T09:31:14Z</time>
      </trkpt>
      <trkpt lat="47.59312" lon="-2.82181">
        <ele>48</ele>
        <time>2018-04-14T09:31:16Z</time>
      </trkpt>
      <trkpt lat="47.59316" lon="-2.82184">
        <ele>46</ele>
        <time>2018-04-14T09:31:19Z</time>
      </trkpt>
      <trkpt lat="47.59321" lon="-2.82187">
        <ele>46</ele>
        <time>2018-04-14T09:31:22Z</time>
      </trkpt>
      <trkpt lat="47.59326" lon="-2.82192">
        <ele>47</ele>
        <time>2018-04-14T09:31:25Z</time>
      </trkpt>
      <trkpt lat="47.5933" lon="-2.82194">
        <ele>46</ele>
        <time>2018-04-14T09:31:27Z</time>
      </trkpt>
      <trkpt lat="47.59334" lon="-2.82198">
        <ele>49</ele>
        <time>2018-04-14T09:31:30Z</time>
      </trkpt>
      <trkpt lat="47.59339" lon="-2.82204">
        <ele>49</ele>
        <time>2018-04-14T09:31:33Z</time>
      </trkpt>
      <trkpt lat="47.59343" lon="-2.82207">
        <ele>49</ele>
        <time>2018-04-14T09:31:35Z</time>
      </trkpt>
      <trkpt lat="47.59347" lon="-2.82209">
        <ele>49</ele>
        <time>2018-04-14T09:31:37Z</time>
      </trkpt>
      <trkpt lat="47.59352" lon="-2.82211">
        <ele>48</ele>
        <time>2018-04-14T09:31:40Z</time>
      </trkpt>
      <trkpt lat="47.59358" lon="-2.82216">
        <ele>49</ele>
        <time>2018-04-14T09:31:43Z</time>
      </trkpt>
      <trkpt lat="47.59363" lon="-2.82219">
        <ele>49</ele>
        <time>2018-04-14T09:31:46Z</time>
      </trkpt>
      <trkpt lat="47.59365" lon="-2.8222">
        <ele>48</ele>
        <time>2018-04-14T09:31:47Z</time>
      </trkpt>
      <trkpt lat="47.59369" lon="-2.82223">
        <ele>48</ele>
        <time>2018-04-14T09:31:49Z</time>
      </trkpt>
      <trkpt lat="47.59375" lon="-2.82227">
        <ele>47</ele>
        <time>2018-04-14T09:31:52Z</time>
      </trkpt>
      <trkpt lat="47.59378" lon="-2.82229">
        <ele>48</ele>
        <time>2018-04-14T09:31:54Z</time>
      </trkpt>
      <trkpt lat="47.59383" lon="-2.82233">
        <ele>47</ele>
        <time>2018-04-14T09:31:57Z</time>
      </trkpt>
      <trkpt lat="47.59388" lon="-2.82237">
        <ele>42</ele>
        <time>2018-04-14T09:32:02Z</time>
      </trkpt>
      <trkpt lat="47.59391" lon="-2.82239">
        <ele>42</ele>
        <time>2018-04-14T09:32:04Z</time>
      </trkpt>
      <trkpt lat="47.59396" lon="-2.82245">
        <ele>41</ele>
        <time>2018-04-14T09:32:07Z</time>
      </trkpt>
      <trkpt lat="47.59402" lon="-2.82249">
        <ele>42</ele>
        <time>2018-04-14T09:32:10Z</time>
      </trkpt>
      <trkpt lat="47.59407" lon="-2.82253">
        <ele>41</ele>
        <time>2018-04-14T09:32:13Z</time>
      </trkpt>
      <trkpt lat="47.59412" lon="-2.82256">
        <ele>42</ele>
        <time>2018-04-14T09:32:16Z</time>
      </trkpt>
      <trkpt lat="47.59418" lon="-2.82259">
        <ele>45</ele>
        <time>2018-04-14T09:32:19Z</time>
      </trkpt>
      <trkpt lat="47.59423" lon="-2.82264">
        <ele>45</ele>
        <time>2018-04-14T09:32:23Z</time>
      </trkpt>
      <trkpt lat="47.59425" lon="-2.82266">
        <ele>44</ele>
        <time>2018-04-14T09:32:25Z</time>
      </trkpt>
      <trkpt lat="47.5943" lon="-2.82269">
        <ele>44</ele>
        <time>2018-04-14T09:32:28Z</time>
      </trkpt>
      <trkpt lat="47.59433" lon="-2.82271">
        <ele>44</ele>
        <time>2018-04-14T09:32:30Z</time>
      </trkpt>
      <trkpt lat="47.59437" lon="-2.82275">
        <ele>45</ele>
        <time>2018-04-14T09:32:32Z</time>
      </trkpt>
      <trkpt lat="47.59444" lon="-2.8228">
        <ele>47</ele>
        <time>2018-04-14T09:32:35Z</time>
      </trkpt>
      <trkpt lat="47.59447" lon="-2.82285">
        <ele>46</ele>
        <time>2018-04-14T09:32:38Z</time>
      </trkpt>
      <trkpt lat="47.59453" lon="-2.82291">
        <ele>47</ele>
        <time>2018-04-14T09:32:41Z</time>
      </trkpt>
      <trkpt lat="47.59458" lon="-2.82295">
        <ele>46</ele>
        <time>2018-04-14T09:32:44Z</time>
      </trkpt>
      <trkpt lat="47.59463" lon="-2.82301">
        <ele>47</ele>
        <time>2018-04-14T09:32:47Z</time>
      </trkpt>
      <trkpt lat="47.59466" lon="-2.82305">
        <ele>46</ele>
        <time>2018-04-14T09:32:49Z</time>
      </trkpt>
      <trkpt lat="47.59468" lon="-2.8231">
        <ele>45</ele>
        <time>2018-04-14T09:32:51Z</time>
      </trkpt>
      <trkpt lat="47.59475" lon="-2.82319">
        <ele>46</ele>
        <time>2018-04-14T09:32:55Z</time>
      </trkpt>
      <trkpt lat="47.5948" lon="-2.82322">
        <ele>47</ele>
        <time>2018-04-14T09:32:58Z</time>
      </trkpt>
      <trkpt lat="47.59483" lon="-2.82327">
        <ele>45</ele>
        <time>2018-04-14T09:33:00Z</time>
      </trkpt>
      <trkpt lat="47.59485" lon="-2.8233">
        <ele>45</ele>
        <time>2018-04-14T09:33:01Z</time>
      </trkpt>
      <trkpt lat="47.59489" lon="-2.82333">
        <ele>46</ele>
        <time>2018-04-14T09:33:03Z</time>
      </trkpt>
      <trkpt lat="47.59493" lon="-2.82337">
        <ele>47</ele>
        <time>2018-04-14T09:33:04Z</time>
      </trkpt>
      <trkpt lat="47.59498" lon="-2.82341">
        <ele>48</ele>
        <time>2018-04-14T09:33:06Z</time>
      </trkpt>
      <trkpt lat="47.59501" lon="-2.82346">
        <ele>47</ele>
        <time>2018-04-14T09:33:08Z</time>
      </trkpt>
      <trkpt lat="47.59505" lon="-2.82351">
        <ele>47</ele>
        <time>2018-04-14T09:33:10Z</time>
      </trkpt>
      <trkpt lat="47.59509" lon="-2.82357">
        <ele>48</ele>
        <time>2018-04-14T09:33:12Z</time>
      </trkpt>
      <trkpt lat="47.5951" lon="-2.82359">
        <ele>48</ele>
        <time>2018-04-14T09:33:13Z</time>
      </trkpt>
      <trkpt lat="47.59514" lon="-2.82367">
        <ele>47</ele>
        <time>2018-04-14T09:33:16Z</time>
      </trkpt>
      <trkpt lat="47.5952" lon="-2.82372">
        <ele>47</ele>
        <time>2018-04-14T09:33:19Z</time>
      </trkpt>
      <trkpt lat="47.59527" lon="-2.82378">
        <ele>48</ele>
        <time>2018-04-14T09:33:22Z</time>
      </trkpt>
      <trkpt lat="47.59531" lon="-2.82381">
        <ele>46</ele>
        <time>2018-04-14T09:33:24Z</time>
      </trkpt>
      <trkpt lat="47.59533" lon="-2.82383">
        <ele>45</ele>
        <time>2018-04-14T09:33:25Z</time>
      </trkpt>
      <trkpt lat="47.59537" lon="-2.82388">
        <ele>44</ele>
        <time>2018-04-14T09:33:27Z</time>
      </trkpt>
      <trkpt lat="47.59541" lon="-2.82394">
        <ele>45</ele>
        <time>2018-04-14T09:33:29Z</time>
      </trkpt>
      <trkpt lat="47.59547" lon="-2.82402">
        <ele>46</ele>
        <time>2018-04-14T09:33:32Z</time>
      </trkpt>
      <trkpt lat="47.59551" lon="-2.82408">
        <ele>45</ele>
        <time>2018-04-14T09:33:35Z</time>
      </trkpt>
      <trkpt lat="47.59556" lon="-2.82411">
        <ele>46</ele>
        <time>2018-04-14T09:33:37Z</time>
      </trkpt>
      <trkpt lat="47.59559" lon="-2.82414">
        <ele>47</ele>
        <time>2018-04-14T09:33:39Z</time>
      </trkpt>
      <trkpt lat="47.59564" lon="-2.82416">
        <ele>46</ele>
        <time>2018-04-14T09:33:41Z</time>
      </trkpt>
      <trkpt lat="47.59569" lon="-2.8242">
        <ele>45</ele>
        <time>2018-04-14T09:33:44Z</time>
      </trkpt>
      <trkpt lat="47.59576" lon="-2.82427">
        <ele>45</ele>
        <time>2018-04-14T09:33:48Z</time>
      </trkpt>
      <trkpt lat="47.5958" lon="-2.82433">
        <ele>46</ele>
        <time>2018-04-14T09:33:50Z</time>
      </trkpt>
      <trkpt lat="47.59585" lon="-2.82441">
        <ele>46</ele>
        <time>2018-04-14T09:33:53Z</time>
      </trkpt>
      <trkpt lat="47.59588" lon="-2.82445">
        <ele>44</ele>
        <time>2018-04-14T09:33:55Z</time>
      </trkpt>
      <trkpt lat="47.59591" lon="-2.8245">
        <ele>42</ele>
        <time>2018-04-14T09:33:57Z</time>
      </trkpt>
      <trkpt lat="47.59593" lon="-2.82452">
        <ele>42</ele>
        <time>2018-04-14T09:33:58Z</time>
      </trkpt>
      <trkpt lat="47.59597" lon="-2.82456">
        <ele>44</ele>
        <time>2018-04-14T09:34:00Z</time>
      </trkpt>
      <trkpt lat="47.59605" lon="-2.82462">
        <ele>46</ele>
        <time>2018-04-14T09:34:03Z</time>
      </trkpt>
      <trkpt lat="47.59608" lon="-2.82467">
        <ele>47</ele>
        <time>2018-04-14T09:34:05Z</time>
      </trkpt>
      <trkpt lat="47.59614" lon="-2.82471">
        <ele>45</ele>
        <time>2018-04-14T09:34:08Z</time>
      </trkpt>
      <trkpt lat="47.59618" lon="-2.82476">
        <ele>47</ele>
        <time>2018-04-14T09:34:10Z</time>
      </trkpt>
      <trkpt lat="47.59621" lon="-2.82479">
        <ele>44</ele>
        <time>2018-04-14T09:34:12Z</time>
      </trkpt>
      <trkpt lat="47.59626" lon="-2.82487">
        <ele>45</ele>
        <time>2018-04-14T09:34:15Z</time>
      </trkpt>
      <trkpt lat="47.59631" lon="-2.82492">
        <ele>39</ele>
        <time>2018-04-14T09:34:18Z</time>
      </trkpt>
      <trkpt lat="47.59636" lon="-2.82496">
        <ele>41</ele>
        <time>2018-04-14T09:34:21Z</time>
      </trkpt>
      <trkpt lat="47.59639" lon="-2.82499">
        <ele>43</ele>
        <time>2018-04-14T09:34:22Z</time>
      </trkpt>
      <trkpt lat="47.59643" lon="-2.82503">
        <ele>45</ele>
        <time>2018-04-14T09:34:24Z</time>
      </trkpt>
      <trkpt lat="47.59647" lon="-2.82507">
        <ele>45</ele>
        <time>2018-04-14T09:34:26Z</time>
      </trkpt>
      <trkpt lat="47.59652" lon="-2.82511">
        <ele>45</ele>
        <time>2018-04-14T09:34:29Z</time>
      </trkpt>
      <trkpt lat="47.59657" lon="-2.82517">
        <ele>46</ele>
        <time>2018-04-14T09:34:32Z</time>
      </trkpt>
      <trkpt lat="47.59661" lon="-2.82522">
        <ele>46</ele>
        <time>2018-04-14T09:34:34Z</time>
      </trkpt>
      <trkpt lat="47.59665" lon="-2.82527">
        <ele>46</ele>
        <time>2018-04-14T09:34:36Z</time>
      </trkpt>
      <trkpt lat="47.59668" lon="-2.82532">
        <ele>47</ele>
        <time>2018-04-14T09:34:38Z</time>
      </trkpt>
      <trkpt lat="47.59673" lon="-2.82537">
        <ele>46</ele>
        <time>2018-04-14T09:34:41Z</time>
      </trkpt>
      <trkpt lat="47.59675" lon="-2.82539">
        <ele>46</ele>
        <time>2018-04-14T09:34:42Z</time>
      </trkpt>
      <trkpt lat="47.59678" lon="-2.82541">
        <ele>47</ele>
        <time>2018-04-14T09:34:43Z</time>
      </trkpt>
      <trkpt lat="47.5968" lon="-2.82543">
        <ele>46</ele>
        <time>2018-04-14T09:34:44Z</time>
      </trkpt>
      <trkpt lat="47.59683" lon="-2.82547">
        <ele>45</ele>
        <time>2018-04-14T09:34:46Z</time>
      </trkpt>
      <trkpt lat="47.59689" lon="-2.82551">
        <ele>46</ele>
        <time>2018-04-14T09:34:49Z</time>
      </trkpt>
      <trkpt lat="47.59694" lon="-2.82557">
        <ele>45</ele>
        <time>2018-04-14T09:34:52Z</time>
      </trkpt>
      <trkpt lat="47.59697" lon="-2.82561">
        <ele>46</ele>
        <time>2018-04-14T09:34:54Z</time>
      </trkpt>
      <trkpt lat="47.597" lon="-2.82566">
        <ele>44</ele>
        <time>2018-04-14T09:34:56Z</time>
      </trkpt>
      <trkpt lat="47.59705" lon="-2.8257">
        <ele>44</ele>
        <time>2018-04-14T09:34:58Z</time>
      </trkpt>
      <trkpt lat="47.59709" lon="-2.82574">
        <ele>43</ele>
        <time>2018-04-14T09:35:01Z</time>
      </trkpt>
      <trkpt lat="47.59714" lon="-2.8258">
        <ele>44</ele>
        <time>2018-04-14T09:35:04Z</time>
      </trkpt>
      <trkpt lat="47.59718" lon="-2.82585">
        <ele>44</ele>
        <time>2018-04-14T09:35:07Z</time>
      </trkpt>
      <trkpt lat="47.59723" lon="-2.82589">
        <ele>44</ele>
        <time>2018-04-14T09:35:11Z</time>
      </trkpt>
      <trkpt lat="47.59726" lon="-2.82596">
        <ele>44</ele>
        <time>2018-04-14T09:35:14Z</time>
      </trkpt>
      <trkpt lat="47.59729" lon="-2.82602">
        <ele>44</ele>
        <time>2018-04-14T09:35:18Z</time>
      </trkpt>
      <trkpt lat="47.59731" lon="-2.82605">
        <ele>44</ele>
        <time>2018-04-14T09:35:20Z</time>
      </trkpt>
      <trkpt lat="47.59734" lon="-2.8261">
        <ele>41</ele>
        <time>2018-04-14T09:35:23Z</time>
      </trkpt>
      <trkpt lat="47.59739" lon="-2.82615">
        <ele>42</ele>
        <time>2018-04-14T09:35:26Z</time>
      </trkpt>
      <trkpt lat="47.59743" lon="-2.8262">
        <ele>43</ele>
        <time>2018-04-14T09:35:28Z</time>
      </trkpt>
      <trkpt lat="47.59747" lon="-2.82624">
        <ele>45</ele>
        <time>2018-04-14T09:35:30Z</time>
      </trkpt>
      <trkpt lat="47.59752" lon="-2.82626">
        <ele>46</ele>
        <time>2018-04-14T09:35:33Z</time>
      </trkpt>
      <trkpt lat="47.59756" lon="-2.8263">
        <ele>46</ele>
        <time>2018-04-14T09:35:36Z</time>
      </trkpt>
      <trkpt lat="47.59758" lon="-2.82632">
        <ele>45</ele>
        <time>2018-04-14T09:35:38Z</time>
      </trkpt>
      <trkpt lat="47.59763" lon="-2.82637">
        <ele>46</ele>
        <time>2018-04-14T09:35:41Z</time>
      </trkpt>
      <trkpt lat="47.59768" lon="-2.82644">
        <ele>47</ele>
        <time>2018-04-14T09:35:44Z</time>
      </trkpt>
      <trkpt lat="47.59772" lon="-2.82647">
        <ele>47</ele>
        <time>2018-04-14T09:35:48Z</time>
      </trkpt>
      <trkpt lat="47.59776" lon="-2.82653">
        <ele>48</ele>
        <time>2018-04-14T09:35:51Z</time>
      </trkpt>
      <trkpt lat="47.59779" lon="-2.82657">
        <ele>48</ele>
        <time>2018-04-14T09:35:54Z</time>
      </trkpt>
      <trkpt lat="47.59782" lon="-2.8266">
        <ele>48</ele>
        <time>2018-04-14T09:35:56Z</time>
      </trkpt>
      <trkpt lat="47.59785" lon="-2.82662">
        <ele>47</ele>
        <time>2018-04-14T09:35:58Z</time>
      </trkpt>
      <trkpt lat="47.59789" lon="-2.82665">
        <ele>47</ele>
        <time>2018-04-14T09:36:00Z</time>
      </trkpt>
      <trkpt lat="47.59793" lon="-2.8267">
        <ele>46</ele>
        <time>2018-04-14T09:36:03Z</time>
      </trkpt>
      <trkpt lat="47.59799" lon="-2.82675">
        <ele>47</ele>
        <time>2018-04-14T09:36:06Z</time>
      </trkpt>
      <trkpt lat="47.59802" lon="-2.82677">
        <ele>47</ele>
        <time>2018-04-14T09:36:08Z</time>
      </trkpt>
      <trkpt lat="47.59808" lon="-2.82682">
        <ele>45</ele>
        <time>2018-04-14T09:36:11Z</time>
      </trkpt>
      <trkpt lat="47.59813" lon="-2.82686">
        <ele>47</ele>
        <time>2018-04-14T09:36:14Z</time>
      </trkpt>
      <trkpt lat="47.59818" lon="-2.82689">
        <ele>47</ele>
        <time>2018-04-14T09:36:17Z</time>
      </trkpt>
      <trkpt lat="47.59823" lon="-2.82696">
        <ele>45</ele>
        <time>2018-04-14T09:36:21Z</time>
      </trkpt>
      <trkpt lat="47.59827" lon="-2.82702">
        <ele>43</ele>
        <time>2018-04-14T09:36:25Z</time>
      </trkpt>
      <trkpt lat="47.59832" lon="-2.82708">
        <ele>43</ele>
        <time>2018-04-14T09:36:28Z</time>
      </trkpt>
      <trkpt lat="47.59837" lon="-2.82711">
        <ele>45</ele>
        <time>2018-04-14T09:36:30Z</time>
      </trkpt>
      <trkpt lat="47.5984" lon="-2.82714">
        <ele>45</ele>
        <time>2018-04-14T09:36:32Z</time>
      </trkpt>
      <trkpt lat="47.59843" lon="-2.82715">
        <ele>46</ele>
        <time>2018-04-14T09:36:33Z</time>
      </trkpt>
      <trkpt lat="47.59846" lon="-2.82716">
        <ele>46</ele>
        <time>2018-04-14T09:36:35Z</time>
      </trkpt>
      <trkpt lat="47.59852" lon="-2.82721">
        <ele>45</ele>
        <time>2018-04-14T09:36:39Z</time>
      </trkpt>
      <trkpt lat="47.59856" lon="-2.82725">
        <ele>45</ele>
        <time>2018-04-14T09:36:41Z</time>
      </trkpt>
      <trkpt lat="47.59858" lon="-2.82727">
        <ele>46</ele>
        <time>2018-04-14T09:36:42Z</time>
      </trkpt>
      <trkpt lat="47.5986" lon="-2.82729">
        <ele>47</ele>
        <time>2018-04-14T09:36:43Z</time>
      </trkpt>
      <trkpt lat="47.59863" lon="-2.82733">
        <ele>48</ele>
        <time>2018-04-14T09:36:46Z</time>
      </trkpt>
      <trkpt lat="47.5987" lon="-2.82738">
        <ele>50</ele>
        <time>2018-04-14T09:36:49Z</time>
      </trkpt>
      <trkpt lat="47.59875" lon="-2.82743">
        <ele>49</ele>
        <time>2018-04-14T09:36:53Z</time>
      </trkpt>
      <trkpt lat="47.59879" lon="-2.82748">
        <ele>48</ele>
        <time>2018-04-14T09:36:56Z</time>
      </trkpt>
      <trkpt lat="47.59882" lon="-2.82753">
        <ele>45</ele>
        <time>2018-04-14T09:36:59Z</time>
      </trkpt>
      <trkpt lat="47.59886" lon="-2.82758">
        <ele>46</ele>
        <time>2018-04-14T09:37:02Z</time>
      </trkpt>
      <trkpt lat="47.5989" lon="-2.82762">
        <ele>47</ele>
        <time>2018-04-14T09:37:04Z</time>
      </trkpt>
      <trkpt lat="47.59894" lon="-2.82767">
        <ele>46</ele>
        <time>2018-04-14T09:37:06Z</time>
      </trkpt>
      <trkpt lat="47.599" lon="-2.82771">
        <ele>47</ele>
        <time>2018-04-14T09:37:09Z</time>
      </trkpt>
      <trkpt lat="47.59903" lon="-2.82773">
        <ele>47</ele>
        <time>2018-04-14T09:37:12Z</time>
      </trkpt>
      <trkpt lat="47.59907" lon="-2.82777">
        <ele>46</ele>
        <time>2018-04-14T09:37:15Z</time>
      </trkpt>
      <trkpt lat="47.59914" lon="-2.8278">
        <ele>48</ele>
        <time>2018-04-14T09:37:18Z</time>
      </trkpt>
      <trkpt lat="47.59919" lon="-2.82786">
        <ele>45</ele>
        <time>2018-04-14T09:37:22Z</time>
      </trkpt>
      <trkpt lat="47.59922" lon="-2.82789">
        <ele>46</ele>
        <time>2018-04-14T09:37:24Z</time>
      </trkpt>
      <trkpt lat="47.59925" lon="-2.82793">
        <ele>47</ele>
        <time>2018-04-14T09:37:26Z</time>
      </trkpt>
      <trkpt lat="47.5993" lon="-2.82797">
        <ele>46</ele>
        <time>2018-04-14T09:37:29Z</time>
      </trkpt>
      <trkpt lat="47.59937" lon="-2.82802">
        <ele>45</ele>
        <time>2018-04-14T09:37:33Z</time>
      </trkpt>
      <trkpt lat="47.59943" lon="-2.82807">
        <ele>44</ele>
        <time>2018-04-14T09:37:36Z</time>
      </trkpt>
      <trkpt lat="47.59945" lon="-2.82809">
        <ele>45</ele>
        <time>2018-04-14T09:37:37Z</time>
      </trkpt>
      <trkpt lat="47.5995" lon="-2.82814">
        <ele>44</ele>
        <time>2018-04-14T09:37:40Z</time>
      </trkpt>
      <trkpt lat="47.59955" lon="-2.82818">
        <ele>44</ele>
        <time>2018-04-14T09:37:43Z</time>
      </trkpt>
      <trkpt lat="47.59958" lon="-2.8282">
        <ele>45</ele>
        <time>2018-04-14T09:37:44Z</time>
      </trkpt>
      <trkpt lat="47.59962" lon="-2.82822">
        <ele>45</ele>
        <time>2018-04-14T09:37:46Z</time>
      </trkpt>
      <trkpt lat="47.59966" lon="-2.82824">
        <ele>44</ele>
        <time>2018-04-14T09:37:48Z</time>
      </trkpt>
      <trkpt lat="47.59971" lon="-2.8283">
        <ele>44</ele>
        <time>2018-04-14T09:37:51Z</time>
      </trkpt>
      <trkpt lat="47.59975" lon="-2.82834">
        <ele>43</ele>
        <time>2018-04-14T09:37:54Z</time>
      </trkpt>
      <trkpt lat="47.59978" lon="-2.82836">
        <ele>44</ele>
        <time>2018-04-14T09:37:56Z</time>
      </trkpt>
      <trkpt lat="47.59981" lon="-2.82838">
        <ele>43</ele>
        <time>2018-04-14T09:37:58Z</time>
      </trkpt>
      <trkpt lat="47.59985" lon="-2.82842">
        <ele>43</ele>
        <time>2018-04-14T09:38:01Z</time>
      </trkpt>
      <trkpt lat="47.59987" lon="-2.82844">
        <ele>42</ele>
        <time>2018-04-14T09:38:03Z</time>
      </trkpt>
      <trkpt lat="47.59992" lon="-2.82847">
        <ele>43</ele>
        <time>2018-04-14T09:38:05Z</time>
      </trkpt>
      <trkpt lat="47.59995" lon="-2.82852">
        <ele>44</ele>
        <time>2018-04-14T09:38:07Z</time>
      </trkpt>
      <trkpt lat="47.59999" lon="-2.82856">
        <ele>46</ele>
        <time>2018-04-14T09:38:09Z</time>
      </trkpt>
      <trkpt lat="47.60001" lon="-2.82858">
        <ele>46</ele>
        <time>2018-04-14T09:38:10Z</time>
      </trkpt>
      <trkpt lat="47.60006" lon="-2.82863">
        <ele>47</ele>
        <time>2018-04-14T09:38:13Z</time>
      </trkpt>
      <trkpt lat="47.6001" lon="-2.82866">
        <ele>47</ele>
        <time>2018-04-14T09:38:16Z</time>
      </trkpt>
      <trkpt lat="47.60013" lon="-2.82867">
        <ele>46</ele>
        <time>2018-04-14T09:38:18Z</time>
      </trkpt>
      <trkpt lat="47.60016" lon="-2.82869">
        <ele>44</ele>
        <time>2018-04-14T09:38:20Z</time>
      </trkpt>
      <trkpt lat="47.60022" lon="-2.82873">
        <ele>44</ele>
        <time>2018-04-14T09:38:23Z</time>
      </trkpt>
      <trkpt lat="47.60026" lon="-2.82879">
        <ele>44</ele>
        <time>2018-04-14T09:38:26Z</time>
      </trkpt>
      <trkpt lat="47.60032" lon="-2.82885">
        <ele>43</ele>
        <time>2018-04-14T09:38:29Z</time>
      </trkpt>
      <trkpt lat="47.60034" lon="-2.82887">
        <ele>44</ele>
        <time>2018-04-14T09:38:30Z</time>
      </trkpt>
      <trkpt lat="47.60038" lon="-2.82892">
        <ele>45</ele>
        <time>2018-04-14T09:38:32Z</time>
      </trkpt>
      <trkpt lat="47.60045" lon="-2.82897">
        <ele>44</ele>
        <time>2018-04-14T09:38:35Z</time>
      </trkpt>
      <trkpt lat="47.60047" lon="-2.82899">
        <ele>45</ele>
        <time>2018-04-14T09:38:36Z</time>
      </trkpt>
      <trkpt lat="47.60051" lon="-2.82902">
        <ele>44</ele>
        <time>2018-04-14T09:38:38Z</time>
      </trkpt>
      <trkpt lat="47.60055" lon="-2.82906">
        <ele>44</ele>
        <time>2018-04-14T09:38:41Z</time>
      </trkpt>
      <trkpt lat="47.60057" lon="-2.82908">
        <ele>45</ele>
        <time>2018-04-14T09:38:42Z</time>
      </trkpt>
      <trkpt lat="47.60061" lon="-2.82912">
        <ele>42</ele>
        <time>2018-04-14T09:38:44Z</time>
      </trkpt>
      <trkpt lat="47.60064" lon="-2.82914">
        <ele>42</ele>
        <time>2018-04-14T09:38:46Z</time>
      </trkpt>
      <trkpt lat="47.60067" lon="-2.82917">
        <ele>43</ele>
        <time>2018-04-14T09:38:48Z</time>
      </trkpt>
      <trkpt lat="47.60071" lon="-2.8292">
        <ele>43</ele>
        <time>2018-04-14T09:38:50Z</time>
      </trkpt>
      <trkpt lat="47.60073" lon="-2.82922">
        <ele>42</ele>
        <time>2018-04-14T09:38:52Z</time>
      </trkpt>
      <trkpt lat="47.60077" lon="-2.82926">
        <ele>40</ele>
        <time>2018-04-14T09:38:55Z</time>
      </trkpt>
      <trkpt lat="47.60084" lon="-2.82932">
        <ele>41</ele>
        <time>2018-04-14T09:38:58Z</time>
      </trkpt>
      <trkpt lat="47.60088" lon="-2.82937">
        <ele>42</ele>
        <time>2018-04-14T09:39:00Z</time>
      </trkpt>
      <trkpt lat="47.60093" lon="-2.82941">
        <ele>41</ele>
        <time>2018-04-14T09:39:03Z</time>
      </trkpt>
      <trkpt lat="47.601" lon="-2.82947">
        <ele>41</ele>
        <time>2018-04-14T09:39:07Z</time>
      </trkpt>
      <trkpt lat="47.60102" lon="-2.82949">
        <ele>40</ele>
        <time>2018-04-14T09:39:09Z</time>
      </trkpt>
      <trkpt lat="47.60106" lon="-2.82952">
        <ele>41</ele>
        <time>2018-04-14T09:39:11Z</time>
      </trkpt>
      <trkpt lat="47.60113" lon="-2.82957">
        <ele>42</ele>
        <time>2018-04-14T09:39:14Z</time>
      </trkpt>
      <trkpt lat="47.60116" lon="-2.82959">
        <ele>42</ele>
        <time>2018-04-14T09:39:16Z</time>
      </trkpt>
      <trkpt lat="47.60119" lon="-2.82962">
        <ele>41</ele>
        <time>2018-04-14T09:39:18Z</time>
      </trkpt>
      <trkpt lat="47.60123" lon="-2.82966">
        <ele>40</ele>
        <time>2018-04-14T09:39:21Z</time>
      </trkpt>
      <trkpt lat="47.60129" lon="-2.8297">
        <ele>40</ele>
        <time>2018-04-14T09:39:24Z</time>
      </trkpt>
      <trkpt lat="47.60133" lon="-2.82972">
        <ele>41</ele>
        <time>2018-04-14T09:39:26Z</time>
      </trkpt>
      <trkpt lat="47.60137" lon="-2.82976">
        <ele>41</ele>
        <time>2018-04-14T09:39:28Z</time>
      </trkpt>
      <trkpt lat="47.60141" lon="-2.8298">
        <ele>42</ele>
        <time>2018-04-14T09:39:30Z</time>
      </trkpt>
      <trkpt lat="47.60145" lon="-2.82984">
        <ele>42</ele>
        <time>2018-04-14T09:39:32Z</time>
      </trkpt>
      <trkpt lat="47.6015" lon="-2.82987">
        <ele>44</ele>
        <time>2018-04-14T09:39:34Z</time>
      </trkpt>
      <trkpt lat="47.60155" lon="-2.82991">
        <ele>42</ele>
        <time>2018-04-14T09:39:37Z</time>
      </trkpt>
      <trkpt lat="47.60161" lon="-2.82995">
        <ele>45</ele>
        <time>2018-04-14T09:39:40Z</time>
      </trkpt>
      <trkpt lat="47.60165" lon="-2.83">
        <ele>45</ele>
        <time>2018-04-14T09:39:43Z</time>
      </trkpt>
      <trkpt lat="47.6017" lon="-2.83005">
        <ele>45</ele>
        <time>2018-04-14T09:39:46Z</time>
      </trkpt>
      <trkpt lat="47.60174" lon="-2.83008">
        <ele>45</ele>
        <time>2018-04-14T09:39:49Z</time>
      </trkpt>
      <trkpt lat="47.60179" lon="-2.83012">
        <ele>44</ele>
        <time>2018-04-14T09:39:52Z</time>
      </trkpt>
      <trkpt lat="47.60182" lon="-2.83014">
        <ele>44</ele>
        <time>2018-04-14T09:39:53Z</time>
      </trkpt>
      <trkpt lat="47.60184" lon="-2.83016">
        <ele>44</ele>
        <time>2018-04-14T09:39:54Z</time>
      </trkpt>
      <trkpt lat="47.6019" lon="-2.83019">
        <ele>47</ele>
        <time>2018-04-14T09:39:57Z</time>
      </trkpt>
      <trkpt lat="47.60194" lon="-2.83021">
        <ele>48</ele>
        <time>2018-04-14T09:39:59Z</time>
      </trkpt>
      <trkpt lat="47.60199" lon="-2.83025">
        <ele>49</ele>
        <time>2018-04-14T09:40:02Z</time>
      </trkpt>
      <trkpt lat="47.60201" lon="-2.83028">
        <ele>47</ele>
        <time>2018-04-14T09:40:04Z</time>
      </trkpt>
      <trkpt lat="47.60207" lon="-2.83032">
        <ele>46</ele>
        <time>2018-04-14T09:40:08Z</time>
      </trkpt>
      <trkpt lat="47.6021" lon="-2.83034">
        <ele>45</ele>
        <time>2018-04-14T09:40:10Z</time>
      </trkpt>
      <trkpt lat="47.60213" lon="-2.83038">
        <ele>45</ele>
        <time>2018-04-14T09:40:13Z</time>
      </trkpt>
      <trkpt lat="47.60216" lon="-2.8304">
        <ele>45</ele>
        <time>2018-04-14T09:40:15Z</time>
      </trkpt>
      <trkpt lat="47.60221" lon="-2.83046">
        <ele>44</ele>
        <time>2018-04-14T09:40:19Z</time>
      </trkpt>
      <trkpt lat="47.60225" lon="-2.83049">
        <ele>43</ele>
        <time>2018-04-14T09:40:21Z</time>
      </trkpt>
      <trkpt lat="47.60229" lon="-2.83054">
        <ele>42</ele>
        <time>2018-04-14T09:40:24Z</time>
      </trkpt>
      <trkpt lat="47.60235" lon="-2.83058">
        <ele>41</ele>
        <time>2018-04-14T09:40:27Z</time>
      </trkpt>
      <trkpt lat="47.6024" lon="-2.83063">
        <ele>42</ele>
        <time>2018-04-14T09:40:30Z</time>
      </trkpt>
      <trkpt lat="47.60244" lon="-2.83067">
        <ele>43</ele>
        <time>2018-04-14T09:40:32Z</time>
      </trkpt>
      <trkpt lat="47.60249" lon="-2.83071">
        <ele>43</ele>
        <time>2018-04-14T09:40:36Z</time>
      </trkpt>
      <trkpt lat="47.60253" lon="-2.83074">
        <ele>41</ele>
        <time>2018-04-14T09:40:39Z</time>
      </trkpt>
      <trkpt lat="47.60258" lon="-2.83079">
        <ele>39</ele>
        <time>2018-04-14T09:40:42Z</time>
      </trkpt>
      <trkpt lat="47.6026" lon="-2.83081">
        <ele>38</ele>
        <time>2018-04-14T09:40:44Z</time>
      </trkpt>
      <trkpt lat="47.60266" lon="-2.83085">
        <ele>39</ele>
        <time>2018-04-14T09:40:47Z</time>
      </trkpt>
      <trkpt lat="47.60268" lon="-2.83087">
        <ele>38</ele>
        <time>2018-04-14T09:40:48Z</time>
      </trkpt>
      <trkpt lat="47.60273" lon="-2.83089">
        <ele>40</ele>
        <time>2018-04-14T09:40:51Z</time>
      </trkpt>
      <trkpt lat="47.60277" lon="-2.83093">
        <ele>38</ele>
        <time>2018-04-14T09:40:54Z</time>
      </trkpt>
      <trkpt lat="47.60282" lon="-2.831">
        <ele>39</ele>
        <time>2018-04-14T09:40:57Z</time>
      </trkpt>
      <trkpt lat="47.60288" lon="-2.83102">
        <ele>39</ele>
        <time>2018-04-14T09:41:00Z</time>
      </trkpt>
      <trkpt lat="47.60292" lon="-2.83106">
        <ele>39</ele>
        <time>2018-04-14T09:41:03Z</time>
      </trkpt>
      <trkpt lat="47.60295" lon="-2.83108">
        <ele>41</ele>
        <time>2018-04-14T09:41:04Z</time>
      </trkpt>
      <trkpt lat="47.60302" lon="-2.83113">
        <ele>43</ele>
        <time>2018-04-14T09:41:08Z</time>
      </trkpt>
      <trkpt lat="47.60305" lon="-2.83114">
        <ele>43</ele>
        <time>2018-04-14T09:41:10Z</time>
      </trkpt>
      <trkpt lat="47.60308" lon="-2.83116">
        <ele>44</ele>
        <time>2018-04-14T09:41:11Z</time>
      </trkpt>
      <trkpt lat="47.60313" lon="-2.8312">
        <ele>45</ele>
        <time>2018-04-14T09:41:14Z</time>
      </trkpt>
      <trkpt lat="47.60315" lon="-2.83122">
        <ele>45</ele>
        <time>2018-04-14T09:41:15Z</time>
      </trkpt>
      <trkpt lat="47.6032" lon="-2.83127">
        <ele>44</ele>
        <time>2018-04-14T09:41:19Z</time>
      </trkpt>
      <trkpt lat="47.60324" lon="-2.83132">
        <ele>45</ele>
        <time>2018-04-14T09:41:21Z</time>
      </trkpt>
      <trkpt lat="47.60331" lon="-2.83139">
        <ele>46</ele>
        <time>2018-04-14T09:41:25Z</time>
      </trkpt>
      <trkpt lat="47.60336" lon="-2.83143">
        <ele>45</ele>
        <time>2018-04-14T09:41:28Z</time>
      </trkpt>
      <trkpt lat="47.60338" lon="-2.83145">
        <ele>46</ele>
        <time>2018-04-14T09:41:29Z</time>
      </trkpt>
      <trkpt lat="47.60342" lon="-2.83148">
        <ele>44</ele>
        <time>2018-04-14T09:41:32Z</time>
      </trkpt>
      <trkpt lat="47.60347" lon="-2.83152">
        <ele>45</ele>
        <time>2018-04-14T09:41:36Z</time>
      </trkpt>
      <trkpt lat="47.60351" lon="-2.83157">
        <ele>45</ele>
        <time>2018-04-14T09:41:39Z</time>
      </trkpt>
      <trkpt lat="47.60355" lon="-2.83161">
        <ele>46</ele>
        <time>2018-04-14T09:41:41Z</time>
      </trkpt>
      <trkpt lat="47.60357" lon="-2.83163">
        <ele>46</ele>
        <time>2018-04-14T09:41:42Z</time>
      </trkpt>
      <trkpt lat="47.60361" lon="-2.83166">
        <ele>45</ele>
        <time>2018-04-14T09:41:45Z</time>
      </trkpt>
      <trkpt lat="47.60366" lon="-2.83169">
        <ele>43</ele>
        <time>2018-04-14T09:41:48Z</time>
      </trkpt>
      <trkpt lat="47.60372" lon="-2.83175">
        <ele>44</ele>
        <time>2018-04-14T09:41:51Z</time>
      </trkpt>
      <trkpt lat="47.60374" lon="-2.83177">
        <ele>43</ele>
        <time>2018-04-14T09:41:53Z</time>
      </trkpt>
      <trkpt lat="47.60379" lon="-2.83181">
        <ele>41</ele>
        <time>2018-04-14T09:41:56Z</time>
      </trkpt>
      <trkpt lat="47.60384" lon="-2.83185">
        <ele>40</ele>
        <time>2018-04-14T09:41:59Z</time>
      </trkpt>
      <trkpt lat="47.60386" lon="-2.83187">
        <ele>39</ele>
        <time>2018-04-14T09:42:01Z</time>
      </trkpt>
      <trkpt lat="47.6039" lon="-2.83189">
        <ele>40</ele>
        <time>2018-04-14T09:42:03Z</time>
      </trkpt>
      <trkpt lat="47.60393" lon="-2.83193">
        <ele>42</ele>
        <time>2018-04-14T09:42:06Z</time>
      </trkpt>
      <trkpt lat="47.60398" lon="-2.83195">
        <ele>44</ele>
        <time>2018-04-14T09:42:09Z</time>
      </trkpt>
      <trkpt lat="47.60403" lon="-2.83198">
        <ele>46</ele>
        <time>2018-04-14T09:42:12Z</time>
      </trkpt>
      <trkpt lat="47.60408" lon="-2.83202">
        <ele>46</ele>
        <time>2018-04-14T09:42:15Z</time>
      </trkpt>
      <trkpt lat="47.60411" lon="-2.83205">
        <ele>45</ele>
        <time>2018-04-14T09:42:17Z</time>
      </trkpt>
      <trkpt lat="47.60415" lon="-2.83209">
        <ele>46</ele>
        <time>2018-04-14T09:42:19Z</time>
      </trkpt>
      <trkpt lat="47.60419" lon="-2.83212">
        <ele>47</ele>
        <time>2018-04-14T09:42:21Z</time>
      </trkpt>
      <trkpt lat="47.60423" lon="-2.83216">
        <ele>46</ele>
        <time>2018-04-14T09:42:24Z</time>
      </trkpt>
      <trkpt lat="47.60425" lon="-2.83219">
        <ele>47</ele>
        <time>2018-04-14T09:42:25Z</time>
      </trkpt>
      <trkpt lat="47.60432" lon="-2.83224">
        <ele>48</ele>
        <time>2018-04-14T09:42:29Z</time>
      </trkpt>
      <trkpt lat="47.60437" lon="-2.83229">
        <ele>47</ele>
        <time>2018-04-14T09:42:32Z</time>
      </trkpt>
      <trkpt lat="47.60441" lon="-2.83232">
        <ele>48</ele>
        <time>2018-04-14T09:42:34Z</time>
      </trkpt>
      <trkpt lat="47.60444" lon="-2.83237">
        <ele>47</ele>
        <time>2018-04-14T09:42:36Z</time>
      </trkpt>
      <trkpt lat="47.60448" lon="-2.83242">
        <ele>48</ele>
        <time>2018-04-14T09:42:38Z</time>
      </trkpt>
      <trkpt lat="47.6045" lon="-2.83245">
        <ele>48</ele>
        <time>2018-04-14T09:42:40Z</time>
      </trkpt>
      <trkpt lat="47.60455" lon="-2.83249">
        <ele>50</ele>
        <time>2018-04-14T09:42:43Z</time>
      </trkpt>
      <trkpt lat="47.60461" lon="-2.83256">
        <ele>50</ele>
        <time>2018-04-14T09:42:46Z</time>
      </trkpt>
      <trkpt lat="47.60465" lon="-2.83261">
        <ele>50</ele>
        <time>2018-04-14T09:42:49Z</time>
      </trkpt>
      <trkpt lat="47.60471" lon="-2.83263">
        <ele>49</ele>
        <time>2018-04-14T09:42:52Z</time>
      </trkpt>
      <trkpt lat="47.60475" lon="-2.83267">
        <ele>49</ele>
        <time>2018-04-14T09:42:54Z</time>
      </trkpt>
      <trkpt lat="47.6048" lon="-2.83267">
        <ele>49</ele>
        <time>2018-04-14T09:42:57Z</time>
      </trkpt>
      <trkpt lat="47.60483" lon="-2.83274">
        <ele>47</ele>
        <time>2018-04-14T09:43:02Z</time>
      </trkpt>
      <trkpt lat="47.60486" lon="-2.83278">
        <ele>49</ele>
        <time>2018-04-14T09:43:04Z</time>
      </trkpt>
      <trkpt lat="47.60489" lon="-2.83283">
        <ele>48</ele>
        <time>2018-04-14T09:43:06Z</time>
      </trkpt>
      <trkpt lat="47.60493" lon="-2.83286">
        <ele>46</ele>
        <time>2018-04-14T09:43:09Z</time>
      </trkpt>
      <trkpt lat="47.60498" lon="-2.8329">
        <ele>48</ele>
        <time>2018-04-14T09:43:12Z</time>
      </trkpt>
      <trkpt lat="47.60501" lon="-2.83295">
        <ele>46</ele>
        <time>2018-04-14T09:43:16Z</time>
      </trkpt>
      <trkpt lat="47.60503" lon="-2.833">
        <ele>43</ele>
        <time>2018-04-14T09:43:19Z</time>
      </trkpt>
      <trkpt lat="47.60509" lon="-2.83304">
        <ele>43</ele>
        <time>2018-04-14T09:43:22Z</time>
      </trkpt>
      <trkpt lat="47.60513" lon="-2.83307">
        <ele>42</ele>
        <time>2018-04-14T09:43:25Z</time>
      </trkpt>
      <trkpt lat="47.60516" lon="-2.83309">
        <ele>43</ele>
        <time>2018-04-14T09:43:27Z</time>
      </trkpt>
      <trkpt lat="47.6052" lon="-2.83313">
        <ele>44</ele>
        <time>2018-04-14T09:43:29Z</time>
      </trkpt>
      <trkpt lat="47.60524" lon="-2.83318">
        <ele>44</ele>
        <time>2018-04-14T09:43:32Z</time>
      </trkpt>
      <trkpt lat="47.60528" lon="-2.83321">
        <ele>45</ele>
        <time>2018-04-14T09:43:34Z</time>
      </trkpt>
      <trkpt lat="47.60532" lon="-2.83323">
        <ele>44</ele>
        <time>2018-04-14T09:43:36Z</time>
      </trkpt>
      <trkpt lat="47.60537" lon="-2.83329">
        <ele>43</ele>
        <time>2018-04-14T09:43:39Z</time>
      </trkpt>
      <trkpt lat="47.6054" lon="-2.83333">
        <ele>44</ele>
        <time>2018-04-14T09:43:41Z</time>
      </trkpt>
      <trkpt lat="47.60546" lon="-2.83338">
        <ele>46</ele>
        <time>2018-04-14T09:43:44Z</time>
      </trkpt>
      <trkpt lat="47.6055" lon="-2.83341">
        <ele>45</ele>
        <time>2018-04-14T09:43:46Z</time>
      </trkpt>
      <trkpt lat="47.60554" lon="-2.83345">
        <ele>45</ele>
        <time>2018-04-14T09:43:49Z</time>
      </trkpt>
      <trkpt lat="47.6056" lon="-2.83345">
        <ele>44</ele>
        <time>2018-04-14T09:43:53Z</time>
      </trkpt>
      <trkpt lat="47.60563" lon="-2.83346">
        <ele>44</ele>
        <time>2018-04-14T09:43:55Z</time>
      </trkpt>
      <trkpt lat="47.60567" lon="-2.83346">
        <ele>43</ele>
        <time>2018-04-14T09:43:57Z</time>
      </trkpt>
      <trkpt lat="47.6057" lon="-2.83347">
        <ele>43</ele>
        <time>2018-04-14T09:43:58Z</time>
      </trkpt>
      <trkpt lat="47.60576" lon="-2.83347">
        <ele>43</ele>
        <time>2018-04-14T09:44:01Z</time>
      </trkpt>
      <trkpt lat="47.60578" lon="-2.83347">
        <ele>43</ele>
        <time>2018-04-14T09:44:02Z</time>
      </trkpt>
      <trkpt lat="47.60583" lon="-2.83347">
        <ele>42</ele>
        <time>2018-04-14T09:44:04Z</time>
      </trkpt>
      <trkpt lat="47.60588" lon="-2.83347">
        <ele>43</ele>
        <time>2018-04-14T09:44:06Z</time>
      </trkpt>
      <trkpt lat="47.60595" lon="-2.83347">
        <ele>43</ele>
        <time>2018-04-14T09:44:09Z</time>
      </trkpt>
      <trkpt lat="47.60602" lon="-2.83347">
        <ele>43</ele>
        <time>2018-04-14T09:44:12Z</time>
      </trkpt>
      <trkpt lat="47.60608" lon="-2.83348">
        <ele>44</ele>
        <time>2018-04-14T09:44:15Z</time>
      </trkpt>
      <trkpt lat="47.60613" lon="-2.83348">
        <ele>44</ele>
        <time>2018-04-14T09:44:18Z</time>
      </trkpt>
      <trkpt lat="47.60619" lon="-2.83347">
        <ele>43</ele>
        <time>2018-04-14T09:44:21Z</time>
      </trkpt>
      <trkpt lat="47.60624" lon="-2.83343">
        <ele>44</ele>
        <time>2018-04-14T09:44:24Z</time>
      </trkpt>
      <trkpt lat="47.60629" lon="-2.83341">
        <ele>43</ele>
        <time>2018-04-14T09:44:26Z</time>
      </trkpt>
      <trkpt lat="47.60633" lon="-2.83336">
        <ele>42</ele>
        <time>2018-04-14T09:44:30Z</time>
      </trkpt>
      <trkpt lat="47.60638" lon="-2.83332">
        <ele>43</ele>
        <time>2018-04-14T09:44:33Z</time>
      </trkpt>
      <trkpt lat="47.60644" lon="-2.83329">
        <ele>44</ele>
        <time>2018-04-14T09:44:38Z</time>
      </trkpt>
      <trkpt lat="47.60649" lon="-2.83324">
        <ele>43</ele>
        <time>2018-04-14T09:44:42Z</time>
      </trkpt>
      <trkpt lat="47.60654" lon="-2.83321">
        <ele>45</ele>
        <time>2018-04-14T09:44:45Z</time>
      </trkpt>
      <trkpt lat="47.60659" lon="-2.83317">
        <ele>45</ele>
        <time>2018-04-14T09:44:48Z</time>
      </trkpt>
      <trkpt lat="47.60663" lon="-2.83314">
        <ele>46</ele>
        <time>2018-04-14T09:44:51Z</time>
      </trkpt>
      <trkpt lat="47.60665" lon="-2.83312">
        <ele>46</ele>
        <time>2018-04-14T09:44:52Z</time>
      </trkpt>
      <trkpt lat="47.60668" lon="-2.83309">
        <ele>46</ele>
        <time>2018-04-14T09:44:54Z</time>
      </trkpt>
      <trkpt lat="47.60671" lon="-2.83307">
        <ele>46</ele>
        <time>2018-04-14T09:44:56Z</time>
      </trkpt>
      <trkpt lat="47.60674" lon="-2.83304">
        <ele>45</ele>
        <time>2018-04-14T09:44:58Z</time>
      </trkpt>
      <trkpt lat="47.60679" lon="-2.83301">
        <ele>44</ele>
        <time>2018-04-14T09:45:00Z</time>
      </trkpt>
      <trkpt lat="47.60683" lon="-2.83299">
        <ele>44</ele>
        <time>2018-04-14T09:45:02Z</time>
      </trkpt>
      <trkpt lat="47.60685" lon="-2.83298">
        <ele>44</ele>
        <time>2018-04-14T09:45:04Z</time>
      </trkpt>
      <trkpt lat="47.60688" lon="-2.83295">
        <ele>43</ele>
        <time>2018-04-14T09:45:06Z</time>
      </trkpt>
      <trkpt lat="47.60691" lon="-2.83293">
        <ele>43</ele>
        <time>2018-04-14T09:45:09Z</time>
      </trkpt>
      <trkpt lat="47.60695" lon="-2.83291">
        <ele>40</ele>
        <time>2018-04-14T09:45:12Z</time>
      </trkpt>
      <trkpt lat="47.60698" lon="-2.83289">
        <ele>40</ele>
        <time>2018-04-14T09:45:14Z</time>
      </trkpt>
      <trkpt lat="47.60702" lon="-2.83283">
        <ele>40</ele>
        <time>2018-04-14T09:45:18Z</time>
      </trkpt>
      <trkpt lat="47.60706" lon="-2.8328">
        <ele>41</ele>
        <time>2018-04-14T09:45:21Z</time>
      </trkpt>
      <trkpt lat="47.60712" lon="-2.83277">
        <ele>43</ele>
        <time>2018-04-14T09:45:24Z</time>
      </trkpt>
      <trkpt lat="47.60716" lon="-2.83273">
        <ele>44</ele>
        <time>2018-04-14T09:45:27Z</time>
      </trkpt>
      <trkpt lat="47.60719" lon="-2.8327">
        <ele>44</ele>
        <time>2018-04-14T09:45:29Z</time>
      </trkpt>
      <trkpt lat="47.60722" lon="-2.83267">
        <ele>44</ele>
        <time>2018-04-14T09:45:31Z</time>
      </trkpt>
      <trkpt lat="47.60727" lon="-2.83263">
        <ele>44</ele>
        <time>2018-04-14T09:45:34Z</time>
      </trkpt>
      <trkpt lat="47.6073" lon="-2.8326">
        <ele>44</ele>
        <time>2018-04-14T09:45:36Z</time>
      </trkpt>
      <trkpt lat="47.60734" lon="-2.83256">
        <ele>43</ele>
        <time>2018-04-14T09:45:39Z</time>
      </trkpt>
      <trkpt lat="47.6074" lon="-2.83254">
        <ele>44</ele>
        <time>2018-04-14T09:45:42Z</time>
      </trkpt>
      <trkpt lat="47.60744" lon="-2.83249">
        <ele>45</ele>
        <time>2018-04-14T09:45:45Z</time>
      </trkpt>
      <trkpt lat="47.60749" lon="-2.83247">
        <ele>47</ele>
        <time>2018-04-14T09:45:48Z</time>
      </trkpt>
      <trkpt lat="47.60753" lon="-2.83243">
        <ele>46</ele>
        <time>2018-04-14T09:45:51Z</time>
      </trkpt>
      <trkpt lat="47.60759" lon="-2.8324">
        <ele>45</ele>
        <time>2018-04-14T09:45:56Z</time>
      </trkpt>
      <trkpt lat="47.60762" lon="-2.83237">
        <ele>47</ele>
        <time>2018-04-14T09:45:58Z</time>
      </trkpt>
      <trkpt lat="47.60767" lon="-2.83235">
        <ele>46</ele>
        <time>2018-04-14T09:46:01Z</time>
      </trkpt>
      <trkpt lat="47.6077" lon="-2.8323">
        <ele>46</ele>
        <time>2018-04-14T09:46:05Z</time>
      </trkpt>
      <trkpt lat="47.60775" lon="-2.83226">
        <ele>46</ele>
        <time>2018-04-14T09:46:08Z</time>
      </trkpt>
      <trkpt lat="47.60779" lon="-2.83223">
        <ele>45</ele>
        <time>2018-04-14T09:46:11Z</time>
      </trkpt>
      <trkpt lat="47.60782" lon="-2.83221">
        <ele>46</ele>
        <time>2018-04-14T09:46:13Z</time>
      </trkpt>
      <trkpt lat="47.60785" lon="-2.8322">
        <ele>44</ele>
        <time>2018-04-14T09:46:15Z</time>
      </trkpt>
      <trkpt lat="47.60788" lon="-2.83218">
        <ele>45</ele>
        <time>2018-04-14T09:46:17Z</time>
      </trkpt>
      <trkpt lat="47.6079" lon="-2.83216">
        <ele>45</ele>
        <time>2018-04-14T09:46:19Z</time>
      </trkpt>
      <trkpt lat="47.60796" lon="-2.83215">
        <ele>45</ele>
        <time>2018-04-14T09:46:23Z</time>
      </trkpt>
      <trkpt lat="47.60802" lon="-2.83212">
        <ele>43</ele>
        <time>2018-04-14T09:46:27Z</time>
      </trkpt>
      <trkpt lat="47.60807" lon="-2.83212">
        <ele>43</ele>
        <time>2018-04-14T09:46:30Z</time>
      </trkpt>
      <trkpt lat="47.60813" lon="-2.83208">
        <ele>41</ele>
        <time>2018-04-14T09:46:34Z</time>
      </trkpt>
      <trkpt lat="47.60817" lon="-2.83204">
        <ele>41</ele>
        <time>2018-04-14T09:46:37Z</time>
      </trkpt>
      <trkpt lat="47.60821" lon="-2.832">
        <ele>42</ele>
        <time>2018-04-14T09:46:41Z</time>
      </trkpt>
      <trkpt lat="47.60825" lon="-2.83197">
        <ele>42</ele>
        <time>2018-04-14T09:46:45Z</time>
      </trkpt>
      <trkpt lat="47.60827" lon="-2.83196">
        <ele>43</ele>
        <time>2018-04-14T09:46:48Z</time>
      </trkpt>
      <trkpt lat="47.60831" lon="-2.83191">
        <ele>45</ele>
        <time>2018-04-14T09:46:58Z</time>
      </trkpt>
      <trkpt lat="47.60834" lon="-2.83188">
        <ele>44</ele>
        <time>2018-04-14T09:47:03Z</time>
      </trkpt>
      <trkpt lat="47.60836" lon="-2.83186">
        <ele>44</ele>
        <time>2018-04-14T09:47:07Z</time>
      </trkpt>
      <trkpt lat="47.6084" lon="-2.83181">
        <ele>44</ele>
        <time>2018-04-14T09:47:12Z</time>
      </trkpt>
      <trkpt lat="47.60845" lon="-2.83178">
        <ele>46</ele>
        <time>2018-04-14T09:47:16Z</time>
      </trkpt>
      <trkpt lat="47.60851" lon="-2.83175">
        <ele>47</ele>
        <time>2018-04-14T09:47:20Z</time>
      </trkpt>
      <trkpt lat="47.60856" lon="-2.83174">
        <ele>48</ele>
        <time>2018-04-14T09:47:23Z</time>
      </trkpt>
      <trkpt lat="47.6086" lon="-2.83173">
        <ele>47</ele>
        <time>2018-04-14T09:47:25Z</time>
      </trkpt>
      <trkpt lat="47.60866" lon="-2.8317">
        <ele>47</ele>
        <time>2018-04-14T09:47:29Z</time>
      </trkpt>
      <trkpt lat="47.60869" lon="-2.83169">
        <ele>47</ele>
        <time>2018-04-14T09:47:31Z</time>
      </trkpt>
      <trkpt lat="47.60873" lon="-2.83167">
        <ele>48</ele>
        <time>2018-04-14T09:47:33Z</time>
      </trkpt>
      <trkpt lat="47.60876" lon="-2.83165">
        <ele>45</ele>
        <time>2018-04-14T09:47:36Z</time>
      </trkpt>
      <trkpt lat="47.60881" lon="-2.83166">
        <ele>41</ele>
        <time>2018-04-14T09:47:39Z</time>
      </trkpt>
      <trkpt lat="47.60885" lon="-2.83166">
        <ele>41</ele>
        <time>2018-04-14T09:47:41Z</time>
      </trkpt>
      <trkpt lat="47.60891" lon="-2.83169">
        <ele>41</ele>
        <time>2018-04-14T09:47:44Z</time>
      </trkpt>
      <trkpt lat="47.60898" lon="-2.8317">
        <ele>43</ele>
        <time>2018-04-14T09:47:47Z</time>
      </trkpt>
      <trkpt lat="47.60902" lon="-2.83175">
        <ele>44</ele>
        <time>2018-04-14T09:47:50Z</time>
      </trkpt>
      <trkpt lat="47.60907" lon="-2.83179">
        <ele>46</ele>
        <time>2018-04-14T09:47:52Z</time>
      </trkpt>
      <trkpt lat="47.60913" lon="-2.83186">
        <ele>48</ele>
        <time>2018-04-14T09:47:55Z</time>
      </trkpt>
      <trkpt lat="47.60916" lon="-2.83194">
        <ele>48</ele>
        <time>2018-04-14T09:47:58Z</time>
      </trkpt>
      <trkpt lat="47.60918" lon="-2.83203">
        <ele>47</ele>
        <time>2018-04-14T09:48:01Z</time>
      </trkpt>
      <trkpt lat="47.6092" lon="-2.83207">
        <ele>47</ele>
        <time>2018-04-14T09:48:02Z</time>
      </trkpt>
      <trkpt lat="47.60921" lon="-2.83211">
        <ele>45</ele>
        <time>2018-04-14T09:48:04Z</time>
      </trkpt>
      <trkpt lat="47.60924" lon="-2.83216">
        <ele>45</ele>
        <time>2018-04-14T09:48:06Z</time>
      </trkpt>
      <trkpt lat="47.60927" lon="-2.83224">
        <ele>44</ele>
        <time>2018-04-14T09:48:09Z</time>
      </trkpt>
      <trkpt lat="47.60931" lon="-2.83229">
        <ele>47</ele>
        <time>2018-04-14T09:48:12Z</time>
      </trkpt>
      <trkpt lat="47.60935" lon="-2.83235">
        <ele>47</ele>
        <time>2018-04-14T09:48:14Z</time>
      </trkpt>
      <trkpt lat="47.60938" lon="-2.83241">
        <ele>45</ele>
        <time>2018-04-14T09:48:17Z</time>
      </trkpt>
      <trkpt lat="47.60939" lon="-2.83244">
        <ele>44</ele>
        <time>2018-04-14T09:48:18Z</time>
      </trkpt>
      <trkpt lat="47.60942" lon="-2.83248">
        <ele>43</ele>
        <time>2018-04-14T09:48:20Z</time>
      </trkpt>
      <trkpt lat="47.60947" lon="-2.83255">
        <ele>42</ele>
        <time>2018-04-14T09:48:23Z</time>
      </trkpt>
      <trkpt lat="47.60952" lon="-2.8326">
        <ele>43</ele>
        <time>2018-04-14T09:48:26Z</time>
      </trkpt>
      <trkpt lat="47.60957" lon="-2.83265">
        <ele>43</ele>
        <time>2018-04-14T09:48:29Z</time>
      </trkpt>
      <trkpt lat="47.60961" lon="-2.83267">
        <ele>42</ele>
        <time>2018-04-14T09:48:31Z</time>
      </trkpt>
      <trkpt lat="47.60963" lon="-2.83269">
        <ele>43</ele>
        <time>2018-04-14T09:48:32Z</time>
      </trkpt>
      <trkpt lat="47.60966" lon="-2.83274">
        <ele>44</ele>
        <time>2018-04-14T09:48:34Z</time>
      </trkpt>
      <trkpt lat="47.60973" lon="-2.83282">
        <ele>44</ele>
        <time>2018-04-14T09:48:38Z</time>
      </trkpt>
      <trkpt lat="47.60976" lon="-2.83285">
        <ele>43</ele>
        <time>2018-04-14T09:48:40Z</time>
      </trkpt>
      <trkpt lat="47.60978" lon="-2.83288">
        <ele>44</ele>
        <time>2018-04-14T09:48:41Z</time>
      </trkpt>
      <trkpt lat="47.60982" lon="-2.83292">
        <ele>45</ele>
        <time>2018-04-14T09:48:45Z</time>
      </trkpt>
      <trkpt lat="47.60985" lon="-2.83295">
        <ele>45</ele>
        <time>2018-04-14T09:48:47Z</time>
      </trkpt>
      <trkpt lat="47.60989" lon="-2.83302">
        <ele>46</ele>
        <time>2018-04-14T09:48:50Z</time>
      </trkpt>
      <trkpt lat="47.60991" lon="-2.83305">
        <ele>47</ele>
        <time>2018-04-14T09:48:51Z</time>
      </trkpt>
      <trkpt lat="47.60994" lon="-2.83308">
        <ele>48</ele>
        <time>2018-04-14T09:48:53Z</time>
      </trkpt>
      <trkpt lat="47.60997" lon="-2.83312">
        <ele>48</ele>
        <time>2018-04-14T09:48:55Z</time>
      </trkpt>
      <trkpt lat="47.61001" lon="-2.83319">
        <ele>47</ele>
        <time>2018-04-14T09:48:59Z</time>
      </trkpt>
      <trkpt lat="47.61003" lon="-2.83322">
        <ele>46</ele>
        <time>2018-04-14T09:49:02Z</time>
      </trkpt>
      <trkpt lat="47.61007" lon="-2.8333">
        <ele>50</ele>
        <time>2018-04-14T09:49:05Z</time>
      </trkpt>
      <trkpt lat="47.6101" lon="-2.83336">
        <ele>50</ele>
        <time>2018-04-14T09:49:08Z</time>
      </trkpt>
      <trkpt lat="47.61013" lon="-2.83342">
        <ele>48</ele>
        <time>2018-04-14T09:49:10Z</time>
      </trkpt>
      <trkpt lat="47.61016" lon="-2.83347">
        <ele>50</ele>
        <time>2018-04-14T09:49:12Z</time>
      </trkpt>
      <trkpt lat="47.61017" lon="-2.8335">
        <ele>50</ele>
        <time>2018-04-14T09:49:13Z</time>
      </trkpt>
      <trkpt lat="47.6102" lon="-2.83356">
        <ele>49</ele>
        <time>2018-04-14T09:49:16Z</time>
      </trkpt>
      <trkpt lat="47.61025" lon="-2.83364">
        <ele>50</ele>
        <time>2018-04-14T09:49:19Z</time>
      </trkpt>
      <trkpt lat="47.61028" lon="-2.83369">
        <ele>49</ele>
        <time>2018-04-14T09:49:21Z</time>
      </trkpt>
      <trkpt lat="47.6103" lon="-2.83372">
        <ele>49</ele>
        <time>2018-04-14T09:49:22Z</time>
      </trkpt>
      <trkpt lat="47.61035" lon="-2.83377">
        <ele>48</ele>
        <time>2018-04-14T09:49:26Z</time>
      </trkpt>
      <trkpt lat="47.61039" lon="-2.83384">
        <ele>48</ele>
        <time>2018-04-14T09:49:29Z</time>
      </trkpt>
      <trkpt lat="47.61042" lon="-2.83388">
        <ele>45</ele>
        <time>2018-04-14T09:49:32Z</time>
      </trkpt>
      <trkpt lat="47.61046" lon="-2.83393">
        <ele>45</ele>
        <time>2018-04-14T09:49:35Z</time>
      </trkpt>
      <trkpt lat="47.61051" lon="-2.834">
        <ele>47</ele>
        <time>2018-04-14T09:49:38Z</time>
      </trkpt>
      <trkpt lat="47.61054" lon="-2.83404">
        <ele>47</ele>
        <time>2018-04-14T09:49:40Z</time>
      </trkpt>
      <trkpt lat="47.61055" lon="-2.83407">
        <ele>47</ele>
        <time>2018-04-14T09:49:41Z</time>
      </trkpt>
      <trkpt lat="47.6106" lon="-2.83413">
        <ele>47</ele>
        <time>2018-04-14T09:49:44Z</time>
      </trkpt>
      <trkpt lat="47.61064" lon="-2.83416">
        <ele>47</ele>
        <time>2018-04-14T09:49:46Z</time>
      </trkpt>
      <trkpt lat="47.61068" lon="-2.83423">
        <ele>46</ele>
        <time>2018-04-14T09:49:49Z</time>
      </trkpt>
      <trkpt lat="47.61072" lon="-2.83427">
        <ele>47</ele>
        <time>2018-04-14T09:49:51Z</time>
      </trkpt>
      <trkpt lat="47.61075" lon="-2.83432">
        <ele>45</ele>
        <time>2018-04-14T09:49:54Z</time>
      </trkpt>
      <trkpt lat="47.6108" lon="-2.83439">
        <ele>45</ele>
        <time>2018-04-14T09:49:57Z</time>
      </trkpt>
      <trkpt lat="47.61085" lon="-2.83444">
        <ele>46</ele>
        <time>2018-04-14T09:50:00Z</time>
      </trkpt>
      <trkpt lat="47.61088" lon="-2.83448">
        <ele>47</ele>
        <time>2018-04-14T09:50:02Z</time>
      </trkpt>
      <trkpt lat="47.61092" lon="-2.83455">
        <ele>46</ele>
        <time>2018-04-14T09:50:05Z</time>
      </trkpt>
      <trkpt lat="47.61097" lon="-2.8346">
        <ele>48</ele>
        <time>2018-04-14T09:50:08Z</time>
      </trkpt>
      <trkpt lat="47.61101" lon="-2.83467">
        <ele>48</ele>
        <time>2018-04-14T09:50:11Z</time>
      </trkpt>
      <trkpt lat="47.61106" lon="-2.83473">
        <ele>49</ele>
        <time>2018-04-14T09:50:14Z</time>
      </trkpt>
      <trkpt lat="47.61112" lon="-2.83483">
        <ele>48</ele>
        <time>2018-04-14T09:50:18Z</time>
      </trkpt>
      <trkpt lat="47.61116" lon="-2.83491">
        <ele>47</ele>
        <time>2018-04-14T09:50:21Z</time>
      </trkpt>
      <trkpt lat="47.61122" lon="-2.835">
        <ele>49</ele>
        <time>2018-04-14T09:50:24Z</time>
      </trkpt>
      <trkpt lat="47.61124" lon="-2.83506">
        <ele>48</ele>
        <time>2018-04-14T09:50:26Z</time>
      </trkpt>
      <trkpt lat="47.61128" lon="-2.83512">
        <ele>48</ele>
        <time>2018-04-14T09:50:30Z</time>
      </trkpt>
      <trkpt lat="47.61133" lon="-2.83517">
        <ele>48</ele>
        <time>2018-04-14T09:50:31Z</time>
      </trkpt>
      <trkpt lat="47.61137" lon="-2.83524">
        <ele>49</ele>
        <time>2018-04-14T09:50:34Z</time>
      </trkpt>
      <trkpt lat="47.61142" lon="-2.83531">
        <ele>46</ele>
        <time>2018-04-14T09:50:37Z</time>
      </trkpt>
      <trkpt lat="47.61145" lon="-2.83535">
        <ele>45</ele>
        <time>2018-04-14T09:50:39Z</time>
      </trkpt>
      <trkpt lat="47.61149" lon="-2.83539">
        <ele>47</ele>
        <time>2018-04-14T09:50:41Z</time>
      </trkpt>
      <trkpt lat="47.61152" lon="-2.83546">
        <ele>46</ele>
        <time>2018-04-14T09:50:43Z</time>
      </trkpt>
      <trkpt lat="47.61155" lon="-2.83551">
        <ele>45</ele>
        <time>2018-04-14T09:50:45Z</time>
      </trkpt>
      <trkpt lat="47.61161" lon="-2.83556">
        <ele>45</ele>
        <time>2018-04-14T09:50:48Z</time>
      </trkpt>
      <trkpt lat="47.61163" lon="-2.83558">
        <ele>45</ele>
        <time>2018-04-14T09:50:49Z</time>
      </trkpt>
      <trkpt lat="47.6117" lon="-2.83564">
        <ele>46</ele>
        <time>2018-04-14T09:50:52Z</time>
      </trkpt>
      <trkpt lat="47.61175" lon="-2.83572">
        <ele>44</ele>
        <time>2018-04-14T09:50:56Z</time>
      </trkpt>
      <trkpt lat="47.61178" lon="-2.83579">
        <ele>43</ele>
        <time>2018-04-14T09:51:00Z</time>
      </trkpt>
      <trkpt lat="47.61181" lon="-2.83585">
        <ele>43</ele>
        <time>2018-04-14T09:51:02Z</time>
      </trkpt>
      <trkpt lat="47.61191" lon="-2.83602">
        <ele>44</ele>
        <time>2018-04-14T09:51:07Z</time>
      </trkpt>
      <trkpt lat="47.61195" lon="-2.83608">
        <ele>42</ele>
        <time>2018-04-14T09:51:10Z</time>
      </trkpt>
      <trkpt lat="47.61203" lon="-2.83618">
        <ele>42</ele>
        <time>2018-04-14T09:51:16Z</time>
      </trkpt>
      <trkpt lat="47.61206" lon="-2.83626">
        <ele>39</ele>
        <time>2018-04-14T09:51:20Z</time>
      </trkpt>
      <trkpt lat="47.61215" lon="-2.83641">
        <ele>39</ele>
        <time>2018-04-14T09:51:24Z</time>
      </trkpt>
      <trkpt lat="47.61222" lon="-2.83646">
        <ele>36</ele>
        <time>2018-04-14T09:51:29Z</time>
      </trkpt>
      <trkpt lat="47.61225" lon="-2.83647">
        <ele>38</ele>
        <time>2018-04-14T09:51:31Z</time>
      </trkpt>
      <trkpt lat="47.6123" lon="-2.83647">
        <ele>33</ele>
        <time>2018-04-14T09:51:35Z</time>
      </trkpt>
      <trkpt lat="47.61236" lon="-2.83647">
        <ele>38</ele>
        <time>2018-04-14T09:51:38Z</time>
      </trkpt>
      <trkpt lat="47.61243" lon="-2.83652">
        <ele>39</ele>
        <time>2018-04-14T09:51:42Z</time>
      </trkpt>
      <trkpt lat="47.6125" lon="-2.8366">
        <ele>40</ele>
        <time>2018-04-14T09:51:46Z</time>
      </trkpt>
      <trkpt lat="47.61251" lon="-2.83663">
        <ele>41</ele>
        <time>2018-04-14T09:51:48Z</time>
      </trkpt>
      <trkpt lat="47.61254" lon="-2.83667">
        <ele>41</ele>
        <time>2018-04-14T09:51:52Z</time>
      </trkpt>
      <trkpt lat="47.61258" lon="-2.83675">
        <ele>43</ele>
        <time>2018-04-14T09:51:57Z</time>
      </trkpt>
      <trkpt lat="47.6126" lon="-2.83678">
        <ele>42</ele>
        <time>2018-04-14T09:51:59Z</time>
      </trkpt>
      <trkpt lat="47.61264" lon="-2.83683">
        <ele>41</ele>
        <time>2018-04-14T09:52:03Z</time>
      </trkpt>
      <trkpt lat="47.61267" lon="-2.83688">
        <ele>43</ele>
        <time>2018-04-14T09:52:05Z</time>
      </trkpt>
      <trkpt lat="47.61272" lon="-2.83694">
        <ele>45</ele>
        <time>2018-04-14T09:52:08Z</time>
      </trkpt>
      <trkpt lat="47.61275" lon="-2.83699">
        <ele>45</ele>
        <time>2018-04-14T09:52:10Z</time>
      </trkpt>
      <trkpt lat="47.61278" lon="-2.83704">
        <ele>46</ele>
        <time>2018-04-14T09:52:12Z</time>
      </trkpt>
      <trkpt lat="47.61282" lon="-2.83709">
        <ele>48</ele>
        <time>2018-04-14T09:52:16Z</time>
      </trkpt>
      <trkpt lat="47.61287" lon="-2.83717">
        <ele>47</ele>
        <time>2018-04-14T09:52:19Z</time>
      </trkpt>
      <trkpt lat="47.61293" lon="-2.83723">
        <ele>46</ele>
        <time>2018-04-14T09:52:23Z</time>
      </trkpt>
      <trkpt lat="47.61298" lon="-2.8373">
        <ele>46</ele>
        <time>2018-04-14T09:52:26Z</time>
      </trkpt>
      <trkpt lat="47.61301" lon="-2.83734">
        <ele>48</ele>
        <time>2018-04-14T09:52:28Z</time>
      </trkpt>
      <trkpt lat="47.61305" lon="-2.8374">
        <ele>49</ele>
        <time>2018-04-14T09:52:31Z</time>
      </trkpt>
      <trkpt lat="47.61307" lon="-2.83746">
        <ele>47</ele>
        <time>2018-04-14T09:52:34Z</time>
      </trkpt>
      <trkpt lat="47.61311" lon="-2.83753">
        <ele>44</ele>
        <time>2018-04-14T09:52:39Z</time>
      </trkpt>
      <trkpt lat="47.61315" lon="-2.83762">
        <ele>45</ele>
        <time>2018-04-14T09:52:42Z</time>
      </trkpt>
      <trkpt lat="47.61319" lon="-2.83767">
        <ele>45</ele>
        <time>2018-04-14T09:52:45Z</time>
      </trkpt>
      <trkpt lat="47.61323" lon="-2.83774">
        <ele>45</ele>
        <time>2018-04-14T09:52:48Z</time>
      </trkpt>
      <trkpt lat="47.6133" lon="-2.83778">
        <ele>47</ele>
        <time>2018-04-14T09:52:52Z</time>
      </trkpt>
      <trkpt lat="47.61335" lon="-2.83781">
        <ele>48</ele>
        <time>2018-04-14T09:52:56Z</time>
      </trkpt>
      <trkpt lat="47.61338" lon="-2.83787">
        <ele>47</ele>
        <time>2018-04-14T09:52:58Z</time>
      </trkpt>
      <trkpt lat="47.61341" lon="-2.83795">
        <ele>48</ele>
        <time>2018-04-14T09:53:01Z</time>
      </trkpt>
      <trkpt lat="47.61344" lon="-2.838">
        <ele>48</ele>
        <time>2018-04-14T09:53:04Z</time>
      </trkpt>
      <trkpt lat="47.61348" lon="-2.83804">
        <ele>46</ele>
        <time>2018-04-14T09:53:08Z</time>
      </trkpt>
      <trkpt lat="47.61351" lon="-2.83807">
        <ele>45</ele>
        <time>2018-04-14T09:53:11Z</time>
      </trkpt>
      <trkpt lat="47.61356" lon="-2.8381">
        <ele>46</ele>
        <time>2018-04-14T09:53:15Z</time>
      </trkpt>
      <trkpt lat="47.61361" lon="-2.83815">
        <ele>46</ele>
        <time>2018-04-14T09:53:19Z</time>
      </trkpt>
      <trkpt lat="47.61366" lon="-2.83819">
        <ele>45</ele>
        <time>2018-04-14T09:53:23Z</time>
      </trkpt>
      <trkpt lat="47.61368" lon="-2.83821">
        <ele>44</ele>
        <time>2018-04-14T09:53:25Z</time>
      </trkpt>
      <trkpt lat="47.61372" lon="-2.83826">
        <ele>44</ele>
        <time>2018-04-14T09:53:29Z</time>
      </trkpt>
      <trkpt lat="47.61375" lon="-2.8383">
        <ele>45</ele>
        <time>2018-04-14T09:53:31Z</time>
      </trkpt>
      <trkpt lat="47.61378" lon="-2.83833">
        <ele>46</ele>
        <time>2018-04-14T09:53:33Z</time>
      </trkpt>
      <trkpt lat="47.61382" lon="-2.8384">
        <ele>46</ele>
        <time>2018-04-14T09:53:36Z</time>
      </trkpt>
      <trkpt lat="47.61384" lon="-2.83843">
        <ele>44</ele>
        <time>2018-04-14T09:53:38Z</time>
      </trkpt>
      <trkpt lat="47.61387" lon="-2.83848">
        <ele>44</ele>
        <time>2018-04-14T09:53:41Z</time>
      </trkpt>
      <trkpt lat="47.61388" lon="-2.8385">
        <ele>44</ele>
        <time>2018-04-14T09:53:42Z</time>
      </trkpt>
      <trkpt lat="47.61394" lon="-2.83857">
        <ele>45</ele>
        <time>2018-04-14T09:53:47Z</time>
      </trkpt>
      <trkpt lat="47.61398" lon="-2.83861">
        <ele>44</ele>
        <time>2018-04-14T09:53:52Z</time>
      </trkpt>
      <trkpt lat="47.61403" lon="-2.83866">
        <ele>43</ele>
        <time>2018-04-14T09:53:56Z</time>
      </trkpt>
      <trkpt lat="47.61407" lon="-2.8387">
        <ele>45</ele>
        <time>2018-04-14T09:54:01Z</time>
      </trkpt>
      <trkpt lat="47.61412" lon="-2.83874">
        <ele>44</ele>
        <time>2018-04-14T09:54:05Z</time>
      </trkpt>
      <trkpt lat="47.61416" lon="-2.83877">
        <ele>44</ele>
        <time>2018-04-14T09:54:08Z</time>
      </trkpt>
      <trkpt lat="47.61419" lon="-2.83879">
        <ele>42</ele>
        <time>2018-04-14T09:54:11Z</time>
      </trkpt>
      <trkpt lat="47.61425" lon="-2.83887">
        <ele>41</ele>
        <time>2018-04-14T09:54:15Z</time>
      </trkpt>
      <trkpt lat="47.61427" lon="-2.83891">
        <ele>42</ele>
        <time>2018-04-14T09:54:17Z</time>
      </trkpt>
      <trkpt lat="47.6143" lon="-2.83895">
        <ele>41</ele>
        <time>2018-04-14T09:54:20Z</time>
      </trkpt>
      <trkpt lat="47.61433" lon="-2.83898">
        <ele>40</ele>
        <time>2018-04-14T09:54:22Z</time>
      </trkpt>
      <trkpt lat="47.61438" lon="-2.83904">
        <ele>40</ele>
        <time>2018-04-14T09:54:25Z</time>
      </trkpt>
      <trkpt lat="47.61442" lon="-2.8391">
        <ele>40</ele>
        <time>2018-04-14T09:54:28Z</time>
      </trkpt>
      <trkpt lat="47.61445" lon="-2.83916">
        <ele>41</ele>
        <time>2018-04-14T09:54:31Z</time>
      </trkpt>
      <trkpt lat="47.61447" lon="-2.83922">
        <ele>42</ele>
        <time>2018-04-14T09:54:33Z</time>
      </trkpt>
      <trkpt lat="47.61451" lon="-2.83927">
        <ele>42</ele>
        <time>2018-04-14T09:54:37Z</time>
      </trkpt>
      <trkpt lat="47.61453" lon="-2.83929">
        <ele>42</ele>
        <time>2018-04-14T09:54:39Z</time>
      </trkpt>
      <trkpt lat="47.61455" lon="-2.83931">
        <ele>41</ele>
        <time>2018-04-14T09:54:41Z</time>
      </trkpt>
      <trkpt lat="47.61459" lon="-2.83934">
        <ele>40</ele>
        <time>2018-04-14T09:54:44Z</time>
      </trkpt>
      <trkpt lat="47.61465" lon="-2.83942">
        <ele>39</ele>
        <time>2018-04-14T09:54:49Z</time>
      </trkpt>
      <trkpt lat="47.61468" lon="-2.83948">
        <ele>41</ele>
        <time>2018-04-14T09:54:51Z</time>
      </trkpt>
      <trkpt lat="47.61471" lon="-2.83956">
        <ele>42</ele>
        <time>2018-04-14T09:54:54Z</time>
      </trkpt>
      <trkpt lat="47.61474" lon="-2.83961">
        <ele>41</ele>
        <time>2018-04-14T09:54:57Z</time>
      </trkpt>
      <trkpt lat="47.61478" lon="-2.83971">
        <ele>42</ele>
        <time>2018-04-14T09:55:01Z</time>
      </trkpt>
      <trkpt lat="47.61482" lon="-2.83975">
        <ele>40</ele>
        <time>2018-04-14T09:55:05Z</time>
      </trkpt>
      <trkpt lat="47.61486" lon="-2.83982">
        <ele>41</ele>
        <time>2018-04-14T09:55:08Z</time>
      </trkpt>
      <trkpt lat="47.61491" lon="-2.83987">
        <ele>44</ele>
        <time>2018-04-14T09:55:11Z</time>
      </trkpt>
      <trkpt lat="47.61494" lon="-2.83992">
        <ele>44</ele>
        <time>2018-04-14T09:55:14Z</time>
      </trkpt>
      <trkpt lat="47.61498" lon="-2.83996">
        <ele>44</ele>
        <time>2018-04-14T09:55:18Z</time>
      </trkpt>
      <trkpt lat="47.61501" lon="-2.84003">
        <ele>46</ele>
        <time>2018-04-14T09:55:20Z</time>
      </trkpt>
      <trkpt lat="47.61504" lon="-2.84009">
        <ele>47</ele>
        <time>2018-04-14T09:55:23Z</time>
      </trkpt>
      <trkpt lat="47.61508" lon="-2.84017">
        <ele>47</ele>
        <time>2018-04-14T09:55:26Z</time>
      </trkpt>
      <trkpt lat="47.61511" lon="-2.84022">
        <ele>48</ele>
        <time>2018-04-14T09:55:28Z</time>
      </trkpt>
      <trkpt lat="47.61513" lon="-2.84025">
        <ele>48</ele>
        <time>2018-04-14T09:55:29Z</time>
      </trkpt>
      <trkpt lat="47.61516" lon="-2.8403">
        <ele>49</ele>
        <time>2018-04-14T09:55:32Z</time>
      </trkpt>
      <trkpt lat="47.6152" lon="-2.84034">
        <ele>50</ele>
        <time>2018-04-14T09:55:35Z</time>
      </trkpt>
      <trkpt lat="47.61523" lon="-2.84037">
        <ele>49</ele>
        <time>2018-04-14T09:55:37Z</time>
      </trkpt>
      <trkpt lat="47.61526" lon="-2.84043">
        <ele>48</ele>
        <time>2018-04-14T09:55:40Z</time>
      </trkpt>
      <trkpt lat="47.61528" lon="-2.84049">
        <ele>49</ele>
        <time>2018-04-14T09:55:42Z</time>
      </trkpt>
      <trkpt lat="47.61532" lon="-2.84055">
        <ele>50</ele>
        <time>2018-04-14T09:55:44Z</time>
      </trkpt>
      <trkpt lat="47.61534" lon="-2.8406">
        <ele>51</ele>
        <time>2018-04-14T09:55:46Z</time>
      </trkpt>
      <trkpt lat="47.61537" lon="-2.84065">
        <ele>49</ele>
        <time>2018-04-14T09:55:48Z</time>
      </trkpt>
      <trkpt lat="47.61539" lon="-2.8407">
        <ele>49</ele>
        <time>2018-04-14T09:55:51Z</time>
      </trkpt>
      <trkpt lat="47.61542" lon="-2.84076">
        <ele>50</ele>
        <time>2018-04-14T09:55:53Z</time>
      </trkpt>
      <trkpt lat="47.61546" lon="-2.84082">
        <ele>44</ele>
        <time>2018-04-14T09:55:58Z</time>
      </trkpt>
      <trkpt lat="47.6155" lon="-2.84089">
        <ele>45</ele>
        <time>2018-04-14T09:56:01Z</time>
      </trkpt>
      <trkpt lat="47.61552" lon="-2.84096">
        <ele>45</ele>
        <time>2018-04-14T09:56:04Z</time>
      </trkpt>
      <trkpt lat="47.61553" lon="-2.84099">
        <ele>46</ele>
        <time>2018-04-14T09:56:06Z</time>
      </trkpt>
      <trkpt lat="47.61554" lon="-2.84103">
        <ele>46</ele>
        <time>2018-04-14T09:56:08Z</time>
      </trkpt>
      <trkpt lat="47.61557" lon="-2.84109">
        <ele>46</ele>
        <time>2018-04-14T09:56:12Z</time>
      </trkpt>
      <trkpt lat="47.61561" lon="-2.84116">
        <ele>46</ele>
        <time>2018-04-14T09:56:15Z</time>
      </trkpt>
      <trkpt lat="47.61566" lon="-2.84121">
        <ele>47</ele>
        <time>2018-04-14T09:56:20Z</time>
      </trkpt>
      <trkpt lat="47.6157" lon="-2.84129">
        <ele>47</ele>
        <time>2018-04-14T09:56:24Z</time>
      </trkpt>
      <trkpt lat="47.61573" lon="-2.84135">
        <ele>47</ele>
        <time>2018-04-14T09:56:28Z</time>
      </trkpt>
      <trkpt lat="47.61575" lon="-2.84139">
        <ele>46</ele>
        <time>2018-04-14T09:56:31Z</time>
      </trkpt>
      <trkpt lat="47.61579" lon="-2.84149">
        <ele>46</ele>
        <time>2018-04-14T09:56:35Z</time>
      </trkpt>
      <trkpt lat="47.61581" lon="-2.84157">
        <ele>46</ele>
        <time>2018-04-14T09:56:38Z</time>
      </trkpt>
      <trkpt lat="47.61583" lon="-2.84163">
        <ele>48</ele>
        <time>2018-04-14T09:56:41Z</time>
      </trkpt>
      <trkpt lat="47.61588" lon="-2.84167">
        <ele>48</ele>
        <time>2018-04-14T09:56:46Z</time>
      </trkpt>
      <trkpt lat="47.61591" lon="-2.84174">
        <ele>50</ele>
        <time>2018-04-14T09:56:49Z</time>
      </trkpt>
      <trkpt lat="47.61594" lon="-2.84178">
        <ele>50</ele>
        <time>2018-04-14T09:56:51Z</time>
      </trkpt>
      <trkpt lat="47.61595" lon="-2.84181">
        <ele>51</ele>
        <time>2018-04-14T09:56:52Z</time>
      </trkpt>
      <trkpt lat="47.61599" lon="-2.84185">
        <ele>51</ele>
        <time>2018-04-14T09:56:57Z</time>
      </trkpt>
      <trkpt lat="47.61601" lon="-2.84193">
        <ele>51</ele>
        <time>2018-04-14T09:56:59Z</time>
      </trkpt>
      <trkpt lat="47.61605" lon="-2.84199">
        <ele>49</ele>
        <time>2018-04-14T09:57:03Z</time>
      </trkpt>
      <trkpt lat="47.61609" lon="-2.84209">
        <ele>48</ele>
        <time>2018-04-14T09:57:07Z</time>
      </trkpt>
      <trkpt lat="47.61611" lon="-2.84218">
        <ele>47</ele>
        <time>2018-04-14T09:57:10Z</time>
      </trkpt>
      <trkpt lat="47.61614" lon="-2.84224">
        <ele>47</ele>
        <time>2018-04-14T09:57:13Z</time>
      </trkpt>
      <trkpt lat="47.61616" lon="-2.8423">
        <ele>44</ele>
        <time>2018-04-14T09:57:16Z</time>
      </trkpt>
      <trkpt lat="47.61618" lon="-2.84236">
        <ele>47</ele>
        <time>2018-04-14T09:57:18Z</time>
      </trkpt>
      <trkpt lat="47.61621" lon="-2.84242">
        <ele>48</ele>
        <time>2018-04-14T09:57:22Z</time>
      </trkpt>
      <trkpt lat="47.61624" lon="-2.84248">
        <ele>46</ele>
        <time>2018-04-14T09:57:25Z</time>
      </trkpt>
      <trkpt lat="47.61626" lon="-2.84253">
        <ele>46</ele>
        <time>2018-04-14T09:57:27Z</time>
      </trkpt>
      <trkpt lat="47.6163" lon="-2.84258">
        <ele>48</ele>
        <time>2018-04-14T09:57:30Z</time>
      </trkpt>
      <trkpt lat="47.61632" lon="-2.84265">
        <ele>48</ele>
        <time>2018-04-14T09:57:33Z</time>
      </trkpt>
      <trkpt lat="47.61635" lon="-2.84274">
        <ele>49</ele>
        <time>2018-04-14T09:57:36Z</time>
      </trkpt>
      <trkpt lat="47.61639" lon="-2.84281">
        <ele>48</ele>
        <time>2018-04-14T09:57:41Z</time>
      </trkpt>
      <trkpt lat="47.61642" lon="-2.84289">
        <ele>47</ele>
        <time>2018-04-14T09:57:44Z</time>
      </trkpt>
      <trkpt lat="47.61643" lon="-2.84293">
        <ele>47</ele>
        <time>2018-04-14T09:57:46Z</time>
      </trkpt>
      <trkpt lat="47.61644" lon="-2.84296">
        <ele>46</ele>
        <time>2018-04-14T09:57:47Z</time>
      </trkpt>
      <trkpt lat="47.61648" lon="-2.84302">
        <ele>43</ele>
        <time>2018-04-14T09:57:50Z</time>
      </trkpt>
      <trkpt lat="47.61649" lon="-2.84309">
        <ele>46</ele>
        <time>2018-04-14T09:57:53Z</time>
      </trkpt>
      <trkpt lat="47.61651" lon="-2.84317">
        <ele>48</ele>
        <time>2018-04-14T09:57:56Z</time>
      </trkpt>
      <trkpt lat="47.61654" lon="-2.84325">
        <ele>47</ele>
        <time>2018-04-14T09:57:59Z</time>
      </trkpt>
      <trkpt lat="47.61658" lon="-2.84328">
        <ele>46</ele>
        <time>2018-04-14T09:58:02Z</time>
      </trkpt>
      <trkpt lat="47.61661" lon="-2.84334">
        <ele>45</ele>
        <time>2018-04-14T09:58:05Z</time>
      </trkpt>
      <trkpt lat="47.61663" lon="-2.84342">
        <ele>46</ele>
        <time>2018-04-14T09:58:08Z</time>
      </trkpt>
      <trkpt lat="47.61664" lon="-2.84348">
        <ele>47</ele>
        <time>2018-04-14T09:58:10Z</time>
      </trkpt>
      <trkpt lat="47.61668" lon="-2.84357">
        <ele>45</ele>
        <time>2018-04-14T09:58:13Z</time>
      </trkpt>
      <trkpt lat="47.61672" lon="-2.84367">
        <ele>46</ele>
        <time>2018-04-14T09:58:16Z</time>
      </trkpt>
      <trkpt lat="47.61673" lon="-2.84371">
        <ele>46</ele>
        <time>2018-04-14T09:58:18Z</time>
      </trkpt>
      <trkpt lat="47.61676" lon="-2.84377">
        <ele>46</ele>
        <time>2018-04-14T09:58:21Z</time>
      </trkpt>
      <trkpt lat="47.61678" lon="-2.84382">
        <ele>45</ele>
        <time>2018-04-14T09:58:23Z</time>
      </trkpt>
      <trkpt lat="47.6168" lon="-2.84388">
        <ele>45</ele>
        <time>2018-04-14T09:58:26Z</time>
      </trkpt>
      <trkpt lat="47.61682" lon="-2.84394">
        <ele>45</ele>
        <time>2018-04-14T09:58:29Z</time>
      </trkpt>
      <trkpt lat="47.61684" lon="-2.84399">
        <ele>47</ele>
        <time>2018-04-14T09:58:31Z</time>
      </trkpt>
      <trkpt lat="47.61687" lon="-2.84408">
        <ele>47</ele>
        <time>2018-04-14T09:58:34Z</time>
      </trkpt>
      <trkpt lat="47.61689" lon="-2.84416">
        <ele>46</ele>
        <time>2018-04-14T09:58:37Z</time>
      </trkpt>
      <trkpt lat="47.61691" lon="-2.84421">
        <ele>45</ele>
        <time>2018-04-14T09:58:39Z</time>
      </trkpt>
      <trkpt lat="47.61693" lon="-2.84425">
        <ele>46</ele>
        <time>2018-04-14T09:58:40Z</time>
      </trkpt>
      <trkpt lat="47.61694" lon="-2.84429">
        <ele>47</ele>
        <time>2018-04-14T09:58:42Z</time>
      </trkpt>
      <trkpt lat="47.61696" lon="-2.84435">
        <ele>47</ele>
        <time>2018-04-14T09:58:45Z</time>
      </trkpt>
      <trkpt lat="47.61699" lon="-2.84441">
        <ele>49</ele>
        <time>2018-04-14T09:58:48Z</time>
      </trkpt>
      <trkpt lat="47.61701" lon="-2.84447">
        <ele>49</ele>
        <time>2018-04-14T09:58:50Z</time>
      </trkpt>
      <trkpt lat="47.61706" lon="-2.84456">
        <ele>48</ele>
        <time>2018-04-14T09:58:55Z</time>
      </trkpt>
      <trkpt lat="47.61708" lon="-2.8446">
        <ele>49</ele>
        <time>2018-04-14T09:58:57Z</time>
      </trkpt>
      <trkpt lat="47.6171" lon="-2.84467">
        <ele>49</ele>
        <time>2018-04-14T09:59:00Z</time>
      </trkpt>
      <trkpt lat="47.61711" lon="-2.84472">
        <ele>49</ele>
        <time>2018-04-14T09:59:02Z</time>
      </trkpt>
      <trkpt lat="47.61713" lon="-2.84479">
        <ele>49</ele>
        <time>2018-04-14T09:59:06Z</time>
      </trkpt>
      <trkpt lat="47.61715" lon="-2.84486">
        <ele>49</ele>
        <time>2018-04-14T09:59:09Z</time>
      </trkpt>
      <trkpt lat="47.61716" lon="-2.84491">
        <ele>50</ele>
        <time>2018-04-14T09:59:11Z</time>
      </trkpt>
      <trkpt lat="47.61717" lon="-2.84498">
        <ele>48</ele>
        <time>2018-04-14T09:59:14Z</time>
      </trkpt>
      <trkpt lat="47.6172" lon="-2.84504">
        <ele>49</ele>
        <time>2018-04-14T09:59:17Z</time>
      </trkpt>
      <trkpt lat="47.61723" lon="-2.84511">
        <ele>50</ele>
        <time>2018-04-14T09:59:20Z</time>
      </trkpt>
      <trkpt lat="47.61726" lon="-2.84518">
        <ele>49</ele>
        <time>2018-04-14T09:59:23Z</time>
      </trkpt>
      <trkpt lat="47.61728" lon="-2.84524">
        <ele>49</ele>
        <time>2018-04-14T09:59:26Z</time>
      </trkpt>
      <trkpt lat="47.6173" lon="-2.84529">
        <ele>51</ele>
        <time>2018-04-14T09:59:29Z</time>
      </trkpt>
      <trkpt lat="47.61731" lon="-2.84534">
        <ele>50</ele>
        <time>2018-04-14T09:59:32Z</time>
      </trkpt>
      <trkpt lat="47.61733" lon="-2.84537">
        <ele>51</ele>
        <time>2018-04-14T09:59:34Z</time>
      </trkpt>
      <trkpt lat="47.61734" lon="-2.84541">
        <ele>52</ele>
        <time>2018-04-14T09:59:37Z</time>
      </trkpt>
      <trkpt lat="47.61735" lon="-2.8455">
        <ele>49</ele>
        <time>2018-04-14T09:59:45Z</time>
      </trkpt>
      <trkpt lat="47.61735" lon="-2.8455">
        <time>2018-04-14T09:59:52Z</time>
      </trkpt>
      <trkpt lat="47.61735" lon="-2.8455">
        <time>2018-04-14T09:59:59Z</time>
      </trkpt>
      <trkpt lat="47.61738" lon="-2.84563">
        <ele>47</ele>
        <time>2018-04-14T09:59:59Z</time>
      </trkpt>
      <trkpt lat="47.61741" lon="-2.84569">
        <ele>47</ele>
        <time>2018-04-14T10:00:06Z</time>
      </trkpt>
      <trkpt lat="47.61741" lon="-2.84569">
        <ele>3</ele>
        <time>2018-04-14T10:00:13Z</time>
      </trkpt>
      <trkpt lat="47.61741" lon="-2.84569">
        <ele>3</ele>
        <time>2018-04-14T10:03:03Z</time>
      </trkpt>
      <trkpt lat="47.61762" lon="-2.84568">
        <ele>45</ele>
        <time>2018-04-14T10:03:03Z</time>
      </trkpt>
      <trkpt lat="47.61768" lon="-2.84569">
        <ele>45</ele>
        <time>2018-04-14T10:03:08Z</time>
      </trkpt>
      <trkpt lat="47.61773" lon="-2.84571">
        <ele>45</ele>
        <time>2018-04-14T10:03:13Z</time>
      </trkpt>
      <trkpt lat="47.61779" lon="-2.84568">
        <ele>45</ele>
        <time>2018-04-14T10:03:19Z</time>
      </trkpt>
      <trkpt lat="47.61782" lon="-2.84567">
        <ele>48</ele>
        <time>2018-04-14T10:03:23Z</time>
      </trkpt>
      <trkpt lat="47.61787" lon="-2.84568">
        <ele>47</ele>
        <time>2018-04-14T10:03:27Z</time>
      </trkpt>
      <trkpt lat="47.61787" lon="-2.84568">
        <ele>2.1</ele>
        <time>2018-04-14T10:03:35Z</time>
      </trkpt>
      <trkpt lat="47.61787" lon="-2.84568">
        <ele>2.1</ele>
        <time>2018-04-14T10:04:35Z</time>
      </trkpt>
      <trkpt lat="47.61811" lon="-2.84555">
        <ele>46</ele>
        <time>2018-04-14T10:04:35Z</time>
      </trkpt>
      <trkpt lat="47.61813" lon="-2.8455">
        <ele>47</ele>
        <time>2018-04-14T10:04:39Z</time>
      </trkpt>
      <trkpt lat="47.61815" lon="-2.84547">
        <ele>47</ele>
        <time>2018-04-14T10:04:42Z</time>
      </trkpt>
      <trkpt lat="47.61817" lon="-2.84543">
        <ele>48</ele>
        <time>2018-04-14T10:04:46Z</time>
      </trkpt>
      <trkpt lat="47.61819" lon="-2.8454">
        <ele>48</ele>
        <time>2018-04-14T10:04:49Z</time>
      </trkpt>
      <trkpt lat="47.61821" lon="-2.84536">
        <ele>48</ele>
        <time>2018-04-14T10:04:52Z</time>
      </trkpt>
      <trkpt lat="47.61823" lon="-2.84532">
        <ele>49</ele>
        <time>2018-04-14T10:04:55Z</time>
      </trkpt>
      <trkpt lat="47.61825" lon="-2.84525">
        <ele>49</ele>
        <time>2018-04-14T10:04:59Z</time>
      </trkpt>
      <trkpt lat="47.61827" lon="-2.84522">
        <ele>50</ele>
        <time>2018-04-14T10:05:01Z</time>
      </trkpt>
      <trkpt lat="47.61827" lon="-2.84515">
        <ele>50</ele>
        <time>2018-04-14T10:05:05Z</time>
      </trkpt>
      <trkpt lat="47.61827" lon="-2.84512">
        <ele>50</ele>
        <time>2018-04-14T10:05:07Z</time>
      </trkpt>
      <trkpt lat="47.61828" lon="-2.84508">
        <ele>50</ele>
        <time>2018-04-14T10:05:09Z</time>
      </trkpt>
      <trkpt lat="47.61828" lon="-2.84504">
        <ele>51</ele>
        <time>2018-04-14T10:05:11Z</time>
      </trkpt>
      <trkpt lat="47.61829" lon="-2.84496">
        <ele>51</ele>
        <time>2018-04-14T10:05:16Z</time>
      </trkpt>
      <trkpt lat="47.61829" lon="-2.84485">
        <ele>52</ele>
        <time>2018-04-14T10:05:21Z</time>
      </trkpt>
      <trkpt lat="47.6183" lon="-2.84477">
        <ele>52</ele>
        <time>2018-04-14T10:05:26Z</time>
      </trkpt>
      <trkpt lat="47.61832" lon="-2.84469">
        <ele>53</ele>
        <time>2018-04-14T10:05:29Z</time>
      </trkpt>
      <trkpt lat="47.61835" lon="-2.84464">
        <ele>53</ele>
        <time>2018-04-14T10:05:33Z</time>
      </trkpt>
      <trkpt lat="47.61838" lon="-2.84458">
        <ele>52</ele>
        <time>2018-04-14T10:05:37Z</time>
      </trkpt>
      <trkpt lat="47.61841" lon="-2.8445">
        <ele>51</ele>
        <time>2018-04-14T10:05:41Z</time>
      </trkpt>
      <trkpt lat="47.61842" lon="-2.84447">
        <ele>51</ele>
        <time>2018-04-14T10:05:44Z</time>
      </trkpt>
      <trkpt lat="47.61844" lon="-2.84444">
        <ele>52</ele>
        <time>2018-04-14T10:05:46Z</time>
      </trkpt>
      <trkpt lat="47.61847" lon="-2.84438">
        <ele>49</ele>
        <time>2018-04-14T10:05:52Z</time>
      </trkpt>
      <trkpt lat="47.61851" lon="-2.84432">
        <ele>48</ele>
        <time>2018-04-14T10:05:58Z</time>
      </trkpt>
      <trkpt lat="47.61856" lon="-2.84427">
        <ele>46</ele>
        <time>2018-04-14T10:06:03Z</time>
      </trkpt>
      <trkpt lat="47.61864" lon="-2.84425">
        <ele>52</ele>
        <time>2018-04-14T10:06:07Z</time>
      </trkpt>
      <trkpt lat="47.61868" lon="-2.84425">
        <ele>48</ele>
        <time>2018-04-14T10:06:11Z</time>
      </trkpt>
      <trkpt lat="47.61873" lon="-2.8442">
        <ele>52</ele>
        <time>2018-04-14T10:06:16Z</time>
      </trkpt>
      <trkpt lat="47.61877" lon="-2.84416">
        <ele>51</ele>
        <time>2018-04-14T10:06:19Z</time>
      </trkpt>
      <trkpt lat="47.61882" lon="-2.84421">
        <ele>50</ele>
        <time>2018-04-14T10:06:25Z</time>
      </trkpt>
      <trkpt lat="47.61889" lon="-2.8442">
        <ele>50</ele>
        <time>2018-04-14T10:06:30Z</time>
      </trkpt>
      <trkpt lat="47.61893" lon="-2.84428">
        <ele>42</ele>
        <time>2018-04-14T10:06:36Z</time>
      </trkpt>
      <trkpt lat="47.61898" lon="-2.84427">
        <ele>46</ele>
        <time>2018-04-14T10:06:38Z</time>
      </trkpt>
      <trkpt lat="47.61903" lon="-2.84432">
        <ele>48</ele>
        <time>2018-04-14T10:06:45Z</time>
      </trkpt>
      <trkpt lat="47.6191" lon="-2.8443">
        <ele>48</ele>
        <time>2018-04-14T10:06:50Z</time>
      </trkpt>
      <trkpt lat="47.61914" lon="-2.84426">
        <ele>50</ele>
        <time>2018-04-14T10:06:56Z</time>
      </trkpt>
      <trkpt lat="47.6192" lon="-2.84423">
        <ele>52</ele>
        <time>2018-04-14T10:07:00Z</time>
      </trkpt>
      <trkpt lat="47.61923" lon="-2.84419">
        <ele>55</ele>
        <time>2018-04-14T10:07:03Z</time>
      </trkpt>
      <trkpt lat="47.61927" lon="-2.84415">
        <ele>57</ele>
        <time>2018-04-14T10:07:06Z</time>
      </trkpt>
      <trkpt lat="47.61931" lon="-2.84412">
        <ele>59</ele>
        <time>2018-04-14T10:07:09Z</time>
      </trkpt>
      <trkpt lat="47.61934" lon="-2.84409">
        <ele>59</ele>
        <time>2018-04-14T10:07:13Z</time>
      </trkpt>
      <trkpt lat="47.61934" lon="-2.84409">
        <ele>10.4</ele>
        <time>2018-04-14T10:09:18Z</time>
      </trkpt>
      <trkpt lat="47.61934" lon="-2.84409">
        <ele>10.4</ele>
        <time>2018-04-14T10:09:25Z</time>
      </trkpt>
    </trkseg>
  </trk>
</gpx>